<?xml version="1.0" encoding="UTF-8" standalone="no" ?>
<gpx xmlns="http://www.topografix.com/GPX/1/1" xmlns:xsi="http://www.w3.org/2001/XMLSchema-instance" xsi:schemaLocation="http://www.topografix.com/GPX/1/1 http://www.topografix.com/GPX/1/1/gpx.xsd" version="1.1" creator="VisuGPX - https://www.visugpx.com">
  <metadata>
    <name>MB. Sortie du 01/09/2019</name>
    <desc><![CDATA[Sortie VTT du dimanche 01 septembre 2019]]></desc>
  </metadata>
  <trk>
    <name><![CDATA[Pornichet Cyclisme]]></name>
    <trkseg>
      <trkpt lat="47.26362" lon="-2.31655">
        <ele>8</ele>
        <time>2019-09-01T06:54:35.000Z</time>
      </trkpt>
      <trkpt lat="47.26352" lon="-2.31662">
        <ele>7.7</ele>
        <time>2019-09-01T06:54:38.000Z</time>
      </trkpt>
      <trkpt lat="47.26346" lon="-2.31663">
        <ele>-0.40000000596046</ele>
        <time>2019-09-01T06:54:39.000Z</time>
      </trkpt>
      <trkpt lat="47.26342" lon="-2.31666">
        <ele>-0.80000001192093</ele>
        <time>2019-09-01T06:54:40.000Z</time>
      </trkpt>
      <trkpt lat="47.26336" lon="-2.31668">
        <ele>-1.3999999761581</ele>
        <time>2019-09-01T06:54:41.000Z</time>
      </trkpt>
      <trkpt lat="47.2633" lon="-2.31671">
        <ele>-1.7999999523163</ele>
        <time>2019-09-01T06:54:42.000Z</time>
      </trkpt>
      <trkpt lat="47.2632" lon="-2.31678">
        <ele>-1.7999999523163</ele>
        <time>2019-09-01T06:54:44.000Z</time>
      </trkpt>
      <trkpt lat="47.26314" lon="-2.31681">
        <ele>-1.7999999523163</ele>
        <time>2019-09-01T06:54:45.000Z</time>
      </trkpt>
      <trkpt lat="47.26297" lon="-2.31688">
        <ele>-1.7999999523163</ele>
        <time>2019-09-01T06:54:48.000Z</time>
      </trkpt>
      <trkpt lat="47.26286" lon="-2.31693">
        <ele>-1.7999999523163</ele>
        <time>2019-09-01T06:54:50.000Z</time>
      </trkpt>
      <trkpt lat="47.26281" lon="-2.31696">
        <ele>-1.7999999523163</ele>
        <time>2019-09-01T06:54:51.000Z</time>
      </trkpt>
      <trkpt lat="47.26265" lon="-2.31704">
        <ele>-1.7999999523163</ele>
        <time>2019-09-01T06:54:54.000Z</time>
      </trkpt>
      <trkpt lat="47.26261" lon="-2.31706">
        <ele>-2</ele>
        <time>2019-09-01T06:54:55.000Z</time>
      </trkpt>
      <trkpt lat="47.26258" lon="-2.31711">
        <ele>-2</ele>
        <time>2019-09-01T06:54:56.000Z</time>
      </trkpt>
      <trkpt lat="47.26256" lon="-2.31716">
        <ele>-2.2000000476837</ele>
        <time>2019-09-01T06:54:57.000Z</time>
      </trkpt>
      <trkpt lat="47.26256" lon="-2.31722">
        <ele>-2.2000000476837</ele>
        <time>2019-09-01T06:54:58.000Z</time>
      </trkpt>
      <trkpt lat="47.26255" lon="-2.31728">
        <ele>-2.2000000476837</ele>
        <time>2019-09-01T06:54:59.000Z</time>
      </trkpt>
      <trkpt lat="47.26255" lon="-2.31735">
        <ele>-2.2000000476837</ele>
        <time>2019-09-01T06:55:00.000Z</time>
      </trkpt>
      <trkpt lat="47.26258" lon="-2.31759">
        <ele>-2.2000000476837</ele>
        <time>2019-09-01T06:55:04.000Z</time>
      </trkpt>
      <trkpt lat="47.2626" lon="-2.3178">
        <ele>-2.2000000476837</ele>
        <time>2019-09-01T06:55:07.000Z</time>
      </trkpt>
      <trkpt lat="47.2626" lon="-2.318">
        <ele>-2.2000000476837</ele>
        <time>2019-09-01T06:55:10.000Z</time>
      </trkpt>
      <trkpt lat="47.26258" lon="-2.31848">
        <ele>-2.2000000476837</ele>
        <time>2019-09-01T06:55:17.000Z</time>
      </trkpt>
      <trkpt lat="47.26256" lon="-2.31875">
        <ele>-2.2000000476837</ele>
        <time>2019-09-01T06:55:22.000Z</time>
      </trkpt>
      <trkpt lat="47.26253" lon="-2.3188">
        <ele>-2.5999999046326</ele>
        <time>2019-09-01T06:55:23.000Z</time>
      </trkpt>
      <trkpt lat="47.2625" lon="-2.31884">
        <ele>-3</ele>
        <time>2019-09-01T06:55:24.000Z</time>
      </trkpt>
      <trkpt lat="47.26247" lon="-2.31887">
        <ele>-3.4000000953674</ele>
        <time>2019-09-01T06:55:25.000Z</time>
      </trkpt>
      <trkpt lat="47.26243" lon="-2.31891">
        <ele>-4</ele>
        <time>2019-09-01T06:55:26.000Z</time>
      </trkpt>
      <trkpt lat="47.2624" lon="-2.31895">
        <ele>-4.4000000953674</ele>
        <time>2019-09-01T06:55:27.000Z</time>
      </trkpt>
      <trkpt lat="47.26231" lon="-2.31907">
        <ele>-4.4000000953674</ele>
        <time>2019-09-01T06:55:30.000Z</time>
      </trkpt>
      <trkpt lat="47.26214" lon="-2.3194">
        <ele>-4.4000000953674</ele>
        <time>2019-09-01T06:55:37.000Z</time>
      </trkpt>
      <trkpt lat="47.26204" lon="-2.31957">
        <ele>-4.4000000953674</ele>
        <time>2019-09-01T06:55:41.000Z</time>
      </trkpt>
      <trkpt lat="47.26201" lon="-2.31958">
        <ele>-4.4000000953674</ele>
        <time>2019-09-01T06:55:42.000Z</time>
      </trkpt>
      <trkpt lat="47.26196" lon="-2.31961">
        <ele>-4.4000000953674</ele>
        <time>2019-09-01T06:55:44.000Z</time>
      </trkpt>
      <trkpt lat="47.26192" lon="-2.31966">
        <ele>-4.4000000953674</ele>
        <time>2019-09-01T06:55:46.000Z</time>
      </trkpt>
      <trkpt lat="47.26175" lon="-2.3198">
        <ele>-4.4000000953674</ele>
        <time>2019-09-01T06:55:52.000Z</time>
      </trkpt>
      <trkpt lat="47.2617" lon="-2.31985">
        <ele>-4.4000000953674</ele>
        <time>2019-09-01T06:55:54.000Z</time>
      </trkpt>
      <trkpt lat="47.2617" lon="-2.31992">
        <ele>-4.4000000953674</ele>
        <time>2019-09-01T06:55:56.000Z</time>
      </trkpt>
      <trkpt lat="47.26166" lon="-2.32">
        <ele>-4.4000000953674</ele>
        <time>2019-09-01T06:55:59.000Z</time>
      </trkpt>
      <trkpt lat="47.26162" lon="-2.32001">
        <ele>-4.4000000953674</ele>
        <time>2019-09-01T06:56:01.000Z</time>
      </trkpt>
      <trkpt lat="47.26144" lon="-2.32007">
        <ele>-4.4000000953674</ele>
        <time>2019-09-01T06:56:07.000Z</time>
      </trkpt>
      <trkpt lat="47.26132" lon="-2.32015">
        <ele>-4.4000000953674</ele>
        <time>2019-09-01T06:56:10.000Z</time>
      </trkpt>
      <trkpt lat="47.26126" lon="-2.32025">
        <ele>-4.4000000953674</ele>
        <time>2019-09-01T06:56:11.000Z</time>
      </trkpt>
      <trkpt lat="47.26112" lon="-2.32069">
        <ele>-4.4000000953674</ele>
        <time>2019-09-01T06:56:19.000Z</time>
      </trkpt>
      <trkpt lat="47.26091" lon="-2.32131">
        <ele>-4.4000000953674</ele>
        <time>2019-09-01T06:56:28.000Z</time>
      </trkpt>
      <trkpt lat="47.26065" lon="-2.32194">
        <ele>-4.4000000953674</ele>
        <time>2019-09-01T06:56:38.000Z</time>
      </trkpt>
      <trkpt lat="47.26046" lon="-2.3222">
        <ele>-4.4000000953674</ele>
        <time>2019-09-01T06:56:43.000Z</time>
      </trkpt>
      <trkpt lat="47.26021" lon="-2.32248">
        <ele>-4.4000000953674</ele>
        <time>2019-09-01T06:56:49.000Z</time>
      </trkpt>
      <trkpt lat="47.25995" lon="-2.32278">
        <ele>-4.4000000953674</ele>
        <time>2019-09-01T06:56:55.000Z</time>
      </trkpt>
      <trkpt lat="47.25961" lon="-2.32322">
        <ele>-4.4000000953674</ele>
        <time>2019-09-01T06:57:03.000Z</time>
      </trkpt>
      <trkpt lat="47.25931" lon="-2.3236">
        <ele>-4.4000000953674</ele>
        <time>2019-09-01T06:57:10.000Z</time>
      </trkpt>
      <trkpt lat="47.25905" lon="-2.32392">
        <ele>-4.4000000953674</ele>
        <time>2019-09-01T06:57:16.000Z</time>
      </trkpt>
      <trkpt lat="47.25889" lon="-2.32413">
        <ele>-4.4000000953674</ele>
        <time>2019-09-01T06:57:20.000Z</time>
      </trkpt>
      <trkpt lat="47.25881" lon="-2.32423">
        <ele>-4.4000000953674</ele>
        <time>2019-09-01T06:57:22.000Z</time>
      </trkpt>
      <trkpt lat="47.25869" lon="-2.32438">
        <ele>-4.4000000953674</ele>
        <time>2019-09-01T06:57:25.000Z</time>
      </trkpt>
      <trkpt lat="47.25854" lon="-2.32453">
        <ele>-4.4000000953674</ele>
        <time>2019-09-01T06:57:29.000Z</time>
      </trkpt>
      <trkpt lat="47.25834" lon="-2.32461">
        <ele>-4.4000000953674</ele>
        <time>2019-09-01T06:57:33.000Z</time>
      </trkpt>
      <trkpt lat="47.25811" lon="-2.32465">
        <ele>-4.4000000953674</ele>
        <time>2019-09-01T06:57:38.000Z</time>
      </trkpt>
      <trkpt lat="47.25795" lon="-2.3246">
        <ele>-4.4000000953674</ele>
        <time>2019-09-01T06:57:41.000Z</time>
      </trkpt>
      <trkpt lat="47.25781" lon="-2.32453">
        <ele>-4.4000000953674</ele>
        <time>2019-09-01T06:57:44.000Z</time>
      </trkpt>
      <trkpt lat="47.25773" lon="-2.3245">
        <ele>-4.4000000953674</ele>
        <time>2019-09-01T06:57:46.000Z</time>
      </trkpt>
      <trkpt lat="47.25765" lon="-2.32456">
        <ele>-4.4000000953674</ele>
        <time>2019-09-01T06:57:48.000Z</time>
      </trkpt>
      <trkpt lat="47.25761" lon="-2.32456">
        <ele>-4.4000000953674</ele>
        <time>2019-09-01T06:57:49.000Z</time>
      </trkpt>
      <trkpt lat="47.25754" lon="-2.32454">
        <ele>-4.4000000953674</ele>
        <time>2019-09-01T06:57:51.000Z</time>
      </trkpt>
      <trkpt lat="47.25745" lon="-2.32444">
        <ele>-4.4000000953674</ele>
        <time>2019-09-01T06:57:54.000Z</time>
      </trkpt>
      <trkpt lat="47.25767" lon="-2.32429">
        <ele>-4.4000000953674</ele>
        <time>2019-09-01T06:57:55.000Z</time>
      </trkpt>
      <trkpt lat="47.25765" lon="-2.32417">
        <ele>-4.4000000953674</ele>
        <time>2019-09-01T06:57:57.000Z</time>
      </trkpt>
      <trkpt lat="47.25743" lon="-2.32439">
        <ele>-4.4000000953674</ele>
        <time>2019-09-01T06:57:59.000Z</time>
      </trkpt>
      <trkpt lat="47.25714" lon="-2.32423">
        <ele>-4.4000000953674</ele>
        <time>2019-09-01T06:58:02.000Z</time>
      </trkpt>
      <trkpt lat="47.25698" lon="-2.3242">
        <ele>-4.4000000953674</ele>
        <time>2019-09-01T06:58:06.000Z</time>
      </trkpt>
      <trkpt lat="47.25688" lon="-2.32421">
        <ele>-4.4000000953674</ele>
        <time>2019-09-01T06:58:08.000Z</time>
      </trkpt>
      <trkpt lat="47.25665" lon="-2.3242">
        <ele>-4.4000000953674</ele>
        <time>2019-09-01T06:58:14.000Z</time>
      </trkpt>
      <trkpt lat="47.25653" lon="-2.32432">
        <ele>-4.4000000953674</ele>
        <time>2019-09-01T06:58:19.000Z</time>
      </trkpt>
      <trkpt lat="47.25653" lon="-2.32439">
        <ele>-4.4000000953674</ele>
        <time>2019-09-01T06:58:20.000Z</time>
      </trkpt>
      <trkpt lat="47.25656" lon="-2.32452">
        <ele>-4.4000000953674</ele>
        <time>2019-09-01T06:58:22.000Z</time>
      </trkpt>
      <trkpt lat="47.25657" lon="-2.32459">
        <ele>-3.7999999523163</ele>
        <time>2019-09-01T06:58:23.000Z</time>
      </trkpt>
      <trkpt lat="47.25659" lon="-2.32465">
        <ele>-3.4000000953674</ele>
        <time>2019-09-01T06:58:24.000Z</time>
      </trkpt>
      <trkpt lat="47.25661" lon="-2.32471">
        <ele>-3</ele>
        <time>2019-09-01T06:58:25.000Z</time>
      </trkpt>
      <trkpt lat="47.25663" lon="-2.32477">
        <ele>-2.5999999046326</ele>
        <time>2019-09-01T06:58:26.000Z</time>
      </trkpt>
      <trkpt lat="47.25665" lon="-2.32483">
        <ele>-2.2000000476837</ele>
        <time>2019-09-01T06:58:27.000Z</time>
      </trkpt>
      <trkpt lat="47.25667" lon="-2.32489">
        <ele>-2.2000000476837</ele>
        <time>2019-09-01T06:58:28.000Z</time>
      </trkpt>
      <trkpt lat="47.25682" lon="-2.32531">
        <ele>-1.7999999523163</ele>
        <time>2019-09-01T06:58:35.000Z</time>
      </trkpt>
      <trkpt lat="47.25684" lon="-2.32536">
        <ele>-1.3999999761581</ele>
        <time>2019-09-01T06:58:36.000Z</time>
      </trkpt>
      <trkpt lat="47.25686" lon="-2.32542">
        <ele>-1</ele>
        <time>2019-09-01T06:58:37.000Z</time>
      </trkpt>
      <trkpt lat="47.25688" lon="-2.32548">
        <ele>-0.60000002384186</ele>
        <time>2019-09-01T06:58:38.000Z</time>
      </trkpt>
      <trkpt lat="47.2569" lon="-2.32554">
        <ele>-0.20000000298023</ele>
        <time>2019-09-01T06:58:39.000Z</time>
      </trkpt>
      <trkpt lat="47.25703" lon="-2.32594">
        <ele>-0.20000000298023</ele>
        <time>2019-09-01T06:58:46.000Z</time>
      </trkpt>
      <trkpt lat="47.25705" lon="-2.32613">
        <ele>-0.20000000298023</ele>
        <time>2019-09-01T06:58:49.000Z</time>
      </trkpt>
      <trkpt lat="47.25702" lon="-2.32623">
        <ele>-0.20000000298023</ele>
        <time>2019-09-01T06:58:51.000Z</time>
      </trkpt>
      <trkpt lat="47.25688" lon="-2.3263">
        <ele>-0.20000000298023</ele>
        <time>2019-09-01T06:58:54.000Z</time>
      </trkpt>
      <trkpt lat="47.25679" lon="-2.32634">
        <ele>-0.20000000298023</ele>
        <time>2019-09-01T06:58:56.000Z</time>
      </trkpt>
      <trkpt lat="47.25667" lon="-2.32642">
        <ele>0.20000000298023</ele>
        <time>2019-09-01T06:58:59.000Z</time>
      </trkpt>
      <trkpt lat="47.25663" lon="-2.32644">
        <ele>0.60000002384186</ele>
        <time>2019-09-01T06:59:00.000Z</time>
      </trkpt>
      <trkpt lat="47.25659" lon="-2.32646">
        <ele>1</ele>
        <time>2019-09-01T06:59:01.000Z</time>
      </trkpt>
      <trkpt lat="47.25654" lon="-2.32647">
        <ele>1.3999999761581</ele>
        <time>2019-09-01T06:59:02.000Z</time>
      </trkpt>
      <trkpt lat="47.2565" lon="-2.32649">
        <ele>1.7999999523163</ele>
        <time>2019-09-01T06:59:03.000Z</time>
      </trkpt>
      <trkpt lat="47.25629" lon="-2.32659">
        <ele>1.7999999523163</ele>
        <time>2019-09-01T06:59:08.000Z</time>
      </trkpt>
      <trkpt lat="47.25603" lon="-2.3267">
        <ele>2.2000000476837</ele>
        <time>2019-09-01T06:59:14.000Z</time>
      </trkpt>
      <trkpt lat="47.25599" lon="-2.32673">
        <ele>2.5999999046326</ele>
        <time>2019-09-01T06:59:15.000Z</time>
      </trkpt>
      <trkpt lat="47.25595" lon="-2.32675">
        <ele>3</ele>
        <time>2019-09-01T06:59:16.000Z</time>
      </trkpt>
      <trkpt lat="47.25591" lon="-2.32677">
        <ele>3.4000000953674</ele>
        <time>2019-09-01T06:59:17.000Z</time>
      </trkpt>
      <trkpt lat="47.25586" lon="-2.32679">
        <ele>3.7999999523163</ele>
        <time>2019-09-01T06:59:18.000Z</time>
      </trkpt>
      <trkpt lat="47.25571" lon="-2.32686">
        <ele>3.7999999523163</ele>
        <time>2019-09-01T06:59:21.000Z</time>
      </trkpt>
      <trkpt lat="47.25562" lon="-2.3269">
        <ele>3.7999999523163</ele>
        <time>2019-09-01T06:59:23.000Z</time>
      </trkpt>
      <trkpt lat="47.25552" lon="-2.32695">
        <ele>3.7999999523163</ele>
        <time>2019-09-01T06:59:25.000Z</time>
      </trkpt>
      <trkpt lat="47.25547" lon="-2.32697">
        <ele>3.7999999523163</ele>
        <time>2019-09-01T06:59:26.000Z</time>
      </trkpt>
      <trkpt lat="47.2552" lon="-2.32708">
        <ele>3.7999999523163</ele>
        <time>2019-09-01T06:59:31.000Z</time>
      </trkpt>
      <trkpt lat="47.25514" lon="-2.32708">
        <ele>3.7999999523163</ele>
        <time>2019-09-01T06:59:32.000Z</time>
      </trkpt>
      <trkpt lat="47.25485" lon="-2.3271">
        <ele>3.7999999523163</ele>
        <time>2019-09-01T06:59:37.000Z</time>
      </trkpt>
      <trkpt lat="47.2548" lon="-2.32713">
        <ele>3.7999999523163</ele>
        <time>2019-09-01T06:59:38.000Z</time>
      </trkpt>
      <trkpt lat="47.25466" lon="-2.32725">
        <ele>3.7999999523163</ele>
        <time>2019-09-01T06:59:41.000Z</time>
      </trkpt>
      <trkpt lat="47.25462" lon="-2.3273">
        <ele>3.7999999523163</ele>
        <time>2019-09-01T06:59:42.000Z</time>
      </trkpt>
      <trkpt lat="47.25437" lon="-2.32763">
        <ele>3.7999999523163</ele>
        <time>2019-09-01T06:59:48.000Z</time>
      </trkpt>
      <trkpt lat="47.25431" lon="-2.32775">
        <ele>3.7999999523163</ele>
        <time>2019-09-01T06:59:50.000Z</time>
      </trkpt>
      <trkpt lat="47.25428" lon="-2.32787">
        <ele>3.7999999523163</ele>
        <time>2019-09-01T06:59:52.000Z</time>
      </trkpt>
      <trkpt lat="47.25425" lon="-2.32792">
        <ele>3.7999999523163</ele>
        <time>2019-09-01T06:59:53.000Z</time>
      </trkpt>
      <trkpt lat="47.25418" lon="-2.32801">
        <ele>3.7999999523163</ele>
        <time>2019-09-01T06:59:55.000Z</time>
      </trkpt>
      <trkpt lat="47.25393" lon="-2.32836">
        <ele>3.7999999523163</ele>
        <time>2019-09-01T07:00:01.000Z</time>
      </trkpt>
      <trkpt lat="47.25386" lon="-2.32845">
        <ele>3.4000000953674</ele>
        <time>2019-09-01T07:00:03.000Z</time>
      </trkpt>
      <trkpt lat="47.25382" lon="-2.32849">
        <ele>3</ele>
        <time>2019-09-01T07:00:04.000Z</time>
      </trkpt>
      <trkpt lat="47.25378" lon="-2.32853">
        <ele>2.5999999046326</ele>
        <time>2019-09-01T07:00:05.000Z</time>
      </trkpt>
      <trkpt lat="47.25374" lon="-2.32859">
        <ele>2.2000000476837</ele>
        <time>2019-09-01T07:00:06.000Z</time>
      </trkpt>
      <trkpt lat="47.25372" lon="-2.32855">
        <ele>1.7999999523163</ele>
        <time>2019-09-01T07:00:07.000Z</time>
      </trkpt>
      <trkpt lat="47.25358" lon="-2.3287">
        <ele>1.7999999523163</ele>
        <time>2019-09-01T07:00:10.000Z</time>
      </trkpt>
      <trkpt lat="47.25319" lon="-2.3291">
        <ele>1.7999999523163</ele>
        <time>2019-09-01T07:00:18.000Z</time>
      </trkpt>
      <trkpt lat="47.25314" lon="-2.32914">
        <ele>1.7999999523163</ele>
        <time>2019-09-01T07:00:19.000Z</time>
      </trkpt>
      <trkpt lat="47.25307" lon="-2.32933">
        <ele>1.7999999523163</ele>
        <time>2019-09-01T07:00:22.000Z</time>
      </trkpt>
      <trkpt lat="47.25312" lon="-2.3296">
        <ele>1.7999999523163</ele>
        <time>2019-09-01T07:00:26.000Z</time>
      </trkpt>
      <trkpt lat="47.25317" lon="-2.32973">
        <ele>1.7999999523163</ele>
        <time>2019-09-01T07:00:28.000Z</time>
      </trkpt>
      <trkpt lat="47.25328" lon="-2.32999">
        <ele>1.7999999523163</ele>
        <time>2019-09-01T07:00:32.000Z</time>
      </trkpt>
      <trkpt lat="47.25346" lon="-2.33037">
        <ele>1.7999999523163</ele>
        <time>2019-09-01T07:00:38.000Z</time>
      </trkpt>
      <trkpt lat="47.25362" lon="-2.33076">
        <ele>1.7999999523163</ele>
        <time>2019-09-01T07:00:44.000Z</time>
      </trkpt>
      <trkpt lat="47.25369" lon="-2.33102">
        <ele>1.2000000476837</ele>
        <time>2019-09-01T07:00:49.000Z</time>
      </trkpt>
      <trkpt lat="47.2537" lon="-2.33104">
        <ele>0.80000001192093</ele>
        <time>2019-09-01T07:00:50.000Z</time>
      </trkpt>
      <trkpt lat="47.2537" lon="-2.33105">
        <ele>0.40000000596046</ele>
        <time>2019-09-01T07:00:51.000Z</time>
      </trkpt>
      <trkpt lat="47.25371" lon="-2.33106">
        <ele>8</ele>
        <time>2019-09-01T07:00:52.000Z</time>
      </trkpt>
      <trkpt lat="47.2537" lon="-2.33106">
        <ele>-0.40000000596046</ele>
        <time>2019-09-01T07:00:53.000Z</time>
      </trkpt>
      <trkpt lat="47.2537" lon="-2.33106">
        <ele>-0.40000000596046</ele>
        <time>2019-09-01T07:00:54.000Z</time>
      </trkpt>
      <trkpt lat="47.25369" lon="-2.33103">
        <ele>-0.40000000596046</ele>
        <time>2019-09-01T07:01:23.000Z</time>
      </trkpt>
      <trkpt lat="47.25369" lon="-2.33104">
        <ele>-0.40000000596046</ele>
        <time>2019-09-01T07:01:25.000Z</time>
      </trkpt>
      <trkpt lat="47.25367" lon="-2.331">
        <ele>-4.4000000953674</ele>
        <time>2019-09-01T07:09:47.000Z</time>
      </trkpt>
      <trkpt lat="47.25366" lon="-2.33096">
        <ele>-4.4000000953674</ele>
        <time>2019-09-01T07:09:48.000Z</time>
      </trkpt>
      <trkpt lat="47.25358" lon="-2.33074">
        <ele>-4.4000000953674</ele>
        <time>2019-09-01T07:09:53.000Z</time>
      </trkpt>
      <trkpt lat="47.25349" lon="-2.33046">
        <ele>-4.4000000953674</ele>
        <time>2019-09-01T07:09:59.000Z</time>
      </trkpt>
      <trkpt lat="47.2534" lon="-2.33022">
        <ele>-4.4000000953674</ele>
        <time>2019-09-01T07:10:05.000Z</time>
      </trkpt>
      <trkpt lat="47.25327" lon="-2.3299">
        <ele>-4.4000000953674</ele>
        <time>2019-09-01T07:10:12.000Z</time>
      </trkpt>
      <trkpt lat="47.25315" lon="-2.32956">
        <ele>-4.4000000953674</ele>
        <time>2019-09-01T07:10:19.000Z</time>
      </trkpt>
      <trkpt lat="47.25308" lon="-2.32941">
        <ele>-4.4000000953674</ele>
        <time>2019-09-01T07:10:22.000Z</time>
      </trkpt>
      <trkpt lat="47.25307" lon="-2.32928">
        <ele>-4.4000000953674</ele>
        <time>2019-09-01T07:10:24.000Z</time>
      </trkpt>
      <trkpt lat="47.25314" lon="-2.32914">
        <ele>-4.4000000953674</ele>
        <time>2019-09-01T07:10:27.000Z</time>
      </trkpt>
      <trkpt lat="47.25321" lon="-2.32907">
        <ele>-4.4000000953674</ele>
        <time>2019-09-01T07:10:29.000Z</time>
      </trkpt>
      <trkpt lat="47.25331" lon="-2.32898">
        <ele>-4.4000000953674</ele>
        <time>2019-09-01T07:10:32.000Z</time>
      </trkpt>
      <trkpt lat="47.25338" lon="-2.3288">
        <ele>-4.4000000953674</ele>
        <time>2019-09-01T07:10:36.000Z</time>
      </trkpt>
      <trkpt lat="47.25329" lon="-2.32856">
        <ele>-4.4000000953674</ele>
        <time>2019-09-01T07:10:40.000Z</time>
      </trkpt>
      <trkpt lat="47.25308" lon="-2.32812">
        <ele>-4.4000000953674</ele>
        <time>2019-09-01T07:10:47.000Z</time>
      </trkpt>
      <trkpt lat="47.25286" lon="-2.32767">
        <ele>-4.4000000953674</ele>
        <time>2019-09-01T07:10:55.000Z</time>
      </trkpt>
      <trkpt lat="47.25283" lon="-2.32762">
        <ele>-4</ele>
        <time>2019-09-01T07:10:56.000Z</time>
      </trkpt>
      <trkpt lat="47.2528" lon="-2.32757">
        <ele>-3.5999999046326</ele>
        <time>2019-09-01T07:10:57.000Z</time>
      </trkpt>
      <trkpt lat="47.25277" lon="-2.32752">
        <ele>-3.2000000476837</ele>
        <time>2019-09-01T07:10:58.000Z</time>
      </trkpt>
      <trkpt lat="47.25274" lon="-2.32747">
        <ele>-2.5999999046326</ele>
        <time>2019-09-01T07:10:59.000Z</time>
      </trkpt>
      <trkpt lat="47.25271" lon="-2.32743">
        <ele>-2.2000000476837</ele>
        <time>2019-09-01T07:11:00.000Z</time>
      </trkpt>
      <trkpt lat="47.25268" lon="-2.32738">
        <ele>-2.2000000476837</ele>
        <time>2019-09-01T07:11:01.000Z</time>
      </trkpt>
      <trkpt lat="47.25255" lon="-2.32724">
        <ele>-2.2000000476837</ele>
        <time>2019-09-01T07:11:05.000Z</time>
      </trkpt>
      <trkpt lat="47.25249" lon="-2.32717">
        <ele>-2.2000000476837</ele>
        <time>2019-09-01T07:11:07.000Z</time>
      </trkpt>
      <trkpt lat="47.2523" lon="-2.32696">
        <ele>-2.2000000476837</ele>
        <time>2019-09-01T07:11:14.000Z</time>
      </trkpt>
      <trkpt lat="47.25227" lon="-2.32695">
        <ele>-2.2000000476837</ele>
        <time>2019-09-01T07:11:17.000Z</time>
      </trkpt>
      <trkpt lat="47.25226" lon="-2.32694">
        <ele>-2.2000000476837</ele>
        <time>2019-09-01T07:11:19.000Z</time>
      </trkpt>
      <trkpt lat="47.25226" lon="-2.32694">
        <ele>-2.2000000476837</ele>
        <time>2019-09-01T07:11:20.000Z</time>
      </trkpt>
      <trkpt lat="47.25222" lon="-2.32697">
        <ele>-0.20000000298023</ele>
        <time>2019-09-01T07:11:31.000Z</time>
      </trkpt>
      <trkpt lat="47.25219" lon="-2.32698">
        <ele>-0.20000000298023</ele>
        <time>2019-09-01T07:11:33.000Z</time>
      </trkpt>
      <trkpt lat="47.25217" lon="-2.32705">
        <ele>-0.20000000298023</ele>
        <time>2019-09-01T07:11:37.000Z</time>
      </trkpt>
      <trkpt lat="47.25213" lon="-2.32727">
        <ele>-0.20000000298023</ele>
        <time>2019-09-01T07:11:42.000Z</time>
      </trkpt>
      <trkpt lat="47.25209" lon="-2.32729">
        <ele>-0.60000002384186</ele>
        <time>2019-09-01T07:11:43.000Z</time>
      </trkpt>
      <trkpt lat="47.25206" lon="-2.3273">
        <ele>-1.2000000476837</ele>
        <time>2019-09-01T07:11:44.000Z</time>
      </trkpt>
      <trkpt lat="47.25203" lon="-2.32734">
        <ele>-1.6000000238419</ele>
        <time>2019-09-01T07:11:45.000Z</time>
      </trkpt>
      <trkpt lat="47.25201" lon="-2.32738">
        <ele>-2</ele>
        <time>2019-09-01T07:11:46.000Z</time>
      </trkpt>
      <trkpt lat="47.25198" lon="-2.32742">
        <ele>-2.4000000953674</ele>
        <time>2019-09-01T07:11:47.000Z</time>
      </trkpt>
      <trkpt lat="47.25188" lon="-2.3275">
        <ele>-2.4000000953674</ele>
        <time>2019-09-01T07:11:50.000Z</time>
      </trkpt>
      <trkpt lat="47.25179" lon="-2.32758">
        <ele>-2.4000000953674</ele>
        <time>2019-09-01T07:11:52.000Z</time>
      </trkpt>
      <trkpt lat="47.25165" lon="-2.32772">
        <ele>-2.4000000953674</ele>
        <time>2019-09-01T07:11:55.000Z</time>
      </trkpt>
      <trkpt lat="47.2516" lon="-2.32772">
        <ele>-2.4000000953674</ele>
        <time>2019-09-01T07:11:56.000Z</time>
      </trkpt>
      <trkpt lat="47.25147" lon="-2.32773">
        <ele>-2.4000000953674</ele>
        <time>2019-09-01T07:11:59.000Z</time>
      </trkpt>
      <trkpt lat="47.25143" lon="-2.32773">
        <ele>-2.4000000953674</ele>
        <time>2019-09-01T07:12:00.000Z</time>
      </trkpt>
      <trkpt lat="47.25138" lon="-2.32779">
        <ele>-2.7999999523163</ele>
        <time>2019-09-01T07:12:02.000Z</time>
      </trkpt>
      <trkpt lat="47.25136" lon="-2.32785">
        <ele>-3.2000000476837</ele>
        <time>2019-09-01T07:12:03.000Z</time>
      </trkpt>
      <trkpt lat="47.25136" lon="-2.3279">
        <ele>-3.5999999046326</ele>
        <time>2019-09-01T07:12:04.000Z</time>
      </trkpt>
      <trkpt lat="47.25136" lon="-2.32796">
        <ele>-4.5999999046326</ele>
        <time>2019-09-01T07:12:05.000Z</time>
      </trkpt>
      <trkpt lat="47.25137" lon="-2.32809">
        <ele>-4.5999999046326</ele>
        <time>2019-09-01T07:12:07.000Z</time>
      </trkpt>
      <trkpt lat="47.25137" lon="-2.3283">
        <ele>-4.5999999046326</ele>
        <time>2019-09-01T07:12:10.000Z</time>
      </trkpt>
      <trkpt lat="47.25138" lon="-2.32844">
        <ele>-4.5999999046326</ele>
        <time>2019-09-01T07:12:12.000Z</time>
      </trkpt>
      <trkpt lat="47.25142" lon="-2.32883">
        <ele>-4.5999999046326</ele>
        <time>2019-09-01T07:12:19.000Z</time>
      </trkpt>
      <trkpt lat="47.25141" lon="-2.32904">
        <ele>-4.5999999046326</ele>
        <time>2019-09-01T07:12:24.000Z</time>
      </trkpt>
      <trkpt lat="47.25138" lon="-2.32911">
        <ele>-5</ele>
        <time>2019-09-01T07:12:26.000Z</time>
      </trkpt>
      <trkpt lat="47.25136" lon="-2.32913">
        <ele>-5.4000000953674</ele>
        <time>2019-09-01T07:12:27.000Z</time>
      </trkpt>
      <trkpt lat="47.25134" lon="-2.32913">
        <ele>-5.8000001907349</ele>
        <time>2019-09-01T07:12:28.000Z</time>
      </trkpt>
      <trkpt lat="47.25132" lon="-2.32913">
        <ele>-6.1999998092651</ele>
        <time>2019-09-01T07:12:29.000Z</time>
      </trkpt>
      <trkpt lat="47.2513" lon="-2.32912">
        <ele>-6.5999999046326</ele>
        <time>2019-09-01T07:12:30.000Z</time>
      </trkpt>
      <trkpt lat="47.25128" lon="-2.32912">
        <ele>-6.5999999046326</ele>
        <time>2019-09-01T07:12:31.000Z</time>
      </trkpt>
      <trkpt lat="47.25127" lon="-2.32909">
        <ele>-6.5999999046326</ele>
        <time>2019-09-01T07:12:32.000Z</time>
      </trkpt>
      <trkpt lat="47.25125" lon="-2.32907">
        <ele>-6.5999999046326</ele>
        <time>2019-09-01T07:12:33.000Z</time>
      </trkpt>
      <trkpt lat="47.25117" lon="-2.32891">
        <ele>-6.5999999046326</ele>
        <time>2019-09-01T07:12:38.000Z</time>
      </trkpt>
      <trkpt lat="47.25114" lon="-2.32881">
        <ele>-6.1999998092651</ele>
        <time>2019-09-01T07:12:42.000Z</time>
      </trkpt>
      <trkpt lat="47.25113" lon="-2.32879">
        <ele>-5.8000001907349</ele>
        <time>2019-09-01T07:12:43.000Z</time>
      </trkpt>
      <trkpt lat="47.25112" lon="-2.32877">
        <ele>-5.4000000953674</ele>
        <time>2019-09-01T07:12:44.000Z</time>
      </trkpt>
      <trkpt lat="47.25111" lon="-2.32876">
        <ele>-5</ele>
        <time>2019-09-01T07:12:45.000Z</time>
      </trkpt>
      <trkpt lat="47.2511" lon="-2.32875">
        <ele>-4.5999999046326</ele>
        <time>2019-09-01T07:12:46.000Z</time>
      </trkpt>
      <trkpt lat="47.25108" lon="-2.32872">
        <ele>-4.5999999046326</ele>
        <time>2019-09-01T07:12:48.000Z</time>
      </trkpt>
      <trkpt lat="47.25105" lon="-2.32864">
        <ele>-4.5999999046326</ele>
        <time>2019-09-01T07:12:51.000Z</time>
      </trkpt>
      <trkpt lat="47.25104" lon="-2.32855">
        <ele>-4.5999999046326</ele>
        <time>2019-09-01T07:12:53.000Z</time>
      </trkpt>
      <trkpt lat="47.25097" lon="-2.32851">
        <ele>-5</ele>
        <time>2019-09-01T07:12:57.000Z</time>
      </trkpt>
      <trkpt lat="47.25096" lon="-2.32849">
        <ele>-5.4000000953674</ele>
        <time>2019-09-01T07:12:58.000Z</time>
      </trkpt>
      <trkpt lat="47.25094" lon="-2.32845">
        <ele>-5.8000001907349</ele>
        <time>2019-09-01T07:12:59.000Z</time>
      </trkpt>
      <trkpt lat="47.25092" lon="-2.32841">
        <ele>-6.1999998092651</ele>
        <time>2019-09-01T07:13:00.000Z</time>
      </trkpt>
      <trkpt lat="47.25089" lon="-2.32839">
        <ele>-6.5999999046326</ele>
        <time>2019-09-01T07:13:01.000Z</time>
      </trkpt>
      <trkpt lat="47.25081" lon="-2.32839">
        <ele>-6.5999999046326</ele>
        <time>2019-09-01T07:13:04.000Z</time>
      </trkpt>
      <trkpt lat="47.25066" lon="-2.32834">
        <ele>-6.5999999046326</ele>
        <time>2019-09-01T07:13:09.000Z</time>
      </trkpt>
      <trkpt lat="47.25058" lon="-2.32827">
        <ele>-6.5999999046326</ele>
        <time>2019-09-01T07:13:11.000Z</time>
      </trkpt>
      <trkpt lat="47.25047" lon="-2.32809">
        <ele>-6.5999999046326</ele>
        <time>2019-09-01T07:13:15.000Z</time>
      </trkpt>
      <trkpt lat="47.25039" lon="-2.32778">
        <ele>-6.5999999046326</ele>
        <time>2019-09-01T07:13:20.000Z</time>
      </trkpt>
      <trkpt lat="47.25028" lon="-2.32758">
        <ele>-6.5999999046326</ele>
        <time>2019-09-01T07:13:25.000Z</time>
      </trkpt>
      <trkpt lat="47.2502" lon="-2.32754">
        <ele>-6.5999999046326</ele>
        <time>2019-09-01T07:13:28.000Z</time>
      </trkpt>
      <trkpt lat="47.25016" lon="-2.32757">
        <ele>-6.5999999046326</ele>
        <time>2019-09-01T07:13:29.000Z</time>
      </trkpt>
      <trkpt lat="47.25002" lon="-2.32775">
        <ele>-6.5999999046326</ele>
        <time>2019-09-01T07:13:33.000Z</time>
      </trkpt>
      <trkpt lat="47.24999" lon="-2.32778">
        <ele>-6.5999999046326</ele>
        <time>2019-09-01T07:13:34.000Z</time>
      </trkpt>
      <trkpt lat="47.24984" lon="-2.32784">
        <ele>-6.5999999046326</ele>
        <time>2019-09-01T07:13:39.000Z</time>
      </trkpt>
      <trkpt lat="47.24975" lon="-2.32768">
        <ele>-6.5999999046326</ele>
        <time>2019-09-01T07:13:43.000Z</time>
      </trkpt>
      <trkpt lat="47.24973" lon="-2.3276">
        <ele>-6.5999999046326</ele>
        <time>2019-09-01T07:13:44.000Z</time>
      </trkpt>
      <trkpt lat="47.24967" lon="-2.32737">
        <ele>-6.5999999046326</ele>
        <time>2019-09-01T07:13:47.000Z</time>
      </trkpt>
      <trkpt lat="47.24948" lon="-2.32684">
        <ele>-6.5999999046326</ele>
        <time>2019-09-01T07:13:54.000Z</time>
      </trkpt>
      <trkpt lat="47.24921" lon="-2.3261">
        <ele>-6.5999999046326</ele>
        <time>2019-09-01T07:14:04.000Z</time>
      </trkpt>
      <trkpt lat="47.24911" lon="-2.3258">
        <ele>-6.1999998092651</ele>
        <time>2019-09-01T07:14:08.000Z</time>
      </trkpt>
      <trkpt lat="47.24909" lon="-2.32573">
        <ele>-5.4000000953674</ele>
        <time>2019-09-01T07:14:09.000Z</time>
      </trkpt>
      <trkpt lat="47.24907" lon="-2.32565">
        <ele>-5</ele>
        <time>2019-09-01T07:14:10.000Z</time>
      </trkpt>
      <trkpt lat="47.24904" lon="-2.32557">
        <ele>-4.5999999046326</ele>
        <time>2019-09-01T07:14:11.000Z</time>
      </trkpt>
      <trkpt lat="47.24902" lon="-2.32549">
        <ele>-4.5999999046326</ele>
        <time>2019-09-01T07:14:12.000Z</time>
      </trkpt>
      <trkpt lat="47.24875" lon="-2.32485">
        <ele>-4.5999999046326</ele>
        <time>2019-09-01T07:14:20.000Z</time>
      </trkpt>
      <trkpt lat="47.24865" lon="-2.32461">
        <ele>-4.1999998092651</ele>
        <time>2019-09-01T07:14:23.000Z</time>
      </trkpt>
      <trkpt lat="47.24862" lon="-2.32454">
        <ele>-3.7999999523163</ele>
        <time>2019-09-01T07:14:24.000Z</time>
      </trkpt>
      <trkpt lat="47.24859" lon="-2.32446">
        <ele>-3.4000000953674</ele>
        <time>2019-09-01T07:14:25.000Z</time>
      </trkpt>
      <trkpt lat="47.24856" lon="-2.32437">
        <ele>-3</ele>
        <time>2019-09-01T07:14:26.000Z</time>
      </trkpt>
      <trkpt lat="47.24853" lon="-2.32429">
        <ele>-2.5999999046326</ele>
        <time>2019-09-01T07:14:27.000Z</time>
      </trkpt>
      <trkpt lat="47.24828" lon="-2.32383">
        <ele>-2.5999999046326</ele>
        <time>2019-09-01T07:14:33.000Z</time>
      </trkpt>
      <trkpt lat="47.24796" lon="-2.32324">
        <ele>-2.5999999046326</ele>
        <time>2019-09-01T07:14:41.000Z</time>
      </trkpt>
      <trkpt lat="47.24769" lon="-2.32277">
        <ele>-2.5999999046326</ele>
        <time>2019-09-01T07:14:48.000Z</time>
      </trkpt>
      <trkpt lat="47.24765" lon="-2.32271">
        <ele>-2.5999999046326</ele>
        <time>2019-09-01T07:14:49.000Z</time>
      </trkpt>
      <trkpt lat="47.2475" lon="-2.32243">
        <ele>-2.5999999046326</ele>
        <time>2019-09-01T07:14:53.000Z</time>
      </trkpt>
      <trkpt lat="47.24719" lon="-2.32188">
        <ele>-2.5999999046326</ele>
        <time>2019-09-01T07:15:01.000Z</time>
      </trkpt>
      <trkpt lat="47.24694" lon="-2.32139">
        <ele>-2.5999999046326</ele>
        <time>2019-09-01T07:15:08.000Z</time>
      </trkpt>
      <trkpt lat="47.24671" lon="-2.32098">
        <ele>-2.5999999046326</ele>
        <time>2019-09-01T07:15:15.000Z</time>
      </trkpt>
      <trkpt lat="47.24654" lon="-2.32062">
        <ele>-2.2000000476837</ele>
        <time>2019-09-01T07:15:21.000Z</time>
      </trkpt>
      <trkpt lat="47.2465" lon="-2.32056">
        <ele>-1.7999999523163</ele>
        <time>2019-09-01T07:15:22.000Z</time>
      </trkpt>
      <trkpt lat="47.24647" lon="-2.3205">
        <ele>-1</ele>
        <time>2019-09-01T07:15:23.000Z</time>
      </trkpt>
      <trkpt lat="47.24644" lon="-2.32044">
        <ele>-0.60000002384186</ele>
        <time>2019-09-01T07:15:24.000Z</time>
      </trkpt>
      <trkpt lat="47.24626" lon="-2.32007">
        <ele>-0.60000002384186</ele>
        <time>2019-09-01T07:15:30.000Z</time>
      </trkpt>
      <trkpt lat="47.24624" lon="-2.32001">
        <ele>16.4</ele>
        <time>2019-09-01T07:15:31.000Z</time>
      </trkpt>
      <trkpt lat="47.2462" lon="-2.31995">
        <ele>0.40000000596046</ele>
        <time>2019-09-01T07:15:32.000Z</time>
      </trkpt>
      <trkpt lat="47.24618" lon="-2.31989">
        <ele>0.80000001192093</ele>
        <time>2019-09-01T07:15:33.000Z</time>
      </trkpt>
      <trkpt lat="47.24615" lon="-2.31983">
        <ele>1.2000000476837</ele>
        <time>2019-09-01T07:15:34.000Z</time>
      </trkpt>
      <trkpt lat="47.24612" lon="-2.31978">
        <ele>1.6000000238419</ele>
        <time>2019-09-01T07:15:35.000Z</time>
      </trkpt>
      <trkpt lat="47.24606" lon="-2.31966">
        <ele>1.6000000238419</ele>
        <time>2019-09-01T07:15:37.000Z</time>
      </trkpt>
      <trkpt lat="47.24582" lon="-2.31925">
        <ele>1.6000000238419</ele>
        <time>2019-09-01T07:15:44.000Z</time>
      </trkpt>
      <trkpt lat="47.24573" lon="-2.31907">
        <ele>2.5999999046326</ele>
        <time>2019-09-01T07:15:47.000Z</time>
      </trkpt>
      <trkpt lat="47.2457" lon="-2.31902">
        <ele>3</ele>
        <time>2019-09-01T07:15:48.000Z</time>
      </trkpt>
      <trkpt lat="47.24567" lon="-2.31896">
        <ele>3.4000000953674</ele>
        <time>2019-09-01T07:15:49.000Z</time>
      </trkpt>
      <trkpt lat="47.24564" lon="-2.3189">
        <ele>3.7999999523163</ele>
        <time>2019-09-01T07:15:50.000Z</time>
      </trkpt>
      <trkpt lat="47.24555" lon="-2.31872">
        <ele>3.7999999523163</ele>
        <time>2019-09-01T07:15:53.000Z</time>
      </trkpt>
      <trkpt lat="47.24549" lon="-2.31861">
        <ele>3.7999999523163</ele>
        <time>2019-09-01T07:15:55.000Z</time>
      </trkpt>
      <trkpt lat="47.24539" lon="-2.31846">
        <ele>3.7999999523163</ele>
        <time>2019-09-01T07:15:58.000Z</time>
      </trkpt>
      <trkpt lat="47.24519" lon="-2.31809">
        <ele>3.7999999523163</ele>
        <time>2019-09-01T07:16:05.000Z</time>
      </trkpt>
      <trkpt lat="47.24516" lon="-2.31803">
        <ele>3.7999999523163</ele>
        <time>2019-09-01T07:16:06.000Z</time>
      </trkpt>
      <trkpt lat="47.24501" lon="-2.31773">
        <ele>3.7999999523163</ele>
        <time>2019-09-01T07:16:11.000Z</time>
      </trkpt>
      <trkpt lat="47.24481" lon="-2.31737">
        <ele>3.7999999523163</ele>
        <time>2019-09-01T07:16:17.000Z</time>
      </trkpt>
      <trkpt lat="47.2446" lon="-2.31694">
        <ele>3.7999999523163</ele>
        <time>2019-09-01T07:16:24.000Z</time>
      </trkpt>
      <trkpt lat="47.24454" lon="-2.31681">
        <ele>3.7999999523163</ele>
        <time>2019-09-01T07:16:26.000Z</time>
      </trkpt>
      <trkpt lat="47.24438" lon="-2.31654">
        <ele>3.7999999523163</ele>
        <time>2019-09-01T07:16:30.000Z</time>
      </trkpt>
      <trkpt lat="47.24411" lon="-2.31594">
        <ele>3.7999999523163</ele>
        <time>2019-09-01T07:16:37.000Z</time>
      </trkpt>
      <trkpt lat="47.24408" lon="-2.31584">
        <ele>3.4000000953674</ele>
        <time>2019-09-01T07:16:38.000Z</time>
      </trkpt>
      <trkpt lat="47.24405" lon="-2.31574">
        <ele>3</ele>
        <time>2019-09-01T07:16:39.000Z</time>
      </trkpt>
      <trkpt lat="47.24403" lon="-2.31563">
        <ele>2.5999999046326</ele>
        <time>2019-09-01T07:16:40.000Z</time>
      </trkpt>
      <trkpt lat="47.244" lon="-2.31551">
        <ele>2</ele>
        <time>2019-09-01T07:16:41.000Z</time>
      </trkpt>
      <trkpt lat="47.24399" lon="-2.3154">
        <ele>1.6000000238419</ele>
        <time>2019-09-01T07:16:42.000Z</time>
      </trkpt>
      <trkpt lat="47.24397" lon="-2.31528">
        <ele>1.2000000476837</ele>
        <time>2019-09-01T07:16:43.000Z</time>
      </trkpt>
      <trkpt lat="47.24396" lon="-2.31516">
        <ele>0.80000001192093</ele>
        <time>2019-09-01T07:16:44.000Z</time>
      </trkpt>
      <trkpt lat="47.24395" lon="-2.31504">
        <ele>0.40000000596046</ele>
        <time>2019-09-01T07:16:45.000Z</time>
      </trkpt>
      <trkpt lat="47.24394" lon="-2.31492">
        <ele>11.6</ele>
        <time>2019-09-01T07:16:46.000Z</time>
      </trkpt>
      <trkpt lat="47.24392" lon="-2.31481">
        <ele>-0.40000000596046</ele>
        <time>2019-09-01T07:16:47.000Z</time>
      </trkpt>
      <trkpt lat="47.24389" lon="-2.31461">
        <ele>-0.80000001192093</ele>
        <time>2019-09-01T07:16:49.000Z</time>
      </trkpt>
      <trkpt lat="47.24388" lon="-2.31452">
        <ele>-1.2000000476837</ele>
        <time>2019-09-01T07:16:50.000Z</time>
      </trkpt>
      <trkpt lat="47.24386" lon="-2.31443">
        <ele>-1.6000000238419</ele>
        <time>2019-09-01T07:16:51.000Z</time>
      </trkpt>
      <trkpt lat="47.24384" lon="-2.31434">
        <ele>-2.2000000476837</ele>
        <time>2019-09-01T07:16:52.000Z</time>
      </trkpt>
      <trkpt lat="47.24381" lon="-2.31426">
        <ele>-2.5999999046326</ele>
        <time>2019-09-01T07:16:53.000Z</time>
      </trkpt>
      <trkpt lat="47.24377" lon="-2.31408">
        <ele>-2.5999999046326</ele>
        <time>2019-09-01T07:16:55.000Z</time>
      </trkpt>
      <trkpt lat="47.24375" lon="-2.31399">
        <ele>-2.5999999046326</ele>
        <time>2019-09-01T07:16:56.000Z</time>
      </trkpt>
      <trkpt lat="47.24361" lon="-2.31349">
        <ele>-2.5999999046326</ele>
        <time>2019-09-01T07:17:02.000Z</time>
      </trkpt>
      <trkpt lat="47.24366" lon="-2.31332">
        <ele>-2.5999999046326</ele>
        <time>2019-09-01T07:17:05.000Z</time>
      </trkpt>
      <trkpt lat="47.24378" lon="-2.31324">
        <ele>-2.5999999046326</ele>
        <time>2019-09-01T07:17:08.000Z</time>
      </trkpt>
      <trkpt lat="47.24387" lon="-2.31317">
        <ele>-2.5999999046326</ele>
        <time>2019-09-01T07:17:10.000Z</time>
      </trkpt>
      <trkpt lat="47.2441" lon="-2.31301">
        <ele>-2.5999999046326</ele>
        <time>2019-09-01T07:17:15.000Z</time>
      </trkpt>
      <trkpt lat="47.24414" lon="-2.31298">
        <ele>-2.5999999046326</ele>
        <time>2019-09-01T07:17:16.000Z</time>
      </trkpt>
      <trkpt lat="47.24436" lon="-2.31283">
        <ele>-2.5999999046326</ele>
        <time>2019-09-01T07:17:22.000Z</time>
      </trkpt>
      <trkpt lat="47.24443" lon="-2.31277">
        <ele>-2.2000000476837</ele>
        <time>2019-09-01T07:17:24.000Z</time>
      </trkpt>
      <trkpt lat="47.24446" lon="-2.31275">
        <ele>-1.6000000238419</ele>
        <time>2019-09-01T07:17:25.000Z</time>
      </trkpt>
      <trkpt lat="47.24449" lon="-2.31272">
        <ele>-1.2000000476837</ele>
        <time>2019-09-01T07:17:26.000Z</time>
      </trkpt>
      <trkpt lat="47.24452" lon="-2.3127">
        <ele>-0.80000001192093</ele>
        <time>2019-09-01T07:17:27.000Z</time>
      </trkpt>
      <trkpt lat="47.24454" lon="-2.31267">
        <ele>-0.20000000298023</ele>
        <time>2019-09-01T07:17:28.000Z</time>
      </trkpt>
      <trkpt lat="47.24456" lon="-2.31259">
        <ele>-0.20000000298023</ele>
        <time>2019-09-01T07:17:32.000Z</time>
      </trkpt>
      <trkpt lat="47.24452" lon="-2.31242">
        <ele>0.20000000298023</ele>
        <time>2019-09-01T07:17:36.000Z</time>
      </trkpt>
      <trkpt lat="47.24451" lon="-2.31238">
        <ele>0.60000002384186</ele>
        <time>2019-09-01T07:17:37.000Z</time>
      </trkpt>
      <trkpt lat="47.24449" lon="-2.31234">
        <ele>1</ele>
        <time>2019-09-01T07:17:38.000Z</time>
      </trkpt>
      <trkpt lat="47.24447" lon="-2.31232">
        <ele>1.3999999761581</ele>
        <time>2019-09-01T07:17:39.000Z</time>
      </trkpt>
      <trkpt lat="47.24446" lon="-2.3123">
        <ele>1.7999999523163</ele>
        <time>2019-09-01T07:17:40.000Z</time>
      </trkpt>
      <trkpt lat="47.24445" lon="-2.31228">
        <ele>1.7999999523163</ele>
        <time>2019-09-01T07:17:41.000Z</time>
      </trkpt>
      <trkpt lat="47.24442" lon="-2.31227">
        <ele>1.3999999761581</ele>
        <time>2019-09-01T07:17:43.000Z</time>
      </trkpt>
      <trkpt lat="47.2444" lon="-2.31227">
        <ele>1</ele>
        <time>2019-09-01T07:17:44.000Z</time>
      </trkpt>
      <trkpt lat="47.24438" lon="-2.31229">
        <ele>0.60000002384186</ele>
        <time>2019-09-01T07:17:45.000Z</time>
      </trkpt>
      <trkpt lat="47.24434" lon="-2.3123">
        <ele>14.7</ele>
        <time>2019-09-01T07:17:46.000Z</time>
      </trkpt>
      <trkpt lat="47.24431" lon="-2.3123">
        <ele>-0.40000000596046</ele>
        <time>2019-09-01T07:17:47.000Z</time>
      </trkpt>
      <trkpt lat="47.24424" lon="-2.31225">
        <ele>-0.80000001192093</ele>
        <time>2019-09-01T07:17:50.000Z</time>
      </trkpt>
      <trkpt lat="47.24422" lon="-2.31222">
        <ele>-1.2000000476837</ele>
        <time>2019-09-01T07:17:51.000Z</time>
      </trkpt>
      <trkpt lat="47.24421" lon="-2.31218">
        <ele>-2</ele>
        <time>2019-09-01T07:17:52.000Z</time>
      </trkpt>
      <trkpt lat="47.24419" lon="-2.31215">
        <ele>-2.4000000953674</ele>
        <time>2019-09-01T07:17:53.000Z</time>
      </trkpt>
      <trkpt lat="47.24414" lon="-2.31203">
        <ele>-2.4000000953674</ele>
        <time>2019-09-01T07:17:57.000Z</time>
      </trkpt>
      <trkpt lat="47.24412" lon="-2.31198">
        <ele>-2</ele>
        <time>2019-09-01T07:17:59.000Z</time>
      </trkpt>
      <trkpt lat="47.24412" lon="-2.31196">
        <ele>-1.6000000238419</ele>
        <time>2019-09-01T07:18:00.000Z</time>
      </trkpt>
      <trkpt lat="47.24411" lon="-2.31194">
        <ele>-1.2000000476837</ele>
        <time>2019-09-01T07:18:01.000Z</time>
      </trkpt>
      <trkpt lat="47.24409" lon="-2.31192">
        <ele>-0.60000002384186</ele>
        <time>2019-09-01T07:18:02.000Z</time>
      </trkpt>
      <trkpt lat="47.24406" lon="-2.31189">
        <ele>-0.20000000298023</ele>
        <time>2019-09-01T07:18:03.000Z</time>
      </trkpt>
      <trkpt lat="47.24401" lon="-2.31182">
        <ele>-0.20000000298023</ele>
        <time>2019-09-01T07:18:05.000Z</time>
      </trkpt>
      <trkpt lat="47.24392" lon="-2.31171">
        <ele>0.20000000298023</ele>
        <time>2019-09-01T07:18:08.000Z</time>
      </trkpt>
      <trkpt lat="47.24388" lon="-2.31168">
        <ele>0.60000002384186</ele>
        <time>2019-09-01T07:18:09.000Z</time>
      </trkpt>
      <trkpt lat="47.24384" lon="-2.31164">
        <ele>1</ele>
        <time>2019-09-01T07:18:10.000Z</time>
      </trkpt>
      <trkpt lat="47.24379" lon="-2.31161">
        <ele>1.3999999761581</ele>
        <time>2019-09-01T07:18:11.000Z</time>
      </trkpt>
      <trkpt lat="47.24375" lon="-2.31157">
        <ele>1.7999999523163</ele>
        <time>2019-09-01T07:18:12.000Z</time>
      </trkpt>
      <trkpt lat="47.24362" lon="-2.31138">
        <ele>1.7999999523163</ele>
        <time>2019-09-01T07:18:16.000Z</time>
      </trkpt>
      <trkpt lat="47.2435" lon="-2.31111">
        <ele>1.7999999523163</ele>
        <time>2019-09-01T07:18:21.000Z</time>
      </trkpt>
      <trkpt lat="47.24355" lon="-2.31085">
        <ele>1.7999999523163</ele>
        <time>2019-09-01T07:18:26.000Z</time>
      </trkpt>
      <trkpt lat="47.24358" lon="-2.31078">
        <ele>1.7999999523163</ele>
        <time>2019-09-01T07:18:27.000Z</time>
      </trkpt>
      <trkpt lat="47.24366" lon="-2.31053">
        <ele>2.2000000476837</ele>
        <time>2019-09-01T07:18:31.000Z</time>
      </trkpt>
      <trkpt lat="47.24369" lon="-2.31048">
        <ele>2.5999999046326</ele>
        <time>2019-09-01T07:18:32.000Z</time>
      </trkpt>
      <trkpt lat="47.24371" lon="-2.31042">
        <ele>3.2000000476837</ele>
        <time>2019-09-01T07:18:33.000Z</time>
      </trkpt>
      <trkpt lat="47.24374" lon="-2.31036">
        <ele>3.5999999046326</ele>
        <time>2019-09-01T07:18:34.000Z</time>
      </trkpt>
      <trkpt lat="47.24375" lon="-2.3103">
        <ele>4</ele>
        <time>2019-09-01T07:18:35.000Z</time>
      </trkpt>
      <trkpt lat="47.24381" lon="-2.31011">
        <ele>4</ele>
        <time>2019-09-01T07:18:38.000Z</time>
      </trkpt>
      <trkpt lat="47.24389" lon="-2.30993">
        <ele>4.4000000953674</ele>
        <time>2019-09-01T07:18:41.000Z</time>
      </trkpt>
      <trkpt lat="47.24391" lon="-2.30987">
        <ele>5.1999998092651</ele>
        <time>2019-09-01T07:18:42.000Z</time>
      </trkpt>
      <trkpt lat="47.24393" lon="-2.30981">
        <ele>5.5999999046326</ele>
        <time>2019-09-01T07:18:43.000Z</time>
      </trkpt>
      <trkpt lat="47.24396" lon="-2.30974">
        <ele>6</ele>
        <time>2019-09-01T07:18:44.000Z</time>
      </trkpt>
      <trkpt lat="47.2441" lon="-2.30953">
        <ele>6</ele>
        <time>2019-09-01T07:18:48.000Z</time>
      </trkpt>
      <trkpt lat="47.24414" lon="-2.30949">
        <ele>6.4000000953674</ele>
        <time>2019-09-01T07:18:49.000Z</time>
      </trkpt>
      <trkpt lat="47.24417" lon="-2.30944">
        <ele>6.8000001907349</ele>
        <time>2019-09-01T07:18:50.000Z</time>
      </trkpt>
      <trkpt lat="47.2442" lon="-2.30939">
        <ele>7.4000000953674</ele>
        <time>2019-09-01T07:18:51.000Z</time>
      </trkpt>
      <trkpt lat="47.24423" lon="-2.30934">
        <ele>7.8000001907349</ele>
        <time>2019-09-01T07:18:52.000Z</time>
      </trkpt>
      <trkpt lat="47.24425" lon="-2.30929">
        <ele>8.1999998092651</ele>
        <time>2019-09-01T07:18:53.000Z</time>
      </trkpt>
      <trkpt lat="47.24428" lon="-2.30923">
        <ele>8.1999998092651</ele>
        <time>2019-09-01T07:18:54.000Z</time>
      </trkpt>
      <trkpt lat="47.24434" lon="-2.30889">
        <ele>8.1999998092651</ele>
        <time>2019-09-01T07:18:59.000Z</time>
      </trkpt>
      <trkpt lat="47.24435" lon="-2.30882">
        <ele>8.1999998092651</ele>
        <time>2019-09-01T07:19:00.000Z</time>
      </trkpt>
      <trkpt lat="47.24435" lon="-2.30846">
        <ele>8.6000003814697</ele>
        <time>2019-09-01T07:19:05.000Z</time>
      </trkpt>
      <trkpt lat="47.24436" lon="-2.3084">
        <ele>9.3999996185303</ele>
        <time>2019-09-01T07:19:06.000Z</time>
      </trkpt>
      <trkpt lat="47.24436" lon="-2.30834">
        <ele>9.8000001907349</ele>
        <time>2019-09-01T07:19:07.000Z</time>
      </trkpt>
      <trkpt lat="47.24436" lon="-2.30827">
        <ele>10.199999809265</ele>
        <time>2019-09-01T07:19:08.000Z</time>
      </trkpt>
      <trkpt lat="47.24437" lon="-2.30821">
        <ele>10.199999809265</ele>
        <time>2019-09-01T07:19:09.000Z</time>
      </trkpt>
      <trkpt lat="47.24436" lon="-2.30801">
        <ele>10.199999809265</ele>
        <time>2019-09-01T07:19:12.000Z</time>
      </trkpt>
      <trkpt lat="47.24436" lon="-2.30795">
        <ele>10.199999809265</ele>
        <time>2019-09-01T07:19:13.000Z</time>
      </trkpt>
      <trkpt lat="47.24436" lon="-2.30753">
        <ele>10.199999809265</ele>
        <time>2019-09-01T07:19:20.000Z</time>
      </trkpt>
      <trkpt lat="47.24438" lon="-2.30727">
        <ele>10.60000038147</ele>
        <time>2019-09-01T07:19:24.000Z</time>
      </trkpt>
      <trkpt lat="47.24439" lon="-2.30721">
        <ele>11.199999809265</ele>
        <time>2019-09-01T07:19:25.000Z</time>
      </trkpt>
      <trkpt lat="47.24439" lon="-2.30715">
        <ele>11.60000038147</ele>
        <time>2019-09-01T07:19:26.000Z</time>
      </trkpt>
      <trkpt lat="47.2444" lon="-2.30709">
        <ele>12</ele>
        <time>2019-09-01T07:19:27.000Z</time>
      </trkpt>
      <trkpt lat="47.24441" lon="-2.30703">
        <ele>12.39999961853</ele>
        <time>2019-09-01T07:19:28.000Z</time>
      </trkpt>
      <trkpt lat="47.24445" lon="-2.30676">
        <ele>12.39999961853</ele>
        <time>2019-09-01T07:19:32.000Z</time>
      </trkpt>
      <trkpt lat="47.24455" lon="-2.30632">
        <ele>12.39999961853</ele>
        <time>2019-09-01T07:19:38.000Z</time>
      </trkpt>
      <trkpt lat="47.24463" lon="-2.30582">
        <ele>12.39999961853</ele>
        <time>2019-09-01T07:19:44.000Z</time>
      </trkpt>
      <trkpt lat="47.24465" lon="-2.30565">
        <ele>12.39999961853</ele>
        <time>2019-09-01T07:19:46.000Z</time>
      </trkpt>
      <trkpt lat="47.24466" lon="-2.30547">
        <ele>12</ele>
        <time>2019-09-01T07:19:48.000Z</time>
      </trkpt>
      <trkpt lat="47.24467" lon="-2.30537">
        <ele>11.39999961853</ele>
        <time>2019-09-01T07:19:49.000Z</time>
      </trkpt>
      <trkpt lat="47.24469" lon="-2.30526">
        <ele>11</ele>
        <time>2019-09-01T07:19:50.000Z</time>
      </trkpt>
      <trkpt lat="47.24471" lon="-2.30516">
        <ele>10.60000038147</ele>
        <time>2019-09-01T07:19:51.000Z</time>
      </trkpt>
      <trkpt lat="47.24472" lon="-2.30507">
        <ele>10.199999809265</ele>
        <time>2019-09-01T07:19:52.000Z</time>
      </trkpt>
      <trkpt lat="47.24474" lon="-2.30499">
        <ele>10.199999809265</ele>
        <time>2019-09-01T07:19:53.000Z</time>
      </trkpt>
      <trkpt lat="47.24477" lon="-2.30493">
        <ele>10.199999809265</ele>
        <time>2019-09-01T07:19:54.000Z</time>
      </trkpt>
      <trkpt lat="47.24482" lon="-2.3049">
        <ele>9.8000001907349</ele>
        <time>2019-09-01T07:19:55.000Z</time>
      </trkpt>
      <trkpt lat="47.24486" lon="-2.30489">
        <ele>9</ele>
        <time>2019-09-01T07:19:56.000Z</time>
      </trkpt>
      <trkpt lat="47.24491" lon="-2.30489">
        <ele>8.6000003814697</ele>
        <time>2019-09-01T07:19:57.000Z</time>
      </trkpt>
      <trkpt lat="47.24495" lon="-2.3049">
        <ele>8.1999998092651</ele>
        <time>2019-09-01T07:19:58.000Z</time>
      </trkpt>
      <trkpt lat="47.24509" lon="-2.30497">
        <ele>8.1999998092651</ele>
        <time>2019-09-01T07:20:01.000Z</time>
      </trkpt>
      <trkpt lat="47.24521" lon="-2.30506">
        <ele>8.6000003814697</ele>
        <time>2019-09-01T07:20:04.000Z</time>
      </trkpt>
      <trkpt lat="47.24525" lon="-2.30509">
        <ele>9</ele>
        <time>2019-09-01T07:20:05.000Z</time>
      </trkpt>
      <trkpt lat="47.2453" lon="-2.30513">
        <ele>9.3999996185303</ele>
        <time>2019-09-01T07:20:06.000Z</time>
      </trkpt>
      <trkpt lat="47.24534" lon="-2.30517">
        <ele>9.8000001907349</ele>
        <time>2019-09-01T07:20:07.000Z</time>
      </trkpt>
      <trkpt lat="47.24538" lon="-2.30521">
        <ele>10.39999961853</ele>
        <time>2019-09-01T07:20:08.000Z</time>
      </trkpt>
      <trkpt lat="47.24546" lon="-2.30529">
        <ele>10.39999961853</ele>
        <time>2019-09-01T07:20:10.000Z</time>
      </trkpt>
      <trkpt lat="47.24557" lon="-2.30544">
        <ele>10.39999961853</ele>
        <time>2019-09-01T07:20:13.000Z</time>
      </trkpt>
      <trkpt lat="47.24561" lon="-2.30549">
        <ele>10.800000190735</ele>
        <time>2019-09-01T07:20:14.000Z</time>
      </trkpt>
      <trkpt lat="47.24564" lon="-2.30555">
        <ele>11.199999809265</ele>
        <time>2019-09-01T07:20:15.000Z</time>
      </trkpt>
      <trkpt lat="47.24567" lon="-2.3056">
        <ele>11.60000038147</ele>
        <time>2019-09-01T07:20:16.000Z</time>
      </trkpt>
      <trkpt lat="47.2457" lon="-2.30565">
        <ele>12</ele>
        <time>2019-09-01T07:20:17.000Z</time>
      </trkpt>
      <trkpt lat="47.24573" lon="-2.30569">
        <ele>12.39999961853</ele>
        <time>2019-09-01T07:20:18.000Z</time>
      </trkpt>
      <trkpt lat="47.24579" lon="-2.30579">
        <ele>12.39999961853</ele>
        <time>2019-09-01T07:20:20.000Z</time>
      </trkpt>
      <trkpt lat="47.2459" lon="-2.30591">
        <ele>12.39999961853</ele>
        <time>2019-09-01T07:20:23.000Z</time>
      </trkpt>
      <trkpt lat="47.24601" lon="-2.30603">
        <ele>12.800000190735</ele>
        <time>2019-09-01T07:20:26.000Z</time>
      </trkpt>
      <trkpt lat="47.24606" lon="-2.30606">
        <ele>13.199999809265</ele>
        <time>2019-09-01T07:20:27.000Z</time>
      </trkpt>
      <trkpt lat="47.2461" lon="-2.30609">
        <ele>13.60000038147</ele>
        <time>2019-09-01T07:20:28.000Z</time>
      </trkpt>
      <trkpt lat="47.24615" lon="-2.30613">
        <ele>14</ele>
        <time>2019-09-01T07:20:29.000Z</time>
      </trkpt>
      <trkpt lat="47.24619" lon="-2.30616">
        <ele>14.39999961853</ele>
        <time>2019-09-01T07:20:30.000Z</time>
      </trkpt>
      <trkpt lat="47.24637" lon="-2.3063">
        <ele>14.39999961853</ele>
        <time>2019-09-01T07:20:34.000Z</time>
      </trkpt>
      <trkpt lat="47.24664" lon="-2.3065">
        <ele>14.39999961853</ele>
        <time>2019-09-01T07:20:40.000Z</time>
      </trkpt>
      <trkpt lat="47.24706" lon="-2.30684">
        <ele>14.39999961853</ele>
        <time>2019-09-01T07:20:49.000Z</time>
      </trkpt>
      <trkpt lat="47.24741" lon="-2.30715">
        <ele>14.39999961853</ele>
        <time>2019-09-01T07:20:57.000Z</time>
      </trkpt>
      <trkpt lat="47.24777" lon="-2.30741">
        <ele>14.39999961853</ele>
        <time>2019-09-01T07:21:05.000Z</time>
      </trkpt>
      <trkpt lat="47.24818" lon="-2.30761">
        <ele>14.39999961853</ele>
        <time>2019-09-01T07:21:13.000Z</time>
      </trkpt>
      <trkpt lat="47.24855" lon="-2.30769">
        <ele>14.39999961853</ele>
        <time>2019-09-01T07:21:20.000Z</time>
      </trkpt>
      <trkpt lat="47.24877" lon="-2.30771">
        <ele>14.800000190735</ele>
        <time>2019-09-01T07:21:24.000Z</time>
      </trkpt>
      <trkpt lat="47.24882" lon="-2.30772">
        <ele>15.199999809265</ele>
        <time>2019-09-01T07:21:25.000Z</time>
      </trkpt>
      <trkpt lat="47.24888" lon="-2.30772">
        <ele>15.800000190735</ele>
        <time>2019-09-01T07:21:26.000Z</time>
      </trkpt>
      <trkpt lat="47.24892" lon="-2.30772">
        <ele>16.200000762939</ele>
        <time>2019-09-01T07:21:27.000Z</time>
      </trkpt>
      <trkpt lat="47.24897" lon="-2.30772">
        <ele>16.60000038147</ele>
        <time>2019-09-01T07:21:28.000Z</time>
      </trkpt>
      <trkpt lat="47.24912" lon="-2.30777">
        <ele>16.60000038147</ele>
        <time>2019-09-01T07:21:32.000Z</time>
      </trkpt>
      <trkpt lat="47.24923" lon="-2.30798">
        <ele>16.60000038147</ele>
        <time>2019-09-01T07:21:36.000Z</time>
      </trkpt>
      <trkpt lat="47.24926" lon="-2.30804">
        <ele>16.60000038147</ele>
        <time>2019-09-01T07:21:37.000Z</time>
      </trkpt>
      <trkpt lat="47.24943" lon="-2.30836">
        <ele>16.60000038147</ele>
        <time>2019-09-01T07:21:42.000Z</time>
      </trkpt>
      <trkpt lat="47.24958" lon="-2.30875">
        <ele>16.60000038147</ele>
        <time>2019-09-01T07:21:47.000Z</time>
      </trkpt>
      <trkpt lat="47.24962" lon="-2.30893">
        <ele>16.200000762939</ele>
        <time>2019-09-01T07:21:49.000Z</time>
      </trkpt>
      <trkpt lat="47.24965" lon="-2.30902">
        <ele>15.800000190735</ele>
        <time>2019-09-01T07:21:50.000Z</time>
      </trkpt>
      <trkpt lat="47.24967" lon="-2.30911">
        <ele>15.39999961853</ele>
        <time>2019-09-01T07:21:51.000Z</time>
      </trkpt>
      <trkpt lat="47.2497" lon="-2.3092">
        <ele>15</ele>
        <time>2019-09-01T07:21:52.000Z</time>
      </trkpt>
      <trkpt lat="47.24972" lon="-2.30929">
        <ele>14.60000038147</ele>
        <time>2019-09-01T07:21:53.000Z</time>
      </trkpt>
      <trkpt lat="47.24993" lon="-2.31005">
        <ele>14.60000038147</ele>
        <time>2019-09-01T07:22:01.000Z</time>
      </trkpt>
      <trkpt lat="47.25012" lon="-2.3108">
        <ele>14.60000038147</ele>
        <time>2019-09-01T07:22:09.000Z</time>
      </trkpt>
      <trkpt lat="47.25024" lon="-2.31132">
        <ele>14.60000038147</ele>
        <time>2019-09-01T07:22:15.000Z</time>
      </trkpt>
      <trkpt lat="47.25029" lon="-2.31184">
        <ele>14.60000038147</ele>
        <time>2019-09-01T07:22:21.000Z</time>
      </trkpt>
      <trkpt lat="47.2503" lon="-2.312">
        <ele>14</ele>
        <time>2019-09-01T07:22:23.000Z</time>
      </trkpt>
      <trkpt lat="47.25033" lon="-2.31207">
        <ele>13.199999809265</ele>
        <time>2019-09-01T07:22:24.000Z</time>
      </trkpt>
      <trkpt lat="47.25036" lon="-2.31212">
        <ele>12.800000190735</ele>
        <time>2019-09-01T07:22:25.000Z</time>
      </trkpt>
      <trkpt lat="47.25042" lon="-2.31214">
        <ele>12.39999961853</ele>
        <time>2019-09-01T07:22:26.000Z</time>
      </trkpt>
      <trkpt lat="47.25047" lon="-2.31213">
        <ele>12.39999961853</ele>
        <time>2019-09-01T07:22:27.000Z</time>
      </trkpt>
      <trkpt lat="47.25059" lon="-2.31207">
        <ele>12.39999961853</ele>
        <time>2019-09-01T07:22:29.000Z</time>
      </trkpt>
      <trkpt lat="47.25076" lon="-2.31196">
        <ele>12.39999961853</ele>
        <time>2019-09-01T07:22:32.000Z</time>
      </trkpt>
      <trkpt lat="47.25111" lon="-2.3117">
        <ele>12</ele>
        <time>2019-09-01T07:22:38.000Z</time>
      </trkpt>
      <trkpt lat="47.25116" lon="-2.31165">
        <ele>11.60000038147</ele>
        <time>2019-09-01T07:22:39.000Z</time>
      </trkpt>
      <trkpt lat="47.25121" lon="-2.31161">
        <ele>11.199999809265</ele>
        <time>2019-09-01T07:22:40.000Z</time>
      </trkpt>
      <trkpt lat="47.25125" lon="-2.31159">
        <ele>10.800000190735</ele>
        <time>2019-09-01T07:22:41.000Z</time>
      </trkpt>
      <trkpt lat="47.2513" lon="-2.3116">
        <ele>10.39999961853</ele>
        <time>2019-09-01T07:22:42.000Z</time>
      </trkpt>
      <trkpt lat="47.25133" lon="-2.31164">
        <ele>10.39999961853</ele>
        <time>2019-09-01T07:22:43.000Z</time>
      </trkpt>
      <trkpt lat="47.25136" lon="-2.31176">
        <ele>9.8000001907349</ele>
        <time>2019-09-01T07:22:45.000Z</time>
      </trkpt>
      <trkpt lat="47.25136" lon="-2.31184">
        <ele>9.3999996185303</ele>
        <time>2019-09-01T07:22:46.000Z</time>
      </trkpt>
      <trkpt lat="47.25137" lon="-2.31191">
        <ele>9</ele>
        <time>2019-09-01T07:22:47.000Z</time>
      </trkpt>
      <trkpt lat="47.25138" lon="-2.31199">
        <ele>8.6000003814697</ele>
        <time>2019-09-01T07:22:48.000Z</time>
      </trkpt>
      <trkpt lat="47.25139" lon="-2.31207">
        <ele>8</ele>
        <time>2019-09-01T07:22:49.000Z</time>
      </trkpt>
      <trkpt lat="47.25142" lon="-2.31234">
        <ele>8</ele>
        <time>2019-09-01T07:22:52.000Z</time>
      </trkpt>
      <trkpt lat="47.25147" lon="-2.31291">
        <ele>8</ele>
        <time>2019-09-01T07:22:59.000Z</time>
      </trkpt>
      <trkpt lat="47.25151" lon="-2.31339">
        <ele>8</ele>
        <time>2019-09-01T07:23:05.000Z</time>
      </trkpt>
      <trkpt lat="47.25153" lon="-2.31354">
        <ele>8</ele>
        <time>2019-09-01T07:23:07.000Z</time>
      </trkpt>
      <trkpt lat="47.25159" lon="-2.3138">
        <ele>8</ele>
        <time>2019-09-01T07:23:11.000Z</time>
      </trkpt>
      <trkpt lat="47.25167" lon="-2.31405">
        <ele>8</ele>
        <time>2019-09-01T07:23:15.000Z</time>
      </trkpt>
      <trkpt lat="47.25172" lon="-2.31417">
        <ele>8</ele>
        <time>2019-09-01T07:23:17.000Z</time>
      </trkpt>
      <trkpt lat="47.25193" lon="-2.3146">
        <ele>8</ele>
        <time>2019-09-01T07:23:25.000Z</time>
      </trkpt>
      <trkpt lat="47.252" lon="-2.31467">
        <ele>8</ele>
        <time>2019-09-01T07:23:27.000Z</time>
      </trkpt>
      <trkpt lat="47.25204" lon="-2.31469">
        <ele>8</ele>
        <time>2019-09-01T07:23:28.000Z</time>
      </trkpt>
      <trkpt lat="47.25224" lon="-2.31461">
        <ele>8</ele>
        <time>2019-09-01T07:23:32.000Z</time>
      </trkpt>
      <trkpt lat="47.25229" lon="-2.31458">
        <ele>8</ele>
        <time>2019-09-01T07:23:33.000Z</time>
      </trkpt>
      <trkpt lat="47.25267" lon="-2.31436">
        <ele>8</ele>
        <time>2019-09-01T07:23:40.000Z</time>
      </trkpt>
      <trkpt lat="47.25304" lon="-2.31422">
        <ele>8</ele>
        <time>2019-09-01T07:23:47.000Z</time>
      </trkpt>
      <trkpt lat="47.25326" lon="-2.3141">
        <ele>8</ele>
        <time>2019-09-01T07:23:52.000Z</time>
      </trkpt>
      <trkpt lat="47.25331" lon="-2.31412">
        <ele>8</ele>
        <time>2019-09-01T07:23:53.000Z</time>
      </trkpt>
      <trkpt lat="47.25336" lon="-2.31426">
        <ele>8</ele>
        <time>2019-09-01T07:23:56.000Z</time>
      </trkpt>
      <trkpt lat="47.25333" lon="-2.31445">
        <ele>8</ele>
        <time>2019-09-01T07:23:59.000Z</time>
      </trkpt>
      <trkpt lat="47.25332" lon="-2.31452">
        <ele>8</ele>
        <time>2019-09-01T07:24:00.000Z</time>
      </trkpt>
      <trkpt lat="47.25333" lon="-2.31484">
        <ele>8</ele>
        <time>2019-09-01T07:24:04.000Z</time>
      </trkpt>
      <trkpt lat="47.25343" lon="-2.31533">
        <ele>8</ele>
        <time>2019-09-01T07:24:10.000Z</time>
      </trkpt>
      <trkpt lat="47.25348" lon="-2.31548">
        <ele>7.5999999046326</ele>
        <time>2019-09-01T07:24:12.000Z</time>
      </trkpt>
      <trkpt lat="47.25351" lon="-2.31556">
        <ele>7.1999998092651</ele>
        <time>2019-09-01T07:24:13.000Z</time>
      </trkpt>
      <trkpt lat="47.25354" lon="-2.31563">
        <ele>6.8000001907349</ele>
        <time>2019-09-01T07:24:14.000Z</time>
      </trkpt>
      <trkpt lat="47.25357" lon="-2.31571">
        <ele>6.4000000953674</ele>
        <time>2019-09-01T07:24:15.000Z</time>
      </trkpt>
      <trkpt lat="47.25361" lon="-2.31578">
        <ele>6</ele>
        <time>2019-09-01T07:24:16.000Z</time>
      </trkpt>
      <trkpt lat="47.25383" lon="-2.31615">
        <ele>6</ele>
        <time>2019-09-01T07:24:22.000Z</time>
      </trkpt>
      <trkpt lat="47.25396" lon="-2.31643">
        <ele>6</ele>
        <time>2019-09-01T07:24:26.000Z</time>
      </trkpt>
      <trkpt lat="47.25403" lon="-2.31657">
        <ele>5.5999999046326</ele>
        <time>2019-09-01T07:24:28.000Z</time>
      </trkpt>
      <trkpt lat="47.25406" lon="-2.31665">
        <ele>5.1999998092651</ele>
        <time>2019-09-01T07:24:29.000Z</time>
      </trkpt>
      <trkpt lat="47.2541" lon="-2.31673">
        <ele>4.8000001907349</ele>
        <time>2019-09-01T07:24:30.000Z</time>
      </trkpt>
      <trkpt lat="47.25414" lon="-2.31681">
        <ele>4.1999998092651</ele>
        <time>2019-09-01T07:24:31.000Z</time>
      </trkpt>
      <trkpt lat="47.25417" lon="-2.31688">
        <ele>3.7999999523163</ele>
        <time>2019-09-01T07:24:32.000Z</time>
      </trkpt>
      <trkpt lat="47.25423" lon="-2.31703">
        <ele>3.7999999523163</ele>
        <time>2019-09-01T07:24:34.000Z</time>
      </trkpt>
      <trkpt lat="47.25442" lon="-2.31757">
        <ele>3.7999999523163</ele>
        <time>2019-09-01T07:24:41.000Z</time>
      </trkpt>
      <trkpt lat="47.25444" lon="-2.31765">
        <ele>3.7999999523163</ele>
        <time>2019-09-01T07:24:42.000Z</time>
      </trkpt>
      <trkpt lat="47.25454" lon="-2.31804">
        <ele>3.7999999523163</ele>
        <time>2019-09-01T07:24:47.000Z</time>
      </trkpt>
      <trkpt lat="47.25459" lon="-2.31819">
        <ele>3.7999999523163</ele>
        <time>2019-09-01T07:24:49.000Z</time>
      </trkpt>
      <trkpt lat="47.25468" lon="-2.31829">
        <ele>3.4000000953674</ele>
        <time>2019-09-01T07:24:51.000Z</time>
      </trkpt>
      <trkpt lat="47.25473" lon="-2.31831">
        <ele>2.5999999046326</ele>
        <time>2019-09-01T07:24:52.000Z</time>
      </trkpt>
      <trkpt lat="47.25477" lon="-2.31831">
        <ele>2.2000000476837</ele>
        <time>2019-09-01T07:24:53.000Z</time>
      </trkpt>
      <trkpt lat="47.25481" lon="-2.3183">
        <ele>1.7999999523163</ele>
        <time>2019-09-01T07:24:54.000Z</time>
      </trkpt>
      <trkpt lat="47.25491" lon="-2.31826">
        <ele>1.7999999523163</ele>
        <time>2019-09-01T07:24:57.000Z</time>
      </trkpt>
      <trkpt lat="47.255" lon="-2.31822">
        <ele>1.7999999523163</ele>
        <time>2019-09-01T07:25:00.000Z</time>
      </trkpt>
      <trkpt lat="47.25507" lon="-2.31824">
        <ele>1.7999999523163</ele>
        <time>2019-09-01T07:25:04.000Z</time>
      </trkpt>
      <trkpt lat="47.25517" lon="-2.31824">
        <ele>1.7999999523163</ele>
        <time>2019-09-01T07:25:09.000Z</time>
      </trkpt>
      <trkpt lat="47.25518" lon="-2.31826">
        <ele>1.7999999523163</ele>
        <time>2019-09-01T07:25:12.000Z</time>
      </trkpt>
      <trkpt lat="47.25517" lon="-2.31825">
        <ele>1.7999999523163</ele>
        <time>2019-09-01T07:25:16.000Z</time>
      </trkpt>
      <trkpt lat="47.25515" lon="-2.31828">
        <ele>1.7999999523163</ele>
        <time>2019-09-01T07:29:49.000Z</time>
      </trkpt>
      <trkpt lat="47.25509" lon="-2.31827">
        <ele>1.7999999523163</ele>
        <time>2019-09-01T07:29:54.000Z</time>
      </trkpt>
      <trkpt lat="47.2551" lon="-2.31826">
        <ele>1.7999999523163</ele>
        <time>2019-09-01T07:29:58.000Z</time>
      </trkpt>
      <trkpt lat="47.25511" lon="-2.31824">
        <ele>1.7999999523163</ele>
        <time>2019-09-01T07:30:10.000Z</time>
      </trkpt>
      <trkpt lat="47.25512" lon="-2.3182">
        <ele>1.7999999523163</ele>
        <time>2019-09-01T07:30:12.000Z</time>
      </trkpt>
      <trkpt lat="47.2552" lon="-2.31813">
        <ele>1.7999999523163</ele>
        <time>2019-09-01T07:30:17.000Z</time>
      </trkpt>
      <trkpt lat="47.25542" lon="-2.31805">
        <ele>1.7999999523163</ele>
        <time>2019-09-01T07:30:24.000Z</time>
      </trkpt>
      <trkpt lat="47.2555" lon="-2.31802">
        <ele>1.3999999761581</ele>
        <time>2019-09-01T07:30:26.000Z</time>
      </trkpt>
      <trkpt lat="47.25553" lon="-2.31799">
        <ele>1</ele>
        <time>2019-09-01T07:30:27.000Z</time>
      </trkpt>
      <trkpt lat="47.25556" lon="-2.31795">
        <ele>0.60000002384186</ele>
        <time>2019-09-01T07:30:28.000Z</time>
      </trkpt>
      <trkpt lat="47.25558" lon="-2.31792">
        <ele>0.20000000298023</ele>
        <time>2019-09-01T07:30:29.000Z</time>
      </trkpt>
      <trkpt lat="47.25559" lon="-2.3179">
        <ele>-0.20000000298023</ele>
        <time>2019-09-01T07:30:30.000Z</time>
      </trkpt>
      <trkpt lat="47.25559" lon="-2.31786">
        <ele>-0.20000000298023</ele>
        <time>2019-09-01T07:30:32.000Z</time>
      </trkpt>
      <trkpt lat="47.25561" lon="-2.31784">
        <ele>-0.20000000298023</ele>
        <time>2019-09-01T07:30:34.000Z</time>
      </trkpt>
      <trkpt lat="47.25564" lon="-2.31781">
        <ele>-0.20000000298023</ele>
        <time>2019-09-01T07:30:36.000Z</time>
      </trkpt>
      <trkpt lat="47.25569" lon="-2.31775">
        <ele>-0.20000000298023</ele>
        <time>2019-09-01T07:30:39.000Z</time>
      </trkpt>
      <trkpt lat="47.25575" lon="-2.31768">
        <ele>-0.20000000298023</ele>
        <time>2019-09-01T07:30:41.000Z</time>
      </trkpt>
      <trkpt lat="47.25578" lon="-2.31764">
        <ele>-0.60000002384186</ele>
        <time>2019-09-01T07:30:42.000Z</time>
      </trkpt>
      <trkpt lat="47.2558" lon="-2.3176">
        <ele>-1</ele>
        <time>2019-09-01T07:30:43.000Z</time>
      </trkpt>
      <trkpt lat="47.25582" lon="-2.31758">
        <ele>-1.3999999761581</ele>
        <time>2019-09-01T07:30:44.000Z</time>
      </trkpt>
      <trkpt lat="47.25583" lon="-2.31757">
        <ele>-1.7999999523163</ele>
        <time>2019-09-01T07:30:45.000Z</time>
      </trkpt>
      <trkpt lat="47.25584" lon="-2.31755">
        <ele>-2.2000000476837</ele>
        <time>2019-09-01T07:30:46.000Z</time>
      </trkpt>
      <trkpt lat="47.25585" lon="-2.31754">
        <ele>-2.2000000476837</ele>
        <time>2019-09-01T07:30:47.000Z</time>
      </trkpt>
      <trkpt lat="47.25588" lon="-2.31748">
        <ele>-2.2000000476837</ele>
        <time>2019-09-01T07:30:50.000Z</time>
      </trkpt>
      <trkpt lat="47.25592" lon="-2.31729">
        <ele>-2.2000000476837</ele>
        <time>2019-09-01T07:30:54.000Z</time>
      </trkpt>
      <trkpt lat="47.25596" lon="-2.31719">
        <ele>-2.2000000476837</ele>
        <time>2019-09-01T07:30:56.000Z</time>
      </trkpt>
      <trkpt lat="47.25604" lon="-2.31713">
        <ele>-2.2000000476837</ele>
        <time>2019-09-01T07:30:58.000Z</time>
      </trkpt>
      <trkpt lat="47.25625" lon="-2.31708">
        <ele>-2.2000000476837</ele>
        <time>2019-09-01T07:31:02.000Z</time>
      </trkpt>
      <trkpt lat="47.25644" lon="-2.31695">
        <ele>-2.2000000476837</ele>
        <time>2019-09-01T07:31:06.000Z</time>
      </trkpt>
      <trkpt lat="47.25653" lon="-2.31672">
        <ele>-2.5999999046326</ele>
        <time>2019-09-01T07:31:09.000Z</time>
      </trkpt>
      <trkpt lat="47.25656" lon="-2.31667">
        <ele>-3</ele>
        <time>2019-09-01T07:31:10.000Z</time>
      </trkpt>
      <trkpt lat="47.2566" lon="-2.31664">
        <ele>-3.5999999046326</ele>
        <time>2019-09-01T07:31:11.000Z</time>
      </trkpt>
      <trkpt lat="47.25663" lon="-2.31664">
        <ele>-4</ele>
        <time>2019-09-01T07:31:12.000Z</time>
      </trkpt>
      <trkpt lat="47.25667" lon="-2.31665">
        <ele>-4.4000000953674</ele>
        <time>2019-09-01T07:31:13.000Z</time>
      </trkpt>
      <trkpt lat="47.25675" lon="-2.31672">
        <ele>-4.4000000953674</ele>
        <time>2019-09-01T07:31:15.000Z</time>
      </trkpt>
      <trkpt lat="47.25691" lon="-2.3168">
        <ele>-4.4000000953674</ele>
        <time>2019-09-01T07:31:18.000Z</time>
      </trkpt>
      <trkpt lat="47.25696" lon="-2.31684">
        <ele>-4.4000000953674</ele>
        <time>2019-09-01T07:31:19.000Z</time>
      </trkpt>
      <trkpt lat="47.25709" lon="-2.31692">
        <ele>-4.8000001907349</ele>
        <time>2019-09-01T07:31:21.000Z</time>
      </trkpt>
      <trkpt lat="47.25715" lon="-2.31696">
        <ele>-5.1999998092651</ele>
        <time>2019-09-01T07:31:22.000Z</time>
      </trkpt>
      <trkpt lat="47.25721" lon="-2.317">
        <ele>-5.8000001907349</ele>
        <time>2019-09-01T07:31:23.000Z</time>
      </trkpt>
      <trkpt lat="47.25728" lon="-2.317">
        <ele>-6.1999998092651</ele>
        <time>2019-09-01T07:31:24.000Z</time>
      </trkpt>
      <trkpt lat="47.25734" lon="-2.31698">
        <ele>-6.5999999046326</ele>
        <time>2019-09-01T07:31:25.000Z</time>
      </trkpt>
      <trkpt lat="47.25745" lon="-2.31689">
        <ele>-6.5999999046326</ele>
        <time>2019-09-01T07:31:27.000Z</time>
      </trkpt>
      <trkpt lat="47.25781" lon="-2.3166">
        <ele>-6.5999999046326</ele>
        <time>2019-09-01T07:31:34.000Z</time>
      </trkpt>
      <trkpt lat="47.2581" lon="-2.31636">
        <ele>-6.5999999046326</ele>
        <time>2019-09-01T07:31:40.000Z</time>
      </trkpt>
      <trkpt lat="47.25847" lon="-2.31605">
        <ele>-6.5999999046326</ele>
        <time>2019-09-01T07:31:47.000Z</time>
      </trkpt>
      <trkpt lat="47.25881" lon="-2.31569">
        <ele>-6.5999999046326</ele>
        <time>2019-09-01T07:31:53.000Z</time>
      </trkpt>
      <trkpt lat="47.25893" lon="-2.31542">
        <ele>-6.5999999046326</ele>
        <time>2019-09-01T07:31:56.000Z</time>
      </trkpt>
      <trkpt lat="47.25899" lon="-2.31528">
        <ele>-7</ele>
        <time>2019-09-01T07:31:58.000Z</time>
      </trkpt>
      <trkpt lat="47.25903" lon="-2.31524">
        <ele>-7.4000000953674</ele>
        <time>2019-09-01T07:31:59.000Z</time>
      </trkpt>
      <trkpt lat="47.25906" lon="-2.31521">
        <ele>-7.8000001907349</ele>
        <time>2019-09-01T07:32:00.000Z</time>
      </trkpt>
      <trkpt lat="47.2591" lon="-2.31518">
        <ele>-8.1999998092651</ele>
        <time>2019-09-01T07:32:01.000Z</time>
      </trkpt>
      <trkpt lat="47.25912" lon="-2.31515">
        <ele>-8.6000003814697</ele>
        <time>2019-09-01T07:32:02.000Z</time>
      </trkpt>
      <trkpt lat="47.25912" lon="-2.3151">
        <ele>-8.6000003814697</ele>
        <time>2019-09-01T07:32:04.000Z</time>
      </trkpt>
      <trkpt lat="47.25911" lon="-2.31506">
        <ele>-8.6000003814697</ele>
        <time>2019-09-01T07:32:07.000Z</time>
      </trkpt>
      <trkpt lat="47.25912" lon="-2.31504">
        <ele>-8.6000003814697</ele>
        <time>2019-09-01T07:32:08.000Z</time>
      </trkpt>
      <trkpt lat="47.25917" lon="-2.31485">
        <ele>-8.6000003814697</ele>
        <time>2019-09-01T07:32:12.000Z</time>
      </trkpt>
      <trkpt lat="47.25919" lon="-2.31478">
        <ele>-9</ele>
        <time>2019-09-01T07:32:13.000Z</time>
      </trkpt>
      <trkpt lat="47.25921" lon="-2.31472">
        <ele>-9.3999996185303</ele>
        <time>2019-09-01T07:32:14.000Z</time>
      </trkpt>
      <trkpt lat="47.25924" lon="-2.31466">
        <ele>-9.8000001907349</ele>
        <time>2019-09-01T07:32:15.000Z</time>
      </trkpt>
      <trkpt lat="47.25927" lon="-2.31463">
        <ele>-10.60000038147</ele>
        <time>2019-09-01T07:32:16.000Z</time>
      </trkpt>
      <trkpt lat="47.25931" lon="-2.31461">
        <ele>-10.60000038147</ele>
        <time>2019-09-01T07:32:17.000Z</time>
      </trkpt>
      <trkpt lat="47.25948" lon="-2.31466">
        <ele>-10.60000038147</ele>
        <time>2019-09-01T07:32:21.000Z</time>
      </trkpt>
      <trkpt lat="47.25957" lon="-2.31453">
        <ele>-10.60000038147</ele>
        <time>2019-09-01T07:32:24.000Z</time>
      </trkpt>
      <trkpt lat="47.25968" lon="-2.31431">
        <ele>-10.60000038147</ele>
        <time>2019-09-01T07:32:28.000Z</time>
      </trkpt>
      <trkpt lat="47.25977" lon="-2.31428">
        <ele>-10.60000038147</ele>
        <time>2019-09-01T07:32:30.000Z</time>
      </trkpt>
      <trkpt lat="47.25993" lon="-2.31435">
        <ele>-10.60000038147</ele>
        <time>2019-09-01T07:32:33.000Z</time>
      </trkpt>
      <trkpt lat="47.26003" lon="-2.31443">
        <ele>-10.60000038147</ele>
        <time>2019-09-01T07:32:35.000Z</time>
      </trkpt>
      <trkpt lat="47.26022" lon="-2.31456">
        <ele>-10.60000038147</ele>
        <time>2019-09-01T07:32:39.000Z</time>
      </trkpt>
      <trkpt lat="47.26051" lon="-2.31475">
        <ele>-10.60000038147</ele>
        <time>2019-09-01T07:32:45.000Z</time>
      </trkpt>
      <trkpt lat="47.26058" lon="-2.31483">
        <ele>-10.60000038147</ele>
        <time>2019-09-01T07:32:47.000Z</time>
      </trkpt>
      <trkpt lat="47.26057" lon="-2.31495">
        <ele>-10.60000038147</ele>
        <time>2019-09-01T07:32:50.000Z</time>
      </trkpt>
      <trkpt lat="47.2605" lon="-2.315">
        <ele>-10.60000038147</ele>
        <time>2019-09-01T07:32:52.000Z</time>
      </trkpt>
      <trkpt lat="47.26045" lon="-2.31506">
        <ele>-10.60000038147</ele>
        <time>2019-09-01T07:32:54.000Z</time>
      </trkpt>
      <trkpt lat="47.26047" lon="-2.31517">
        <ele>-10.60000038147</ele>
        <time>2019-09-01T07:32:56.000Z</time>
      </trkpt>
      <trkpt lat="47.26054" lon="-2.31529">
        <ele>-10.60000038147</ele>
        <time>2019-09-01T07:32:58.000Z</time>
      </trkpt>
      <trkpt lat="47.26061" lon="-2.3154">
        <ele>-10.60000038147</ele>
        <time>2019-09-01T07:33:00.000Z</time>
      </trkpt>
      <trkpt lat="47.26065" lon="-2.31546">
        <ele>-11</ele>
        <time>2019-09-01T07:33:01.000Z</time>
      </trkpt>
      <trkpt lat="47.26068" lon="-2.31552">
        <ele>-11.39999961853</ele>
        <time>2019-09-01T07:33:02.000Z</time>
      </trkpt>
      <trkpt lat="47.26071" lon="-2.31558">
        <ele>-12</ele>
        <time>2019-09-01T07:33:03.000Z</time>
      </trkpt>
      <trkpt lat="47.26073" lon="-2.31564">
        <ele>-12.39999961853</ele>
        <time>2019-09-01T07:33:04.000Z</time>
      </trkpt>
      <trkpt lat="47.26076" lon="-2.3157">
        <ele>-12.800000190735</ele>
        <time>2019-09-01T07:33:05.000Z</time>
      </trkpt>
      <trkpt lat="47.26078" lon="-2.31575">
        <ele>-12.800000190735</ele>
        <time>2019-09-01T07:33:06.000Z</time>
      </trkpt>
      <trkpt lat="47.26086" lon="-2.31583">
        <ele>-12.800000190735</ele>
        <time>2019-09-01T07:33:09.000Z</time>
      </trkpt>
      <trkpt lat="47.26088" lon="-2.31587">
        <ele>-12.800000190735</ele>
        <time>2019-09-01T07:33:10.000Z</time>
      </trkpt>
      <trkpt lat="47.26098" lon="-2.31601">
        <ele>-12.800000190735</ele>
        <time>2019-09-01T07:33:13.000Z</time>
      </trkpt>
      <trkpt lat="47.26106" lon="-2.31611">
        <ele>-12.800000190735</ele>
        <time>2019-09-01T07:33:15.000Z</time>
      </trkpt>
      <trkpt lat="47.26121" lon="-2.31617">
        <ele>-12.800000190735</ele>
        <time>2019-09-01T07:33:18.000Z</time>
      </trkpt>
      <trkpt lat="47.26137" lon="-2.31612">
        <ele>-12.800000190735</ele>
        <time>2019-09-01T07:33:21.000Z</time>
      </trkpt>
      <trkpt lat="47.26148" lon="-2.31608">
        <ele>-12.800000190735</ele>
        <time>2019-09-01T07:33:23.000Z</time>
      </trkpt>
      <trkpt lat="47.26182" lon="-2.31594">
        <ele>-12.800000190735</ele>
        <time>2019-09-01T07:33:29.000Z</time>
      </trkpt>
      <trkpt lat="47.26208" lon="-2.31588">
        <ele>-12.800000190735</ele>
        <time>2019-09-01T07:33:34.000Z</time>
      </trkpt>
      <trkpt lat="47.26214" lon="-2.31589">
        <ele>-12.800000190735</ele>
        <time>2019-09-01T07:33:35.000Z</time>
      </trkpt>
      <trkpt lat="47.26238" lon="-2.31605">
        <ele>-12.800000190735</ele>
        <time>2019-09-01T07:33:40.000Z</time>
      </trkpt>
      <trkpt lat="47.26243" lon="-2.31609">
        <ele>-12.800000190735</ele>
        <time>2019-09-01T07:33:41.000Z</time>
      </trkpt>
      <trkpt lat="47.26266" lon="-2.31643">
        <ele>-12.800000190735</ele>
        <time>2019-09-01T07:33:47.000Z</time>
      </trkpt>
      <trkpt lat="47.26273" lon="-2.31656">
        <ele>-12.800000190735</ele>
        <time>2019-09-01T07:33:49.000Z</time>
      </trkpt>
      <trkpt lat="47.26283" lon="-2.31674">
        <ele>-12.800000190735</ele>
        <time>2019-09-01T07:33:52.000Z</time>
      </trkpt>
      <trkpt lat="47.26296" lon="-2.31702">
        <ele>-12.800000190735</ele>
        <time>2019-09-01T07:33:56.000Z</time>
      </trkpt>
      <trkpt lat="47.26301" lon="-2.31706">
        <ele>-12.800000190735</ele>
        <time>2019-09-01T07:33:57.000Z</time>
      </trkpt>
      <trkpt lat="47.26315" lon="-2.31705">
        <ele>-12.800000190735</ele>
        <time>2019-09-01T07:34:00.000Z</time>
      </trkpt>
      <trkpt lat="47.2632" lon="-2.31703">
        <ele>-12.800000190735</ele>
        <time>2019-09-01T07:34:01.000Z</time>
      </trkpt>
      <trkpt lat="47.26328" lon="-2.31697">
        <ele>-12.800000190735</ele>
        <time>2019-09-01T07:34:03.000Z</time>
      </trkpt>
      <trkpt lat="47.26343" lon="-2.31691">
        <ele>-12.800000190735</ele>
        <time>2019-09-01T07:34:06.000Z</time>
      </trkpt>
      <trkpt lat="47.26354" lon="-2.31685">
        <ele>-12.800000190735</ele>
        <time>2019-09-01T07:34:08.000Z</time>
      </trkpt>
      <trkpt lat="47.26373" lon="-2.31674">
        <ele>-12.800000190735</ele>
        <time>2019-09-01T07:34:12.000Z</time>
      </trkpt>
      <trkpt lat="47.26405" lon="-2.31658">
        <ele>-12.39999961853</ele>
        <time>2019-09-01T07:34:19.000Z</time>
      </trkpt>
      <trkpt lat="47.2641" lon="-2.31657">
        <ele>-11.39999961853</ele>
        <time>2019-09-01T07:34:20.000Z</time>
      </trkpt>
      <trkpt lat="47.26415" lon="-2.31655">
        <ele>-11</ele>
        <time>2019-09-01T07:34:21.000Z</time>
      </trkpt>
      <trkpt lat="47.26421" lon="-2.31653">
        <ele>-10.60000038147</ele>
        <time>2019-09-01T07:34:22.000Z</time>
      </trkpt>
      <trkpt lat="47.26435" lon="-2.3165">
        <ele>-10.60000038147</ele>
        <time>2019-09-01T07:34:25.000Z</time>
      </trkpt>
      <trkpt lat="47.26445" lon="-2.31648">
        <ele>-10.60000038147</ele>
        <time>2019-09-01T07:34:27.000Z</time>
      </trkpt>
      <trkpt lat="47.26465" lon="-2.31645">
        <ele>-10.199999809265</ele>
        <time>2019-09-01T07:34:31.000Z</time>
      </trkpt>
      <trkpt lat="47.2647" lon="-2.31645">
        <ele>-9.8000001907349</ele>
        <time>2019-09-01T07:34:32.000Z</time>
      </trkpt>
      <trkpt lat="47.26475" lon="-2.31644">
        <ele>-9.3999996185303</ele>
        <time>2019-09-01T07:34:33.000Z</time>
      </trkpt>
      <trkpt lat="47.26479" lon="-2.31644">
        <ele>-9</ele>
        <time>2019-09-01T07:34:34.000Z</time>
      </trkpt>
      <trkpt lat="47.26484" lon="-2.31643">
        <ele>-8.6000003814697</ele>
        <time>2019-09-01T07:34:35.000Z</time>
      </trkpt>
      <trkpt lat="47.26494" lon="-2.31641">
        <ele>-8.6000003814697</ele>
        <time>2019-09-01T07:34:37.000Z</time>
      </trkpt>
      <trkpt lat="47.26512" lon="-2.31634">
        <ele>-8.1999998092651</ele>
        <time>2019-09-01T07:34:41.000Z</time>
      </trkpt>
      <trkpt lat="47.26517" lon="-2.31632">
        <ele>-7.8000001907349</ele>
        <time>2019-09-01T07:34:42.000Z</time>
      </trkpt>
      <trkpt lat="47.26521" lon="-2.31629">
        <ele>-7.1999998092651</ele>
        <time>2019-09-01T07:34:43.000Z</time>
      </trkpt>
      <trkpt lat="47.26525" lon="-2.31626">
        <ele>-6.4000000953674</ele>
        <time>2019-09-01T07:34:44.000Z</time>
      </trkpt>
      <trkpt lat="47.26543" lon="-2.31616">
        <ele>-6.4000000953674</ele>
        <time>2019-09-01T07:34:48.000Z</time>
      </trkpt>
      <trkpt lat="47.26547" lon="-2.31614">
        <ele>-6</ele>
        <time>2019-09-01T07:34:49.000Z</time>
      </trkpt>
      <trkpt lat="47.2655" lon="-2.3161">
        <ele>-5.4000000953674</ele>
        <time>2019-09-01T07:34:50.000Z</time>
      </trkpt>
      <trkpt lat="47.26553" lon="-2.31607">
        <ele>-5</ele>
        <time>2019-09-01T07:34:51.000Z</time>
      </trkpt>
      <trkpt lat="47.26558" lon="-2.31605">
        <ele>-4.5999999046326</ele>
        <time>2019-09-01T07:34:52.000Z</time>
      </trkpt>
      <trkpt lat="47.26562" lon="-2.31602">
        <ele>-4.1999998092651</ele>
        <time>2019-09-01T07:34:53.000Z</time>
      </trkpt>
      <trkpt lat="47.26566" lon="-2.31599">
        <ele>-4.1999998092651</ele>
        <time>2019-09-01T07:34:54.000Z</time>
      </trkpt>
      <trkpt lat="47.2657" lon="-2.31596">
        <ele>-4.1999998092651</ele>
        <time>2019-09-01T07:34:55.000Z</time>
      </trkpt>
      <trkpt lat="47.26574" lon="-2.31594">
        <ele>-3.7999999523163</ele>
        <time>2019-09-01T07:34:56.000Z</time>
      </trkpt>
      <trkpt lat="47.26577" lon="-2.31591">
        <ele>-3.4000000953674</ele>
        <time>2019-09-01T07:34:57.000Z</time>
      </trkpt>
      <trkpt lat="47.26582" lon="-2.31588">
        <ele>-3</ele>
        <time>2019-09-01T07:34:58.000Z</time>
      </trkpt>
      <trkpt lat="47.26586" lon="-2.31585">
        <ele>-2.5999999046326</ele>
        <time>2019-09-01T07:34:59.000Z</time>
      </trkpt>
      <trkpt lat="47.2659" lon="-2.31582">
        <ele>-2</ele>
        <time>2019-09-01T07:35:00.000Z</time>
      </trkpt>
      <trkpt lat="47.26594" lon="-2.31579">
        <ele>-2</ele>
        <time>2019-09-01T07:35:01.000Z</time>
      </trkpt>
      <trkpt lat="47.26601" lon="-2.31574">
        <ele>-1.6000000238419</ele>
        <time>2019-09-01T07:35:03.000Z</time>
      </trkpt>
      <trkpt lat="47.26604" lon="-2.31572">
        <ele>-1.2000000476837</ele>
        <time>2019-09-01T07:35:04.000Z</time>
      </trkpt>
      <trkpt lat="47.26608" lon="-2.3157">
        <ele>-0.80000001192093</ele>
        <time>2019-09-01T07:35:05.000Z</time>
      </trkpt>
      <trkpt lat="47.26611" lon="-2.31568">
        <ele>-0.40000000596046</ele>
        <time>2019-09-01T07:35:06.000Z</time>
      </trkpt>
      <trkpt lat="47.26614" lon="-2.31566">
        <ele>20.9</ele>
        <time>2019-09-01T07:35:07.000Z</time>
      </trkpt>
      <trkpt lat="47.26618" lon="-2.31564">
        <ele>21.2</ele>
        <time>2019-09-01T07:35:08.000Z</time>
      </trkpt>
      <trkpt lat="47.26621" lon="-2.31561">
        <ele>0.40000000596046</ele>
        <time>2019-09-01T07:35:09.000Z</time>
      </trkpt>
      <trkpt lat="47.26624" lon="-2.31559">
        <ele>1</ele>
        <time>2019-09-01T07:35:10.000Z</time>
      </trkpt>
      <trkpt lat="47.26626" lon="-2.31555">
        <ele>1.3999999761581</ele>
        <time>2019-09-01T07:35:11.000Z</time>
      </trkpt>
      <trkpt lat="47.26627" lon="-2.31551">
        <ele>1.7999999523163</ele>
        <time>2019-09-01T07:35:12.000Z</time>
      </trkpt>
      <trkpt lat="47.26627" lon="-2.31546">
        <ele>2.2000000476837</ele>
        <time>2019-09-01T07:35:13.000Z</time>
      </trkpt>
      <trkpt lat="47.26619" lon="-2.31527">
        <ele>2.2000000476837</ele>
        <time>2019-09-01T07:35:17.000Z</time>
      </trkpt>
      <trkpt lat="47.26613" lon="-2.31512">
        <ele>2.2000000476837</ele>
        <time>2019-09-01T07:35:20.000Z</time>
      </trkpt>
      <trkpt lat="47.26609" lon="-2.31501">
        <ele>2.2000000476837</ele>
        <time>2019-09-01T07:35:22.000Z</time>
      </trkpt>
      <trkpt lat="47.26608" lon="-2.31494">
        <ele>2.2000000476837</ele>
        <time>2019-09-01T07:35:23.000Z</time>
      </trkpt>
      <trkpt lat="47.26607" lon="-2.31487">
        <ele>2.2000000476837</ele>
        <time>2019-09-01T07:35:24.000Z</time>
      </trkpt>
      <trkpt lat="47.26608" lon="-2.31481">
        <ele>2.5999999046326</ele>
        <time>2019-09-01T07:35:25.000Z</time>
      </trkpt>
      <trkpt lat="47.2661" lon="-2.31477">
        <ele>3</ele>
        <time>2019-09-01T07:35:26.000Z</time>
      </trkpt>
      <trkpt lat="47.26613" lon="-2.31473">
        <ele>3.4000000953674</ele>
        <time>2019-09-01T07:35:27.000Z</time>
      </trkpt>
      <trkpt lat="47.26616" lon="-2.31469">
        <ele>3.7999999523163</ele>
        <time>2019-09-01T07:35:28.000Z</time>
      </trkpt>
      <trkpt lat="47.2662" lon="-2.31466">
        <ele>4.1999998092651</ele>
        <time>2019-09-01T07:35:29.000Z</time>
      </trkpt>
      <trkpt lat="47.26623" lon="-2.31463">
        <ele>4.1999998092651</ele>
        <time>2019-09-01T07:35:30.000Z</time>
      </trkpt>
      <trkpt lat="47.2663" lon="-2.31456">
        <ele>4.1999998092651</ele>
        <time>2019-09-01T07:35:32.000Z</time>
      </trkpt>
      <trkpt lat="47.26643" lon="-2.31444">
        <ele>4.1999998092651</ele>
        <time>2019-09-01T07:35:36.000Z</time>
      </trkpt>
      <trkpt lat="47.26648" lon="-2.31442">
        <ele>4.5999999046326</ele>
        <time>2019-09-01T07:35:37.000Z</time>
      </trkpt>
      <trkpt lat="47.26651" lon="-2.31439">
        <ele>5</ele>
        <time>2019-09-01T07:35:38.000Z</time>
      </trkpt>
      <trkpt lat="47.26654" lon="-2.31437">
        <ele>5.4000000953674</ele>
        <time>2019-09-01T07:35:39.000Z</time>
      </trkpt>
      <trkpt lat="47.26658" lon="-2.31435">
        <ele>6</ele>
        <time>2019-09-01T07:35:40.000Z</time>
      </trkpt>
      <trkpt lat="47.26663" lon="-2.31432">
        <ele>6.4000000953674</ele>
        <time>2019-09-01T07:35:41.000Z</time>
      </trkpt>
      <trkpt lat="47.26689" lon="-2.31419">
        <ele>6.4000000953674</ele>
        <time>2019-09-01T07:35:47.000Z</time>
      </trkpt>
      <trkpt lat="47.26716" lon="-2.31404">
        <ele>6.4000000953674</ele>
        <time>2019-09-01T07:35:53.000Z</time>
      </trkpt>
      <trkpt lat="47.2672" lon="-2.31402">
        <ele>6.8000001907349</ele>
        <time>2019-09-01T07:35:54.000Z</time>
      </trkpt>
      <trkpt lat="47.26725" lon="-2.314">
        <ele>7.1999998092651</ele>
        <time>2019-09-01T07:35:55.000Z</time>
      </trkpt>
      <trkpt lat="47.26729" lon="-2.31397">
        <ele>7.5999999046326</ele>
        <time>2019-09-01T07:35:56.000Z</time>
      </trkpt>
      <trkpt lat="47.26733" lon="-2.31395">
        <ele>8</ele>
        <time>2019-09-01T07:35:57.000Z</time>
      </trkpt>
      <trkpt lat="47.26737" lon="-2.31393">
        <ele>8.3999996185303</ele>
        <time>2019-09-01T07:35:58.000Z</time>
      </trkpt>
      <trkpt lat="47.26745" lon="-2.31389">
        <ele>8.3999996185303</ele>
        <time>2019-09-01T07:36:00.000Z</time>
      </trkpt>
      <trkpt lat="47.2677" lon="-2.31375">
        <ele>8.3999996185303</ele>
        <time>2019-09-01T07:36:06.000Z</time>
      </trkpt>
      <trkpt lat="47.26795" lon="-2.31359">
        <ele>8.3999996185303</ele>
        <time>2019-09-01T07:36:13.000Z</time>
      </trkpt>
      <trkpt lat="47.26816" lon="-2.31342">
        <ele>8.3999996185303</ele>
        <time>2019-09-01T07:36:20.000Z</time>
      </trkpt>
      <trkpt lat="47.26827" lon="-2.31333">
        <ele>8.3999996185303</ele>
        <time>2019-09-01T07:36:25.000Z</time>
      </trkpt>
      <trkpt lat="47.26834" lon="-2.31319">
        <ele>8.8000001907349</ele>
        <time>2019-09-01T07:36:28.000Z</time>
      </trkpt>
      <trkpt lat="47.26836" lon="-2.31313">
        <ele>9.1999998092651</ele>
        <time>2019-09-01T07:36:29.000Z</time>
      </trkpt>
      <trkpt lat="47.26838" lon="-2.31307">
        <ele>9.6000003814697</ele>
        <time>2019-09-01T07:36:30.000Z</time>
      </trkpt>
      <trkpt lat="47.2684" lon="-2.31301">
        <ele>10</ele>
        <time>2019-09-01T07:36:31.000Z</time>
      </trkpt>
      <trkpt lat="47.26841" lon="-2.31294">
        <ele>10.39999961853</ele>
        <time>2019-09-01T07:36:32.000Z</time>
      </trkpt>
      <trkpt lat="47.26842" lon="-2.31286">
        <ele>10.39999961853</ele>
        <time>2019-09-01T07:36:33.000Z</time>
      </trkpt>
      <trkpt lat="47.26843" lon="-2.3128">
        <ele>10.39999961853</ele>
        <time>2019-09-01T07:36:34.000Z</time>
      </trkpt>
      <trkpt lat="47.26844" lon="-2.31273">
        <ele>10.39999961853</ele>
        <time>2019-09-01T07:36:35.000Z</time>
      </trkpt>
      <trkpt lat="47.26848" lon="-2.31215">
        <ele>10.39999961853</ele>
        <time>2019-09-01T07:36:43.000Z</time>
      </trkpt>
      <trkpt lat="47.2685" lon="-2.3116">
        <ele>10.39999961853</ele>
        <time>2019-09-01T07:36:51.000Z</time>
      </trkpt>
      <trkpt lat="47.26851" lon="-2.31104">
        <ele>10.39999961853</ele>
        <time>2019-09-01T07:36:59.000Z</time>
      </trkpt>
      <trkpt lat="47.2685" lon="-2.31092">
        <ele>10.39999961853</ele>
        <time>2019-09-01T07:37:03.000Z</time>
      </trkpt>
      <trkpt lat="47.26859" lon="-2.31082">
        <ele>10.39999961853</ele>
        <time>2019-09-01T07:37:07.000Z</time>
      </trkpt>
      <trkpt lat="47.26879" lon="-2.31061">
        <ele>10.39999961853</ele>
        <time>2019-09-01T07:37:12.000Z</time>
      </trkpt>
      <trkpt lat="47.26888" lon="-2.31052">
        <ele>10</ele>
        <time>2019-09-01T07:37:14.000Z</time>
      </trkpt>
      <trkpt lat="47.26892" lon="-2.31047">
        <ele>9.6000003814697</ele>
        <time>2019-09-01T07:37:15.000Z</time>
      </trkpt>
      <trkpt lat="47.26897" lon="-2.31041">
        <ele>9.1999998092651</ele>
        <time>2019-09-01T07:37:16.000Z</time>
      </trkpt>
      <trkpt lat="47.26902" lon="-2.31036">
        <ele>8.8000001907349</ele>
        <time>2019-09-01T07:37:17.000Z</time>
      </trkpt>
      <trkpt lat="47.26907" lon="-2.31031">
        <ele>8.1999998092651</ele>
        <time>2019-09-01T07:37:18.000Z</time>
      </trkpt>
      <trkpt lat="47.26913" lon="-2.31025">
        <ele>8.1999998092651</ele>
        <time>2019-09-01T07:37:19.000Z</time>
      </trkpt>
      <trkpt lat="47.26946" lon="-2.30986">
        <ele>7.8000001907349</ele>
        <time>2019-09-01T07:37:25.000Z</time>
      </trkpt>
      <trkpt lat="47.26952" lon="-2.30978">
        <ele>7.4000000953674</ele>
        <time>2019-09-01T07:37:26.000Z</time>
      </trkpt>
      <trkpt lat="47.26959" lon="-2.3097">
        <ele>7</ele>
        <time>2019-09-01T07:37:27.000Z</time>
      </trkpt>
      <trkpt lat="47.26965" lon="-2.30962">
        <ele>6.5999999046326</ele>
        <time>2019-09-01T07:37:28.000Z</time>
      </trkpt>
      <trkpt lat="47.26971" lon="-2.30955">
        <ele>6.1999998092651</ele>
        <time>2019-09-01T07:37:29.000Z</time>
      </trkpt>
      <trkpt lat="47.26983" lon="-2.30942">
        <ele>6.1999998092651</ele>
        <time>2019-09-01T07:37:31.000Z</time>
      </trkpt>
      <trkpt lat="47.27001" lon="-2.30927">
        <ele>5.8000001907349</ele>
        <time>2019-09-01T07:37:34.000Z</time>
      </trkpt>
      <trkpt lat="47.27007" lon="-2.30922">
        <ele>5.4000000953674</ele>
        <time>2019-09-01T07:37:35.000Z</time>
      </trkpt>
      <trkpt lat="47.27012" lon="-2.30918">
        <ele>4.8000001907349</ele>
        <time>2019-09-01T07:37:36.000Z</time>
      </trkpt>
      <trkpt lat="47.27017" lon="-2.30914">
        <ele>4</ele>
        <time>2019-09-01T07:37:37.000Z</time>
      </trkpt>
      <trkpt lat="47.2703" lon="-2.30906">
        <ele>3.5999999046326</ele>
        <time>2019-09-01T07:37:40.000Z</time>
      </trkpt>
      <trkpt lat="47.27033" lon="-2.30904">
        <ele>3.2000000476837</ele>
        <time>2019-09-01T07:37:41.000Z</time>
      </trkpt>
      <trkpt lat="47.27035" lon="-2.30903">
        <ele>2.7999999523163</ele>
        <time>2019-09-01T07:37:42.000Z</time>
      </trkpt>
      <trkpt lat="47.27038" lon="-2.30903">
        <ele>2.4000000953674</ele>
        <time>2019-09-01T07:37:43.000Z</time>
      </trkpt>
      <trkpt lat="47.27041" lon="-2.30906">
        <ele>1.7999999523163</ele>
        <time>2019-09-01T07:37:44.000Z</time>
      </trkpt>
      <trkpt lat="47.27051" lon="-2.30915">
        <ele>1.7999999523163</ele>
        <time>2019-09-01T07:37:49.000Z</time>
      </trkpt>
      <trkpt lat="47.27053" lon="-2.30917">
        <ele>1.7999999523163</ele>
        <time>2019-09-01T07:37:50.000Z</time>
      </trkpt>
      <trkpt lat="47.27059" lon="-2.30927">
        <ele>1.7999999523163</ele>
        <time>2019-09-01T07:37:54.000Z</time>
      </trkpt>
      <trkpt lat="47.2706" lon="-2.30931">
        <ele>1.7999999523163</ele>
        <time>2019-09-01T07:37:55.000Z</time>
      </trkpt>
      <trkpt lat="47.27065" lon="-2.30953">
        <ele>1.7999999523163</ele>
        <time>2019-09-01T07:37:59.000Z</time>
      </trkpt>
      <trkpt lat="47.27069" lon="-2.3098">
        <ele>1.7999999523163</ele>
        <time>2019-09-01T07:38:03.000Z</time>
      </trkpt>
      <trkpt lat="47.27068" lon="-2.30985">
        <ele>1.7999999523163</ele>
        <time>2019-09-01T07:38:04.000Z</time>
      </trkpt>
      <trkpt lat="47.27061" lon="-2.30996">
        <ele>1.7999999523163</ele>
        <time>2019-09-01T07:38:07.000Z</time>
      </trkpt>
      <trkpt lat="47.27055" lon="-2.31004">
        <ele>1.7999999523163</ele>
        <time>2019-09-01T07:38:09.000Z</time>
      </trkpt>
      <trkpt lat="47.27034" lon="-2.31027">
        <ele>1.7999999523163</ele>
        <time>2019-09-01T07:38:14.000Z</time>
      </trkpt>
      <trkpt lat="47.27022" lon="-2.31039">
        <ele>1.7999999523163</ele>
        <time>2019-09-01T07:38:17.000Z</time>
      </trkpt>
      <trkpt lat="47.27015" lon="-2.31045">
        <ele>1.7999999523163</ele>
        <time>2019-09-01T07:38:18.000Z</time>
      </trkpt>
      <trkpt lat="47.27003" lon="-2.31059">
        <ele>2.4000000953674</ele>
        <time>2019-09-01T07:38:20.000Z</time>
      </trkpt>
      <trkpt lat="47.26998" lon="-2.31068">
        <ele>2.7999999523163</ele>
        <time>2019-09-01T07:38:21.000Z</time>
      </trkpt>
      <trkpt lat="47.26997" lon="-2.31078">
        <ele>3.2000000476837</ele>
        <time>2019-09-01T07:38:22.000Z</time>
      </trkpt>
      <trkpt lat="47.26996" lon="-2.31086">
        <ele>3.5999999046326</ele>
        <time>2019-09-01T07:38:23.000Z</time>
      </trkpt>
      <trkpt lat="47.26996" lon="-2.31094">
        <ele>4.1999998092651</ele>
        <time>2019-09-01T07:38:24.000Z</time>
      </trkpt>
      <trkpt lat="47.26997" lon="-2.31124">
        <ele>4.5999999046326</ele>
        <time>2019-09-01T07:38:28.000Z</time>
      </trkpt>
      <trkpt lat="47.26996" lon="-2.31132">
        <ele>5</ele>
        <time>2019-09-01T07:38:29.000Z</time>
      </trkpt>
      <trkpt lat="47.26995" lon="-2.3114">
        <ele>5.4000000953674</ele>
        <time>2019-09-01T07:38:30.000Z</time>
      </trkpt>
      <trkpt lat="47.26994" lon="-2.31148">
        <ele>5.8000001907349</ele>
        <time>2019-09-01T07:38:31.000Z</time>
      </trkpt>
      <trkpt lat="47.26993" lon="-2.31156">
        <ele>6.1999998092651</ele>
        <time>2019-09-01T07:38:32.000Z</time>
      </trkpt>
      <trkpt lat="47.2699" lon="-2.31172">
        <ele>6.1999998092651</ele>
        <time>2019-09-01T07:38:34.000Z</time>
      </trkpt>
      <trkpt lat="47.2698" lon="-2.31224">
        <ele>6.5999999046326</ele>
        <time>2019-09-01T07:38:41.000Z</time>
      </trkpt>
      <trkpt lat="47.26979" lon="-2.31231">
        <ele>7.1999998092651</ele>
        <time>2019-09-01T07:38:42.000Z</time>
      </trkpt>
      <trkpt lat="47.26978" lon="-2.31239">
        <ele>7.5999999046326</ele>
        <time>2019-09-01T07:38:43.000Z</time>
      </trkpt>
      <trkpt lat="47.26978" lon="-2.31246">
        <ele>8</ele>
        <time>2019-09-01T07:38:44.000Z</time>
      </trkpt>
      <trkpt lat="47.26979" lon="-2.31253">
        <ele>8.3999996185303</ele>
        <time>2019-09-01T07:38:45.000Z</time>
      </trkpt>
      <trkpt lat="47.26979" lon="-2.31267">
        <ele>8.3999996185303</ele>
        <time>2019-09-01T07:38:47.000Z</time>
      </trkpt>
      <trkpt lat="47.26979" lon="-2.31287">
        <ele>8.3999996185303</ele>
        <time>2019-09-01T07:38:50.000Z</time>
      </trkpt>
      <trkpt lat="47.26979" lon="-2.31294">
        <ele>8.3999996185303</ele>
        <time>2019-09-01T07:38:51.000Z</time>
      </trkpt>
      <trkpt lat="47.26984" lon="-2.3134">
        <ele>8.3999996185303</ele>
        <time>2019-09-01T07:38:57.000Z</time>
      </trkpt>
      <trkpt lat="47.26986" lon="-2.31363">
        <ele>8.3999996185303</ele>
        <time>2019-09-01T07:39:00.000Z</time>
      </trkpt>
      <trkpt lat="47.26989" lon="-2.3138">
        <ele>8.3999996185303</ele>
        <time>2019-09-01T07:39:02.000Z</time>
      </trkpt>
      <trkpt lat="47.26992" lon="-2.31429">
        <ele>8.3999996185303</ele>
        <time>2019-09-01T07:39:08.000Z</time>
      </trkpt>
      <trkpt lat="47.26992" lon="-2.31434">
        <ele>8</ele>
        <time>2019-09-01T07:39:09.000Z</time>
      </trkpt>
      <trkpt lat="47.26991" lon="-2.31437">
        <ele>7.4000000953674</ele>
        <time>2019-09-01T07:39:10.000Z</time>
      </trkpt>
      <trkpt lat="47.26992" lon="-2.3144">
        <ele>7</ele>
        <time>2019-09-01T07:39:11.000Z</time>
      </trkpt>
      <trkpt lat="47.26992" lon="-2.31443">
        <ele>6.5999999046326</ele>
        <time>2019-09-01T07:39:12.000Z</time>
      </trkpt>
      <trkpt lat="47.26992" lon="-2.31445">
        <ele>6.1999998092651</ele>
        <time>2019-09-01T07:39:13.000Z</time>
      </trkpt>
      <trkpt lat="47.26993" lon="-2.31448">
        <ele>6.1999998092651</ele>
        <time>2019-09-01T07:39:14.000Z</time>
      </trkpt>
      <trkpt lat="47.26996" lon="-2.31459">
        <ele>6.1999998092651</ele>
        <time>2019-09-01T07:39:17.000Z</time>
      </trkpt>
      <trkpt lat="47.26999" lon="-2.31468">
        <ele>6.1999998092651</ele>
        <time>2019-09-01T07:39:19.000Z</time>
      </trkpt>
      <trkpt lat="47.27004" lon="-2.31483">
        <ele>6.1999998092651</ele>
        <time>2019-09-01T07:39:21.000Z</time>
      </trkpt>
      <trkpt lat="47.27006" lon="-2.31491">
        <ele>6.1999998092651</ele>
        <time>2019-09-01T07:39:22.000Z</time>
      </trkpt>
      <trkpt lat="47.27007" lon="-2.31502">
        <ele>5.5999999046326</ele>
        <time>2019-09-01T07:39:23.000Z</time>
      </trkpt>
      <trkpt lat="47.27008" lon="-2.31514">
        <ele>5.1999998092651</ele>
        <time>2019-09-01T07:39:24.000Z</time>
      </trkpt>
      <trkpt lat="47.27009" lon="-2.31526">
        <ele>4.8000001907349</ele>
        <time>2019-09-01T07:39:25.000Z</time>
      </trkpt>
      <trkpt lat="47.2701" lon="-2.31536">
        <ele>4.4000000953674</ele>
        <time>2019-09-01T07:39:26.000Z</time>
      </trkpt>
      <trkpt lat="47.27012" lon="-2.31543">
        <ele>4</ele>
        <time>2019-09-01T07:39:27.000Z</time>
      </trkpt>
      <trkpt lat="47.27017" lon="-2.3156">
        <ele>3.5999999046326</ele>
        <time>2019-09-01T07:39:29.000Z</time>
      </trkpt>
      <trkpt lat="47.2702" lon="-2.31567">
        <ele>3.2000000476837</ele>
        <time>2019-09-01T07:39:30.000Z</time>
      </trkpt>
      <trkpt lat="47.27021" lon="-2.31574">
        <ele>2.5999999046326</ele>
        <time>2019-09-01T07:39:31.000Z</time>
      </trkpt>
      <trkpt lat="47.27022" lon="-2.31581">
        <ele>2.2000000476837</ele>
        <time>2019-09-01T07:39:32.000Z</time>
      </trkpt>
      <trkpt lat="47.27023" lon="-2.31588">
        <ele>1.6000000238419</ele>
        <time>2019-09-01T07:39:33.000Z</time>
      </trkpt>
      <trkpt lat="47.27024" lon="-2.31594">
        <ele>1</ele>
        <time>2019-09-01T07:39:34.000Z</time>
      </trkpt>
      <trkpt lat="47.27025" lon="-2.31602">
        <ele>0.60000002384186</ele>
        <time>2019-09-01T07:39:35.000Z</time>
      </trkpt>
      <trkpt lat="47.27026" lon="-2.31609">
        <ele>19.1</ele>
        <time>2019-09-01T07:39:36.000Z</time>
      </trkpt>
      <trkpt lat="47.27027" lon="-2.31617">
        <ele>-0.60000002384186</ele>
        <time>2019-09-01T07:39:37.000Z</time>
      </trkpt>
      <trkpt lat="47.2703" lon="-2.31636">
        <ele>-0.60000002384186</ele>
        <time>2019-09-01T07:39:39.000Z</time>
      </trkpt>
      <trkpt lat="47.27031" lon="-2.31656">
        <ele>-1.3999999761581</ele>
        <time>2019-09-01T07:39:41.000Z</time>
      </trkpt>
      <trkpt lat="47.27031" lon="-2.31664">
        <ele>-2</ele>
        <time>2019-09-01T07:39:42.000Z</time>
      </trkpt>
      <trkpt lat="47.2703" lon="-2.31672">
        <ele>-2.4000000953674</ele>
        <time>2019-09-01T07:39:43.000Z</time>
      </trkpt>
      <trkpt lat="47.27028" lon="-2.31677">
        <ele>-2.7999999523163</ele>
        <time>2019-09-01T07:39:44.000Z</time>
      </trkpt>
      <trkpt lat="47.27028" lon="-2.31683">
        <ele>-3.4000000953674</ele>
        <time>2019-09-01T07:39:45.000Z</time>
      </trkpt>
      <trkpt lat="47.2703" lon="-2.31691">
        <ele>-4</ele>
        <time>2019-09-01T07:39:46.000Z</time>
      </trkpt>
      <trkpt lat="47.27032" lon="-2.31696">
        <ele>-4.5999999046326</ele>
        <time>2019-09-01T07:39:47.000Z</time>
      </trkpt>
      <trkpt lat="47.27033" lon="-2.31701">
        <ele>-5</ele>
        <time>2019-09-01T07:39:48.000Z</time>
      </trkpt>
      <trkpt lat="47.27036" lon="-2.31706">
        <ele>-5</ele>
        <time>2019-09-01T07:39:49.000Z</time>
      </trkpt>
      <trkpt lat="47.27039" lon="-2.3171">
        <ele>-5</ele>
        <time>2019-09-01T07:39:50.000Z</time>
      </trkpt>
      <trkpt lat="47.27051" lon="-2.31718">
        <ele>-5</ele>
        <time>2019-09-01T07:39:53.000Z</time>
      </trkpt>
      <trkpt lat="47.27056" lon="-2.31728">
        <ele>-5</ele>
        <time>2019-09-01T07:39:55.000Z</time>
      </trkpt>
      <trkpt lat="47.27054" lon="-2.31735">
        <ele>-5</ele>
        <time>2019-09-01T07:39:56.000Z</time>
      </trkpt>
      <trkpt lat="47.27056" lon="-2.31762">
        <ele>-5</ele>
        <time>2019-09-01T07:40:00.000Z</time>
      </trkpt>
      <trkpt lat="47.27057" lon="-2.31769">
        <ele>-5</ele>
        <time>2019-09-01T07:40:01.000Z</time>
      </trkpt>
      <trkpt lat="47.27059" lon="-2.31799">
        <ele>-5</ele>
        <time>2019-09-01T07:40:05.000Z</time>
      </trkpt>
      <trkpt lat="47.2706" lon="-2.31805">
        <ele>-6</ele>
        <time>2019-09-01T07:40:06.000Z</time>
      </trkpt>
      <trkpt lat="47.27061" lon="-2.31811">
        <ele>-6.4000000953674</ele>
        <time>2019-09-01T07:40:07.000Z</time>
      </trkpt>
      <trkpt lat="47.27061" lon="-2.31817">
        <ele>-6.8000001907349</ele>
        <time>2019-09-01T07:40:08.000Z</time>
      </trkpt>
      <trkpt lat="47.27063" lon="-2.31822">
        <ele>-7.1999998092651</ele>
        <time>2019-09-01T07:40:09.000Z</time>
      </trkpt>
      <trkpt lat="47.27065" lon="-2.31833">
        <ele>-7.1999998092651</ele>
        <time>2019-09-01T07:40:11.000Z</time>
      </trkpt>
      <trkpt lat="47.2707" lon="-2.3184">
        <ele>-7.1999998092651</ele>
        <time>2019-09-01T07:40:13.000Z</time>
      </trkpt>
      <trkpt lat="47.27076" lon="-2.31843">
        <ele>-7.8000001907349</ele>
        <time>2019-09-01T07:40:15.000Z</time>
      </trkpt>
      <trkpt lat="47.27078" lon="-2.31846">
        <ele>-8.1999998092651</ele>
        <time>2019-09-01T07:40:16.000Z</time>
      </trkpt>
      <trkpt lat="47.27079" lon="-2.3185">
        <ele>-8.6000003814697</ele>
        <time>2019-09-01T07:40:17.000Z</time>
      </trkpt>
      <trkpt lat="47.2708" lon="-2.31854">
        <ele>-9</ele>
        <time>2019-09-01T07:40:18.000Z</time>
      </trkpt>
      <trkpt lat="47.27081" lon="-2.31857">
        <ele>-9.3999996185303</ele>
        <time>2019-09-01T07:40:19.000Z</time>
      </trkpt>
      <trkpt lat="47.27081" lon="-2.3186">
        <ele>-9.3999996185303</ele>
        <time>2019-09-01T07:40:20.000Z</time>
      </trkpt>
      <trkpt lat="47.2708" lon="-2.3187">
        <ele>-9.3999996185303</ele>
        <time>2019-09-01T07:40:23.000Z</time>
      </trkpt>
      <trkpt lat="47.27081" lon="-2.31885">
        <ele>-9.3999996185303</ele>
        <time>2019-09-01T07:40:27.000Z</time>
      </trkpt>
      <trkpt lat="47.27082" lon="-2.31894">
        <ele>-9.3999996185303</ele>
        <time>2019-09-01T07:40:29.000Z</time>
      </trkpt>
      <trkpt lat="47.27083" lon="-2.31911">
        <ele>-9.3999996185303</ele>
        <time>2019-09-01T07:40:33.000Z</time>
      </trkpt>
      <trkpt lat="47.27084" lon="-2.31916">
        <ele>-9.3999996185303</ele>
        <time>2019-09-01T07:40:34.000Z</time>
      </trkpt>
      <trkpt lat="47.27083" lon="-2.3193">
        <ele>-9.8000001907349</ele>
        <time>2019-09-01T07:40:37.000Z</time>
      </trkpt>
      <trkpt lat="47.27083" lon="-2.31934">
        <ele>-10.199999809265</ele>
        <time>2019-09-01T07:40:38.000Z</time>
      </trkpt>
      <trkpt lat="47.27084" lon="-2.31938">
        <ele>-10.800000190735</ele>
        <time>2019-09-01T07:40:39.000Z</time>
      </trkpt>
      <trkpt lat="47.27085" lon="-2.31941">
        <ele>-11.199999809265</ele>
        <time>2019-09-01T07:40:40.000Z</time>
      </trkpt>
      <trkpt lat="47.27086" lon="-2.31943">
        <ele>-11.60000038147</ele>
        <time>2019-09-01T07:40:41.000Z</time>
      </trkpt>
      <trkpt lat="47.27088" lon="-2.31945">
        <ele>-11.60000038147</ele>
        <time>2019-09-01T07:40:42.000Z</time>
      </trkpt>
      <trkpt lat="47.27094" lon="-2.31951">
        <ele>-11.60000038147</ele>
        <time>2019-09-01T07:40:46.000Z</time>
      </trkpt>
      <trkpt lat="47.27096" lon="-2.31954">
        <ele>-11.60000038147</ele>
        <time>2019-09-01T07:40:47.000Z</time>
      </trkpt>
      <trkpt lat="47.27113" lon="-2.31968">
        <ele>-11.60000038147</ele>
        <time>2019-09-01T07:40:51.000Z</time>
      </trkpt>
      <trkpt lat="47.27141" lon="-2.31986">
        <ele>-11.60000038147</ele>
        <time>2019-09-01T07:40:56.000Z</time>
      </trkpt>
      <trkpt lat="47.27145" lon="-2.31987">
        <ele>-11.60000038147</ele>
        <time>2019-09-01T07:40:57.000Z</time>
      </trkpt>
      <trkpt lat="47.27157" lon="-2.31982">
        <ele>-12</ele>
        <time>2019-09-01T07:41:00.000Z</time>
      </trkpt>
      <trkpt lat="47.2716" lon="-2.31976">
        <ele>-12.39999961853</ele>
        <time>2019-09-01T07:41:01.000Z</time>
      </trkpt>
      <trkpt lat="47.27164" lon="-2.31971">
        <ele>-12.800000190735</ele>
        <time>2019-09-01T07:41:02.000Z</time>
      </trkpt>
      <trkpt lat="47.27168" lon="-2.31966">
        <ele>-13.199999809265</ele>
        <time>2019-09-01T07:41:03.000Z</time>
      </trkpt>
      <trkpt lat="47.27172" lon="-2.31962">
        <ele>-13.60000038147</ele>
        <time>2019-09-01T07:41:04.000Z</time>
      </trkpt>
      <trkpt lat="47.27175" lon="-2.31959">
        <ele>-13.60000038147</ele>
        <time>2019-09-01T07:41:05.000Z</time>
      </trkpt>
      <trkpt lat="47.27189" lon="-2.31942">
        <ele>-13.60000038147</ele>
        <time>2019-09-01T07:41:09.000Z</time>
      </trkpt>
      <trkpt lat="47.27192" lon="-2.31938">
        <ele>-13.60000038147</ele>
        <time>2019-09-01T07:41:10.000Z</time>
      </trkpt>
      <trkpt lat="47.27211" lon="-2.31919">
        <ele>-13.60000038147</ele>
        <time>2019-09-01T07:41:15.000Z</time>
      </trkpt>
      <trkpt lat="47.27233" lon="-2.31919">
        <ele>-12.800000190735</ele>
        <time>2019-09-01T07:41:20.000Z</time>
      </trkpt>
      <trkpt lat="47.27239" lon="-2.31921">
        <ele>-12.39999961853</ele>
        <time>2019-09-01T07:41:21.000Z</time>
      </trkpt>
      <trkpt lat="47.27245" lon="-2.31923">
        <ele>-12</ele>
        <time>2019-09-01T07:41:22.000Z</time>
      </trkpt>
      <trkpt lat="47.27251" lon="-2.31925">
        <ele>-11.60000038147</ele>
        <time>2019-09-01T07:41:23.000Z</time>
      </trkpt>
      <trkpt lat="47.27271" lon="-2.31933">
        <ele>-11.60000038147</ele>
        <time>2019-09-01T07:41:26.000Z</time>
      </trkpt>
      <trkpt lat="47.27313" lon="-2.31958">
        <ele>-11.60000038147</ele>
        <time>2019-09-01T07:41:32.000Z</time>
      </trkpt>
      <trkpt lat="47.27341" lon="-2.31995">
        <ele>-11.60000038147</ele>
        <time>2019-09-01T07:41:37.000Z</time>
      </trkpt>
      <trkpt lat="47.27373" lon="-2.32041">
        <ele>-11.60000038147</ele>
        <time>2019-09-01T07:41:44.000Z</time>
      </trkpt>
      <trkpt lat="47.27405" lon="-2.32074">
        <ele>-11.60000038147</ele>
        <time>2019-09-01T07:41:50.000Z</time>
      </trkpt>
      <trkpt lat="47.2741" lon="-2.32079">
        <ele>-11.60000038147</ele>
        <time>2019-09-01T07:41:51.000Z</time>
      </trkpt>
      <trkpt lat="47.27417" lon="-2.32094">
        <ele>-12</ele>
        <time>2019-09-01T07:41:53.000Z</time>
      </trkpt>
      <trkpt lat="47.2742" lon="-2.32103">
        <ele>-12.39999961853</ele>
        <time>2019-09-01T07:41:54.000Z</time>
      </trkpt>
      <trkpt lat="47.27421" lon="-2.32111">
        <ele>-12.800000190735</ele>
        <time>2019-09-01T07:41:55.000Z</time>
      </trkpt>
      <trkpt lat="47.27422" lon="-2.32121">
        <ele>-13.199999809265</ele>
        <time>2019-09-01T07:41:56.000Z</time>
      </trkpt>
      <trkpt lat="47.27422" lon="-2.32128">
        <ele>-13.60000038147</ele>
        <time>2019-09-01T07:41:57.000Z</time>
      </trkpt>
      <trkpt lat="47.27421" lon="-2.32137">
        <ele>-13.60000038147</ele>
        <time>2019-09-01T07:41:58.000Z</time>
      </trkpt>
      <trkpt lat="47.27412" lon="-2.32174">
        <ele>-13.60000038147</ele>
        <time>2019-09-01T07:42:01.000Z</time>
      </trkpt>
      <trkpt lat="47.2741" lon="-2.32185">
        <ele>-13.60000038147</ele>
        <time>2019-09-01T07:42:02.000Z</time>
      </trkpt>
      <trkpt lat="47.27396" lon="-2.32248">
        <ele>-13.60000038147</ele>
        <time>2019-09-01T07:42:08.000Z</time>
      </trkpt>
      <trkpt lat="47.27383" lon="-2.323">
        <ele>-13.199999809265</ele>
        <time>2019-09-01T07:42:14.000Z</time>
      </trkpt>
      <trkpt lat="47.27381" lon="-2.32309">
        <ele>-12.800000190735</ele>
        <time>2019-09-01T07:42:15.000Z</time>
      </trkpt>
      <trkpt lat="47.27379" lon="-2.32317">
        <ele>-12.39999961853</ele>
        <time>2019-09-01T07:42:16.000Z</time>
      </trkpt>
      <trkpt lat="47.27376" lon="-2.32325">
        <ele>-12</ele>
        <time>2019-09-01T07:42:17.000Z</time>
      </trkpt>
      <trkpt lat="47.27374" lon="-2.32334">
        <ele>-11.60000038147</ele>
        <time>2019-09-01T07:42:18.000Z</time>
      </trkpt>
      <trkpt lat="47.27368" lon="-2.3236">
        <ele>-11.60000038147</ele>
        <time>2019-09-01T07:42:21.000Z</time>
      </trkpt>
      <trkpt lat="47.27358" lon="-2.32404">
        <ele>-11.60000038147</ele>
        <time>2019-09-01T07:42:25.000Z</time>
      </trkpt>
      <trkpt lat="47.27336" lon="-2.32461">
        <ele>-11.60000038147</ele>
        <time>2019-09-01T07:42:31.000Z</time>
      </trkpt>
      <trkpt lat="47.27327" lon="-2.32476">
        <ele>-11.60000038147</ele>
        <time>2019-09-01T07:42:33.000Z</time>
      </trkpt>
      <trkpt lat="47.27318" lon="-2.3249">
        <ele>-11.60000038147</ele>
        <time>2019-09-01T07:42:35.000Z</time>
      </trkpt>
      <trkpt lat="47.27293" lon="-2.32531">
        <ele>-11.60000038147</ele>
        <time>2019-09-01T07:42:41.000Z</time>
      </trkpt>
      <trkpt lat="47.27264" lon="-2.32568">
        <ele>-11.60000038147</ele>
        <time>2019-09-01T07:42:47.000Z</time>
      </trkpt>
      <trkpt lat="47.27254" lon="-2.32579">
        <ele>-11.60000038147</ele>
        <time>2019-09-01T07:42:49.000Z</time>
      </trkpt>
      <trkpt lat="47.27226" lon="-2.32606">
        <ele>-11.60000038147</ele>
        <time>2019-09-01T07:42:54.000Z</time>
      </trkpt>
      <trkpt lat="47.27196" lon="-2.32635">
        <ele>-11.60000038147</ele>
        <time>2019-09-01T07:43:00.000Z</time>
      </trkpt>
      <trkpt lat="47.27163" lon="-2.32665">
        <ele>-11.60000038147</ele>
        <time>2019-09-01T07:43:07.000Z</time>
      </trkpt>
      <trkpt lat="47.27133" lon="-2.32695">
        <ele>-11.60000038147</ele>
        <time>2019-09-01T07:43:14.000Z</time>
      </trkpt>
      <trkpt lat="47.27126" lon="-2.32707">
        <ele>-11.60000038147</ele>
        <time>2019-09-01T07:43:17.000Z</time>
      </trkpt>
      <trkpt lat="47.2711" lon="-2.32722">
        <ele>-11.60000038147</ele>
        <time>2019-09-01T07:43:21.000Z</time>
      </trkpt>
      <trkpt lat="47.27106" lon="-2.32727">
        <ele>-11.60000038147</ele>
        <time>2019-09-01T07:43:22.000Z</time>
      </trkpt>
      <trkpt lat="47.27074" lon="-2.32757">
        <ele>-11.60000038147</ele>
        <time>2019-09-01T07:43:28.000Z</time>
      </trkpt>
      <trkpt lat="47.27033" lon="-2.32794">
        <ele>-11.60000038147</ele>
        <time>2019-09-01T07:43:35.000Z</time>
      </trkpt>
      <trkpt lat="47.26984" lon="-2.32839">
        <ele>-11.60000038147</ele>
        <time>2019-09-01T07:43:43.000Z</time>
      </trkpt>
      <trkpt lat="47.26976" lon="-2.32848">
        <ele>-12</ele>
        <time>2019-09-01T07:43:45.000Z</time>
      </trkpt>
      <trkpt lat="47.26971" lon="-2.32853">
        <ele>-12.39999961853</ele>
        <time>2019-09-01T07:43:46.000Z</time>
      </trkpt>
      <trkpt lat="47.26966" lon="-2.32857">
        <ele>-12.800000190735</ele>
        <time>2019-09-01T07:43:47.000Z</time>
      </trkpt>
      <trkpt lat="47.26962" lon="-2.32861">
        <ele>-13.199999809265</ele>
        <time>2019-09-01T07:43:48.000Z</time>
      </trkpt>
      <trkpt lat="47.26958" lon="-2.32865">
        <ele>-13.60000038147</ele>
        <time>2019-09-01T07:43:49.000Z</time>
      </trkpt>
      <trkpt lat="47.26935" lon="-2.32884">
        <ele>-13.60000038147</ele>
        <time>2019-09-01T07:43:54.000Z</time>
      </trkpt>
      <trkpt lat="47.26925" lon="-2.32896">
        <ele>-13.60000038147</ele>
        <time>2019-09-01T07:43:57.000Z</time>
      </trkpt>
      <trkpt lat="47.26922" lon="-2.329">
        <ele>-13.60000038147</ele>
        <time>2019-09-01T07:43:58.000Z</time>
      </trkpt>
      <trkpt lat="47.26901" lon="-2.32919">
        <ele>-13.60000038147</ele>
        <time>2019-09-01T07:44:03.000Z</time>
      </trkpt>
      <trkpt lat="47.26871" lon="-2.32948">
        <ele>-13.60000038147</ele>
        <time>2019-09-01T07:44:10.000Z</time>
      </trkpt>
      <trkpt lat="47.26834" lon="-2.32985">
        <ele>-13.60000038147</ele>
        <time>2019-09-01T07:44:18.000Z</time>
      </trkpt>
      <trkpt lat="47.26796" lon="-2.33021">
        <ele>-13.60000038147</ele>
        <time>2019-09-01T07:44:26.000Z</time>
      </trkpt>
      <trkpt lat="47.26763" lon="-2.33053">
        <ele>-13.60000038147</ele>
        <time>2019-09-01T07:44:34.000Z</time>
      </trkpt>
      <trkpt lat="47.26752" lon="-2.33063">
        <ele>-14.39999961853</ele>
        <time>2019-09-01T07:44:38.000Z</time>
      </trkpt>
      <trkpt lat="47.2675" lon="-2.33064">
        <ele>-14.800000190735</ele>
        <time>2019-09-01T07:44:39.000Z</time>
      </trkpt>
      <trkpt lat="47.26748" lon="-2.33065">
        <ele>-15.39999961853</ele>
        <time>2019-09-01T07:44:40.000Z</time>
      </trkpt>
      <trkpt lat="47.26746" lon="-2.33065">
        <ele>-15.800000190735</ele>
        <time>2019-09-01T07:44:41.000Z</time>
      </trkpt>
      <trkpt lat="47.26742" lon="-2.3307">
        <ele>-15.800000190735</ele>
        <time>2019-09-01T07:44:44.000Z</time>
      </trkpt>
      <trkpt lat="47.26736" lon="-2.33074">
        <ele>-15.800000190735</ele>
        <time>2019-09-01T07:44:48.000Z</time>
      </trkpt>
      <trkpt lat="47.26735" lon="-2.33076">
        <ele>-15.800000190735</ele>
        <time>2019-09-01T07:44:49.000Z</time>
      </trkpt>
      <trkpt lat="47.26734" lon="-2.33084">
        <ele>-15.800000190735</ele>
        <time>2019-09-01T07:44:55.000Z</time>
      </trkpt>
      <trkpt lat="47.26738" lon="-2.33093">
        <ele>-15.800000190735</ele>
        <time>2019-09-01T07:45:01.000Z</time>
      </trkpt>
      <trkpt lat="47.26739" lon="-2.33092">
        <ele>-15.800000190735</ele>
        <time>2019-09-01T07:45:02.000Z</time>
      </trkpt>
      <trkpt lat="47.26742" lon="-2.33089">
        <ele>-15.800000190735</ele>
        <time>2019-09-01T07:45:06.000Z</time>
      </trkpt>
      <trkpt lat="47.26745" lon="-2.33087">
        <ele>-15.800000190735</ele>
        <time>2019-09-01T07:45:08.000Z</time>
      </trkpt>
      <trkpt lat="47.26754" lon="-2.33095">
        <ele>-15.800000190735</ele>
        <time>2019-09-01T07:45:12.000Z</time>
      </trkpt>
      <trkpt lat="47.26761" lon="-2.33114">
        <ele>-15.800000190735</ele>
        <time>2019-09-01T07:45:16.000Z</time>
      </trkpt>
      <trkpt lat="47.2676" lon="-2.33142">
        <ele>-15.800000190735</ele>
        <time>2019-09-01T07:45:21.000Z</time>
      </trkpt>
      <trkpt lat="47.26748" lon="-2.33186">
        <ele>-15.800000190735</ele>
        <time>2019-09-01T07:45:27.000Z</time>
      </trkpt>
      <trkpt lat="47.26736" lon="-2.33226">
        <ele>-15.800000190735</ele>
        <time>2019-09-01T07:45:33.000Z</time>
      </trkpt>
      <trkpt lat="47.26729" lon="-2.3325">
        <ele>-15.800000190735</ele>
        <time>2019-09-01T07:45:37.000Z</time>
      </trkpt>
      <trkpt lat="47.26728" lon="-2.33263">
        <ele>-15.800000190735</ele>
        <time>2019-09-01T07:45:39.000Z</time>
      </trkpt>
      <trkpt lat="47.26728" lon="-2.33269">
        <ele>-15.800000190735</ele>
        <time>2019-09-01T07:45:40.000Z</time>
      </trkpt>
      <trkpt lat="47.26731" lon="-2.3329">
        <ele>-15.800000190735</ele>
        <time>2019-09-01T07:45:43.000Z</time>
      </trkpt>
      <trkpt lat="47.26732" lon="-2.33297">
        <ele>-15.800000190735</ele>
        <time>2019-09-01T07:45:44.000Z</time>
      </trkpt>
      <trkpt lat="47.26734" lon="-2.33303">
        <ele>-15.800000190735</ele>
        <time>2019-09-01T07:45:45.000Z</time>
      </trkpt>
      <trkpt lat="47.26742" lon="-2.33329">
        <ele>-15.800000190735</ele>
        <time>2019-09-01T07:45:49.000Z</time>
      </trkpt>
      <trkpt lat="47.26744" lon="-2.33337">
        <ele>-15.800000190735</ele>
        <time>2019-09-01T07:45:50.000Z</time>
      </trkpt>
      <trkpt lat="47.26748" lon="-2.3336">
        <ele>-15.800000190735</ele>
        <time>2019-09-01T07:45:53.000Z</time>
      </trkpt>
      <trkpt lat="47.26752" lon="-2.33401">
        <ele>-15.800000190735</ele>
        <time>2019-09-01T07:45:58.000Z</time>
      </trkpt>
      <trkpt lat="47.2676" lon="-2.33459">
        <ele>-15.800000190735</ele>
        <time>2019-09-01T07:46:05.000Z</time>
      </trkpt>
      <trkpt lat="47.26772" lon="-2.33525">
        <ele>-15.800000190735</ele>
        <time>2019-09-01T07:46:13.000Z</time>
      </trkpt>
      <trkpt lat="47.26778" lon="-2.33564">
        <ele>-15.800000190735</ele>
        <time>2019-09-01T07:46:18.000Z</time>
      </trkpt>
      <trkpt lat="47.26788" lon="-2.33568">
        <ele>-15.800000190735</ele>
        <time>2019-09-01T07:46:21.000Z</time>
      </trkpt>
      <trkpt lat="47.26802" lon="-2.33563">
        <ele>-15.800000190735</ele>
        <time>2019-09-01T07:46:24.000Z</time>
      </trkpt>
      <trkpt lat="47.26808" lon="-2.33562">
        <ele>-15.800000190735</ele>
        <time>2019-09-01T07:46:25.000Z</time>
      </trkpt>
      <trkpt lat="47.26836" lon="-2.3355">
        <ele>-15.800000190735</ele>
        <time>2019-09-01T07:46:30.000Z</time>
      </trkpt>
      <trkpt lat="47.26873" lon="-2.33537">
        <ele>-15.800000190735</ele>
        <time>2019-09-01T07:46:36.000Z</time>
      </trkpt>
      <trkpt lat="47.26888" lon="-2.33548">
        <ele>-15.800000190735</ele>
        <time>2019-09-01T07:46:39.000Z</time>
      </trkpt>
      <trkpt lat="47.26896" lon="-2.33559">
        <ele>-15.39999961853</ele>
        <time>2019-09-01T07:46:41.000Z</time>
      </trkpt>
      <trkpt lat="47.26899" lon="-2.33566">
        <ele>-15</ele>
        <time>2019-09-01T07:46:42.000Z</time>
      </trkpt>
      <trkpt lat="47.26901" lon="-2.33572">
        <ele>-14.60000038147</ele>
        <time>2019-09-01T07:46:43.000Z</time>
      </trkpt>
      <trkpt lat="47.26904" lon="-2.33578">
        <ele>-14.199999809265</ele>
        <time>2019-09-01T07:46:44.000Z</time>
      </trkpt>
      <trkpt lat="47.26907" lon="-2.33585">
        <ele>-13.800000190735</ele>
        <time>2019-09-01T07:46:45.000Z</time>
      </trkpt>
      <trkpt lat="47.2691" lon="-2.33592">
        <ele>-13.800000190735</ele>
        <time>2019-09-01T07:46:46.000Z</time>
      </trkpt>
      <trkpt lat="47.26917" lon="-2.33612">
        <ele>-13.800000190735</ele>
        <time>2019-09-01T07:46:49.000Z</time>
      </trkpt>
      <trkpt lat="47.26921" lon="-2.33626">
        <ele>-13.39999961853</ele>
        <time>2019-09-01T07:46:51.000Z</time>
      </trkpt>
      <trkpt lat="47.26923" lon="-2.33632">
        <ele>-13</ele>
        <time>2019-09-01T07:46:52.000Z</time>
      </trkpt>
      <trkpt lat="47.26925" lon="-2.33639">
        <ele>-12.60000038147</ele>
        <time>2019-09-01T07:46:53.000Z</time>
      </trkpt>
      <trkpt lat="47.26927" lon="-2.33647">
        <ele>-12</ele>
        <time>2019-09-01T07:46:54.000Z</time>
      </trkpt>
      <trkpt lat="47.26928" lon="-2.33655">
        <ele>-11.60000038147</ele>
        <time>2019-09-01T07:46:55.000Z</time>
      </trkpt>
      <trkpt lat="47.26939" lon="-2.33707">
        <ele>-11.60000038147</ele>
        <time>2019-09-01T07:47:02.000Z</time>
      </trkpt>
      <trkpt lat="47.2694" lon="-2.33729">
        <ele>-11.60000038147</ele>
        <time>2019-09-01T07:47:05.000Z</time>
      </trkpt>
      <trkpt lat="47.26937" lon="-2.33744">
        <ele>-11.60000038147</ele>
        <time>2019-09-01T07:47:07.000Z</time>
      </trkpt>
      <trkpt lat="47.26935" lon="-2.33759">
        <ele>-11.60000038147</ele>
        <time>2019-09-01T07:47:09.000Z</time>
      </trkpt>
      <trkpt lat="47.26932" lon="-2.33785">
        <ele>-11.60000038147</ele>
        <time>2019-09-01T07:47:12.000Z</time>
      </trkpt>
      <trkpt lat="47.26938" lon="-2.33808">
        <ele>-11.60000038147</ele>
        <time>2019-09-01T07:47:15.000Z</time>
      </trkpt>
      <trkpt lat="47.26947" lon="-2.33817">
        <ele>-11.60000038147</ele>
        <time>2019-09-01T07:47:17.000Z</time>
      </trkpt>
      <trkpt lat="47.26951" lon="-2.33822">
        <ele>-11.60000038147</ele>
        <time>2019-09-01T07:47:18.000Z</time>
      </trkpt>
      <trkpt lat="47.26956" lon="-2.33826">
        <ele>-11.60000038147</ele>
        <time>2019-09-01T07:47:19.000Z</time>
      </trkpt>
      <trkpt lat="47.26979" lon="-2.3384">
        <ele>-11.199999809265</ele>
        <time>2019-09-01T07:47:24.000Z</time>
      </trkpt>
      <trkpt lat="47.26984" lon="-2.33843">
        <ele>-10.800000190735</ele>
        <time>2019-09-01T07:47:25.000Z</time>
      </trkpt>
      <trkpt lat="47.26988" lon="-2.33846">
        <ele>-10.39999961853</ele>
        <time>2019-09-01T07:47:26.000Z</time>
      </trkpt>
      <trkpt lat="47.26992" lon="-2.33849">
        <ele>-9.8000001907349</ele>
        <time>2019-09-01T07:47:27.000Z</time>
      </trkpt>
      <trkpt lat="47.26996" lon="-2.33852">
        <ele>-9.3999996185303</ele>
        <time>2019-09-01T07:47:28.000Z</time>
      </trkpt>
      <trkpt lat="47.26998" lon="-2.33863">
        <ele>-9.3999996185303</ele>
        <time>2019-09-01T07:47:30.000Z</time>
      </trkpt>
      <trkpt lat="47.26995" lon="-2.33883">
        <ele>-9.3999996185303</ele>
        <time>2019-09-01T07:47:33.000Z</time>
      </trkpt>
      <trkpt lat="47.26994" lon="-2.33891">
        <ele>-9.3999996185303</ele>
        <time>2019-09-01T07:47:34.000Z</time>
      </trkpt>
      <trkpt lat="47.26978" lon="-2.33945">
        <ele>-9.3999996185303</ele>
        <time>2019-09-01T07:47:40.000Z</time>
      </trkpt>
      <trkpt lat="47.26968" lon="-2.34">
        <ele>-9.3999996185303</ele>
        <time>2019-09-01T07:47:46.000Z</time>
      </trkpt>
      <trkpt lat="47.26968" lon="-2.34008">
        <ele>-9.3999996185303</ele>
        <time>2019-09-01T07:47:47.000Z</time>
      </trkpt>
      <trkpt lat="47.26973" lon="-2.34019">
        <ele>-9.3999996185303</ele>
        <time>2019-09-01T07:47:49.000Z</time>
      </trkpt>
      <trkpt lat="47.26977" lon="-2.34019">
        <ele>-9.8000001907349</ele>
        <time>2019-09-01T07:47:50.000Z</time>
      </trkpt>
      <trkpt lat="47.26982" lon="-2.34018">
        <ele>-10.199999809265</ele>
        <time>2019-09-01T07:47:51.000Z</time>
      </trkpt>
      <trkpt lat="47.26987" lon="-2.34018">
        <ele>-10.60000038147</ele>
        <time>2019-09-01T07:47:52.000Z</time>
      </trkpt>
      <trkpt lat="47.26992" lon="-2.34018">
        <ele>-11.199999809265</ele>
        <time>2019-09-01T07:47:53.000Z</time>
      </trkpt>
      <trkpt lat="47.26997" lon="-2.34017">
        <ele>-11.60000038147</ele>
        <time>2019-09-01T07:47:54.000Z</time>
      </trkpt>
      <trkpt lat="47.27022" lon="-2.34015">
        <ele>-11.60000038147</ele>
        <time>2019-09-01T07:47:59.000Z</time>
      </trkpt>
      <trkpt lat="47.27043" lon="-2.3402">
        <ele>-11.60000038147</ele>
        <time>2019-09-01T07:48:04.000Z</time>
      </trkpt>
      <trkpt lat="47.27048" lon="-2.34036">
        <ele>-11.60000038147</ele>
        <time>2019-09-01T07:48:07.000Z</time>
      </trkpt>
      <trkpt lat="47.27049" lon="-2.34042">
        <ele>-11.60000038147</ele>
        <time>2019-09-01T07:48:08.000Z</time>
      </trkpt>
      <trkpt lat="47.27049" lon="-2.3405">
        <ele>-11.60000038147</ele>
        <time>2019-09-01T07:48:09.000Z</time>
      </trkpt>
      <trkpt lat="47.2705" lon="-2.34065">
        <ele>-11.60000038147</ele>
        <time>2019-09-01T07:48:11.000Z</time>
      </trkpt>
      <trkpt lat="47.2705" lon="-2.34074">
        <ele>-11.60000038147</ele>
        <time>2019-09-01T07:48:12.000Z</time>
      </trkpt>
      <trkpt lat="47.27048" lon="-2.34136">
        <ele>-11.60000038147</ele>
        <time>2019-09-01T07:48:19.000Z</time>
      </trkpt>
      <trkpt lat="47.27047" lon="-2.34144">
        <ele>-11.199999809265</ele>
        <time>2019-09-01T07:48:20.000Z</time>
      </trkpt>
      <trkpt lat="47.27047" lon="-2.34152">
        <ele>-10.800000190735</ele>
        <time>2019-09-01T07:48:21.000Z</time>
      </trkpt>
      <trkpt lat="47.27049" lon="-2.34157">
        <ele>-10.199999809265</ele>
        <time>2019-09-01T07:48:22.000Z</time>
      </trkpt>
      <trkpt lat="47.27049" lon="-2.3416">
        <ele>-9.8000001907349</ele>
        <time>2019-09-01T07:48:23.000Z</time>
      </trkpt>
      <trkpt lat="47.2705" lon="-2.34159">
        <ele>-9.3999996185303</ele>
        <time>2019-09-01T07:48:24.000Z</time>
      </trkpt>
      <trkpt lat="47.27053" lon="-2.34156">
        <ele>-9.3999996185303</ele>
        <time>2019-09-01T07:48:25.000Z</time>
      </trkpt>
      <trkpt lat="47.27056" lon="-2.34149">
        <ele>-9.3999996185303</ele>
        <time>2019-09-01T07:48:26.000Z</time>
      </trkpt>
      <trkpt lat="47.27073" lon="-2.3412">
        <ele>-9.3999996185303</ele>
        <time>2019-09-01T07:48:31.000Z</time>
      </trkpt>
      <trkpt lat="47.27087" lon="-2.34109">
        <ele>-9.3999996185303</ele>
        <time>2019-09-01T07:48:35.000Z</time>
      </trkpt>
      <trkpt lat="47.27092" lon="-2.34127">
        <ele>-9.3999996185303</ele>
        <time>2019-09-01T07:48:38.000Z</time>
      </trkpt>
      <trkpt lat="47.27092" lon="-2.34142">
        <ele>-9.3999996185303</ele>
        <time>2019-09-01T07:48:40.000Z</time>
      </trkpt>
      <trkpt lat="47.27092" lon="-2.34166">
        <ele>-9.3999996185303</ele>
        <time>2019-09-01T07:48:43.000Z</time>
      </trkpt>
      <trkpt lat="47.27093" lon="-2.34183">
        <ele>-9.3999996185303</ele>
        <time>2019-09-01T07:48:45.000Z</time>
      </trkpt>
      <trkpt lat="47.27098" lon="-2.34208">
        <ele>-9.3999996185303</ele>
        <time>2019-09-01T07:48:48.000Z</time>
      </trkpt>
      <trkpt lat="47.271" lon="-2.34225">
        <ele>-9</ele>
        <time>2019-09-01T07:48:50.000Z</time>
      </trkpt>
      <trkpt lat="47.27102" lon="-2.34234">
        <ele>-8.6000003814697</ele>
        <time>2019-09-01T07:48:51.000Z</time>
      </trkpt>
      <trkpt lat="47.27103" lon="-2.34241">
        <ele>-8.1999998092651</ele>
        <time>2019-09-01T07:48:52.000Z</time>
      </trkpt>
      <trkpt lat="47.27104" lon="-2.34249">
        <ele>-7.8000001907349</ele>
        <time>2019-09-01T07:48:53.000Z</time>
      </trkpt>
      <trkpt lat="47.27106" lon="-2.34256">
        <ele>-7.4000000953674</ele>
        <time>2019-09-01T07:48:54.000Z</time>
      </trkpt>
      <trkpt lat="47.27112" lon="-2.34279">
        <ele>-7.4000000953674</ele>
        <time>2019-09-01T07:48:58.000Z</time>
      </trkpt>
      <trkpt lat="47.27116" lon="-2.34299">
        <ele>-7.4000000953674</ele>
        <time>2019-09-01T07:49:04.000Z</time>
      </trkpt>
      <trkpt lat="47.27117" lon="-2.34302">
        <ele>-7.4000000953674</ele>
        <time>2019-09-01T07:49:07.000Z</time>
      </trkpt>
      <trkpt lat="47.27119" lon="-2.34307">
        <ele>-7.4000000953674</ele>
        <time>2019-09-01T07:49:25.000Z</time>
      </trkpt>
      <trkpt lat="47.2712" lon="-2.34311">
        <ele>-7.4000000953674</ele>
        <time>2019-09-01T07:49:26.000Z</time>
      </trkpt>
      <trkpt lat="47.27127" lon="-2.34333">
        <ele>-7.4000000953674</ele>
        <time>2019-09-01T07:49:30.000Z</time>
      </trkpt>
      <trkpt lat="47.27131" lon="-2.34347">
        <ele>-7.4000000953674</ele>
        <time>2019-09-01T07:49:32.000Z</time>
      </trkpt>
      <trkpt lat="47.27136" lon="-2.34369">
        <ele>-7.4000000953674</ele>
        <time>2019-09-01T07:49:35.000Z</time>
      </trkpt>
      <trkpt lat="47.2715" lon="-2.34429">
        <ele>-7.4000000953674</ele>
        <time>2019-09-01T07:49:42.000Z</time>
      </trkpt>
      <trkpt lat="47.27165" lon="-2.34493">
        <ele>-7.4000000953674</ele>
        <time>2019-09-01T07:49:49.000Z</time>
      </trkpt>
      <trkpt lat="47.27181" lon="-2.34561">
        <ele>-7.4000000953674</ele>
        <time>2019-09-01T07:49:56.000Z</time>
      </trkpt>
      <trkpt lat="47.27197" lon="-2.34636">
        <ele>-7.4000000953674</ele>
        <time>2019-09-01T07:50:04.000Z</time>
      </trkpt>
      <trkpt lat="47.27209" lon="-2.34691">
        <ele>-7.4000000953674</ele>
        <time>2019-09-01T07:50:10.000Z</time>
      </trkpt>
      <trkpt lat="47.27216" lon="-2.34718">
        <ele>-7</ele>
        <time>2019-09-01T07:50:13.000Z</time>
      </trkpt>
      <trkpt lat="47.27218" lon="-2.34728">
        <ele>-6.4000000953674</ele>
        <time>2019-09-01T07:50:14.000Z</time>
      </trkpt>
      <trkpt lat="47.27219" lon="-2.34737">
        <ele>-6</ele>
        <time>2019-09-01T07:50:15.000Z</time>
      </trkpt>
      <trkpt lat="47.27221" lon="-2.34747">
        <ele>-5.5999999046326</ele>
        <time>2019-09-01T07:50:16.000Z</time>
      </trkpt>
      <trkpt lat="47.27223" lon="-2.34756">
        <ele>-5.1999998092651</ele>
        <time>2019-09-01T07:50:17.000Z</time>
      </trkpt>
      <trkpt lat="47.27225" lon="-2.34774">
        <ele>-5.1999998092651</ele>
        <time>2019-09-01T07:50:19.000Z</time>
      </trkpt>
      <trkpt lat="47.27238" lon="-2.3481">
        <ele>-5.1999998092651</ele>
        <time>2019-09-01T07:50:23.000Z</time>
      </trkpt>
      <trkpt lat="47.27241" lon="-2.34813">
        <ele>-5.1999998092651</ele>
        <time>2019-09-01T07:50:26.000Z</time>
      </trkpt>
      <trkpt lat="47.27254" lon="-2.34815">
        <ele>-5.1999998092651</ele>
        <time>2019-09-01T07:50:29.000Z</time>
      </trkpt>
      <trkpt lat="47.27269" lon="-2.34804">
        <ele>-4.5999999046326</ele>
        <time>2019-09-01T07:50:32.000Z</time>
      </trkpt>
      <trkpt lat="47.27273" lon="-2.34801">
        <ele>-4.1999998092651</ele>
        <time>2019-09-01T07:50:33.000Z</time>
      </trkpt>
      <trkpt lat="47.27277" lon="-2.34799">
        <ele>-3.7999999523163</ele>
        <time>2019-09-01T07:50:34.000Z</time>
      </trkpt>
      <trkpt lat="47.27281" lon="-2.34797">
        <ele>-3.4000000953674</ele>
        <time>2019-09-01T07:50:35.000Z</time>
      </trkpt>
      <trkpt lat="47.27285" lon="-2.34793">
        <ele>-3</ele>
        <time>2019-09-01T07:50:36.000Z</time>
      </trkpt>
      <trkpt lat="47.27294" lon="-2.34786">
        <ele>-2.4000000953674</ele>
        <time>2019-09-01T07:50:38.000Z</time>
      </trkpt>
      <trkpt lat="47.27299" lon="-2.34783">
        <ele>-2</ele>
        <time>2019-09-01T07:50:39.000Z</time>
      </trkpt>
      <trkpt lat="47.27304" lon="-2.34779">
        <ele>-1.6000000238419</ele>
        <time>2019-09-01T07:50:40.000Z</time>
      </trkpt>
      <trkpt lat="47.27309" lon="-2.34776">
        <ele>-1</ele>
        <time>2019-09-01T07:50:41.000Z</time>
      </trkpt>
      <trkpt lat="47.27313" lon="-2.34773">
        <ele>-0.60000002384186</ele>
        <time>2019-09-01T07:50:42.000Z</time>
      </trkpt>
      <trkpt lat="47.2733" lon="-2.34762">
        <ele>-0.60000002384186</ele>
        <time>2019-09-01T07:50:46.000Z</time>
      </trkpt>
      <trkpt lat="47.27335" lon="-2.3476">
        <ele>-0.20000000298023</ele>
        <time>2019-09-01T07:50:47.000Z</time>
      </trkpt>
      <trkpt lat="47.27338" lon="-2.34761">
        <ele>0.20000000298023</ele>
        <time>2019-09-01T07:50:48.000Z</time>
      </trkpt>
      <trkpt lat="47.27342" lon="-2.34764">
        <ele>1</ele>
        <time>2019-09-01T07:50:49.000Z</time>
      </trkpt>
      <trkpt lat="47.27345" lon="-2.3477">
        <ele>1.3999999761581</ele>
        <time>2019-09-01T07:50:50.000Z</time>
      </trkpt>
      <trkpt lat="47.2735" lon="-2.3479">
        <ele>1.3999999761581</ele>
        <time>2019-09-01T07:50:53.000Z</time>
      </trkpt>
      <trkpt lat="47.27351" lon="-2.34797">
        <ele>1.3999999761581</ele>
        <time>2019-09-01T07:50:54.000Z</time>
      </trkpt>
      <trkpt lat="47.27357" lon="-2.34822">
        <ele>1.3999999761581</ele>
        <time>2019-09-01T07:50:57.000Z</time>
      </trkpt>
      <trkpt lat="47.2736" lon="-2.34837">
        <ele>1.3999999761581</ele>
        <time>2019-09-01T07:50:59.000Z</time>
      </trkpt>
      <trkpt lat="47.27364" lon="-2.34854">
        <ele>1.3999999761581</ele>
        <time>2019-09-01T07:51:01.000Z</time>
      </trkpt>
      <trkpt lat="47.27365" lon="-2.34874">
        <ele>1.3999999761581</ele>
        <time>2019-09-01T07:51:03.000Z</time>
      </trkpt>
      <trkpt lat="47.27369" lon="-2.34915">
        <ele>1</ele>
        <time>2019-09-01T07:51:07.000Z</time>
      </trkpt>
      <trkpt lat="47.2737" lon="-2.34926">
        <ele>0.60000002384186</ele>
        <time>2019-09-01T07:51:08.000Z</time>
      </trkpt>
      <trkpt lat="47.27371" lon="-2.34937">
        <ele>0.20000000298023</ele>
        <time>2019-09-01T07:51:09.000Z</time>
      </trkpt>
      <trkpt lat="47.27373" lon="-2.34949">
        <ele>-0.40000000596046</ele>
        <time>2019-09-01T07:51:10.000Z</time>
      </trkpt>
      <trkpt lat="47.27374" lon="-2.34959">
        <ele>-0.80000001192093</ele>
        <time>2019-09-01T07:51:11.000Z</time>
      </trkpt>
      <trkpt lat="47.27379" lon="-2.34981">
        <ele>-0.80000001192093</ele>
        <time>2019-09-01T07:51:13.000Z</time>
      </trkpt>
      <trkpt lat="47.27385" lon="-2.35">
        <ele>-0.80000001192093</ele>
        <time>2019-09-01T07:51:15.000Z</time>
      </trkpt>
      <trkpt lat="47.274" lon="-2.35064">
        <ele>-0.80000001192093</ele>
        <time>2019-09-01T07:51:22.000Z</time>
      </trkpt>
      <trkpt lat="47.27413" lon="-2.35126">
        <ele>-0.80000001192093</ele>
        <time>2019-09-01T07:51:29.000Z</time>
      </trkpt>
      <trkpt lat="47.27424" lon="-2.35175">
        <ele>-0.80000001192093</ele>
        <time>2019-09-01T07:51:36.000Z</time>
      </trkpt>
      <trkpt lat="47.27433" lon="-2.35175">
        <ele>-0.80000001192093</ele>
        <time>2019-09-01T07:51:39.000Z</time>
      </trkpt>
      <trkpt lat="47.27446" lon="-2.35168">
        <ele>-0.80000001192093</ele>
        <time>2019-09-01T07:51:42.000Z</time>
      </trkpt>
      <trkpt lat="47.27451" lon="-2.35164">
        <ele>-0.80000001192093</ele>
        <time>2019-09-01T07:51:43.000Z</time>
      </trkpt>
      <trkpt lat="47.27466" lon="-2.35154">
        <ele>-0.80000001192093</ele>
        <time>2019-09-01T07:51:46.000Z</time>
      </trkpt>
      <trkpt lat="47.27471" lon="-2.35151">
        <ele>-0.40000000596046</ele>
        <time>2019-09-01T07:51:47.000Z</time>
      </trkpt>
      <trkpt lat="47.27475" lon="-2.35149">
        <ele>22.1</ele>
        <time>2019-09-01T07:51:48.000Z</time>
      </trkpt>
      <trkpt lat="47.27481" lon="-2.35146">
        <ele>0.40000000596046</ele>
        <time>2019-09-01T07:51:49.000Z</time>
      </trkpt>
      <trkpt lat="47.27485" lon="-2.35144">
        <ele>0.80000001192093</ele>
        <time>2019-09-01T07:51:50.000Z</time>
      </trkpt>
      <trkpt lat="47.2749" lon="-2.35142">
        <ele>1.2000000476837</ele>
        <time>2019-09-01T07:51:51.000Z</time>
      </trkpt>
      <trkpt lat="47.27492" lon="-2.35137">
        <ele>1.2000000476837</ele>
        <time>2019-09-01T07:51:52.000Z</time>
      </trkpt>
      <trkpt lat="47.27494" lon="-2.35132">
        <ele>1.2000000476837</ele>
        <time>2019-09-01T07:51:53.000Z</time>
      </trkpt>
      <trkpt lat="47.27506" lon="-2.35132">
        <ele>1.2000000476837</ele>
        <time>2019-09-01T07:51:56.000Z</time>
      </trkpt>
      <trkpt lat="47.27514" lon="-2.35135">
        <ele>1.2000000476837</ele>
        <time>2019-09-01T07:51:58.000Z</time>
      </trkpt>
      <trkpt lat="47.27528" lon="-2.35139">
        <ele>1.2000000476837</ele>
        <time>2019-09-01T07:52:01.000Z</time>
      </trkpt>
      <trkpt lat="47.27533" lon="-2.35139">
        <ele>1.2000000476837</ele>
        <time>2019-09-01T07:52:02.000Z</time>
      </trkpt>
      <trkpt lat="47.27561" lon="-2.35134">
        <ele>1.2000000476837</ele>
        <time>2019-09-01T07:52:07.000Z</time>
      </trkpt>
      <trkpt lat="47.27588" lon="-2.35131">
        <ele>1.2000000476837</ele>
        <time>2019-09-01T07:52:12.000Z</time>
      </trkpt>
      <trkpt lat="47.27596" lon="-2.35133">
        <ele>1.2000000476837</ele>
        <time>2019-09-01T07:52:13.000Z</time>
      </trkpt>
      <trkpt lat="47.27608" lon="-2.3515">
        <ele>1.2000000476837</ele>
        <time>2019-09-01T07:52:16.000Z</time>
      </trkpt>
      <trkpt lat="47.2761" lon="-2.35165">
        <ele>1.2000000476837</ele>
        <time>2019-09-01T07:52:18.000Z</time>
      </trkpt>
      <trkpt lat="47.27613" lon="-2.35171">
        <ele>1.2000000476837</ele>
        <time>2019-09-01T07:52:19.000Z</time>
      </trkpt>
      <trkpt lat="47.27625" lon="-2.35174">
        <ele>1.2000000476837</ele>
        <time>2019-09-01T07:52:21.000Z</time>
      </trkpt>
      <trkpt lat="47.27636" lon="-2.35172">
        <ele>1.2000000476837</ele>
        <time>2019-09-01T07:52:23.000Z</time>
      </trkpt>
      <trkpt lat="47.27648" lon="-2.3517">
        <ele>1.2000000476837</ele>
        <time>2019-09-01T07:52:25.000Z</time>
      </trkpt>
      <trkpt lat="47.27664" lon="-2.3517">
        <ele>1.2000000476837</ele>
        <time>2019-09-01T07:52:28.000Z</time>
      </trkpt>
      <trkpt lat="47.27668" lon="-2.35175">
        <ele>1.2000000476837</ele>
        <time>2019-09-01T07:52:29.000Z</time>
      </trkpt>
      <trkpt lat="47.27674" lon="-2.35196">
        <ele>1.2000000476837</ele>
        <time>2019-09-01T07:52:32.000Z</time>
      </trkpt>
      <trkpt lat="47.27675" lon="-2.35211">
        <ele>1.2000000476837</ele>
        <time>2019-09-01T07:52:34.000Z</time>
      </trkpt>
      <trkpt lat="47.27676" lon="-2.35216">
        <ele>0.80000001192093</ele>
        <time>2019-09-01T07:52:35.000Z</time>
      </trkpt>
      <trkpt lat="47.27678" lon="-2.35219">
        <ele>0.20000000298023</ele>
        <time>2019-09-01T07:52:36.000Z</time>
      </trkpt>
      <trkpt lat="47.27681" lon="-2.3522">
        <ele>-0.20000000298023</ele>
        <time>2019-09-01T07:52:37.000Z</time>
      </trkpt>
      <trkpt lat="47.27685" lon="-2.35221">
        <ele>-0.80000001192093</ele>
        <time>2019-09-01T07:52:38.000Z</time>
      </trkpt>
      <trkpt lat="47.27688" lon="-2.3522">
        <ele>-1.2000000476837</ele>
        <time>2019-09-01T07:52:39.000Z</time>
      </trkpt>
      <trkpt lat="47.27704" lon="-2.35214">
        <ele>-1.2000000476837</ele>
        <time>2019-09-01T07:52:42.000Z</time>
      </trkpt>
      <trkpt lat="47.2771" lon="-2.35212">
        <ele>-1.2000000476837</ele>
        <time>2019-09-01T07:52:43.000Z</time>
      </trkpt>
      <trkpt lat="47.27749" lon="-2.35203">
        <ele>-1.2000000476837</ele>
        <time>2019-09-01T07:52:49.000Z</time>
      </trkpt>
      <trkpt lat="47.27755" lon="-2.35201">
        <ele>-1.6000000238419</ele>
        <time>2019-09-01T07:52:50.000Z</time>
      </trkpt>
      <trkpt lat="47.2776" lon="-2.35201">
        <ele>-2.2000000476837</ele>
        <time>2019-09-01T07:52:51.000Z</time>
      </trkpt>
      <trkpt lat="47.27765" lon="-2.35202">
        <ele>-3</ele>
        <time>2019-09-01T07:52:52.000Z</time>
      </trkpt>
      <trkpt lat="47.27768" lon="-2.35204">
        <ele>-3.4000000953674</ele>
        <time>2019-09-01T07:52:53.000Z</time>
      </trkpt>
      <trkpt lat="47.27776" lon="-2.35222">
        <ele>-3.4000000953674</ele>
        <time>2019-09-01T07:52:56.000Z</time>
      </trkpt>
      <trkpt lat="47.27781" lon="-2.35237">
        <ele>-3.4000000953674</ele>
        <time>2019-09-01T07:52:58.000Z</time>
      </trkpt>
      <trkpt lat="47.27787" lon="-2.35265">
        <ele>-3.4000000953674</ele>
        <time>2019-09-01T07:53:01.000Z</time>
      </trkpt>
      <trkpt lat="47.27803" lon="-2.3534">
        <ele>-3.4000000953674</ele>
        <time>2019-09-01T07:53:09.000Z</time>
      </trkpt>
      <trkpt lat="47.2781" lon="-2.35358">
        <ele>-3.4000000953674</ele>
        <time>2019-09-01T07:53:11.000Z</time>
      </trkpt>
      <trkpt lat="47.27822" lon="-2.35363">
        <ele>-3.4000000953674</ele>
        <time>2019-09-01T07:53:13.000Z</time>
      </trkpt>
      <trkpt lat="47.27835" lon="-2.35361">
        <ele>-3.4000000953674</ele>
        <time>2019-09-01T07:53:15.000Z</time>
      </trkpt>
      <trkpt lat="47.27846" lon="-2.35361">
        <ele>-3.4000000953674</ele>
        <time>2019-09-01T07:53:17.000Z</time>
      </trkpt>
      <trkpt lat="47.27874" lon="-2.35362">
        <ele>-3.4000000953674</ele>
        <time>2019-09-01T07:53:22.000Z</time>
      </trkpt>
      <trkpt lat="47.27879" lon="-2.35365">
        <ele>-3.4000000953674</ele>
        <time>2019-09-01T07:53:23.000Z</time>
      </trkpt>
      <trkpt lat="47.27892" lon="-2.35382">
        <ele>-3.4000000953674</ele>
        <time>2019-09-01T07:53:26.000Z</time>
      </trkpt>
      <trkpt lat="47.27896" lon="-2.35388">
        <ele>-3.4000000953674</ele>
        <time>2019-09-01T07:53:27.000Z</time>
      </trkpt>
      <trkpt lat="47.27909" lon="-2.35406">
        <ele>-3</ele>
        <time>2019-09-01T07:53:30.000Z</time>
      </trkpt>
      <trkpt lat="47.27914" lon="-2.35412">
        <ele>-2.5999999046326</ele>
        <time>2019-09-01T07:53:31.000Z</time>
      </trkpt>
      <trkpt lat="47.27919" lon="-2.35418">
        <ele>-2.2000000476837</ele>
        <time>2019-09-01T07:53:32.000Z</time>
      </trkpt>
      <trkpt lat="47.27923" lon="-2.35424">
        <ele>-1.7999999523163</ele>
        <time>2019-09-01T07:53:33.000Z</time>
      </trkpt>
      <trkpt lat="47.27928" lon="-2.35431">
        <ele>-1.3999999761581</ele>
        <time>2019-09-01T07:53:34.000Z</time>
      </trkpt>
      <trkpt lat="47.27948" lon="-2.35453">
        <ele>-1.3999999761581</ele>
        <time>2019-09-01T07:53:38.000Z</time>
      </trkpt>
      <trkpt lat="47.27953" lon="-2.35458">
        <ele>-1.3999999761581</ele>
        <time>2019-09-01T07:53:39.000Z</time>
      </trkpt>
      <trkpt lat="47.27976" lon="-2.35476">
        <ele>-1.3999999761581</ele>
        <time>2019-09-01T07:53:43.000Z</time>
      </trkpt>
      <trkpt lat="47.27981" lon="-2.35483">
        <ele>-1.3999999761581</ele>
        <time>2019-09-01T07:53:44.000Z</time>
      </trkpt>
      <trkpt lat="47.27993" lon="-2.35506">
        <ele>-1.3999999761581</ele>
        <time>2019-09-01T07:53:47.000Z</time>
      </trkpt>
      <trkpt lat="47.28" lon="-2.35518">
        <ele>-1.3999999761581</ele>
        <time>2019-09-01T07:53:49.000Z</time>
      </trkpt>
      <trkpt lat="47.28005" lon="-2.3553">
        <ele>-1.3999999761581</ele>
        <time>2019-09-01T07:53:51.000Z</time>
      </trkpt>
      <trkpt lat="47.28009" lon="-2.35544">
        <ele>-1.3999999761581</ele>
        <time>2019-09-01T07:53:54.000Z</time>
      </trkpt>
      <trkpt lat="47.28022" lon="-2.35557">
        <ele>-1.3999999761581</ele>
        <time>2019-09-01T07:53:59.000Z</time>
      </trkpt>
      <trkpt lat="47.28025" lon="-2.35561">
        <ele>-1.3999999761581</ele>
        <time>2019-09-01T07:54:00.000Z</time>
      </trkpt>
      <trkpt lat="47.28033" lon="-2.35575">
        <ele>-1.3999999761581</ele>
        <time>2019-09-01T07:54:03.000Z</time>
      </trkpt>
      <trkpt lat="47.28041" lon="-2.35602">
        <ele>-1.3999999761581</ele>
        <time>2019-09-01T07:54:08.000Z</time>
      </trkpt>
      <trkpt lat="47.28044" lon="-2.35605">
        <ele>-1.3999999761581</ele>
        <time>2019-09-01T07:54:09.000Z</time>
      </trkpt>
      <trkpt lat="47.28052" lon="-2.35606">
        <ele>-0.80000001192093</ele>
        <time>2019-09-01T07:54:11.000Z</time>
      </trkpt>
      <trkpt lat="47.28056" lon="-2.35608">
        <ele>-0.40000000596046</ele>
        <time>2019-09-01T07:54:12.000Z</time>
      </trkpt>
      <trkpt lat="47.2806" lon="-2.3561">
        <ele>21.1</ele>
        <time>2019-09-01T07:54:13.000Z</time>
      </trkpt>
      <trkpt lat="47.28063" lon="-2.35613">
        <ele>0.60000002384186</ele>
        <time>2019-09-01T07:54:14.000Z</time>
      </trkpt>
      <trkpt lat="47.28066" lon="-2.35612">
        <ele>1</ele>
        <time>2019-09-01T07:54:15.000Z</time>
      </trkpt>
      <trkpt lat="47.28069" lon="-2.35611">
        <ele>1</ele>
        <time>2019-09-01T07:54:16.000Z</time>
      </trkpt>
      <trkpt lat="47.28075" lon="-2.35625">
        <ele>1</ele>
        <time>2019-09-01T07:54:19.000Z</time>
      </trkpt>
      <trkpt lat="47.28077" lon="-2.3563">
        <ele>1</ele>
        <time>2019-09-01T07:54:20.000Z</time>
      </trkpt>
      <trkpt lat="47.2808" lon="-2.35645">
        <ele>1</ele>
        <time>2019-09-01T07:54:24.000Z</time>
      </trkpt>
      <trkpt lat="47.28081" lon="-2.35648">
        <ele>1.3999999761581</ele>
        <time>2019-09-01T07:54:25.000Z</time>
      </trkpt>
      <trkpt lat="47.28082" lon="-2.35651">
        <ele>1.7999999523163</ele>
        <time>2019-09-01T07:54:26.000Z</time>
      </trkpt>
      <trkpt lat="47.28083" lon="-2.35655">
        <ele>2.2000000476837</ele>
        <time>2019-09-01T07:54:27.000Z</time>
      </trkpt>
      <trkpt lat="47.28084" lon="-2.35658">
        <ele>2.5999999046326</ele>
        <time>2019-09-01T07:54:28.000Z</time>
      </trkpt>
      <trkpt lat="47.28085" lon="-2.35662">
        <ele>3</ele>
        <time>2019-09-01T07:54:29.000Z</time>
      </trkpt>
      <trkpt lat="47.28088" lon="-2.35672">
        <ele>4</ele>
        <time>2019-09-01T07:54:31.000Z</time>
      </trkpt>
      <trkpt lat="47.28088" lon="-2.35675">
        <ele>4.4000000953674</ele>
        <time>2019-09-01T07:54:32.000Z</time>
      </trkpt>
      <trkpt lat="47.28089" lon="-2.35678">
        <ele>4.8000001907349</ele>
        <time>2019-09-01T07:54:33.000Z</time>
      </trkpt>
      <trkpt lat="47.2809" lon="-2.3568">
        <ele>5.1999998092651</ele>
        <time>2019-09-01T07:54:34.000Z</time>
      </trkpt>
      <trkpt lat="47.28092" lon="-2.35688">
        <ele>5.1999998092651</ele>
        <time>2019-09-01T07:54:39.000Z</time>
      </trkpt>
      <trkpt lat="47.28093" lon="-2.35695">
        <ele>5.1999998092651</ele>
        <time>2019-09-01T07:54:46.000Z</time>
      </trkpt>
      <trkpt lat="47.28094" lon="-2.35691">
        <ele>7.8000001907349</ele>
        <time>2019-09-01T07:54:57.000Z</time>
      </trkpt>
      <trkpt lat="47.28101" lon="-2.35687">
        <ele>7.8000001907349</ele>
        <time>2019-09-01T07:55:01.000Z</time>
      </trkpt>
      <trkpt lat="47.28104" lon="-2.35686">
        <ele>7.8000001907349</ele>
        <time>2019-09-01T07:55:02.000Z</time>
      </trkpt>
      <trkpt lat="47.28112" lon="-2.35684">
        <ele>8.1999998092651</ele>
        <time>2019-09-01T07:55:05.000Z</time>
      </trkpt>
      <trkpt lat="47.28114" lon="-2.35684">
        <ele>8.8000001907349</ele>
        <time>2019-09-01T07:55:06.000Z</time>
      </trkpt>
      <trkpt lat="47.28116" lon="-2.35684">
        <ele>9.1999998092651</ele>
        <time>2019-09-01T07:55:07.000Z</time>
      </trkpt>
      <trkpt lat="47.28117" lon="-2.35684">
        <ele>9.6000003814697</ele>
        <time>2019-09-01T07:55:08.000Z</time>
      </trkpt>
      <trkpt lat="47.28118" lon="-2.35684">
        <ele>10</ele>
        <time>2019-09-01T07:55:09.000Z</time>
      </trkpt>
      <trkpt lat="47.28122" lon="-2.3568">
        <ele>10.60000038147</ele>
        <time>2019-09-01T07:55:11.000Z</time>
      </trkpt>
      <trkpt lat="47.28125" lon="-2.35678">
        <ele>11</ele>
        <time>2019-09-01T07:55:12.000Z</time>
      </trkpt>
      <trkpt lat="47.28128" lon="-2.35677">
        <ele>11.39999961853</ele>
        <time>2019-09-01T07:55:13.000Z</time>
      </trkpt>
      <trkpt lat="47.28131" lon="-2.35676">
        <ele>11.800000190735</ele>
        <time>2019-09-01T07:55:14.000Z</time>
      </trkpt>
      <trkpt lat="47.28132" lon="-2.35676">
        <ele>12.199999809265</ele>
        <time>2019-09-01T07:55:15.000Z</time>
      </trkpt>
      <trkpt lat="47.28138" lon="-2.35672">
        <ele>12.199999809265</ele>
        <time>2019-09-01T07:55:18.000Z</time>
      </trkpt>
      <trkpt lat="47.28143" lon="-2.35671">
        <ele>13.199999809265</ele>
        <time>2019-09-01T07:55:21.000Z</time>
      </trkpt>
      <trkpt lat="47.28145" lon="-2.35672">
        <ele>13.60000038147</ele>
        <time>2019-09-01T07:55:22.000Z</time>
      </trkpt>
      <trkpt lat="47.28146" lon="-2.35674">
        <ele>14</ele>
        <time>2019-09-01T07:55:23.000Z</time>
      </trkpt>
      <trkpt lat="47.28147" lon="-2.35675">
        <ele>14.39999961853</ele>
        <time>2019-09-01T07:55:24.000Z</time>
      </trkpt>
      <trkpt lat="47.28149" lon="-2.35681">
        <ele>14.39999961853</ele>
        <time>2019-09-01T07:55:26.000Z</time>
      </trkpt>
      <trkpt lat="47.28151" lon="-2.3568">
        <ele>14</ele>
        <time>2019-09-01T07:55:27.000Z</time>
      </trkpt>
      <trkpt lat="47.28153" lon="-2.35681">
        <ele>13.60000038147</ele>
        <time>2019-09-01T07:55:28.000Z</time>
      </trkpt>
      <trkpt lat="47.28155" lon="-2.35682">
        <ele>13.199999809265</ele>
        <time>2019-09-01T07:55:29.000Z</time>
      </trkpt>
      <trkpt lat="47.28156" lon="-2.35683">
        <ele>12.800000190735</ele>
        <time>2019-09-01T07:55:30.000Z</time>
      </trkpt>
      <trkpt lat="47.28157" lon="-2.35683">
        <ele>12.39999961853</ele>
        <time>2019-09-01T07:55:31.000Z</time>
      </trkpt>
      <trkpt lat="47.28159" lon="-2.35681">
        <ele>12.39999961853</ele>
        <time>2019-09-01T07:55:32.000Z</time>
      </trkpt>
      <trkpt lat="47.28161" lon="-2.3568">
        <ele>12.39999961853</ele>
        <time>2019-09-01T07:55:34.000Z</time>
      </trkpt>
      <trkpt lat="47.28166" lon="-2.35684">
        <ele>12</ele>
        <time>2019-09-01T07:55:37.000Z</time>
      </trkpt>
      <trkpt lat="47.28167" lon="-2.35685">
        <ele>11.60000038147</ele>
        <time>2019-09-01T07:55:38.000Z</time>
      </trkpt>
      <trkpt lat="47.2817" lon="-2.35688">
        <ele>11.199999809265</ele>
        <time>2019-09-01T07:55:39.000Z</time>
      </trkpt>
      <trkpt lat="47.28171" lon="-2.35691">
        <ele>10.60000038147</ele>
        <time>2019-09-01T07:55:40.000Z</time>
      </trkpt>
      <trkpt lat="47.28173" lon="-2.35694">
        <ele>10.199999809265</ele>
        <time>2019-09-01T07:55:41.000Z</time>
      </trkpt>
      <trkpt lat="47.28175" lon="-2.35698">
        <ele>9.8000001907349</ele>
        <time>2019-09-01T07:55:42.000Z</time>
      </trkpt>
      <trkpt lat="47.28176" lon="-2.35701">
        <ele>9.1999998092651</ele>
        <time>2019-09-01T07:55:43.000Z</time>
      </trkpt>
      <trkpt lat="47.28176" lon="-2.35704">
        <ele>8.8000001907349</ele>
        <time>2019-09-01T07:55:44.000Z</time>
      </trkpt>
      <trkpt lat="47.28176" lon="-2.35706">
        <ele>8.1999998092651</ele>
        <time>2019-09-01T07:55:45.000Z</time>
      </trkpt>
      <trkpt lat="47.28176" lon="-2.35707">
        <ele>7.8000001907349</ele>
        <time>2019-09-01T07:55:46.000Z</time>
      </trkpt>
      <trkpt lat="47.28177" lon="-2.35709">
        <ele>7.4000000953674</ele>
        <time>2019-09-01T07:55:47.000Z</time>
      </trkpt>
      <trkpt lat="47.28178" lon="-2.3571">
        <ele>7</ele>
        <time>2019-09-01T07:55:48.000Z</time>
      </trkpt>
      <trkpt lat="47.2818" lon="-2.3571">
        <ele>6.5999999046326</ele>
        <time>2019-09-01T07:55:49.000Z</time>
      </trkpt>
      <trkpt lat="47.28182" lon="-2.35708">
        <ele>6</ele>
        <time>2019-09-01T07:55:50.000Z</time>
      </trkpt>
      <trkpt lat="47.28185" lon="-2.35707">
        <ele>5.5999999046326</ele>
        <time>2019-09-01T07:55:51.000Z</time>
      </trkpt>
      <trkpt lat="47.28187" lon="-2.35706">
        <ele>5.1999998092651</ele>
        <time>2019-09-01T07:55:52.000Z</time>
      </trkpt>
      <trkpt lat="47.2819" lon="-2.35706">
        <ele>4.8000001907349</ele>
        <time>2019-09-01T07:55:53.000Z</time>
      </trkpt>
      <trkpt lat="47.28192" lon="-2.35705">
        <ele>4.4000000953674</ele>
        <time>2019-09-01T07:55:54.000Z</time>
      </trkpt>
      <trkpt lat="47.28194" lon="-2.35704">
        <ele>3.7999999523163</ele>
        <time>2019-09-01T07:55:55.000Z</time>
      </trkpt>
      <trkpt lat="47.28199" lon="-2.35703">
        <ele>3.7999999523163</ele>
        <time>2019-09-01T07:55:57.000Z</time>
      </trkpt>
      <trkpt lat="47.28221" lon="-2.35701">
        <ele>3.7999999523163</ele>
        <time>2019-09-01T07:56:04.000Z</time>
      </trkpt>
      <trkpt lat="47.28231" lon="-2.35718">
        <ele>3.7999999523163</ele>
        <time>2019-09-01T07:56:09.000Z</time>
      </trkpt>
      <trkpt lat="47.28231" lon="-2.35726">
        <ele>3.7999999523163</ele>
        <time>2019-09-01T07:56:14.000Z</time>
      </trkpt>
      <trkpt lat="47.28232" lon="-2.35733">
        <ele>3.7999999523163</ele>
        <time>2019-09-01T07:56:19.000Z</time>
      </trkpt>
      <trkpt lat="47.28235" lon="-2.35741">
        <ele>4.1999998092651</ele>
        <time>2019-09-01T07:56:25.000Z</time>
      </trkpt>
      <trkpt lat="47.28236" lon="-2.35743">
        <ele>4.5999999046326</ele>
        <time>2019-09-01T07:56:26.000Z</time>
      </trkpt>
      <trkpt lat="47.28236" lon="-2.35743">
        <ele>5</ele>
        <time>2019-09-01T07:56:27.000Z</time>
      </trkpt>
      <trkpt lat="47.28237" lon="-2.35745">
        <ele>5.4000000953674</ele>
        <time>2019-09-01T07:56:28.000Z</time>
      </trkpt>
      <trkpt lat="47.28236" lon="-2.35746">
        <ele>5.8000001907349</ele>
        <time>2019-09-01T07:56:29.000Z</time>
      </trkpt>
      <trkpt lat="47.28237" lon="-2.35748">
        <ele>5.8000001907349</ele>
        <time>2019-09-01T07:56:30.000Z</time>
      </trkpt>
      <trkpt lat="47.28241" lon="-2.35762">
        <ele>5.8000001907349</ele>
        <time>2019-09-01T07:56:46.000Z</time>
      </trkpt>
      <trkpt lat="47.28242" lon="-2.35766">
        <ele>5.8000001907349</ele>
        <time>2019-09-01T07:56:47.000Z</time>
      </trkpt>
      <trkpt lat="47.28248" lon="-2.35783">
        <ele>5.8000001907349</ele>
        <time>2019-09-01T07:56:52.000Z</time>
      </trkpt>
      <trkpt lat="47.28251" lon="-2.35786">
        <ele>5.8000001907349</ele>
        <time>2019-09-01T07:56:54.000Z</time>
      </trkpt>
      <trkpt lat="47.28258" lon="-2.35793">
        <ele>5.8000001907349</ele>
        <time>2019-09-01T07:56:59.000Z</time>
      </trkpt>
      <trkpt lat="47.28266" lon="-2.35814">
        <ele>5.8000001907349</ele>
        <time>2019-09-01T07:57:05.000Z</time>
      </trkpt>
      <trkpt lat="47.28269" lon="-2.35837">
        <ele>5.8000001907349</ele>
        <time>2019-09-01T07:57:11.000Z</time>
      </trkpt>
      <trkpt lat="47.28277" lon="-2.35859">
        <ele>5.8000001907349</ele>
        <time>2019-09-01T07:57:17.000Z</time>
      </trkpt>
      <trkpt lat="47.28275" lon="-2.35866">
        <ele>5.8000001907349</ele>
        <time>2019-09-01T07:57:21.000Z</time>
      </trkpt>
      <trkpt lat="47.28273" lon="-2.35868">
        <ele>5.8000001907349</ele>
        <time>2019-09-01T07:57:22.000Z</time>
      </trkpt>
      <trkpt lat="47.28267" lon="-2.35876">
        <ele>5.8000001907349</ele>
        <time>2019-09-01T07:57:25.000Z</time>
      </trkpt>
      <trkpt lat="47.28265" lon="-2.35878">
        <ele>5.8000001907349</ele>
        <time>2019-09-01T07:57:26.000Z</time>
      </trkpt>
      <trkpt lat="47.28255" lon="-2.35892">
        <ele>5.8000001907349</ele>
        <time>2019-09-01T07:57:31.000Z</time>
      </trkpt>
      <trkpt lat="47.28255" lon="-2.35896">
        <ele>5.8000001907349</ele>
        <time>2019-09-01T07:57:32.000Z</time>
      </trkpt>
      <trkpt lat="47.28256" lon="-2.35913">
        <ele>5.8000001907349</ele>
        <time>2019-09-01T07:57:36.000Z</time>
      </trkpt>
      <trkpt lat="47.28261" lon="-2.35945">
        <ele>5.8000001907349</ele>
        <time>2019-09-01T07:57:40.000Z</time>
      </trkpt>
      <trkpt lat="47.28267" lon="-2.35965">
        <ele>5.4000000953674</ele>
        <time>2019-09-01T07:57:43.000Z</time>
      </trkpt>
      <trkpt lat="47.28269" lon="-2.35971">
        <ele>5</ele>
        <time>2019-09-01T07:57:44.000Z</time>
      </trkpt>
      <trkpt lat="47.28271" lon="-2.35977">
        <ele>4.5999999046326</ele>
        <time>2019-09-01T07:57:45.000Z</time>
      </trkpt>
      <trkpt lat="47.28271" lon="-2.35982">
        <ele>4.1999998092651</ele>
        <time>2019-09-01T07:57:46.000Z</time>
      </trkpt>
      <trkpt lat="47.2827" lon="-2.35988">
        <ele>3.7999999523163</ele>
        <time>2019-09-01T07:57:47.000Z</time>
      </trkpt>
      <trkpt lat="47.28269" lon="-2.3601">
        <ele>3.7999999523163</ele>
        <time>2019-09-01T07:57:51.000Z</time>
      </trkpt>
      <trkpt lat="47.28271" lon="-2.36014">
        <ele>3.7999999523163</ele>
        <time>2019-09-01T07:57:52.000Z</time>
      </trkpt>
      <trkpt lat="47.28272" lon="-2.36019">
        <ele>3.7999999523163</ele>
        <time>2019-09-01T07:57:54.000Z</time>
      </trkpt>
      <trkpt lat="47.28273" lon="-2.36021">
        <ele>4.1999998092651</ele>
        <time>2019-09-01T07:57:55.000Z</time>
      </trkpt>
      <trkpt lat="47.28274" lon="-2.36023">
        <ele>4.5999999046326</ele>
        <time>2019-09-01T07:57:56.000Z</time>
      </trkpt>
      <trkpt lat="47.28275" lon="-2.36025">
        <ele>5</ele>
        <time>2019-09-01T07:57:57.000Z</time>
      </trkpt>
      <trkpt lat="47.28276" lon="-2.36026">
        <ele>5.4000000953674</ele>
        <time>2019-09-01T07:57:58.000Z</time>
      </trkpt>
      <trkpt lat="47.28278" lon="-2.36028">
        <ele>5.8000001907349</ele>
        <time>2019-09-01T07:57:59.000Z</time>
      </trkpt>
      <trkpt lat="47.2828" lon="-2.36032">
        <ele>5.8000001907349</ele>
        <time>2019-09-01T07:58:00.000Z</time>
      </trkpt>
      <trkpt lat="47.28283" lon="-2.36036">
        <ele>6.1999998092651</ele>
        <time>2019-09-01T07:58:02.000Z</time>
      </trkpt>
      <trkpt lat="47.28284" lon="-2.36037">
        <ele>6.8000001907349</ele>
        <time>2019-09-01T07:58:03.000Z</time>
      </trkpt>
      <trkpt lat="47.28286" lon="-2.36039">
        <ele>7.1999998092651</ele>
        <time>2019-09-01T07:58:04.000Z</time>
      </trkpt>
      <trkpt lat="47.28287" lon="-2.36039">
        <ele>7.5999999046326</ele>
        <time>2019-09-01T07:58:05.000Z</time>
      </trkpt>
      <trkpt lat="47.28289" lon="-2.3604">
        <ele>8</ele>
        <time>2019-09-01T07:58:06.000Z</time>
      </trkpt>
      <trkpt lat="47.28293" lon="-2.36041">
        <ele>8.3999996185303</ele>
        <time>2019-09-01T07:58:08.000Z</time>
      </trkpt>
      <trkpt lat="47.28294" lon="-2.36041">
        <ele>8.8000001907349</ele>
        <time>2019-09-01T07:58:09.000Z</time>
      </trkpt>
      <trkpt lat="47.28297" lon="-2.36041">
        <ele>9.3999996185303</ele>
        <time>2019-09-01T07:58:10.000Z</time>
      </trkpt>
      <trkpt lat="47.28299" lon="-2.36042">
        <ele>9.8000001907349</ele>
        <time>2019-09-01T07:58:11.000Z</time>
      </trkpt>
      <trkpt lat="47.28302" lon="-2.36041">
        <ele>10.39999961853</ele>
        <time>2019-09-01T07:58:12.000Z</time>
      </trkpt>
      <trkpt lat="47.28314" lon="-2.36041">
        <ele>10.39999961853</ele>
        <time>2019-09-01T07:58:17.000Z</time>
      </trkpt>
      <trkpt lat="47.2833" lon="-2.36031">
        <ele>10.39999961853</ele>
        <time>2019-09-01T07:58:24.000Z</time>
      </trkpt>
      <trkpt lat="47.28344" lon="-2.36022">
        <ele>10.800000190735</ele>
        <time>2019-09-01T07:58:30.000Z</time>
      </trkpt>
      <trkpt lat="47.28346" lon="-2.36022">
        <ele>11.199999809265</ele>
        <time>2019-09-01T07:58:31.000Z</time>
      </trkpt>
      <trkpt lat="47.28349" lon="-2.36021">
        <ele>11.60000038147</ele>
        <time>2019-09-01T07:58:32.000Z</time>
      </trkpt>
      <trkpt lat="47.28351" lon="-2.36021">
        <ele>12</ele>
        <time>2019-09-01T07:58:33.000Z</time>
      </trkpt>
      <trkpt lat="47.28353" lon="-2.3602">
        <ele>12.39999961853</ele>
        <time>2019-09-01T07:58:34.000Z</time>
      </trkpt>
      <trkpt lat="47.28364" lon="-2.36019">
        <ele>13.39999961853</ele>
        <time>2019-09-01T07:58:38.000Z</time>
      </trkpt>
      <trkpt lat="47.28367" lon="-2.36019">
        <ele>13.800000190735</ele>
        <time>2019-09-01T07:58:39.000Z</time>
      </trkpt>
      <trkpt lat="47.2837" lon="-2.36019">
        <ele>14.199999809265</ele>
        <time>2019-09-01T07:58:40.000Z</time>
      </trkpt>
      <trkpt lat="47.28373" lon="-2.36019">
        <ele>14.800000190735</ele>
        <time>2019-09-01T07:58:41.000Z</time>
      </trkpt>
      <trkpt lat="47.2838" lon="-2.36018">
        <ele>15.199999809265</ele>
        <time>2019-09-01T07:58:44.000Z</time>
      </trkpt>
      <trkpt lat="47.28384" lon="-2.36019">
        <ele>15.60000038147</ele>
        <time>2019-09-01T07:58:45.000Z</time>
      </trkpt>
      <trkpt lat="47.28386" lon="-2.36019">
        <ele>16</ele>
        <time>2019-09-01T07:58:46.000Z</time>
      </trkpt>
      <trkpt lat="47.28388" lon="-2.36019">
        <ele>16.39999961853</ele>
        <time>2019-09-01T07:58:47.000Z</time>
      </trkpt>
      <trkpt lat="47.2839" lon="-2.36019">
        <ele>16.799999237061</ele>
        <time>2019-09-01T07:58:48.000Z</time>
      </trkpt>
      <trkpt lat="47.28394" lon="-2.36019">
        <ele>17.200000762939</ele>
        <time>2019-09-01T07:58:50.000Z</time>
      </trkpt>
      <trkpt lat="47.28396" lon="-2.36018">
        <ele>17.799999237061</ele>
        <time>2019-09-01T07:58:51.000Z</time>
      </trkpt>
      <trkpt lat="47.28398" lon="-2.36017">
        <ele>18.200000762939</ele>
        <time>2019-09-01T07:58:52.000Z</time>
      </trkpt>
      <trkpt lat="47.28399" lon="-2.36016">
        <ele>18.60000038147</ele>
        <time>2019-09-01T07:58:53.000Z</time>
      </trkpt>
      <trkpt lat="47.28402" lon="-2.36014">
        <ele>19</ele>
        <time>2019-09-01T07:58:54.000Z</time>
      </trkpt>
      <trkpt lat="47.28416" lon="-2.36002">
        <ele>19</ele>
        <time>2019-09-01T07:59:00.000Z</time>
      </trkpt>
      <trkpt lat="47.28425" lon="-2.35996">
        <ele>19</ele>
        <time>2019-09-01T07:59:05.000Z</time>
      </trkpt>
      <trkpt lat="47.28433" lon="-2.35995">
        <ele>19</ele>
        <time>2019-09-01T07:59:10.000Z</time>
      </trkpt>
      <trkpt lat="47.28435" lon="-2.35995">
        <ele>19</ele>
        <time>2019-09-01T07:59:11.000Z</time>
      </trkpt>
      <trkpt lat="47.2844" lon="-2.35998">
        <ele>19</ele>
        <time>2019-09-01T07:59:14.000Z</time>
      </trkpt>
      <trkpt lat="47.2844" lon="-2.36002">
        <ele>19</ele>
        <time>2019-09-01T07:59:16.000Z</time>
      </trkpt>
      <trkpt lat="47.28441" lon="-2.36005">
        <ele>19</ele>
        <time>2019-09-01T07:59:18.000Z</time>
      </trkpt>
      <trkpt lat="47.28439" lon="-2.36008">
        <ele>19</ele>
        <time>2019-09-01T07:59:21.000Z</time>
      </trkpt>
      <trkpt lat="47.28438" lon="-2.36011">
        <ele>19</ele>
        <time>2019-09-01T07:59:25.000Z</time>
      </trkpt>
      <trkpt lat="47.28437" lon="-2.36019">
        <ele>19</ele>
        <time>2019-09-01T07:59:38.000Z</time>
      </trkpt>
      <trkpt lat="47.28438" lon="-2.36021">
        <ele>19</ele>
        <time>2019-09-01T07:59:39.000Z</time>
      </trkpt>
      <trkpt lat="47.28437" lon="-2.3603">
        <ele>19</ele>
        <time>2019-09-01T07:59:41.000Z</time>
      </trkpt>
      <trkpt lat="47.28437" lon="-2.36042">
        <ele>19</ele>
        <time>2019-09-01T07:59:43.000Z</time>
      </trkpt>
      <trkpt lat="47.28437" lon="-2.36066">
        <ele>19</ele>
        <time>2019-09-01T07:59:46.000Z</time>
      </trkpt>
      <trkpt lat="47.28438" lon="-2.36075">
        <ele>19</ele>
        <time>2019-09-01T07:59:47.000Z</time>
      </trkpt>
      <trkpt lat="47.2844" lon="-2.36118">
        <ele>19</ele>
        <time>2019-09-01T07:59:52.000Z</time>
      </trkpt>
      <trkpt lat="47.28441" lon="-2.36125">
        <ele>18.60000038147</ele>
        <time>2019-09-01T07:59:53.000Z</time>
      </trkpt>
      <trkpt lat="47.28443" lon="-2.36131">
        <ele>18</ele>
        <time>2019-09-01T07:59:54.000Z</time>
      </trkpt>
      <trkpt lat="47.28443" lon="-2.36138">
        <ele>17.60000038147</ele>
        <time>2019-09-01T07:59:55.000Z</time>
      </trkpt>
      <trkpt lat="47.28444" lon="-2.36143">
        <ele>17</ele>
        <time>2019-09-01T07:59:56.000Z</time>
      </trkpt>
      <trkpt lat="47.28445" lon="-2.36147">
        <ele>16.60000038147</ele>
        <time>2019-09-01T07:59:57.000Z</time>
      </trkpt>
      <trkpt lat="47.28446" lon="-2.36151">
        <ele>16</ele>
        <time>2019-09-01T07:59:58.000Z</time>
      </trkpt>
      <trkpt lat="47.28448" lon="-2.36155">
        <ele>15.60000038147</ele>
        <time>2019-09-01T07:59:59.000Z</time>
      </trkpt>
      <trkpt lat="47.28448" lon="-2.3616">
        <ele>15.199999809265</ele>
        <time>2019-09-01T08:00:00.000Z</time>
      </trkpt>
      <trkpt lat="47.28448" lon="-2.36164">
        <ele>14.800000190735</ele>
        <time>2019-09-01T08:00:01.000Z</time>
      </trkpt>
      <trkpt lat="47.28447" lon="-2.36169">
        <ele>14.39999961853</ele>
        <time>2019-09-01T08:00:02.000Z</time>
      </trkpt>
      <trkpt lat="47.28448" lon="-2.36182">
        <ele>13.800000190735</ele>
        <time>2019-09-01T08:00:05.000Z</time>
      </trkpt>
      <trkpt lat="47.28449" lon="-2.36184">
        <ele>13.39999961853</ele>
        <time>2019-09-01T08:00:06.000Z</time>
      </trkpt>
      <trkpt lat="47.2845" lon="-2.36185">
        <ele>13</ele>
        <time>2019-09-01T08:00:07.000Z</time>
      </trkpt>
      <trkpt lat="47.2845" lon="-2.36185">
        <ele>12.60000038147</ele>
        <time>2019-09-01T08:00:08.000Z</time>
      </trkpt>
      <trkpt lat="47.28452" lon="-2.36184">
        <ele>12</ele>
        <time>2019-09-01T08:00:09.000Z</time>
      </trkpt>
      <trkpt lat="47.28453" lon="-2.36184">
        <ele>12</ele>
        <time>2019-09-01T08:00:10.000Z</time>
      </trkpt>
      <trkpt lat="47.28456" lon="-2.36185">
        <ele>12</ele>
        <time>2019-09-01T08:00:13.000Z</time>
      </trkpt>
      <trkpt lat="47.28461" lon="-2.36186">
        <ele>12</ele>
        <time>2019-09-01T08:00:36.000Z</time>
      </trkpt>
      <trkpt lat="47.28464" lon="-2.36182">
        <ele>12</ele>
        <time>2019-09-01T08:00:38.000Z</time>
      </trkpt>
      <trkpt lat="47.28468" lon="-2.36178">
        <ele>12</ele>
        <time>2019-09-01T08:00:42.000Z</time>
      </trkpt>
      <trkpt lat="47.2847" lon="-2.36179">
        <ele>12</ele>
        <time>2019-09-01T08:00:43.000Z</time>
      </trkpt>
      <trkpt lat="47.28471" lon="-2.36179">
        <ele>12</ele>
        <time>2019-09-01T08:00:44.000Z</time>
      </trkpt>
      <trkpt lat="47.28478" lon="-2.36185">
        <ele>12</ele>
        <time>2019-09-01T08:00:50.000Z</time>
      </trkpt>
      <trkpt lat="47.28488" lon="-2.36202">
        <ele>12</ele>
        <time>2019-09-01T08:00:56.000Z</time>
      </trkpt>
      <trkpt lat="47.28496" lon="-2.36216">
        <ele>12</ele>
        <time>2019-09-01T08:01:01.000Z</time>
      </trkpt>
      <trkpt lat="47.28505" lon="-2.36229">
        <ele>12</ele>
        <time>2019-09-01T08:01:07.000Z</time>
      </trkpt>
      <trkpt lat="47.28514" lon="-2.36246">
        <ele>12</ele>
        <time>2019-09-01T08:01:11.000Z</time>
      </trkpt>
      <trkpt lat="47.28516" lon="-2.36252">
        <ele>12</ele>
        <time>2019-09-01T08:01:12.000Z</time>
      </trkpt>
      <trkpt lat="47.2852" lon="-2.36258">
        <ele>12.60000038147</ele>
        <time>2019-09-01T08:01:14.000Z</time>
      </trkpt>
      <trkpt lat="47.28521" lon="-2.36262">
        <ele>13</ele>
        <time>2019-09-01T08:01:15.000Z</time>
      </trkpt>
      <trkpt lat="47.28522" lon="-2.36265">
        <ele>13.39999961853</ele>
        <time>2019-09-01T08:01:16.000Z</time>
      </trkpt>
      <trkpt lat="47.28523" lon="-2.36269">
        <ele>13.800000190735</ele>
        <time>2019-09-01T08:01:17.000Z</time>
      </trkpt>
      <trkpt lat="47.28524" lon="-2.36274">
        <ele>14.199999809265</ele>
        <time>2019-09-01T08:01:18.000Z</time>
      </trkpt>
      <trkpt lat="47.28527" lon="-2.36288">
        <ele>14.199999809265</ele>
        <time>2019-09-01T08:01:20.000Z</time>
      </trkpt>
      <trkpt lat="47.28533" lon="-2.36324">
        <ele>14.199999809265</ele>
        <time>2019-09-01T08:01:27.000Z</time>
      </trkpt>
      <trkpt lat="47.28534" lon="-2.36328">
        <ele>14.800000190735</ele>
        <time>2019-09-01T08:01:28.000Z</time>
      </trkpt>
      <trkpt lat="47.28534" lon="-2.3633">
        <ele>15.39999961853</ele>
        <time>2019-09-01T08:01:29.000Z</time>
      </trkpt>
      <trkpt lat="47.28534" lon="-2.36334">
        <ele>15.800000190735</ele>
        <time>2019-09-01T08:01:30.000Z</time>
      </trkpt>
      <trkpt lat="47.28533" lon="-2.36336">
        <ele>16.39999961853</ele>
        <time>2019-09-01T08:01:31.000Z</time>
      </trkpt>
      <trkpt lat="47.28538" lon="-2.36351">
        <ele>18.799999237061</ele>
        <time>2019-09-01T08:01:51.000Z</time>
      </trkpt>
      <trkpt lat="47.28538" lon="-2.36354">
        <ele>18.799999237061</ele>
        <time>2019-09-01T08:01:52.000Z</time>
      </trkpt>
      <trkpt lat="47.28541" lon="-2.36362">
        <ele>18.799999237061</ele>
        <time>2019-09-01T08:01:55.000Z</time>
      </trkpt>
      <trkpt lat="47.28541" lon="-2.36367">
        <ele>19.799999237061</ele>
        <time>2019-09-01T08:01:57.000Z</time>
      </trkpt>
      <trkpt lat="47.28542" lon="-2.36369">
        <ele>20.200000762939</ele>
        <time>2019-09-01T08:01:58.000Z</time>
      </trkpt>
      <trkpt lat="47.28543" lon="-2.36371">
        <ele>20.60000038147</ele>
        <time>2019-09-01T08:01:59.000Z</time>
      </trkpt>
      <trkpt lat="47.28544" lon="-2.36373">
        <ele>21</ele>
        <time>2019-09-01T08:02:00.000Z</time>
      </trkpt>
      <trkpt lat="47.28548" lon="-2.36381">
        <ele>21</ele>
        <time>2019-09-01T08:02:04.000Z</time>
      </trkpt>
      <trkpt lat="47.28553" lon="-2.36393">
        <ele>21</ele>
        <time>2019-09-01T08:02:08.000Z</time>
      </trkpt>
      <trkpt lat="47.28554" lon="-2.36397">
        <ele>21</ele>
        <time>2019-09-01T08:02:09.000Z</time>
      </trkpt>
      <trkpt lat="47.28558" lon="-2.36417">
        <ele>21</ele>
        <time>2019-09-01T08:02:15.000Z</time>
      </trkpt>
      <trkpt lat="47.2856" lon="-2.36421">
        <ele>21.39999961853</ele>
        <time>2019-09-01T08:02:17.000Z</time>
      </trkpt>
      <trkpt lat="47.28561" lon="-2.36424">
        <ele>21.799999237061</ele>
        <time>2019-09-01T08:02:18.000Z</time>
      </trkpt>
      <trkpt lat="47.28562" lon="-2.36427">
        <ele>22.200000762939</ele>
        <time>2019-09-01T08:02:19.000Z</time>
      </trkpt>
      <trkpt lat="47.28563" lon="-2.3643">
        <ele>22.60000038147</ele>
        <time>2019-09-01T08:02:20.000Z</time>
      </trkpt>
      <trkpt lat="47.28564" lon="-2.36434">
        <ele>23</ele>
        <time>2019-09-01T08:02:21.000Z</time>
      </trkpt>
      <trkpt lat="47.28572" lon="-2.36453">
        <ele>23</ele>
        <time>2019-09-01T08:02:25.000Z</time>
      </trkpt>
      <trkpt lat="47.28575" lon="-2.36458">
        <ele>23</ele>
        <time>2019-09-01T08:02:26.000Z</time>
      </trkpt>
      <trkpt lat="47.28582" lon="-2.36473">
        <ele>23</ele>
        <time>2019-09-01T08:02:29.000Z</time>
      </trkpt>
      <trkpt lat="47.28587" lon="-2.36481">
        <ele>22.60000038147</ele>
        <time>2019-09-01T08:02:31.000Z</time>
      </trkpt>
      <trkpt lat="47.28589" lon="-2.36485">
        <ele>22.200000762939</ele>
        <time>2019-09-01T08:02:32.000Z</time>
      </trkpt>
      <trkpt lat="47.28591" lon="-2.3649">
        <ele>21.60000038147</ele>
        <time>2019-09-01T08:02:33.000Z</time>
      </trkpt>
      <trkpt lat="47.28593" lon="-2.36495">
        <ele>21.200000762939</ele>
        <time>2019-09-01T08:02:34.000Z</time>
      </trkpt>
      <trkpt lat="47.28596" lon="-2.36501">
        <ele>20.60000038147</ele>
        <time>2019-09-01T08:02:35.000Z</time>
      </trkpt>
      <trkpt lat="47.28598" lon="-2.36507">
        <ele>20</ele>
        <time>2019-09-01T08:02:36.000Z</time>
      </trkpt>
      <trkpt lat="47.28601" lon="-2.36513">
        <ele>19.39999961853</ele>
        <time>2019-09-01T08:02:37.000Z</time>
      </trkpt>
      <trkpt lat="47.28604" lon="-2.36518">
        <ele>18.799999237061</ele>
        <time>2019-09-01T08:02:38.000Z</time>
      </trkpt>
      <trkpt lat="47.28607" lon="-2.36527">
        <ele>18.200000762939</ele>
        <time>2019-09-01T08:02:39.000Z</time>
      </trkpt>
      <trkpt lat="47.28612" lon="-2.36537">
        <ele>17.60000038147</ele>
        <time>2019-09-01T08:02:40.000Z</time>
      </trkpt>
      <trkpt lat="47.28616" lon="-2.36547">
        <ele>17.200000762939</ele>
        <time>2019-09-01T08:02:41.000Z</time>
      </trkpt>
      <trkpt lat="47.28619" lon="-2.36555">
        <ele>16.60000038147</ele>
        <time>2019-09-01T08:02:42.000Z</time>
      </trkpt>
      <trkpt lat="47.28623" lon="-2.36562">
        <ele>16.60000038147</ele>
        <time>2019-09-01T08:02:43.000Z</time>
      </trkpt>
      <trkpt lat="47.2863" lon="-2.36574">
        <ele>16.60000038147</ele>
        <time>2019-09-01T08:02:45.000Z</time>
      </trkpt>
      <trkpt lat="47.28633" lon="-2.3658">
        <ele>15.800000190735</ele>
        <time>2019-09-01T08:02:46.000Z</time>
      </trkpt>
      <trkpt lat="47.28635" lon="-2.36586">
        <ele>15.39999961853</ele>
        <time>2019-09-01T08:02:47.000Z</time>
      </trkpt>
      <trkpt lat="47.28638" lon="-2.36588">
        <ele>15</ele>
        <time>2019-09-01T08:02:48.000Z</time>
      </trkpt>
      <trkpt lat="47.28641" lon="-2.3659">
        <ele>14.60000038147</ele>
        <time>2019-09-01T08:02:49.000Z</time>
      </trkpt>
      <trkpt lat="47.28644" lon="-2.36592">
        <ele>14.60000038147</ele>
        <time>2019-09-01T08:02:50.000Z</time>
      </trkpt>
      <trkpt lat="47.2866" lon="-2.36593">
        <ele>14.60000038147</ele>
        <time>2019-09-01T08:02:55.000Z</time>
      </trkpt>
      <trkpt lat="47.28672" lon="-2.36581">
        <ele>14.60000038147</ele>
        <time>2019-09-01T08:03:00.000Z</time>
      </trkpt>
      <trkpt lat="47.28678" lon="-2.36569">
        <ele>15</ele>
        <time>2019-09-01T08:03:03.000Z</time>
      </trkpt>
      <trkpt lat="47.2868" lon="-2.36566">
        <ele>15.60000038147</ele>
        <time>2019-09-01T08:03:04.000Z</time>
      </trkpt>
      <trkpt lat="47.28681" lon="-2.36563">
        <ele>16</ele>
        <time>2019-09-01T08:03:05.000Z</time>
      </trkpt>
      <trkpt lat="47.28683" lon="-2.3656">
        <ele>16.39999961853</ele>
        <time>2019-09-01T08:03:06.000Z</time>
      </trkpt>
      <trkpt lat="47.28684" lon="-2.36556">
        <ele>17</ele>
        <time>2019-09-01T08:03:07.000Z</time>
      </trkpt>
      <trkpt lat="47.28685" lon="-2.36552">
        <ele>17.39999961853</ele>
        <time>2019-09-01T08:03:08.000Z</time>
      </trkpt>
      <trkpt lat="47.28685" lon="-2.36549">
        <ele>17.799999237061</ele>
        <time>2019-09-01T08:03:09.000Z</time>
      </trkpt>
      <trkpt lat="47.28685" lon="-2.36546">
        <ele>18.200000762939</ele>
        <time>2019-09-01T08:03:10.000Z</time>
      </trkpt>
      <trkpt lat="47.28685" lon="-2.36542">
        <ele>19.200000762939</ele>
        <time>2019-09-01T08:03:11.000Z</time>
      </trkpt>
      <trkpt lat="47.28684" lon="-2.3654">
        <ele>19.200000762939</ele>
        <time>2019-09-01T08:03:12.000Z</time>
      </trkpt>
      <trkpt lat="47.28683" lon="-2.36535">
        <ele>19.60000038147</ele>
        <time>2019-09-01T08:03:14.000Z</time>
      </trkpt>
      <trkpt lat="47.28682" lon="-2.36532">
        <ele>20</ele>
        <time>2019-09-01T08:03:15.000Z</time>
      </trkpt>
      <trkpt lat="47.28682" lon="-2.36529">
        <ele>20.39999961853</ele>
        <time>2019-09-01T08:03:16.000Z</time>
      </trkpt>
      <trkpt lat="47.28682" lon="-2.36526">
        <ele>21</ele>
        <time>2019-09-01T08:03:17.000Z</time>
      </trkpt>
      <trkpt lat="47.28682" lon="-2.36523">
        <ele>21.39999961853</ele>
        <time>2019-09-01T08:03:18.000Z</time>
      </trkpt>
      <trkpt lat="47.28681" lon="-2.36516">
        <ele>21.39999961853</ele>
        <time>2019-09-01T08:03:20.000Z</time>
      </trkpt>
      <trkpt lat="47.28681" lon="-2.36514">
        <ele>21.799999237061</ele>
        <time>2019-09-01T08:03:21.000Z</time>
      </trkpt>
      <trkpt lat="47.28681" lon="-2.36511">
        <ele>22.200000762939</ele>
        <time>2019-09-01T08:03:22.000Z</time>
      </trkpt>
      <trkpt lat="47.2868" lon="-2.36507">
        <ele>22.60000038147</ele>
        <time>2019-09-01T08:03:23.000Z</time>
      </trkpt>
      <trkpt lat="47.2868" lon="-2.36503">
        <ele>23</ele>
        <time>2019-09-01T08:03:24.000Z</time>
      </trkpt>
      <trkpt lat="47.2868" lon="-2.365">
        <ele>23.39999961853</ele>
        <time>2019-09-01T08:03:25.000Z</time>
      </trkpt>
      <trkpt lat="47.2868" lon="-2.36492">
        <ele>23.39999961853</ele>
        <time>2019-09-01T08:03:27.000Z</time>
      </trkpt>
      <trkpt lat="47.28684" lon="-2.36468">
        <ele>23.39999961853</ele>
        <time>2019-09-01T08:03:32.000Z</time>
      </trkpt>
      <trkpt lat="47.28684" lon="-2.36463">
        <ele>23.39999961853</ele>
        <time>2019-09-01T08:03:33.000Z</time>
      </trkpt>
      <trkpt lat="47.28683" lon="-2.36448">
        <ele>23.39999961853</ele>
        <time>2019-09-01T08:03:36.000Z</time>
      </trkpt>
      <trkpt lat="47.28682" lon="-2.36428">
        <ele>23.39999961853</ele>
        <time>2019-09-01T08:03:39.000Z</time>
      </trkpt>
      <trkpt lat="47.28682" lon="-2.36414">
        <ele>23.39999961853</ele>
        <time>2019-09-01T08:03:41.000Z</time>
      </trkpt>
      <trkpt lat="47.28686" lon="-2.36392">
        <ele>23.39999961853</ele>
        <time>2019-09-01T08:03:44.000Z</time>
      </trkpt>
      <trkpt lat="47.28688" lon="-2.36385">
        <ele>23.39999961853</ele>
        <time>2019-09-01T08:03:45.000Z</time>
      </trkpt>
      <trkpt lat="47.2869" lon="-2.36378">
        <ele>23.39999961853</ele>
        <time>2019-09-01T08:03:46.000Z</time>
      </trkpt>
      <trkpt lat="47.28699" lon="-2.36333">
        <ele>23</ele>
        <time>2019-09-01T08:03:52.000Z</time>
      </trkpt>
      <trkpt lat="47.287" lon="-2.36324">
        <ele>22.60000038147</ele>
        <time>2019-09-01T08:03:53.000Z</time>
      </trkpt>
      <trkpt lat="47.28701" lon="-2.36315">
        <ele>22.200000762939</ele>
        <time>2019-09-01T08:03:54.000Z</time>
      </trkpt>
      <trkpt lat="47.28702" lon="-2.36307">
        <ele>21.799999237061</ele>
        <time>2019-09-01T08:03:55.000Z</time>
      </trkpt>
      <trkpt lat="47.28703" lon="-2.36299">
        <ele>21.39999961853</ele>
        <time>2019-09-01T08:03:56.000Z</time>
      </trkpt>
      <trkpt lat="47.28704" lon="-2.36291">
        <ele>20.799999237061</ele>
        <time>2019-09-01T08:03:57.000Z</time>
      </trkpt>
      <trkpt lat="47.28705" lon="-2.36285">
        <ele>20.39999961853</ele>
        <time>2019-09-01T08:03:58.000Z</time>
      </trkpt>
      <trkpt lat="47.28706" lon="-2.3628">
        <ele>19.799999237061</ele>
        <time>2019-09-01T08:03:59.000Z</time>
      </trkpt>
      <trkpt lat="47.28709" lon="-2.36275">
        <ele>18.799999237061</ele>
        <time>2019-09-01T08:04:00.000Z</time>
      </trkpt>
      <trkpt lat="47.28711" lon="-2.36271">
        <ele>18.39999961853</ele>
        <time>2019-09-01T08:04:01.000Z</time>
      </trkpt>
      <trkpt lat="47.28712" lon="-2.36266">
        <ele>18</ele>
        <time>2019-09-01T08:04:02.000Z</time>
      </trkpt>
      <trkpt lat="47.28714" lon="-2.36263">
        <ele>17.39999961853</ele>
        <time>2019-09-01T08:04:03.000Z</time>
      </trkpt>
      <trkpt lat="47.28716" lon="-2.3626">
        <ele>17</ele>
        <time>2019-09-01T08:04:04.000Z</time>
      </trkpt>
      <trkpt lat="47.28719" lon="-2.36255">
        <ele>16.60000038147</ele>
        <time>2019-09-01T08:04:06.000Z</time>
      </trkpt>
      <trkpt lat="47.28722" lon="-2.36252">
        <ele>16.200000762939</ele>
        <time>2019-09-01T08:04:07.000Z</time>
      </trkpt>
      <trkpt lat="47.28724" lon="-2.36249">
        <ele>15.800000190735</ele>
        <time>2019-09-01T08:04:08.000Z</time>
      </trkpt>
      <trkpt lat="47.28725" lon="-2.36247">
        <ele>15.39999961853</ele>
        <time>2019-09-01T08:04:09.000Z</time>
      </trkpt>
      <trkpt lat="47.28727" lon="-2.36245">
        <ele>15</ele>
        <time>2019-09-01T08:04:10.000Z</time>
      </trkpt>
      <trkpt lat="47.28734" lon="-2.3624">
        <ele>15</ele>
        <time>2019-09-01T08:04:13.000Z</time>
      </trkpt>
      <trkpt lat="47.2875" lon="-2.36233">
        <ele>15</ele>
        <time>2019-09-01T08:04:18.000Z</time>
      </trkpt>
      <trkpt lat="47.28764" lon="-2.36244">
        <ele>15</ele>
        <time>2019-09-01T08:04:24.000Z</time>
      </trkpt>
      <trkpt lat="47.28785" lon="-2.36263">
        <ele>15</ele>
        <time>2019-09-01T08:04:30.000Z</time>
      </trkpt>
      <trkpt lat="47.28798" lon="-2.36274">
        <ele>15</ele>
        <time>2019-09-01T08:04:33.000Z</time>
      </trkpt>
      <trkpt lat="47.28814" lon="-2.36287">
        <ele>15</ele>
        <time>2019-09-01T08:04:36.000Z</time>
      </trkpt>
      <trkpt lat="47.28837" lon="-2.36313">
        <ele>14.39999961853</ele>
        <time>2019-09-01T08:04:41.000Z</time>
      </trkpt>
      <trkpt lat="47.28839" lon="-2.36318">
        <ele>14</ele>
        <time>2019-09-01T08:04:42.000Z</time>
      </trkpt>
      <trkpt lat="47.28841" lon="-2.36322">
        <ele>13.60000038147</ele>
        <time>2019-09-01T08:04:43.000Z</time>
      </trkpt>
      <trkpt lat="47.28842" lon="-2.36327">
        <ele>13.199999809265</ele>
        <time>2019-09-01T08:04:44.000Z</time>
      </trkpt>
      <trkpt lat="47.28841" lon="-2.36332">
        <ele>12.800000190735</ele>
        <time>2019-09-01T08:04:45.000Z</time>
      </trkpt>
      <trkpt lat="47.28836" lon="-2.36339">
        <ele>12.800000190735</ele>
        <time>2019-09-01T08:04:47.000Z</time>
      </trkpt>
      <trkpt lat="47.2883" lon="-2.36348">
        <ele>12.800000190735</ele>
        <time>2019-09-01T08:04:49.000Z</time>
      </trkpt>
      <trkpt lat="47.2882" lon="-2.36362">
        <ele>12.800000190735</ele>
        <time>2019-09-01T08:04:52.000Z</time>
      </trkpt>
      <trkpt lat="47.28817" lon="-2.36366">
        <ele>12.800000190735</ele>
        <time>2019-09-01T08:04:53.000Z</time>
      </trkpt>
      <trkpt lat="47.28812" lon="-2.36377">
        <ele>13.199999809265</ele>
        <time>2019-09-01T08:04:55.000Z</time>
      </trkpt>
      <trkpt lat="47.28809" lon="-2.36383">
        <ele>13.60000038147</ele>
        <time>2019-09-01T08:04:56.000Z</time>
      </trkpt>
      <trkpt lat="47.28806" lon="-2.36389">
        <ele>14</ele>
        <time>2019-09-01T08:04:57.000Z</time>
      </trkpt>
      <trkpt lat="47.28804" lon="-2.36395">
        <ele>14.39999961853</ele>
        <time>2019-09-01T08:04:58.000Z</time>
      </trkpt>
      <trkpt lat="47.28801" lon="-2.364">
        <ele>14.800000190735</ele>
        <time>2019-09-01T08:04:59.000Z</time>
      </trkpt>
      <trkpt lat="47.28785" lon="-2.36439">
        <ele>14.800000190735</ele>
        <time>2019-09-01T08:05:05.000Z</time>
      </trkpt>
      <trkpt lat="47.28773" lon="-2.36467">
        <ele>14.800000190735</ele>
        <time>2019-09-01T08:05:09.000Z</time>
      </trkpt>
      <trkpt lat="47.28762" lon="-2.36488">
        <ele>14.800000190735</ele>
        <time>2019-09-01T08:05:12.000Z</time>
      </trkpt>
      <trkpt lat="47.28749" lon="-2.36515">
        <ele>14.800000190735</ele>
        <time>2019-09-01T08:05:16.000Z</time>
      </trkpt>
      <trkpt lat="47.28742" lon="-2.3653">
        <ele>14.800000190735</ele>
        <time>2019-09-01T08:05:18.000Z</time>
      </trkpt>
      <trkpt lat="47.28733" lon="-2.36552">
        <ele>14.800000190735</ele>
        <time>2019-09-01T08:05:21.000Z</time>
      </trkpt>
      <trkpt lat="47.28723" lon="-2.36572">
        <ele>14.800000190735</ele>
        <time>2019-09-01T08:05:24.000Z</time>
      </trkpt>
      <trkpt lat="47.28701" lon="-2.36605">
        <ele>14.800000190735</ele>
        <time>2019-09-01T08:05:30.000Z</time>
      </trkpt>
      <trkpt lat="47.28697" lon="-2.3661">
        <ele>14.800000190735</ele>
        <time>2019-09-01T08:05:31.000Z</time>
      </trkpt>
      <trkpt lat="47.28676" lon="-2.36629">
        <ele>14.800000190735</ele>
        <time>2019-09-01T08:05:35.000Z</time>
      </trkpt>
      <trkpt lat="47.28652" lon="-2.36646">
        <ele>13.800000190735</ele>
        <time>2019-09-01T08:05:39.000Z</time>
      </trkpt>
      <trkpt lat="47.28645" lon="-2.3665">
        <ele>13.39999961853</ele>
        <time>2019-09-01T08:05:40.000Z</time>
      </trkpt>
      <trkpt lat="47.28639" lon="-2.36655">
        <ele>13</ele>
        <time>2019-09-01T08:05:41.000Z</time>
      </trkpt>
      <trkpt lat="47.28632" lon="-2.36659">
        <ele>12.60000038147</ele>
        <time>2019-09-01T08:05:42.000Z</time>
      </trkpt>
      <trkpt lat="47.28617" lon="-2.36667">
        <ele>12.199999809265</ele>
        <time>2019-09-01T08:05:44.000Z</time>
      </trkpt>
      <trkpt lat="47.28609" lon="-2.3667">
        <ele>11.60000038147</ele>
        <time>2019-09-01T08:05:45.000Z</time>
      </trkpt>
      <trkpt lat="47.28601" lon="-2.36671">
        <ele>11.199999809265</ele>
        <time>2019-09-01T08:05:46.000Z</time>
      </trkpt>
      <trkpt lat="47.28593" lon="-2.36671">
        <ele>10.60000038147</ele>
        <time>2019-09-01T08:05:47.000Z</time>
      </trkpt>
      <trkpt lat="47.28584" lon="-2.36671">
        <ele>10.199999809265</ele>
        <time>2019-09-01T08:05:48.000Z</time>
      </trkpt>
      <trkpt lat="47.28575" lon="-2.36672">
        <ele>10.199999809265</ele>
        <time>2019-09-01T08:05:49.000Z</time>
      </trkpt>
      <trkpt lat="47.28567" lon="-2.36672">
        <ele>9.8000001907349</ele>
        <time>2019-09-01T08:05:50.000Z</time>
      </trkpt>
      <trkpt lat="47.28558" lon="-2.36673">
        <ele>9.3999996185303</ele>
        <time>2019-09-01T08:05:51.000Z</time>
      </trkpt>
      <trkpt lat="47.28549" lon="-2.36673">
        <ele>8.8000001907349</ele>
        <time>2019-09-01T08:05:52.000Z</time>
      </trkpt>
      <trkpt lat="47.28541" lon="-2.36674">
        <ele>8.3999996185303</ele>
        <time>2019-09-01T08:05:53.000Z</time>
      </trkpt>
      <trkpt lat="47.28532" lon="-2.36674">
        <ele>8</ele>
        <time>2019-09-01T08:05:54.000Z</time>
      </trkpt>
      <trkpt lat="47.28526" lon="-2.36674">
        <ele>7.5999999046326</ele>
        <time>2019-09-01T08:05:55.000Z</time>
      </trkpt>
      <trkpt lat="47.2852" lon="-2.36675">
        <ele>7.1999998092651</ele>
        <time>2019-09-01T08:05:56.000Z</time>
      </trkpt>
      <trkpt lat="47.28516" lon="-2.36677">
        <ele>6.8000001907349</ele>
        <time>2019-09-01T08:05:57.000Z</time>
      </trkpt>
      <trkpt lat="47.28514" lon="-2.3668">
        <ele>6.4000000953674</ele>
        <time>2019-09-01T08:05:58.000Z</time>
      </trkpt>
      <trkpt lat="47.28515" lon="-2.36685">
        <ele>6</ele>
        <time>2019-09-01T08:05:59.000Z</time>
      </trkpt>
      <trkpt lat="47.28521" lon="-2.36702">
        <ele>6</ele>
        <time>2019-09-01T08:06:02.000Z</time>
      </trkpt>
      <trkpt lat="47.28524" lon="-2.36709">
        <ele>6</ele>
        <time>2019-09-01T08:06:03.000Z</time>
      </trkpt>
      <trkpt lat="47.28527" lon="-2.36717">
        <ele>5</ele>
        <time>2019-09-01T08:06:04.000Z</time>
      </trkpt>
      <trkpt lat="47.2853" lon="-2.36725">
        <ele>4.5999999046326</ele>
        <time>2019-09-01T08:06:05.000Z</time>
      </trkpt>
      <trkpt lat="47.28534" lon="-2.36734">
        <ele>4.1999998092651</ele>
        <time>2019-09-01T08:06:06.000Z</time>
      </trkpt>
      <trkpt lat="47.28538" lon="-2.36744">
        <ele>3.7999999523163</ele>
        <time>2019-09-01T08:06:07.000Z</time>
      </trkpt>
      <trkpt lat="47.28542" lon="-2.36753">
        <ele>3.7999999523163</ele>
        <time>2019-09-01T08:06:08.000Z</time>
      </trkpt>
      <trkpt lat="47.28561" lon="-2.36788">
        <ele>3.2000000476837</ele>
        <time>2019-09-01T08:06:12.000Z</time>
      </trkpt>
      <trkpt lat="47.28566" lon="-2.36796">
        <ele>2.7999999523163</ele>
        <time>2019-09-01T08:06:13.000Z</time>
      </trkpt>
      <trkpt lat="47.28571" lon="-2.36805">
        <ele>2.4000000953674</ele>
        <time>2019-09-01T08:06:14.000Z</time>
      </trkpt>
      <trkpt lat="47.28576" lon="-2.36813">
        <ele>1.7999999523163</ele>
        <time>2019-09-01T08:06:15.000Z</time>
      </trkpt>
      <trkpt lat="47.28581" lon="-2.3682">
        <ele>1.3999999761581</ele>
        <time>2019-09-01T08:06:16.000Z</time>
      </trkpt>
      <trkpt lat="47.2859" lon="-2.36836">
        <ele>1.3999999761581</ele>
        <time>2019-09-01T08:06:18.000Z</time>
      </trkpt>
      <trkpt lat="47.28595" lon="-2.36841">
        <ele>1.3999999761581</ele>
        <time>2019-09-01T08:06:19.000Z</time>
      </trkpt>
      <trkpt lat="47.28601" lon="-2.36843">
        <ele>1</ele>
        <time>2019-09-01T08:06:20.000Z</time>
      </trkpt>
      <trkpt lat="47.28607" lon="-2.36842">
        <ele>0.40000000596046</ele>
        <time>2019-09-01T08:06:21.000Z</time>
      </trkpt>
      <trkpt lat="47.28613" lon="-2.36839">
        <ele>18.8</ele>
        <time>2019-09-01T08:06:22.000Z</time>
      </trkpt>
      <trkpt lat="47.28618" lon="-2.36835">
        <ele>-0.60000002384186</ele>
        <time>2019-09-01T08:06:23.000Z</time>
      </trkpt>
      <trkpt lat="47.28622" lon="-2.36829">
        <ele>-1</ele>
        <time>2019-09-01T08:06:24.000Z</time>
      </trkpt>
      <trkpt lat="47.28626" lon="-2.36824">
        <ele>-1</ele>
        <time>2019-09-01T08:06:25.000Z</time>
      </trkpt>
      <trkpt lat="47.2863" lon="-2.3682">
        <ele>-1</ele>
        <time>2019-09-01T08:06:26.000Z</time>
      </trkpt>
      <trkpt lat="47.28647" lon="-2.36803">
        <ele>-1</ele>
        <time>2019-09-01T08:06:31.000Z</time>
      </trkpt>
      <trkpt lat="47.28651" lon="-2.36799">
        <ele>-1</ele>
        <time>2019-09-01T08:06:32.000Z</time>
      </trkpt>
      <trkpt lat="47.28665" lon="-2.36785">
        <ele>-1</ele>
        <time>2019-09-01T08:06:37.000Z</time>
      </trkpt>
      <trkpt lat="47.28666" lon="-2.36784">
        <ele>-0.60000002384186</ele>
        <time>2019-09-01T08:06:38.000Z</time>
      </trkpt>
      <trkpt lat="47.28668" lon="-2.36782">
        <ele>-0.20000000298023</ele>
        <time>2019-09-01T08:06:39.000Z</time>
      </trkpt>
      <trkpt lat="47.2867" lon="-2.36781">
        <ele>0.20000000298023</ele>
        <time>2019-09-01T08:06:40.000Z</time>
      </trkpt>
      <trkpt lat="47.28671" lon="-2.3678">
        <ele>0.80000001192093</ele>
        <time>2019-09-01T08:06:41.000Z</time>
      </trkpt>
      <trkpt lat="47.28672" lon="-2.36779">
        <ele>1.2000000476837</ele>
        <time>2019-09-01T08:06:42.000Z</time>
      </trkpt>
      <trkpt lat="47.28672" lon="-2.36779">
        <ele>1.2000000476837</ele>
        <time>2019-09-01T08:06:44.000Z</time>
      </trkpt>
      <trkpt lat="47.28673" lon="-2.36774">
        <ele>1.2000000476837</ele>
        <time>2019-09-01T08:06:59.000Z</time>
      </trkpt>
      <trkpt lat="47.28674" lon="-2.3677">
        <ele>1.2000000476837</ele>
        <time>2019-09-01T08:07:01.000Z</time>
      </trkpt>
      <trkpt lat="47.28681" lon="-2.36763">
        <ele>1.6000000238419</ele>
        <time>2019-09-01T08:07:07.000Z</time>
      </trkpt>
      <trkpt lat="47.28682" lon="-2.36762">
        <ele>2</ele>
        <time>2019-09-01T08:07:08.000Z</time>
      </trkpt>
      <trkpt lat="47.28683" lon="-2.36761">
        <ele>2.4000000953674</ele>
        <time>2019-09-01T08:07:09.000Z</time>
      </trkpt>
      <trkpt lat="47.28685" lon="-2.36759">
        <ele>2.7999999523163</ele>
        <time>2019-09-01T08:07:10.000Z</time>
      </trkpt>
      <trkpt lat="47.28686" lon="-2.36757">
        <ele>3.2000000476837</ele>
        <time>2019-09-01T08:07:11.000Z</time>
      </trkpt>
      <trkpt lat="47.28687" lon="-2.36753">
        <ele>3.2000000476837</ele>
        <time>2019-09-01T08:07:13.000Z</time>
      </trkpt>
      <trkpt lat="47.28686" lon="-2.36747">
        <ele>3.5999999046326</ele>
        <time>2019-09-01T08:07:16.000Z</time>
      </trkpt>
      <trkpt lat="47.28686" lon="-2.36745">
        <ele>4.1999998092651</ele>
        <time>2019-09-01T08:07:17.000Z</time>
      </trkpt>
      <trkpt lat="47.28685" lon="-2.36744">
        <ele>5</ele>
        <time>2019-09-01T08:07:18.000Z</time>
      </trkpt>
      <trkpt lat="47.28685" lon="-2.36744">
        <ele>5.4000000953674</ele>
        <time>2019-09-01T08:07:19.000Z</time>
      </trkpt>
      <trkpt lat="47.28685" lon="-2.36744">
        <ele>5.8000001907349</ele>
        <time>2019-09-01T08:07:20.000Z</time>
      </trkpt>
      <trkpt lat="47.28685" lon="-2.36744">
        <ele>6.1999998092651</ele>
        <time>2019-09-01T08:07:21.000Z</time>
      </trkpt>
      <trkpt lat="47.28685" lon="-2.36742">
        <ele>6.5999999046326</ele>
        <time>2019-09-01T08:07:22.000Z</time>
      </trkpt>
      <trkpt lat="47.28685" lon="-2.36739">
        <ele>7.1999998092651</ele>
        <time>2019-09-01T08:07:23.000Z</time>
      </trkpt>
      <trkpt lat="47.28685" lon="-2.36738">
        <ele>7.5999999046326</ele>
        <time>2019-09-01T08:07:24.000Z</time>
      </trkpt>
      <trkpt lat="47.28685" lon="-2.36738">
        <ele>8</ele>
        <time>2019-09-01T08:07:25.000Z</time>
      </trkpt>
      <trkpt lat="47.28685" lon="-2.36738">
        <ele>8.3999996185303</ele>
        <time>2019-09-01T08:07:26.000Z</time>
      </trkpt>
      <trkpt lat="47.28685" lon="-2.36738">
        <ele>8.8000001907349</ele>
        <time>2019-09-01T08:07:27.000Z</time>
      </trkpt>
      <trkpt lat="47.28685" lon="-2.36735">
        <ele>9.1999998092651</ele>
        <time>2019-09-01T08:07:28.000Z</time>
      </trkpt>
      <trkpt lat="47.28685" lon="-2.36733">
        <ele>9.6000003814697</ele>
        <time>2019-09-01T08:07:29.000Z</time>
      </trkpt>
      <trkpt lat="47.28685" lon="-2.36733">
        <ele>10</ele>
        <time>2019-09-01T08:07:30.000Z</time>
      </trkpt>
      <trkpt lat="47.28685" lon="-2.3673">
        <ele>10.39999961853</ele>
        <time>2019-09-01T08:07:31.000Z</time>
      </trkpt>
      <trkpt lat="47.28684" lon="-2.36726">
        <ele>10.800000190735</ele>
        <time>2019-09-01T08:07:32.000Z</time>
      </trkpt>
      <trkpt lat="47.28683" lon="-2.36723">
        <ele>11.199999809265</ele>
        <time>2019-09-01T08:07:33.000Z</time>
      </trkpt>
      <trkpt lat="47.28683" lon="-2.3672">
        <ele>11.60000038147</ele>
        <time>2019-09-01T08:07:34.000Z</time>
      </trkpt>
      <trkpt lat="47.28683" lon="-2.36718">
        <ele>12</ele>
        <time>2019-09-01T08:07:36.000Z</time>
      </trkpt>
      <trkpt lat="47.28683" lon="-2.36718">
        <ele>12.39999961853</ele>
        <time>2019-09-01T08:07:37.000Z</time>
      </trkpt>
      <trkpt lat="47.28683" lon="-2.36718">
        <ele>12.800000190735</ele>
        <time>2019-09-01T08:07:38.000Z</time>
      </trkpt>
      <trkpt lat="47.28682" lon="-2.36715">
        <ele>13.39999961853</ele>
        <time>2019-09-01T08:07:39.000Z</time>
      </trkpt>
      <trkpt lat="47.28681" lon="-2.36713">
        <ele>13.800000190735</ele>
        <time>2019-09-01T08:07:40.000Z</time>
      </trkpt>
      <trkpt lat="47.28681" lon="-2.36711">
        <ele>13.800000190735</ele>
        <time>2019-09-01T08:07:42.000Z</time>
      </trkpt>
      <trkpt lat="47.28681" lon="-2.36711">
        <ele>14.199999809265</ele>
        <time>2019-09-01T08:07:44.000Z</time>
      </trkpt>
      <trkpt lat="47.2868" lon="-2.36709">
        <ele>14.60000038147</ele>
        <time>2019-09-01T08:07:45.000Z</time>
      </trkpt>
      <trkpt lat="47.28681" lon="-2.36705">
        <ele>15</ele>
        <time>2019-09-01T08:07:46.000Z</time>
      </trkpt>
      <trkpt lat="47.28682" lon="-2.36702">
        <ele>15.39999961853</ele>
        <time>2019-09-01T08:07:47.000Z</time>
      </trkpt>
      <trkpt lat="47.28682" lon="-2.367">
        <ele>15.800000190735</ele>
        <time>2019-09-01T08:07:48.000Z</time>
      </trkpt>
      <trkpt lat="47.28684" lon="-2.36699">
        <ele>15.800000190735</ele>
        <time>2019-09-01T08:07:51.000Z</time>
      </trkpt>
      <trkpt lat="47.28685" lon="-2.36697">
        <ele>15.800000190735</ele>
        <time>2019-09-01T08:07:53.000Z</time>
      </trkpt>
      <trkpt lat="47.28685" lon="-2.36697">
        <ele>15.39999961853</ele>
        <time>2019-09-01T08:07:54.000Z</time>
      </trkpt>
      <trkpt lat="47.28685" lon="-2.36697">
        <ele>15</ele>
        <time>2019-09-01T08:07:55.000Z</time>
      </trkpt>
      <trkpt lat="47.28685" lon="-2.36697">
        <ele>14.60000038147</ele>
        <time>2019-09-01T08:07:56.000Z</time>
      </trkpt>
      <trkpt lat="47.28686" lon="-2.36696">
        <ele>14.199999809265</ele>
        <time>2019-09-01T08:07:57.000Z</time>
      </trkpt>
      <trkpt lat="47.28687" lon="-2.36697">
        <ele>13.800000190735</ele>
        <time>2019-09-01T08:07:58.000Z</time>
      </trkpt>
      <trkpt lat="47.28688" lon="-2.36697">
        <ele>13.39999961853</ele>
        <time>2019-09-01T08:07:59.000Z</time>
      </trkpt>
      <trkpt lat="47.2869" lon="-2.36698">
        <ele>13</ele>
        <time>2019-09-01T08:08:00.000Z</time>
      </trkpt>
      <trkpt lat="47.28691" lon="-2.36699">
        <ele>12.39999961853</ele>
        <time>2019-09-01T08:08:01.000Z</time>
      </trkpt>
      <trkpt lat="47.28693" lon="-2.367">
        <ele>11.800000190735</ele>
        <time>2019-09-01T08:08:02.000Z</time>
      </trkpt>
      <trkpt lat="47.28695" lon="-2.367">
        <ele>11</ele>
        <time>2019-09-01T08:08:03.000Z</time>
      </trkpt>
      <trkpt lat="47.28697" lon="-2.36701">
        <ele>10.39999961853</ele>
        <time>2019-09-01T08:08:04.000Z</time>
      </trkpt>
      <trkpt lat="47.28699" lon="-2.36701">
        <ele>9.6000003814697</ele>
        <time>2019-09-01T08:08:05.000Z</time>
      </trkpt>
      <trkpt lat="47.28702" lon="-2.36701">
        <ele>8.8000001907349</ele>
        <time>2019-09-01T08:08:06.000Z</time>
      </trkpt>
      <trkpt lat="47.28704" lon="-2.36702">
        <ele>7.4000000953674</ele>
        <time>2019-09-01T08:08:07.000Z</time>
      </trkpt>
      <trkpt lat="47.28706" lon="-2.36702">
        <ele>6.5999999046326</ele>
        <time>2019-09-01T08:08:08.000Z</time>
      </trkpt>
      <trkpt lat="47.2871" lon="-2.36705">
        <ele>6.5999999046326</ele>
        <time>2019-09-01T08:08:11.000Z</time>
      </trkpt>
      <trkpt lat="47.28711" lon="-2.36706">
        <ele>6.5999999046326</ele>
        <time>2019-09-01T08:08:13.000Z</time>
      </trkpt>
      <trkpt lat="47.28711" lon="-2.36711">
        <ele>6.5999999046326</ele>
        <time>2019-09-01T08:08:37.000Z</time>
      </trkpt>
      <trkpt lat="47.2871" lon="-2.36716">
        <ele>6.5999999046326</ele>
        <time>2019-09-01T08:08:39.000Z</time>
      </trkpt>
      <trkpt lat="47.28706" lon="-2.36727">
        <ele>6.1999998092651</ele>
        <time>2019-09-01T08:08:43.000Z</time>
      </trkpt>
      <trkpt lat="47.28705" lon="-2.36729">
        <ele>5.8000001907349</ele>
        <time>2019-09-01T08:08:44.000Z</time>
      </trkpt>
      <trkpt lat="47.28703" lon="-2.36731">
        <ele>5.4000000953674</ele>
        <time>2019-09-01T08:08:45.000Z</time>
      </trkpt>
      <trkpt lat="47.28702" lon="-2.36734">
        <ele>5</ele>
        <time>2019-09-01T08:08:46.000Z</time>
      </trkpt>
      <trkpt lat="47.28701" lon="-2.36736">
        <ele>4.5999999046326</ele>
        <time>2019-09-01T08:08:47.000Z</time>
      </trkpt>
      <trkpt lat="47.28693" lon="-2.36747">
        <ele>4.5999999046326</ele>
        <time>2019-09-01T08:08:51.000Z</time>
      </trkpt>
      <trkpt lat="47.28681" lon="-2.3676">
        <ele>4.5999999046326</ele>
        <time>2019-09-01T08:08:56.000Z</time>
      </trkpt>
      <trkpt lat="47.2868" lon="-2.36764">
        <ele>4.5999999046326</ele>
        <time>2019-09-01T08:08:57.000Z</time>
      </trkpt>
      <trkpt lat="47.28679" lon="-2.36773">
        <ele>4.1999998092651</ele>
        <time>2019-09-01T08:08:59.000Z</time>
      </trkpt>
      <trkpt lat="47.28679" lon="-2.36778">
        <ele>3.7999999523163</ele>
        <time>2019-09-01T08:09:00.000Z</time>
      </trkpt>
      <trkpt lat="47.2868" lon="-2.36785">
        <ele>3.4000000953674</ele>
        <time>2019-09-01T08:09:01.000Z</time>
      </trkpt>
      <trkpt lat="47.28682" lon="-2.36792">
        <ele>2.7999999523163</ele>
        <time>2019-09-01T08:09:02.000Z</time>
      </trkpt>
      <trkpt lat="47.28684" lon="-2.36798">
        <ele>2.4000000953674</ele>
        <time>2019-09-01T08:09:03.000Z</time>
      </trkpt>
      <trkpt lat="47.28693" lon="-2.36821">
        <ele>2.4000000953674</ele>
        <time>2019-09-01T08:09:06.000Z</time>
      </trkpt>
      <trkpt lat="47.28696" lon="-2.36828">
        <ele>2</ele>
        <time>2019-09-01T08:09:07.000Z</time>
      </trkpt>
      <trkpt lat="47.287" lon="-2.36835">
        <ele>1.6000000238419</ele>
        <time>2019-09-01T08:09:08.000Z</time>
      </trkpt>
      <trkpt lat="47.28704" lon="-2.36842">
        <ele>1.2000000476837</ele>
        <time>2019-09-01T08:09:09.000Z</time>
      </trkpt>
      <trkpt lat="47.28707" lon="-2.3685">
        <ele>0.80000001192093</ele>
        <time>2019-09-01T08:09:10.000Z</time>
      </trkpt>
      <trkpt lat="47.28711" lon="-2.36857">
        <ele>0.20000000298023</ele>
        <time>2019-09-01T08:09:11.000Z</time>
      </trkpt>
      <trkpt lat="47.28714" lon="-2.36865">
        <ele>0.20000000298023</ele>
        <time>2019-09-01T08:09:12.000Z</time>
      </trkpt>
      <trkpt lat="47.28723" lon="-2.36892">
        <ele>-0.20000000298023</ele>
        <time>2019-09-01T08:09:16.000Z</time>
      </trkpt>
      <trkpt lat="47.28725" lon="-2.36898">
        <ele>-0.60000002384186</ele>
        <time>2019-09-01T08:09:17.000Z</time>
      </trkpt>
      <trkpt lat="47.28728" lon="-2.36902">
        <ele>-1.2000000476837</ele>
        <time>2019-09-01T08:09:18.000Z</time>
      </trkpt>
      <trkpt lat="47.28732" lon="-2.36908">
        <ele>-1.6000000238419</ele>
        <time>2019-09-01T08:09:19.000Z</time>
      </trkpt>
      <trkpt lat="47.28735" lon="-2.36913">
        <ele>-2.2000000476837</ele>
        <time>2019-09-01T08:09:20.000Z</time>
      </trkpt>
      <trkpt lat="47.28738" lon="-2.36918">
        <ele>-2.5999999046326</ele>
        <time>2019-09-01T08:09:21.000Z</time>
      </trkpt>
      <trkpt lat="47.2874" lon="-2.36923">
        <ele>-3.5999999046326</ele>
        <time>2019-09-01T08:09:22.000Z</time>
      </trkpt>
      <trkpt lat="47.28741" lon="-2.36928">
        <ele>-4.1999998092651</ele>
        <time>2019-09-01T08:09:23.000Z</time>
      </trkpt>
      <trkpt lat="47.28745" lon="-2.36939">
        <ele>-4.1999998092651</ele>
        <time>2019-09-01T08:09:26.000Z</time>
      </trkpt>
      <trkpt lat="47.28748" lon="-2.36949">
        <ele>-3.7999999523163</ele>
        <time>2019-09-01T08:09:29.000Z</time>
      </trkpt>
      <trkpt lat="47.28748" lon="-2.36953">
        <ele>-3.4000000953674</ele>
        <time>2019-09-01T08:09:30.000Z</time>
      </trkpt>
      <trkpt lat="47.28749" lon="-2.36956">
        <ele>-3</ele>
        <time>2019-09-01T08:09:31.000Z</time>
      </trkpt>
      <trkpt lat="47.28749" lon="-2.36958">
        <ele>-2.4000000953674</ele>
        <time>2019-09-01T08:09:32.000Z</time>
      </trkpt>
      <trkpt lat="47.2875" lon="-2.36961">
        <ele>-2</ele>
        <time>2019-09-01T08:09:33.000Z</time>
      </trkpt>
      <trkpt lat="47.28752" lon="-2.36968">
        <ele>-1.6000000238419</ele>
        <time>2019-09-01T08:09:35.000Z</time>
      </trkpt>
      <trkpt lat="47.28755" lon="-2.36975">
        <ele>-1.2000000476837</ele>
        <time>2019-09-01T08:09:36.000Z</time>
      </trkpt>
      <trkpt lat="47.28757" lon="-2.3698">
        <ele>-0.60000002384186</ele>
        <time>2019-09-01T08:09:37.000Z</time>
      </trkpt>
      <trkpt lat="47.28758" lon="-2.36983">
        <ele>-0.20000000298023</ele>
        <time>2019-09-01T08:09:38.000Z</time>
      </trkpt>
      <trkpt lat="47.2876" lon="-2.36986">
        <ele>0.20000000298023</ele>
        <time>2019-09-01T08:09:39.000Z</time>
      </trkpt>
      <trkpt lat="47.28764" lon="-2.3699">
        <ele>0.20000000298023</ele>
        <time>2019-09-01T08:09:41.000Z</time>
      </trkpt>
      <trkpt lat="47.28776" lon="-2.37009">
        <ele>0.20000000298023</ele>
        <time>2019-09-01T08:09:45.000Z</time>
      </trkpt>
      <trkpt lat="47.28788" lon="-2.37036">
        <ele>0.20000000298023</ele>
        <time>2019-09-01T08:09:50.000Z</time>
      </trkpt>
      <trkpt lat="47.28793" lon="-2.37046">
        <ele>-0.20000000298023</ele>
        <time>2019-09-01T08:09:52.000Z</time>
      </trkpt>
      <trkpt lat="47.28795" lon="-2.37051">
        <ele>-0.60000002384186</ele>
        <time>2019-09-01T08:09:53.000Z</time>
      </trkpt>
      <trkpt lat="47.28798" lon="-2.37056">
        <ele>-1</ele>
        <time>2019-09-01T08:09:54.000Z</time>
      </trkpt>
      <trkpt lat="47.28801" lon="-2.37062">
        <ele>-1.3999999761581</ele>
        <time>2019-09-01T08:09:55.000Z</time>
      </trkpt>
      <trkpt lat="47.28803" lon="-2.37071">
        <ele>-2</ele>
        <time>2019-09-01T08:09:56.000Z</time>
      </trkpt>
      <trkpt lat="47.28805" lon="-2.37078">
        <ele>-2.4000000953674</ele>
        <time>2019-09-01T08:09:57.000Z</time>
      </trkpt>
      <trkpt lat="47.28807" lon="-2.37083">
        <ele>-3</ele>
        <time>2019-09-01T08:09:58.000Z</time>
      </trkpt>
      <trkpt lat="47.28807" lon="-2.37088">
        <ele>-3.4000000953674</ele>
        <time>2019-09-01T08:09:59.000Z</time>
      </trkpt>
      <trkpt lat="47.28809" lon="-2.3709">
        <ele>-4</ele>
        <time>2019-09-01T08:10:00.000Z</time>
      </trkpt>
      <trkpt lat="47.28813" lon="-2.37092">
        <ele>-4.4000000953674</ele>
        <time>2019-09-01T08:10:02.000Z</time>
      </trkpt>
      <trkpt lat="47.28816" lon="-2.37092">
        <ele>-4.8000001907349</ele>
        <time>2019-09-01T08:10:03.000Z</time>
      </trkpt>
      <trkpt lat="47.28818" lon="-2.3709">
        <ele>-5.4000000953674</ele>
        <time>2019-09-01T08:10:04.000Z</time>
      </trkpt>
      <trkpt lat="47.28821" lon="-2.37089">
        <ele>-5.8000001907349</ele>
        <time>2019-09-01T08:10:05.000Z</time>
      </trkpt>
      <trkpt lat="47.28822" lon="-2.37087">
        <ele>-6.4000000953674</ele>
        <time>2019-09-01T08:10:06.000Z</time>
      </trkpt>
      <trkpt lat="47.28824" lon="-2.37086">
        <ele>-7</ele>
        <time>2019-09-01T08:10:07.000Z</time>
      </trkpt>
      <trkpt lat="47.28825" lon="-2.37085">
        <ele>-7.5999999046326</ele>
        <time>2019-09-01T08:10:08.000Z</time>
      </trkpt>
      <trkpt lat="47.28826" lon="-2.37085">
        <ele>-8.3999996185303</ele>
        <time>2019-09-01T08:10:09.000Z</time>
      </trkpt>
      <trkpt lat="47.28828" lon="-2.37087">
        <ele>-9</ele>
        <time>2019-09-01T08:10:10.000Z</time>
      </trkpt>
      <trkpt lat="47.28829" lon="-2.37091">
        <ele>-9.6000003814697</ele>
        <time>2019-09-01T08:10:11.000Z</time>
      </trkpt>
      <trkpt lat="47.2883" lon="-2.37095">
        <ele>-11</ele>
        <time>2019-09-01T08:10:12.000Z</time>
      </trkpt>
      <trkpt lat="47.28831" lon="-2.37099">
        <ele>-11</ele>
        <time>2019-09-01T08:10:13.000Z</time>
      </trkpt>
      <trkpt lat="47.28834" lon="-2.37123">
        <ele>-11</ele>
        <time>2019-09-01T08:10:16.000Z</time>
      </trkpt>
      <trkpt lat="47.28835" lon="-2.37131">
        <ele>-11</ele>
        <time>2019-09-01T08:10:17.000Z</time>
      </trkpt>
      <trkpt lat="47.28837" lon="-2.37147">
        <ele>-11</ele>
        <time>2019-09-01T08:10:19.000Z</time>
      </trkpt>
      <trkpt lat="47.28842" lon="-2.37171">
        <ele>-11</ele>
        <time>2019-09-01T08:10:22.000Z</time>
      </trkpt>
      <trkpt lat="47.28847" lon="-2.37204">
        <ele>-11</ele>
        <time>2019-09-01T08:10:27.000Z</time>
      </trkpt>
      <trkpt lat="47.28849" lon="-2.3722">
        <ele>-11</ele>
        <time>2019-09-01T08:10:29.000Z</time>
      </trkpt>
      <trkpt lat="47.28852" lon="-2.37237">
        <ele>-11</ele>
        <time>2019-09-01T08:10:31.000Z</time>
      </trkpt>
      <trkpt lat="47.28858" lon="-2.37283">
        <ele>-11</ele>
        <time>2019-09-01T08:10:37.000Z</time>
      </trkpt>
      <trkpt lat="47.28861" lon="-2.37333">
        <ele>-11</ele>
        <time>2019-09-01T08:10:43.000Z</time>
      </trkpt>
      <trkpt lat="47.28864" lon="-2.37375">
        <ele>-11</ele>
        <time>2019-09-01T08:10:48.000Z</time>
      </trkpt>
      <trkpt lat="47.28866" lon="-2.37408">
        <ele>-11.39999961853</ele>
        <time>2019-09-01T08:10:52.000Z</time>
      </trkpt>
      <trkpt lat="47.28867" lon="-2.37416">
        <ele>-11.800000190735</ele>
        <time>2019-09-01T08:10:53.000Z</time>
      </trkpt>
      <trkpt lat="47.28868" lon="-2.37424">
        <ele>-12.199999809265</ele>
        <time>2019-09-01T08:10:54.000Z</time>
      </trkpt>
      <trkpt lat="47.28869" lon="-2.37432">
        <ele>-12.800000190735</ele>
        <time>2019-09-01T08:10:55.000Z</time>
      </trkpt>
      <trkpt lat="47.2887" lon="-2.37439">
        <ele>-13.199999809265</ele>
        <time>2019-09-01T08:10:56.000Z</time>
      </trkpt>
      <trkpt lat="47.28874" lon="-2.3747">
        <ele>-13.199999809265</ele>
        <time>2019-09-01T08:11:01.000Z</time>
      </trkpt>
      <trkpt lat="47.28878" lon="-2.37512">
        <ele>-13.199999809265</ele>
        <time>2019-09-01T08:11:07.000Z</time>
      </trkpt>
      <trkpt lat="47.28877" lon="-2.3753">
        <ele>-13.199999809265</ele>
        <time>2019-09-01T08:11:10.000Z</time>
      </trkpt>
      <trkpt lat="47.28875" lon="-2.3754">
        <ele>-13.199999809265</ele>
        <time>2019-09-01T08:11:12.000Z</time>
      </trkpt>
      <trkpt lat="47.28874" lon="-2.37542">
        <ele>-13.60000038147</ele>
        <time>2019-09-01T08:11:13.000Z</time>
      </trkpt>
      <trkpt lat="47.28874" lon="-2.37543">
        <ele>-14</ele>
        <time>2019-09-01T08:11:14.000Z</time>
      </trkpt>
      <trkpt lat="47.28876" lon="-2.37545">
        <ele>-15.199999809265</ele>
        <time>2019-09-01T08:11:22.000Z</time>
      </trkpt>
      <trkpt lat="47.28885" lon="-2.37549">
        <ele>-15.199999809265</ele>
        <time>2019-09-01T08:11:26.000Z</time>
      </trkpt>
      <trkpt lat="47.28895" lon="-2.37564">
        <ele>-15.199999809265</ele>
        <time>2019-09-01T08:11:29.000Z</time>
      </trkpt>
      <trkpt lat="47.28901" lon="-2.37593">
        <ele>-15.199999809265</ele>
        <time>2019-09-01T08:11:33.000Z</time>
      </trkpt>
      <trkpt lat="47.28902" lon="-2.37601">
        <ele>-15.199999809265</ele>
        <time>2019-09-01T08:11:34.000Z</time>
      </trkpt>
      <trkpt lat="47.28904" lon="-2.37617">
        <ele>-15.199999809265</ele>
        <time>2019-09-01T08:11:36.000Z</time>
      </trkpt>
      <trkpt lat="47.28907" lon="-2.37639">
        <ele>-15.199999809265</ele>
        <time>2019-09-01T08:11:39.000Z</time>
      </trkpt>
      <trkpt lat="47.28918" lon="-2.37644">
        <ele>-15.199999809265</ele>
        <time>2019-09-01T08:11:42.000Z</time>
      </trkpt>
      <trkpt lat="47.28923" lon="-2.37644">
        <ele>-15.199999809265</ele>
        <time>2019-09-01T08:11:43.000Z</time>
      </trkpt>
      <trkpt lat="47.28933" lon="-2.37646">
        <ele>-15.199999809265</ele>
        <time>2019-09-01T08:11:46.000Z</time>
      </trkpt>
      <trkpt lat="47.28935" lon="-2.3765">
        <ele>-15.199999809265</ele>
        <time>2019-09-01T08:11:47.000Z</time>
      </trkpt>
      <trkpt lat="47.28935" lon="-2.37668">
        <ele>-15.199999809265</ele>
        <time>2019-09-01T08:11:50.000Z</time>
      </trkpt>
      <trkpt lat="47.28932" lon="-2.37721">
        <ele>-15.199999809265</ele>
        <time>2019-09-01T08:11:58.000Z</time>
      </trkpt>
      <trkpt lat="47.28928" lon="-2.37766">
        <ele>-15.199999809265</ele>
        <time>2019-09-01T08:12:06.000Z</time>
      </trkpt>
      <trkpt lat="47.28925" lon="-2.37785">
        <ele>-15.199999809265</ele>
        <time>2019-09-01T08:12:09.000Z</time>
      </trkpt>
      <trkpt lat="47.28924" lon="-2.37803">
        <ele>-15.199999809265</ele>
        <time>2019-09-01T08:12:12.000Z</time>
      </trkpt>
      <trkpt lat="47.28921" lon="-2.37847">
        <ele>-15.199999809265</ele>
        <time>2019-09-01T08:12:19.000Z</time>
      </trkpt>
      <trkpt lat="47.28918" lon="-2.37874">
        <ele>-15.199999809265</ele>
        <time>2019-09-01T08:12:23.000Z</time>
      </trkpt>
      <trkpt lat="47.28917" lon="-2.37888">
        <ele>-15.199999809265</ele>
        <time>2019-09-01T08:12:25.000Z</time>
      </trkpt>
      <trkpt lat="47.28915" lon="-2.37932">
        <ele>-15.199999809265</ele>
        <time>2019-09-01T08:12:31.000Z</time>
      </trkpt>
      <trkpt lat="47.28914" lon="-2.37974">
        <ele>-15.199999809265</ele>
        <time>2019-09-01T08:12:37.000Z</time>
      </trkpt>
      <trkpt lat="47.2891" lon="-2.38014">
        <ele>-15.199999809265</ele>
        <time>2019-09-01T08:12:44.000Z</time>
      </trkpt>
      <trkpt lat="47.28907" lon="-2.38038">
        <ele>-15.199999809265</ele>
        <time>2019-09-01T08:12:50.000Z</time>
      </trkpt>
      <trkpt lat="47.28914" lon="-2.3806">
        <ele>-15.199999809265</ele>
        <time>2019-09-01T08:12:55.000Z</time>
      </trkpt>
      <trkpt lat="47.28918" lon="-2.38071">
        <ele>-15.199999809265</ele>
        <time>2019-09-01T08:12:57.000Z</time>
      </trkpt>
      <trkpt lat="47.28923" lon="-2.38092">
        <ele>-15.199999809265</ele>
        <time>2019-09-01T08:13:00.000Z</time>
      </trkpt>
      <trkpt lat="47.28928" lon="-2.38129">
        <ele>-15.199999809265</ele>
        <time>2019-09-01T08:13:05.000Z</time>
      </trkpt>
      <trkpt lat="47.28931" lon="-2.38152">
        <ele>-15.199999809265</ele>
        <time>2019-09-01T08:13:08.000Z</time>
      </trkpt>
      <trkpt lat="47.28934" lon="-2.38202">
        <ele>-15.199999809265</ele>
        <time>2019-09-01T08:13:14.000Z</time>
      </trkpt>
      <trkpt lat="47.28935" lon="-2.38258">
        <ele>-15.199999809265</ele>
        <time>2019-09-01T08:13:21.000Z</time>
      </trkpt>
      <trkpt lat="47.28931" lon="-2.38299">
        <ele>-15.199999809265</ele>
        <time>2019-09-01T08:13:26.000Z</time>
      </trkpt>
      <trkpt lat="47.28931" lon="-2.38307">
        <ele>-15.199999809265</ele>
        <time>2019-09-01T08:13:27.000Z</time>
      </trkpt>
      <trkpt lat="47.28932" lon="-2.38355">
        <ele>-15.199999809265</ele>
        <time>2019-09-01T08:13:33.000Z</time>
      </trkpt>
      <trkpt lat="47.28936" lon="-2.3841">
        <ele>-15.199999809265</ele>
        <time>2019-09-01T08:13:40.000Z</time>
      </trkpt>
      <trkpt lat="47.28941" lon="-2.38469">
        <ele>-15.199999809265</ele>
        <time>2019-09-01T08:13:47.000Z</time>
      </trkpt>
      <trkpt lat="47.28948" lon="-2.38537">
        <ele>-15.199999809265</ele>
        <time>2019-09-01T08:13:55.000Z</time>
      </trkpt>
      <trkpt lat="47.28955" lon="-2.38604">
        <ele>-15.199999809265</ele>
        <time>2019-09-01T08:14:03.000Z</time>
      </trkpt>
      <trkpt lat="47.28955" lon="-2.38655">
        <ele>-15.199999809265</ele>
        <time>2019-09-01T08:14:09.000Z</time>
      </trkpt>
      <trkpt lat="47.28955" lon="-2.38716">
        <ele>-15.199999809265</ele>
        <time>2019-09-01T08:14:16.000Z</time>
      </trkpt>
      <trkpt lat="47.28955" lon="-2.38765">
        <ele>-15.199999809265</ele>
        <time>2019-09-01T08:14:23.000Z</time>
      </trkpt>
      <trkpt lat="47.28955" lon="-2.38775">
        <ele>-15.199999809265</ele>
        <time>2019-09-01T08:14:27.000Z</time>
      </trkpt>
      <trkpt lat="47.28952" lon="-2.38789">
        <ele>-15.199999809265</ele>
        <time>2019-09-01T08:14:31.000Z</time>
      </trkpt>
      <trkpt lat="47.28953" lon="-2.3882">
        <ele>-15.199999809265</ele>
        <time>2019-09-01T08:14:36.000Z</time>
      </trkpt>
      <trkpt lat="47.28954" lon="-2.38827">
        <ele>-15.199999809265</ele>
        <time>2019-09-01T08:14:37.000Z</time>
      </trkpt>
      <trkpt lat="47.28956" lon="-2.38853">
        <ele>-15.199999809265</ele>
        <time>2019-09-01T08:14:40.000Z</time>
      </trkpt>
      <trkpt lat="47.28955" lon="-2.38872">
        <ele>-15.199999809265</ele>
        <time>2019-09-01T08:14:42.000Z</time>
      </trkpt>
      <trkpt lat="47.28954" lon="-2.389">
        <ele>-15.199999809265</ele>
        <time>2019-09-01T08:14:45.000Z</time>
      </trkpt>
      <trkpt lat="47.28951" lon="-2.38968">
        <ele>-15.199999809265</ele>
        <time>2019-09-01T08:14:52.000Z</time>
      </trkpt>
      <trkpt lat="47.28946" lon="-2.39027">
        <ele>-15.199999809265</ele>
        <time>2019-09-01T08:14:58.000Z</time>
      </trkpt>
      <trkpt lat="47.28937" lon="-2.39104">
        <ele>-15.199999809265</ele>
        <time>2019-09-01T08:15:06.000Z</time>
      </trkpt>
      <trkpt lat="47.28931" lon="-2.3916">
        <ele>-15.199999809265</ele>
        <time>2019-09-01T08:15:12.000Z</time>
      </trkpt>
      <trkpt lat="47.28929" lon="-2.39188">
        <ele>-15.199999809265</ele>
        <time>2019-09-01T08:15:15.000Z</time>
      </trkpt>
      <trkpt lat="47.2893" lon="-2.39206">
        <ele>-15.199999809265</ele>
        <time>2019-09-01T08:15:17.000Z</time>
      </trkpt>
      <trkpt lat="47.28931" lon="-2.39224">
        <ele>-15.199999809265</ele>
        <time>2019-09-01T08:15:19.000Z</time>
      </trkpt>
      <trkpt lat="47.28934" lon="-2.39259">
        <ele>-15.199999809265</ele>
        <time>2019-09-01T08:15:23.000Z</time>
      </trkpt>
      <trkpt lat="47.28937" lon="-2.39274">
        <ele>-15.199999809265</ele>
        <time>2019-09-01T08:15:25.000Z</time>
      </trkpt>
      <trkpt lat="47.28946" lon="-2.39295">
        <ele>-15.199999809265</ele>
        <time>2019-09-01T08:15:28.000Z</time>
      </trkpt>
      <trkpt lat="47.28961" lon="-2.39306">
        <ele>-15.199999809265</ele>
        <time>2019-09-01T08:15:31.000Z</time>
      </trkpt>
      <trkpt lat="47.28967" lon="-2.39308">
        <ele>-15.199999809265</ele>
        <time>2019-09-01T08:15:32.000Z</time>
      </trkpt>
      <trkpt lat="47.29003" lon="-2.3932">
        <ele>-15.199999809265</ele>
        <time>2019-09-01T08:15:38.000Z</time>
      </trkpt>
      <trkpt lat="47.29015" lon="-2.39325">
        <ele>-15.199999809265</ele>
        <time>2019-09-01T08:15:40.000Z</time>
      </trkpt>
      <trkpt lat="47.29038" lon="-2.39336">
        <ele>-15.199999809265</ele>
        <time>2019-09-01T08:15:44.000Z</time>
      </trkpt>
      <trkpt lat="47.29066" lon="-2.39351">
        <ele>-15.199999809265</ele>
        <time>2019-09-01T08:15:50.000Z</time>
      </trkpt>
      <trkpt lat="47.29098" lon="-2.39371">
        <ele>-15.199999809265</ele>
        <time>2019-09-01T08:15:58.000Z</time>
      </trkpt>
      <trkpt lat="47.29112" lon="-2.39368">
        <ele>-15.199999809265</ele>
        <time>2019-09-01T08:16:01.000Z</time>
      </trkpt>
      <trkpt lat="47.29115" lon="-2.39366">
        <ele>-15.199999809265</ele>
        <time>2019-09-01T08:16:02.000Z</time>
      </trkpt>
      <trkpt lat="47.29121" lon="-2.39362">
        <ele>-15.199999809265</ele>
        <time>2019-09-01T08:16:04.000Z</time>
      </trkpt>
      <trkpt lat="47.29138" lon="-2.39362">
        <ele>-15.199999809265</ele>
        <time>2019-09-01T08:16:10.000Z</time>
      </trkpt>
      <trkpt lat="47.2914" lon="-2.39366">
        <ele>-15.199999809265</ele>
        <time>2019-09-01T08:16:11.000Z</time>
      </trkpt>
      <trkpt lat="47.29141" lon="-2.39375">
        <ele>-15.199999809265</ele>
        <time>2019-09-01T08:16:13.000Z</time>
      </trkpt>
      <trkpt lat="47.2914" lon="-2.39398">
        <ele>-15.199999809265</ele>
        <time>2019-09-01T08:16:17.000Z</time>
      </trkpt>
      <trkpt lat="47.2914" lon="-2.39404">
        <ele>-15.199999809265</ele>
        <time>2019-09-01T08:16:18.000Z</time>
      </trkpt>
      <trkpt lat="47.29136" lon="-2.39433">
        <ele>-15.199999809265</ele>
        <time>2019-09-01T08:16:23.000Z</time>
      </trkpt>
      <trkpt lat="47.29136" lon="-2.39455">
        <ele>-15.199999809265</ele>
        <time>2019-09-01T08:16:28.000Z</time>
      </trkpt>
      <trkpt lat="47.29139" lon="-2.39459">
        <ele>-15.199999809265</ele>
        <time>2019-09-01T08:16:30.000Z</time>
      </trkpt>
      <trkpt lat="47.29143" lon="-2.39461">
        <ele>-15.199999809265</ele>
        <time>2019-09-01T08:16:32.000Z</time>
      </trkpt>
      <trkpt lat="47.29152" lon="-2.39461">
        <ele>-15.199999809265</ele>
        <time>2019-09-01T08:16:35.000Z</time>
      </trkpt>
      <trkpt lat="47.29175" lon="-2.39466">
        <ele>-15.199999809265</ele>
        <time>2019-09-01T08:16:41.000Z</time>
      </trkpt>
      <trkpt lat="47.29208" lon="-2.39472">
        <ele>-15.199999809265</ele>
        <time>2019-09-01T08:16:48.000Z</time>
      </trkpt>
      <trkpt lat="47.29249" lon="-2.3948">
        <ele>-15.199999809265</ele>
        <time>2019-09-01T08:16:56.000Z</time>
      </trkpt>
      <trkpt lat="47.29277" lon="-2.39485">
        <ele>-15.199999809265</ele>
        <time>2019-09-01T08:17:01.000Z</time>
      </trkpt>
      <trkpt lat="47.29327" lon="-2.39495">
        <ele>-15.199999809265</ele>
        <time>2019-09-01T08:17:10.000Z</time>
      </trkpt>
      <trkpt lat="47.29373" lon="-2.39505">
        <ele>-15.199999809265</ele>
        <time>2019-09-01T08:17:18.000Z</time>
      </trkpt>
      <trkpt lat="47.29408" lon="-2.39511">
        <ele>-15.199999809265</ele>
        <time>2019-09-01T08:17:25.000Z</time>
      </trkpt>
      <trkpt lat="47.29422" lon="-2.39514">
        <ele>-15.199999809265</ele>
        <time>2019-09-01T08:17:28.000Z</time>
      </trkpt>
      <trkpt lat="47.29437" lon="-2.39517">
        <ele>-15.199999809265</ele>
        <time>2019-09-01T08:17:31.000Z</time>
      </trkpt>
      <trkpt lat="47.29479" lon="-2.39527">
        <ele>-15.199999809265</ele>
        <time>2019-09-01T08:17:39.000Z</time>
      </trkpt>
      <trkpt lat="47.29521" lon="-2.39535">
        <ele>-15.199999809265</ele>
        <time>2019-09-01T08:17:47.000Z</time>
      </trkpt>
      <trkpt lat="47.29548" lon="-2.39538">
        <ele>-15.199999809265</ele>
        <time>2019-09-01T08:17:53.000Z</time>
      </trkpt>
      <trkpt lat="47.29564" lon="-2.39542">
        <ele>-14.800000190735</ele>
        <time>2019-09-01T08:17:57.000Z</time>
      </trkpt>
      <trkpt lat="47.29568" lon="-2.39542">
        <ele>-14.39999961853</ele>
        <time>2019-09-01T08:17:58.000Z</time>
      </trkpt>
      <trkpt lat="47.29571" lon="-2.39543">
        <ele>-14</ele>
        <time>2019-09-01T08:17:59.000Z</time>
      </trkpt>
      <trkpt lat="47.29574" lon="-2.39544">
        <ele>-13.60000038147</ele>
        <time>2019-09-01T08:18:00.000Z</time>
      </trkpt>
      <trkpt lat="47.29577" lon="-2.39545">
        <ele>-13</ele>
        <time>2019-09-01T08:18:01.000Z</time>
      </trkpt>
      <trkpt lat="47.29586" lon="-2.39547">
        <ele>-12.60000038147</ele>
        <time>2019-09-01T08:18:04.000Z</time>
      </trkpt>
      <trkpt lat="47.29589" lon="-2.39548">
        <ele>-12.199999809265</ele>
        <time>2019-09-01T08:18:05.000Z</time>
      </trkpt>
      <trkpt lat="47.29591" lon="-2.39548">
        <ele>-11.800000190735</ele>
        <time>2019-09-01T08:18:06.000Z</time>
      </trkpt>
      <trkpt lat="47.29594" lon="-2.39549">
        <ele>-11.39999961853</ele>
        <time>2019-09-01T08:18:07.000Z</time>
      </trkpt>
      <trkpt lat="47.29598" lon="-2.39549">
        <ele>-11</ele>
        <time>2019-09-01T08:18:08.000Z</time>
      </trkpt>
      <trkpt lat="47.29605" lon="-2.3955">
        <ele>-11</ele>
        <time>2019-09-01T08:18:10.000Z</time>
      </trkpt>
      <trkpt lat="47.29622" lon="-2.39555">
        <ele>-11</ele>
        <time>2019-09-01T08:18:15.000Z</time>
      </trkpt>
      <trkpt lat="47.29624" lon="-2.39558">
        <ele>-11</ele>
        <time>2019-09-01T08:18:16.000Z</time>
      </trkpt>
      <trkpt lat="47.29622" lon="-2.39561">
        <ele>-11</ele>
        <time>2019-09-01T08:18:18.000Z</time>
      </trkpt>
      <trkpt lat="47.29618" lon="-2.39562">
        <ele>-11.39999961853</ele>
        <time>2019-09-01T08:18:19.000Z</time>
      </trkpt>
      <trkpt lat="47.29614" lon="-2.39564">
        <ele>-11.800000190735</ele>
        <time>2019-09-01T08:18:20.000Z</time>
      </trkpt>
      <trkpt lat="47.29611" lon="-2.39566">
        <ele>-12.199999809265</ele>
        <time>2019-09-01T08:18:21.000Z</time>
      </trkpt>
      <trkpt lat="47.2961" lon="-2.3957">
        <ele>-12.60000038147</ele>
        <time>2019-09-01T08:18:22.000Z</time>
      </trkpt>
      <trkpt lat="47.29612" lon="-2.39573">
        <ele>-13</ele>
        <time>2019-09-01T08:18:23.000Z</time>
      </trkpt>
      <trkpt lat="47.29615" lon="-2.39574">
        <ele>-13</ele>
        <time>2019-09-01T08:18:24.000Z</time>
      </trkpt>
      <trkpt lat="47.29626" lon="-2.39575">
        <ele>-13.39999961853</ele>
        <time>2019-09-01T08:18:27.000Z</time>
      </trkpt>
      <trkpt lat="47.29629" lon="-2.39578">
        <ele>-13.800000190735</ele>
        <time>2019-09-01T08:18:28.000Z</time>
      </trkpt>
      <trkpt lat="47.29631" lon="-2.39582">
        <ele>-14.199999809265</ele>
        <time>2019-09-01T08:18:29.000Z</time>
      </trkpt>
      <trkpt lat="47.29632" lon="-2.39586">
        <ele>-14.60000038147</ele>
        <time>2019-09-01T08:18:30.000Z</time>
      </trkpt>
      <trkpt lat="47.29632" lon="-2.3959">
        <ele>-15.199999809265</ele>
        <time>2019-09-01T08:18:31.000Z</time>
      </trkpt>
      <trkpt lat="47.29635" lon="-2.39617">
        <ele>-15.199999809265</ele>
        <time>2019-09-01T08:18:36.000Z</time>
      </trkpt>
      <trkpt lat="47.29626" lon="-2.39649">
        <ele>-15.199999809265</ele>
        <time>2019-09-01T08:18:40.000Z</time>
      </trkpt>
      <trkpt lat="47.29616" lon="-2.39668">
        <ele>-15.199999809265</ele>
        <time>2019-09-01T08:18:43.000Z</time>
      </trkpt>
      <trkpt lat="47.29608" lon="-2.39681">
        <ele>-15.199999809265</ele>
        <time>2019-09-01T08:18:45.000Z</time>
      </trkpt>
      <trkpt lat="47.29574" lon="-2.39741">
        <ele>-15.199999809265</ele>
        <time>2019-09-01T08:18:54.000Z</time>
      </trkpt>
      <trkpt lat="47.29552" lon="-2.39795">
        <ele>-15.199999809265</ele>
        <time>2019-09-01T08:19:01.000Z</time>
      </trkpt>
      <trkpt lat="47.29529" lon="-2.39838">
        <ele>-15.199999809265</ele>
        <time>2019-09-01T08:19:07.000Z</time>
      </trkpt>
      <trkpt lat="47.29508" lon="-2.3988">
        <ele>-15.199999809265</ele>
        <time>2019-09-01T08:19:13.000Z</time>
      </trkpt>
      <trkpt lat="47.29504" lon="-2.39886">
        <ele>-15.199999809265</ele>
        <time>2019-09-01T08:19:14.000Z</time>
      </trkpt>
      <trkpt lat="47.295" lon="-2.39892">
        <ele>-15.199999809265</ele>
        <time>2019-09-01T08:19:15.000Z</time>
      </trkpt>
      <trkpt lat="47.2949" lon="-2.39903">
        <ele>-15.199999809265</ele>
        <time>2019-09-01T08:19:18.000Z</time>
      </trkpt>
      <trkpt lat="47.29485" lon="-2.39919">
        <ele>-15.199999809265</ele>
        <time>2019-09-01T08:19:22.000Z</time>
      </trkpt>
      <trkpt lat="47.29483" lon="-2.3993">
        <ele>-15.199999809265</ele>
        <time>2019-09-01T08:19:25.000Z</time>
      </trkpt>
      <trkpt lat="47.29481" lon="-2.39933">
        <ele>-15.199999809265</ele>
        <time>2019-09-01T08:19:26.000Z</time>
      </trkpt>
      <trkpt lat="47.29473" lon="-2.39951">
        <ele>-15.199999809265</ele>
        <time>2019-09-01T08:19:30.000Z</time>
      </trkpt>
      <trkpt lat="47.29462" lon="-2.39986">
        <ele>-15.199999809265</ele>
        <time>2019-09-01T08:19:35.000Z</time>
      </trkpt>
      <trkpt lat="47.2946" lon="-2.39994">
        <ele>-15.199999809265</ele>
        <time>2019-09-01T08:19:36.000Z</time>
      </trkpt>
      <trkpt lat="47.2946" lon="-2.4002">
        <ele>-15.199999809265</ele>
        <time>2019-09-01T08:19:39.000Z</time>
      </trkpt>
      <trkpt lat="47.29461" lon="-2.40072">
        <ele>-15.199999809265</ele>
        <time>2019-09-01T08:19:45.000Z</time>
      </trkpt>
      <trkpt lat="47.29459" lon="-2.40089">
        <ele>-15.199999809265</ele>
        <time>2019-09-01T08:19:47.000Z</time>
      </trkpt>
      <trkpt lat="47.29455" lon="-2.40114">
        <ele>-15.199999809265</ele>
        <time>2019-09-01T08:19:50.000Z</time>
      </trkpt>
      <trkpt lat="47.2945" lon="-2.40166">
        <ele>-15.199999809265</ele>
        <time>2019-09-01T08:19:56.000Z</time>
      </trkpt>
      <trkpt lat="47.29444" lon="-2.40201">
        <ele>-15.199999809265</ele>
        <time>2019-09-01T08:20:00.000Z</time>
      </trkpt>
      <trkpt lat="47.29442" lon="-2.40209">
        <ele>-15.199999809265</ele>
        <time>2019-09-01T08:20:01.000Z</time>
      </trkpt>
      <trkpt lat="47.29439" lon="-2.40216">
        <ele>-15.199999809265</ele>
        <time>2019-09-01T08:20:02.000Z</time>
      </trkpt>
      <trkpt lat="47.29434" lon="-2.40218">
        <ele>-15.199999809265</ele>
        <time>2019-09-01T08:20:03.000Z</time>
      </trkpt>
      <trkpt lat="47.29418" lon="-2.40217">
        <ele>-15.199999809265</ele>
        <time>2019-09-01T08:20:06.000Z</time>
      </trkpt>
      <trkpt lat="47.29402" lon="-2.40227">
        <ele>-15.199999809265</ele>
        <time>2019-09-01T08:20:10.000Z</time>
      </trkpt>
      <trkpt lat="47.29398" lon="-2.40229">
        <ele>-15.199999809265</ele>
        <time>2019-09-01T08:20:11.000Z</time>
      </trkpt>
      <trkpt lat="47.29366" lon="-2.40253">
        <ele>-15.199999809265</ele>
        <time>2019-09-01T08:20:17.000Z</time>
      </trkpt>
      <trkpt lat="47.29344" lon="-2.40275">
        <ele>-15.199999809265</ele>
        <time>2019-09-01T08:20:21.000Z</time>
      </trkpt>
      <trkpt lat="47.29328" lon="-2.40291">
        <ele>-15.60000038147</ele>
        <time>2019-09-01T08:20:24.000Z</time>
      </trkpt>
      <trkpt lat="47.29323" lon="-2.40298">
        <ele>-16</ele>
        <time>2019-09-01T08:20:25.000Z</time>
      </trkpt>
      <trkpt lat="47.29318" lon="-2.40304">
        <ele>-16.39999961853</ele>
        <time>2019-09-01T08:20:26.000Z</time>
      </trkpt>
      <trkpt lat="47.29313" lon="-2.40311">
        <ele>-16.799999237061</ele>
        <time>2019-09-01T08:20:27.000Z</time>
      </trkpt>
      <trkpt lat="47.29308" lon="-2.40316">
        <ele>-17.200000762939</ele>
        <time>2019-09-01T08:20:28.000Z</time>
      </trkpt>
      <trkpt lat="47.29292" lon="-2.40331">
        <ele>-17.200000762939</ele>
        <time>2019-09-01T08:20:31.000Z</time>
      </trkpt>
      <trkpt lat="47.29285" lon="-2.40343">
        <ele>-17.200000762939</ele>
        <time>2019-09-01T08:20:33.000Z</time>
      </trkpt>
      <trkpt lat="47.29284" lon="-2.40352">
        <ele>-17.200000762939</ele>
        <time>2019-09-01T08:20:34.000Z</time>
      </trkpt>
      <trkpt lat="47.29292" lon="-2.40377">
        <ele>-17.200000762939</ele>
        <time>2019-09-01T08:20:37.000Z</time>
      </trkpt>
      <trkpt lat="47.29295" lon="-2.40383">
        <ele>-17.200000762939</ele>
        <time>2019-09-01T08:20:40.000Z</time>
      </trkpt>
      <trkpt lat="47.29302" lon="-2.40398">
        <ele>-17.200000762939</ele>
        <time>2019-09-01T08:20:42.000Z</time>
      </trkpt>
      <trkpt lat="47.29298" lon="-2.40439">
        <ele>-17.200000762939</ele>
        <time>2019-09-01T08:20:44.000Z</time>
      </trkpt>
      <trkpt lat="47.29284" lon="-2.40473">
        <ele>-17.200000762939</ele>
        <time>2019-09-01T08:20:49.000Z</time>
      </trkpt>
      <trkpt lat="47.29279" lon="-2.40477">
        <ele>-17.200000762939</ele>
        <time>2019-09-01T08:20:50.000Z</time>
      </trkpt>
      <trkpt lat="47.2927" lon="-2.4047">
        <ele>-17.200000762939</ele>
        <time>2019-09-01T08:20:53.000Z</time>
      </trkpt>
      <trkpt lat="47.29257" lon="-2.40473">
        <ele>-17.200000762939</ele>
        <time>2019-09-01T08:20:55.000Z</time>
      </trkpt>
      <trkpt lat="47.29215" lon="-2.40511">
        <ele>-17.200000762939</ele>
        <time>2019-09-01T08:21:01.000Z</time>
      </trkpt>
      <trkpt lat="47.29181" lon="-2.40526">
        <ele>-17.200000762939</ele>
        <time>2019-09-01T08:21:07.000Z</time>
      </trkpt>
      <trkpt lat="47.29175" lon="-2.40528">
        <ele>-17.200000762939</ele>
        <time>2019-09-01T08:21:08.000Z</time>
      </trkpt>
      <trkpt lat="47.29165" lon="-2.40521">
        <ele>-17.200000762939</ele>
        <time>2019-09-01T08:21:10.000Z</time>
      </trkpt>
      <trkpt lat="47.29158" lon="-2.405">
        <ele>-17.200000762939</ele>
        <time>2019-09-01T08:21:13.000Z</time>
      </trkpt>
      <trkpt lat="47.29144" lon="-2.4049">
        <ele>-17.200000762939</ele>
        <time>2019-09-01T08:21:16.000Z</time>
      </trkpt>
      <trkpt lat="47.29126" lon="-2.40497">
        <ele>-17.200000762939</ele>
        <time>2019-09-01T08:21:19.000Z</time>
      </trkpt>
      <trkpt lat="47.2911" lon="-2.40509">
        <ele>-17.200000762939</ele>
        <time>2019-09-01T08:21:22.000Z</time>
      </trkpt>
      <trkpt lat="47.29102" lon="-2.40521">
        <ele>-17.200000762939</ele>
        <time>2019-09-01T08:21:24.000Z</time>
      </trkpt>
      <trkpt lat="47.291" lon="-2.40548">
        <ele>-17.200000762939</ele>
        <time>2019-09-01T08:21:27.000Z</time>
      </trkpt>
      <trkpt lat="47.29111" lon="-2.40567">
        <ele>-17.200000762939</ele>
        <time>2019-09-01T08:21:30.000Z</time>
      </trkpt>
      <trkpt lat="47.29121" lon="-2.40577">
        <ele>-17.200000762939</ele>
        <time>2019-09-01T08:21:32.000Z</time>
      </trkpt>
      <trkpt lat="47.29134" lon="-2.40598">
        <ele>-17.200000762939</ele>
        <time>2019-09-01T08:21:35.000Z</time>
      </trkpt>
      <trkpt lat="47.29142" lon="-2.4063">
        <ele>-17.200000762939</ele>
        <time>2019-09-01T08:21:39.000Z</time>
      </trkpt>
      <trkpt lat="47.2914" lon="-2.40658">
        <ele>-17.200000762939</ele>
        <time>2019-09-01T08:21:43.000Z</time>
      </trkpt>
      <trkpt lat="47.29125" lon="-2.40677">
        <ele>-17.200000762939</ele>
        <time>2019-09-01T08:21:47.000Z</time>
      </trkpt>
      <trkpt lat="47.29114" lon="-2.40686">
        <ele>-17.200000762939</ele>
        <time>2019-09-01T08:21:51.000Z</time>
      </trkpt>
      <trkpt lat="47.29112" lon="-2.40684">
        <ele>-17.200000762939</ele>
        <time>2019-09-01T08:21:55.000Z</time>
      </trkpt>
      <trkpt lat="47.29122" lon="-2.40678">
        <ele>-17.200000762939</ele>
        <time>2019-09-01T08:22:00.000Z</time>
      </trkpt>
      <trkpt lat="47.29143" lon="-2.40655">
        <ele>-17.200000762939</ele>
        <time>2019-09-01T08:22:06.000Z</time>
      </trkpt>
      <trkpt lat="47.29147" lon="-2.40651">
        <ele>-17.200000762939</ele>
        <time>2019-09-01T08:22:07.000Z</time>
      </trkpt>
      <trkpt lat="47.29165" lon="-2.40636">
        <ele>-17.200000762939</ele>
        <time>2019-09-01T08:22:11.000Z</time>
      </trkpt>
      <trkpt lat="47.29189" lon="-2.40619">
        <ele>-17.200000762939</ele>
        <time>2019-09-01T08:22:16.000Z</time>
      </trkpt>
      <trkpt lat="47.29198" lon="-2.40612">
        <ele>-17.200000762939</ele>
        <time>2019-09-01T08:22:18.000Z</time>
      </trkpt>
      <trkpt lat="47.29216" lon="-2.4062">
        <ele>-17.200000762939</ele>
        <time>2019-09-01T08:22:21.000Z</time>
      </trkpt>
      <trkpt lat="47.29233" lon="-2.40645">
        <ele>-17.200000762939</ele>
        <time>2019-09-01T08:22:25.000Z</time>
      </trkpt>
      <trkpt lat="47.29236" lon="-2.40661">
        <ele>-17.200000762939</ele>
        <time>2019-09-01T08:22:27.000Z</time>
      </trkpt>
      <trkpt lat="47.29237" lon="-2.40677">
        <ele>-17.200000762939</ele>
        <time>2019-09-01T08:22:29.000Z</time>
      </trkpt>
      <trkpt lat="47.2923" lon="-2.40699">
        <ele>-17.200000762939</ele>
        <time>2019-09-01T08:22:32.000Z</time>
      </trkpt>
      <trkpt lat="47.29226" lon="-2.40706">
        <ele>-17.200000762939</ele>
        <time>2019-09-01T08:22:33.000Z</time>
      </trkpt>
      <trkpt lat="47.29204" lon="-2.40739">
        <ele>-17.200000762939</ele>
        <time>2019-09-01T08:22:38.000Z</time>
      </trkpt>
      <trkpt lat="47.29195" lon="-2.40754">
        <ele>-17.200000762939</ele>
        <time>2019-09-01T08:22:40.000Z</time>
      </trkpt>
      <trkpt lat="47.29188" lon="-2.40771">
        <ele>-17.200000762939</ele>
        <time>2019-09-01T08:22:42.000Z</time>
      </trkpt>
      <trkpt lat="47.29173" lon="-2.40814">
        <ele>-17.200000762939</ele>
        <time>2019-09-01T08:22:47.000Z</time>
      </trkpt>
      <trkpt lat="47.29172" lon="-2.40824">
        <ele>-17.200000762939</ele>
        <time>2019-09-01T08:22:48.000Z</time>
      </trkpt>
      <trkpt lat="47.29173" lon="-2.40852">
        <ele>-17.200000762939</ele>
        <time>2019-09-01T08:22:51.000Z</time>
      </trkpt>
      <trkpt lat="47.29173" lon="-2.4087">
        <ele>-17.200000762939</ele>
        <time>2019-09-01T08:22:53.000Z</time>
      </trkpt>
      <trkpt lat="47.29169" lon="-2.40887">
        <ele>-17.200000762939</ele>
        <time>2019-09-01T08:22:55.000Z</time>
      </trkpt>
      <trkpt lat="47.29163" lon="-2.40912">
        <ele>-17.200000762939</ele>
        <time>2019-09-01T08:22:58.000Z</time>
      </trkpt>
      <trkpt lat="47.29163" lon="-2.4093">
        <ele>-17.200000762939</ele>
        <time>2019-09-01T08:23:00.000Z</time>
      </trkpt>
      <trkpt lat="47.29175" lon="-2.4095">
        <ele>-17.200000762939</ele>
        <time>2019-09-01T08:23:03.000Z</time>
      </trkpt>
      <trkpt lat="47.29193" lon="-2.40956">
        <ele>-17.200000762939</ele>
        <time>2019-09-01T08:23:06.000Z</time>
      </trkpt>
      <trkpt lat="47.29205" lon="-2.40959">
        <ele>-17.200000762939</ele>
        <time>2019-09-01T08:23:08.000Z</time>
      </trkpt>
      <trkpt lat="47.2921" lon="-2.40963">
        <ele>-17.200000762939</ele>
        <time>2019-09-01T08:23:09.000Z</time>
      </trkpt>
      <trkpt lat="47.29214" lon="-2.40968">
        <ele>-17.200000762939</ele>
        <time>2019-09-01T08:23:10.000Z</time>
      </trkpt>
      <trkpt lat="47.29225" lon="-2.40992">
        <ele>-17.200000762939</ele>
        <time>2019-09-01T08:23:13.000Z</time>
      </trkpt>
      <trkpt lat="47.29228" lon="-2.41">
        <ele>-17.200000762939</ele>
        <time>2019-09-01T08:23:14.000Z</time>
      </trkpt>
      <trkpt lat="47.29245" lon="-2.41029">
        <ele>-17.200000762939</ele>
        <time>2019-09-01T08:23:18.000Z</time>
      </trkpt>
      <trkpt lat="47.2925" lon="-2.41035">
        <ele>-17.200000762939</ele>
        <time>2019-09-01T08:23:19.000Z</time>
      </trkpt>
      <trkpt lat="47.29257" lon="-2.41048">
        <ele>-17.200000762939</ele>
        <time>2019-09-01T08:23:21.000Z</time>
      </trkpt>
      <trkpt lat="47.29257" lon="-2.41057">
        <ele>-17.200000762939</ele>
        <time>2019-09-01T08:23:22.000Z</time>
      </trkpt>
      <trkpt lat="47.29249" lon="-2.4107">
        <ele>-17.200000762939</ele>
        <time>2019-09-01T08:23:24.000Z</time>
      </trkpt>
      <trkpt lat="47.29249" lon="-2.41095">
        <ele>-17.200000762939</ele>
        <time>2019-09-01T08:23:27.000Z</time>
      </trkpt>
      <trkpt lat="47.29261" lon="-2.41114">
        <ele>-17.200000762939</ele>
        <time>2019-09-01T08:23:30.000Z</time>
      </trkpt>
      <trkpt lat="47.29266" lon="-2.41119">
        <ele>-17.200000762939</ele>
        <time>2019-09-01T08:23:31.000Z</time>
      </trkpt>
      <trkpt lat="47.29289" lon="-2.41152">
        <ele>-17.200000762939</ele>
        <time>2019-09-01T08:23:36.000Z</time>
      </trkpt>
      <trkpt lat="47.29293" lon="-2.41159">
        <ele>-17.200000762939</ele>
        <time>2019-09-01T08:23:37.000Z</time>
      </trkpt>
      <trkpt lat="47.29297" lon="-2.41167">
        <ele>-17.200000762939</ele>
        <time>2019-09-01T08:23:38.000Z</time>
      </trkpt>
      <trkpt lat="47.29307" lon="-2.4119">
        <ele>-17.200000762939</ele>
        <time>2019-09-01T08:23:41.000Z</time>
      </trkpt>
      <trkpt lat="47.29312" lon="-2.41197">
        <ele>-17.200000762939</ele>
        <time>2019-09-01T08:23:42.000Z</time>
      </trkpt>
      <trkpt lat="47.29342" lon="-2.41234">
        <ele>-17.200000762939</ele>
        <time>2019-09-01T08:23:48.000Z</time>
      </trkpt>
      <trkpt lat="47.29351" lon="-2.41246">
        <ele>-17.200000762939</ele>
        <time>2019-09-01T08:23:50.000Z</time>
      </trkpt>
      <trkpt lat="47.29358" lon="-2.4127">
        <ele>-17.200000762939</ele>
        <time>2019-09-01T08:23:53.000Z</time>
      </trkpt>
      <trkpt lat="47.2936" lon="-2.41286">
        <ele>-17.200000762939</ele>
        <time>2019-09-01T08:23:55.000Z</time>
      </trkpt>
      <trkpt lat="47.29361" lon="-2.41295">
        <ele>-17.200000762939</ele>
        <time>2019-09-01T08:23:56.000Z</time>
      </trkpt>
      <trkpt lat="47.29357" lon="-2.41312">
        <ele>-17.200000762939</ele>
        <time>2019-09-01T08:23:58.000Z</time>
      </trkpt>
      <trkpt lat="47.29351" lon="-2.41328">
        <ele>-17.200000762939</ele>
        <time>2019-09-01T08:24:00.000Z</time>
      </trkpt>
      <trkpt lat="47.29349" lon="-2.41337">
        <ele>-17.200000762939</ele>
        <time>2019-09-01T08:24:01.000Z</time>
      </trkpt>
      <trkpt lat="47.29348" lon="-2.41347">
        <ele>-17.200000762939</ele>
        <time>2019-09-01T08:24:02.000Z</time>
      </trkpt>
      <trkpt lat="47.29358" lon="-2.41372">
        <ele>-17.200000762939</ele>
        <time>2019-09-01T08:24:05.000Z</time>
      </trkpt>
      <trkpt lat="47.29372" lon="-2.41388">
        <ele>-17.200000762939</ele>
        <time>2019-09-01T08:24:08.000Z</time>
      </trkpt>
      <trkpt lat="47.29377" lon="-2.41394">
        <ele>-17.200000762939</ele>
        <time>2019-09-01T08:24:09.000Z</time>
      </trkpt>
      <trkpt lat="47.29391" lon="-2.41423">
        <ele>-17.200000762939</ele>
        <time>2019-09-01T08:24:13.000Z</time>
      </trkpt>
      <trkpt lat="47.29401" lon="-2.41446">
        <ele>-17.200000762939</ele>
        <time>2019-09-01T08:24:16.000Z</time>
      </trkpt>
      <trkpt lat="47.29413" lon="-2.41465">
        <ele>-17.200000762939</ele>
        <time>2019-09-01T08:24:19.000Z</time>
      </trkpt>
      <trkpt lat="47.29432" lon="-2.41487">
        <ele>-17.200000762939</ele>
        <time>2019-09-01T08:24:23.000Z</time>
      </trkpt>
      <trkpt lat="47.29442" lon="-2.41493">
        <ele>-17.200000762939</ele>
        <time>2019-09-01T08:24:25.000Z</time>
      </trkpt>
      <trkpt lat="47.29459" lon="-2.41489">
        <ele>-17.200000762939</ele>
        <time>2019-09-01T08:24:28.000Z</time>
      </trkpt>
      <trkpt lat="47.29472" lon="-2.41487">
        <ele>-17.200000762939</ele>
        <time>2019-09-01T08:24:30.000Z</time>
      </trkpt>
      <trkpt lat="47.29484" lon="-2.4149">
        <ele>-17.200000762939</ele>
        <time>2019-09-01T08:24:32.000Z</time>
      </trkpt>
      <trkpt lat="47.29489" lon="-2.41489">
        <ele>-17.200000762939</ele>
        <time>2019-09-01T08:24:33.000Z</time>
      </trkpt>
      <trkpt lat="47.29499" lon="-2.41482">
        <ele>-17.200000762939</ele>
        <time>2019-09-01T08:24:35.000Z</time>
      </trkpt>
      <trkpt lat="47.29516" lon="-2.41482">
        <ele>-17.200000762939</ele>
        <time>2019-09-01T08:24:38.000Z</time>
      </trkpt>
      <trkpt lat="47.2953" lon="-2.41499">
        <ele>-17.200000762939</ele>
        <time>2019-09-01T08:24:41.000Z</time>
      </trkpt>
      <trkpt lat="47.29537" lon="-2.41513">
        <ele>-17.200000762939</ele>
        <time>2019-09-01T08:24:43.000Z</time>
      </trkpt>
      <trkpt lat="47.29539" lon="-2.4152">
        <ele>-17.200000762939</ele>
        <time>2019-09-01T08:24:44.000Z</time>
      </trkpt>
      <trkpt lat="47.29543" lon="-2.41535">
        <ele>-17.200000762939</ele>
        <time>2019-09-01T08:24:46.000Z</time>
      </trkpt>
      <trkpt lat="47.29538" lon="-2.41559">
        <ele>-17.200000762939</ele>
        <time>2019-09-01T08:24:49.000Z</time>
      </trkpt>
      <trkpt lat="47.29535" lon="-2.41568">
        <ele>-17.200000762939</ele>
        <time>2019-09-01T08:24:50.000Z</time>
      </trkpt>
      <trkpt lat="47.29527" lon="-2.41594">
        <ele>-17.200000762939</ele>
        <time>2019-09-01T08:24:53.000Z</time>
      </trkpt>
      <trkpt lat="47.29526" lon="-2.41603">
        <ele>-17.200000762939</ele>
        <time>2019-09-01T08:24:54.000Z</time>
      </trkpt>
      <trkpt lat="47.29527" lon="-2.41629">
        <ele>-17.200000762939</ele>
        <time>2019-09-01T08:24:57.000Z</time>
      </trkpt>
      <trkpt lat="47.29528" lon="-2.41637">
        <ele>-17.200000762939</ele>
        <time>2019-09-01T08:24:58.000Z</time>
      </trkpt>
      <trkpt lat="47.2953" lon="-2.41645">
        <ele>-17.200000762939</ele>
        <time>2019-09-01T08:24:59.000Z</time>
      </trkpt>
      <trkpt lat="47.29539" lon="-2.41674">
        <ele>-17.200000762939</ele>
        <time>2019-09-01T08:25:03.000Z</time>
      </trkpt>
      <trkpt lat="47.29542" lon="-2.41681">
        <ele>-17.200000762939</ele>
        <time>2019-09-01T08:25:04.000Z</time>
      </trkpt>
      <trkpt lat="47.29557" lon="-2.41707">
        <ele>-17.200000762939</ele>
        <time>2019-09-01T08:25:08.000Z</time>
      </trkpt>
      <trkpt lat="47.29573" lon="-2.41717">
        <ele>-17.200000762939</ele>
        <time>2019-09-01T08:25:11.000Z</time>
      </trkpt>
      <trkpt lat="47.29579" lon="-2.4172">
        <ele>-17.200000762939</ele>
        <time>2019-09-01T08:25:12.000Z</time>
      </trkpt>
      <trkpt lat="47.29584" lon="-2.41723">
        <ele>-17.200000762939</ele>
        <time>2019-09-01T08:25:13.000Z</time>
      </trkpt>
      <trkpt lat="47.296" lon="-2.41737">
        <ele>-17.200000762939</ele>
        <time>2019-09-01T08:25:16.000Z</time>
      </trkpt>
      <trkpt lat="47.2961" lon="-2.41747">
        <ele>-17.200000762939</ele>
        <time>2019-09-01T08:25:18.000Z</time>
      </trkpt>
      <trkpt lat="47.29624" lon="-2.41764">
        <ele>-17.200000762939</ele>
        <time>2019-09-01T08:25:21.000Z</time>
      </trkpt>
      <trkpt lat="47.29628" lon="-2.4177">
        <ele>-17.200000762939</ele>
        <time>2019-09-01T08:25:22.000Z</time>
      </trkpt>
      <trkpt lat="47.29635" lon="-2.41783">
        <ele>-17.200000762939</ele>
        <time>2019-09-01T08:25:24.000Z</time>
      </trkpt>
      <trkpt lat="47.29637" lon="-2.41799">
        <ele>-17.200000762939</ele>
        <time>2019-09-01T08:25:26.000Z</time>
      </trkpt>
      <trkpt lat="47.29645" lon="-2.4183">
        <ele>-17.200000762939</ele>
        <time>2019-09-01T08:25:30.000Z</time>
      </trkpt>
      <trkpt lat="47.29648" lon="-2.41835">
        <ele>-17.200000762939</ele>
        <time>2019-09-01T08:25:31.000Z</time>
      </trkpt>
      <trkpt lat="47.29664" lon="-2.41834">
        <ele>-17.200000762939</ele>
        <time>2019-09-01T08:25:34.000Z</time>
      </trkpt>
      <trkpt lat="47.29669" lon="-2.41831">
        <ele>-17.200000762939</ele>
        <time>2019-09-01T08:25:35.000Z</time>
      </trkpt>
      <trkpt lat="47.29675" lon="-2.41828">
        <ele>-17.200000762939</ele>
        <time>2019-09-01T08:25:36.000Z</time>
      </trkpt>
      <trkpt lat="47.29696" lon="-2.4182">
        <ele>-17.200000762939</ele>
        <time>2019-09-01T08:25:40.000Z</time>
      </trkpt>
      <trkpt lat="47.29712" lon="-2.41796">
        <ele>-17.200000762939</ele>
        <time>2019-09-01T08:25:44.000Z</time>
      </trkpt>
      <trkpt lat="47.29735" lon="-2.41765">
        <ele>-17.200000762939</ele>
        <time>2019-09-01T08:25:50.000Z</time>
      </trkpt>
      <trkpt lat="47.29744" lon="-2.41757">
        <ele>-17.200000762939</ele>
        <time>2019-09-01T08:25:52.000Z</time>
      </trkpt>
      <trkpt lat="47.29753" lon="-2.4175">
        <ele>-17.200000762939</ele>
        <time>2019-09-01T08:25:54.000Z</time>
      </trkpt>
      <trkpt lat="47.29757" lon="-2.41748">
        <ele>-17.200000762939</ele>
        <time>2019-09-01T08:25:55.000Z</time>
      </trkpt>
      <trkpt lat="47.29763" lon="-2.41747">
        <ele>-17.200000762939</ele>
        <time>2019-09-01T08:25:58.000Z</time>
      </trkpt>
      <trkpt lat="47.29763" lon="-2.41747">
        <ele>-17.200000762939</ele>
        <time>2019-09-01T08:26:00.000Z</time>
      </trkpt>
      <trkpt lat="47.29765" lon="-2.41747">
        <ele>-17.200000762939</ele>
        <time>2019-09-01T08:26:07.000Z</time>
      </trkpt>
      <trkpt lat="47.29767" lon="-2.41747">
        <ele>-17.200000762939</ele>
        <time>2019-09-01T08:26:08.000Z</time>
      </trkpt>
      <trkpt lat="47.29771" lon="-2.41758">
        <ele>-17.200000762939</ele>
        <time>2019-09-01T08:26:11.000Z</time>
      </trkpt>
      <trkpt lat="47.29772" lon="-2.41775">
        <ele>-17.200000762939</ele>
        <time>2019-09-01T08:26:14.000Z</time>
      </trkpt>
      <trkpt lat="47.29773" lon="-2.41782">
        <ele>-17.200000762939</ele>
        <time>2019-09-01T08:26:15.000Z</time>
      </trkpt>
      <trkpt lat="47.29772" lon="-2.41821">
        <ele>-17.200000762939</ele>
        <time>2019-09-01T08:26:20.000Z</time>
      </trkpt>
      <trkpt lat="47.29769" lon="-2.41875">
        <ele>-17.200000762939</ele>
        <time>2019-09-01T08:26:26.000Z</time>
      </trkpt>
      <trkpt lat="47.2977" lon="-2.41884">
        <ele>-17.200000762939</ele>
        <time>2019-09-01T08:26:27.000Z</time>
      </trkpt>
      <trkpt lat="47.29779" lon="-2.4194">
        <ele>-17.200000762939</ele>
        <time>2019-09-01T08:26:33.000Z</time>
      </trkpt>
      <trkpt lat="47.2979" lon="-2.42007">
        <ele>-17.200000762939</ele>
        <time>2019-09-01T08:26:40.000Z</time>
      </trkpt>
      <trkpt lat="47.2979" lon="-2.42017">
        <ele>-17.200000762939</ele>
        <time>2019-09-01T08:26:41.000Z</time>
      </trkpt>
      <trkpt lat="47.29781" lon="-2.42042">
        <ele>-17.200000762939</ele>
        <time>2019-09-01T08:26:44.000Z</time>
      </trkpt>
      <trkpt lat="47.29772" lon="-2.42058">
        <ele>-17.200000762939</ele>
        <time>2019-09-01T08:26:46.000Z</time>
      </trkpt>
      <trkpt lat="47.29757" lon="-2.42083">
        <ele>-17.200000762939</ele>
        <time>2019-09-01T08:26:49.000Z</time>
      </trkpt>
      <trkpt lat="47.29722" lon="-2.42144">
        <ele>-17.200000762939</ele>
        <time>2019-09-01T08:26:56.000Z</time>
      </trkpt>
      <trkpt lat="47.29687" lon="-2.42205">
        <ele>-17.200000762939</ele>
        <time>2019-09-01T08:27:03.000Z</time>
      </trkpt>
      <trkpt lat="47.29666" lon="-2.42252">
        <ele>-17.200000762939</ele>
        <time>2019-09-01T08:27:08.000Z</time>
      </trkpt>
      <trkpt lat="47.29654" lon="-2.42304">
        <ele>-17.200000762939</ele>
        <time>2019-09-01T08:27:13.000Z</time>
      </trkpt>
      <trkpt lat="47.29641" lon="-2.42363">
        <ele>-17.200000762939</ele>
        <time>2019-09-01T08:27:19.000Z</time>
      </trkpt>
      <trkpt lat="47.29632" lon="-2.42397">
        <ele>-17.60000038147</ele>
        <time>2019-09-01T08:27:23.000Z</time>
      </trkpt>
      <trkpt lat="47.29631" lon="-2.42405">
        <ele>-18</ele>
        <time>2019-09-01T08:27:24.000Z</time>
      </trkpt>
      <trkpt lat="47.29629" lon="-2.42412">
        <ele>-18.60000038147</ele>
        <time>2019-09-01T08:27:25.000Z</time>
      </trkpt>
      <trkpt lat="47.29628" lon="-2.4242">
        <ele>-19</ele>
        <time>2019-09-01T08:27:26.000Z</time>
      </trkpt>
      <trkpt lat="47.29626" lon="-2.42428">
        <ele>-19.39999961853</ele>
        <time>2019-09-01T08:27:27.000Z</time>
      </trkpt>
      <trkpt lat="47.29621" lon="-2.42438">
        <ele>-19.39999961853</ele>
        <time>2019-09-01T08:27:29.000Z</time>
      </trkpt>
      <trkpt lat="47.29617" lon="-2.42441">
        <ele>-19.39999961853</ele>
        <time>2019-09-01T08:27:30.000Z</time>
      </trkpt>
      <trkpt lat="47.29604" lon="-2.42436">
        <ele>-19.39999961853</ele>
        <time>2019-09-01T08:27:33.000Z</time>
      </trkpt>
      <trkpt lat="47.29599" lon="-2.42433">
        <ele>-19.39999961853</ele>
        <time>2019-09-01T08:27:34.000Z</time>
      </trkpt>
      <trkpt lat="47.29583" lon="-2.42427">
        <ele>-19.39999961853</ele>
        <time>2019-09-01T08:27:37.000Z</time>
      </trkpt>
      <trkpt lat="47.29578" lon="-2.42426">
        <ele>-19.39999961853</ele>
        <time>2019-09-01T08:27:38.000Z</time>
      </trkpt>
      <trkpt lat="47.29568" lon="-2.42426">
        <ele>-19.39999961853</ele>
        <time>2019-09-01T08:27:40.000Z</time>
      </trkpt>
      <trkpt lat="47.29553" lon="-2.42436">
        <ele>-19.39999961853</ele>
        <time>2019-09-01T08:27:43.000Z</time>
      </trkpt>
      <trkpt lat="47.29538" lon="-2.4246">
        <ele>-19.39999961853</ele>
        <time>2019-09-01T08:27:47.000Z</time>
      </trkpt>
      <trkpt lat="47.29534" lon="-2.42467">
        <ele>-19.39999961853</ele>
        <time>2019-09-01T08:27:48.000Z</time>
      </trkpt>
      <trkpt lat="47.29521" lon="-2.42481">
        <ele>-19.39999961853</ele>
        <time>2019-09-01T08:27:51.000Z</time>
      </trkpt>
      <trkpt lat="47.29516" lon="-2.42485">
        <ele>-19.39999961853</ele>
        <time>2019-09-01T08:27:52.000Z</time>
      </trkpt>
      <trkpt lat="47.29507" lon="-2.42493">
        <ele>-19.39999961853</ele>
        <time>2019-09-01T08:27:54.000Z</time>
      </trkpt>
      <trkpt lat="47.29498" lon="-2.42503">
        <ele>-19.39999961853</ele>
        <time>2019-09-01T08:27:56.000Z</time>
      </trkpt>
      <trkpt lat="47.29489" lon="-2.42513">
        <ele>-19.39999961853</ele>
        <time>2019-09-01T08:27:58.000Z</time>
      </trkpt>
      <trkpt lat="47.29471" lon="-2.42532">
        <ele>-19</ele>
        <time>2019-09-01T08:28:02.000Z</time>
      </trkpt>
      <trkpt lat="47.29467" lon="-2.42537">
        <ele>-18.60000038147</ele>
        <time>2019-09-01T08:28:03.000Z</time>
      </trkpt>
      <trkpt lat="47.29462" lon="-2.42543">
        <ele>-18.200000762939</ele>
        <time>2019-09-01T08:28:04.000Z</time>
      </trkpt>
      <trkpt lat="47.29457" lon="-2.42547">
        <ele>-17.60000038147</ele>
        <time>2019-09-01T08:28:05.000Z</time>
      </trkpt>
      <trkpt lat="47.29452" lon="-2.42552">
        <ele>-17.200000762939</ele>
        <time>2019-09-01T08:28:06.000Z</time>
      </trkpt>
      <trkpt lat="47.29443" lon="-2.42561">
        <ele>-17.200000762939</ele>
        <time>2019-09-01T08:28:08.000Z</time>
      </trkpt>
      <trkpt lat="47.29423" lon="-2.42585">
        <ele>-17.200000762939</ele>
        <time>2019-09-01T08:28:12.000Z</time>
      </trkpt>
      <trkpt lat="47.29419" lon="-2.42594">
        <ele>-17.200000762939</ele>
        <time>2019-09-01T08:28:13.000Z</time>
      </trkpt>
      <trkpt lat="47.29418" lon="-2.42614">
        <ele>-17.200000762939</ele>
        <time>2019-09-01T08:28:15.000Z</time>
      </trkpt>
      <trkpt lat="47.29418" lon="-2.42633">
        <ele>-17.200000762939</ele>
        <time>2019-09-01T08:28:17.000Z</time>
      </trkpt>
      <trkpt lat="47.29415" lon="-2.42673">
        <ele>-17.200000762939</ele>
        <time>2019-09-01T08:28:21.000Z</time>
      </trkpt>
      <trkpt lat="47.29413" lon="-2.42682">
        <ele>-17.200000762939</ele>
        <time>2019-09-01T08:28:22.000Z</time>
      </trkpt>
      <trkpt lat="47.29406" lon="-2.42698">
        <ele>-17.200000762939</ele>
        <time>2019-09-01T08:28:24.000Z</time>
      </trkpt>
      <trkpt lat="47.29386" lon="-2.42749">
        <ele>-17.200000762939</ele>
        <time>2019-09-01T08:28:30.000Z</time>
      </trkpt>
      <trkpt lat="47.29382" lon="-2.42766">
        <ele>-17.200000762939</ele>
        <time>2019-09-01T08:28:32.000Z</time>
      </trkpt>
      <trkpt lat="47.29375" lon="-2.42792">
        <ele>-17.200000762939</ele>
        <time>2019-09-01T08:28:35.000Z</time>
      </trkpt>
      <trkpt lat="47.29358" lon="-2.4282">
        <ele>-17.200000762939</ele>
        <time>2019-09-01T08:28:39.000Z</time>
      </trkpt>
      <trkpt lat="47.29343" lon="-2.42837">
        <ele>-17.200000762939</ele>
        <time>2019-09-01T08:28:42.000Z</time>
      </trkpt>
      <trkpt lat="47.29339" lon="-2.42844">
        <ele>-17.200000762939</ele>
        <time>2019-09-01T08:28:43.000Z</time>
      </trkpt>
      <trkpt lat="47.29335" lon="-2.42851">
        <ele>-17.200000762939</ele>
        <time>2019-09-01T08:28:44.000Z</time>
      </trkpt>
      <trkpt lat="47.29331" lon="-2.42859">
        <ele>-17.200000762939</ele>
        <time>2019-09-01T08:28:45.000Z</time>
      </trkpt>
      <trkpt lat="47.29319" lon="-2.42879">
        <ele>-17.200000762939</ele>
        <time>2019-09-01T08:28:49.000Z</time>
      </trkpt>
      <trkpt lat="47.29316" lon="-2.42909">
        <ele>-17.200000762939</ele>
        <time>2019-09-01T08:28:51.000Z</time>
      </trkpt>
      <trkpt lat="47.29311" lon="-2.42955">
        <ele>-17.200000762939</ele>
        <time>2019-09-01T08:28:56.000Z</time>
      </trkpt>
      <trkpt lat="47.29311" lon="-2.42993">
        <ele>-17.200000762939</ele>
        <time>2019-09-01T08:29:00.000Z</time>
      </trkpt>
      <trkpt lat="47.2931" lon="-2.43002">
        <ele>-17.200000762939</ele>
        <time>2019-09-01T08:29:01.000Z</time>
      </trkpt>
      <trkpt lat="47.29306" lon="-2.43037">
        <ele>-17.200000762939</ele>
        <time>2019-09-01T08:29:05.000Z</time>
      </trkpt>
      <trkpt lat="47.29305" lon="-2.43046">
        <ele>-17.200000762939</ele>
        <time>2019-09-01T08:29:06.000Z</time>
      </trkpt>
      <trkpt lat="47.29305" lon="-2.43065">
        <ele>-17.200000762939</ele>
        <time>2019-09-01T08:29:08.000Z</time>
      </trkpt>
      <trkpt lat="47.2931" lon="-2.43082">
        <ele>-17.200000762939</ele>
        <time>2019-09-01T08:29:10.000Z</time>
      </trkpt>
      <trkpt lat="47.29325" lon="-2.43097">
        <ele>-17.200000762939</ele>
        <time>2019-09-01T08:29:13.000Z</time>
      </trkpt>
      <trkpt lat="47.29337" lon="-2.43103">
        <ele>-17.200000762939</ele>
        <time>2019-09-01T08:29:15.000Z</time>
      </trkpt>
      <trkpt lat="47.29342" lon="-2.43107">
        <ele>-17.200000762939</ele>
        <time>2019-09-01T08:29:16.000Z</time>
      </trkpt>
      <trkpt lat="47.29346" lon="-2.43113">
        <ele>-17.200000762939</ele>
        <time>2019-09-01T08:29:17.000Z</time>
      </trkpt>
      <trkpt lat="47.29359" lon="-2.43143">
        <ele>-17.200000762939</ele>
        <time>2019-09-01T08:29:21.000Z</time>
      </trkpt>
      <trkpt lat="47.29368" lon="-2.43168">
        <ele>-17.200000762939</ele>
        <time>2019-09-01T08:29:24.000Z</time>
      </trkpt>
      <trkpt lat="47.29373" lon="-2.43193">
        <ele>-17.200000762939</ele>
        <time>2019-09-01T08:29:27.000Z</time>
      </trkpt>
      <trkpt lat="47.29374" lon="-2.43218">
        <ele>-17.200000762939</ele>
        <time>2019-09-01T08:29:30.000Z</time>
      </trkpt>
      <trkpt lat="47.29371" lon="-2.43225">
        <ele>-17.200000762939</ele>
        <time>2019-09-01T08:29:31.000Z</time>
      </trkpt>
      <trkpt lat="47.29361" lon="-2.43245">
        <ele>-17.60000038147</ele>
        <time>2019-09-01T08:29:35.000Z</time>
      </trkpt>
      <trkpt lat="47.2936" lon="-2.43251">
        <ele>-18</ele>
        <time>2019-09-01T08:29:36.000Z</time>
      </trkpt>
      <trkpt lat="47.29359" lon="-2.43259">
        <ele>-18.60000038147</ele>
        <time>2019-09-01T08:29:37.000Z</time>
      </trkpt>
      <trkpt lat="47.29359" lon="-2.43266">
        <ele>-19</ele>
        <time>2019-09-01T08:29:38.000Z</time>
      </trkpt>
      <trkpt lat="47.29359" lon="-2.43275">
        <ele>-19.39999961853</ele>
        <time>2019-09-01T08:29:39.000Z</time>
      </trkpt>
      <trkpt lat="47.2936" lon="-2.43283">
        <ele>-19.39999961853</ele>
        <time>2019-09-01T08:29:40.000Z</time>
      </trkpt>
      <trkpt lat="47.29367" lon="-2.43306">
        <ele>-19.39999961853</ele>
        <time>2019-09-01T08:29:43.000Z</time>
      </trkpt>
      <trkpt lat="47.29384" lon="-2.43327">
        <ele>-19.39999961853</ele>
        <time>2019-09-01T08:29:47.000Z</time>
      </trkpt>
      <trkpt lat="47.29405" lon="-2.43357">
        <ele>-19.39999961853</ele>
        <time>2019-09-01T08:29:53.000Z</time>
      </trkpt>
      <trkpt lat="47.29407" lon="-2.43363">
        <ele>-19.39999961853</ele>
        <time>2019-09-01T08:29:54.000Z</time>
      </trkpt>
      <trkpt lat="47.2941" lon="-2.43376">
        <ele>-19.39999961853</ele>
        <time>2019-09-01T08:29:56.000Z</time>
      </trkpt>
      <trkpt lat="47.29414" lon="-2.43386">
        <ele>-19.39999961853</ele>
        <time>2019-09-01T08:29:58.000Z</time>
      </trkpt>
      <trkpt lat="47.29421" lon="-2.43391">
        <ele>-19.39999961853</ele>
        <time>2019-09-01T08:30:00.000Z</time>
      </trkpt>
      <trkpt lat="47.29429" lon="-2.43397">
        <ele>-19.39999961853</ele>
        <time>2019-09-01T08:30:02.000Z</time>
      </trkpt>
      <trkpt lat="47.29436" lon="-2.43422">
        <ele>-19.39999961853</ele>
        <time>2019-09-01T08:30:06.000Z</time>
      </trkpt>
      <trkpt lat="47.29437" lon="-2.43429">
        <ele>-19.39999961853</ele>
        <time>2019-09-01T08:30:07.000Z</time>
      </trkpt>
      <trkpt lat="47.29442" lon="-2.43445">
        <ele>-19.39999961853</ele>
        <time>2019-09-01T08:30:10.000Z</time>
      </trkpt>
      <trkpt lat="47.29444" lon="-2.43449">
        <ele>-19.39999961853</ele>
        <time>2019-09-01T08:30:11.000Z</time>
      </trkpt>
      <trkpt lat="47.29449" lon="-2.43472">
        <ele>-19.39999961853</ele>
        <time>2019-09-01T08:30:15.000Z</time>
      </trkpt>
      <trkpt lat="47.29445" lon="-2.43488">
        <ele>-19.39999961853</ele>
        <time>2019-09-01T08:30:19.000Z</time>
      </trkpt>
      <trkpt lat="47.29436" lon="-2.43507">
        <ele>-19.39999961853</ele>
        <time>2019-09-01T08:30:26.000Z</time>
      </trkpt>
      <trkpt lat="47.29436" lon="-2.43507">
        <ele>-19.39999961853</ele>
        <time>2019-09-01T08:30:29.000Z</time>
      </trkpt>
      <trkpt lat="47.29434" lon="-2.43507">
        <ele>-19.39999961853</ele>
        <time>2019-09-01T08:30:48.000Z</time>
      </trkpt>
      <trkpt lat="47.29436" lon="-2.435">
        <ele>-19.39999961853</ele>
        <time>2019-09-01T08:30:52.000Z</time>
      </trkpt>
      <trkpt lat="47.29437" lon="-2.43499">
        <ele>-19.39999961853</ele>
        <time>2019-09-01T08:30:53.000Z</time>
      </trkpt>
      <trkpt lat="47.29439" lon="-2.43501">
        <ele>-19.39999961853</ele>
        <time>2019-09-01T08:30:59.000Z</time>
      </trkpt>
      <trkpt lat="47.29439" lon="-2.43501">
        <ele>-19.39999961853</ele>
        <time>2019-09-01T08:31:01.000Z</time>
      </trkpt>
      <trkpt lat="47.29437" lon="-2.43504">
        <ele>-19.39999961853</ele>
        <time>2019-09-01T08:31:04.000Z</time>
      </trkpt>
      <trkpt lat="47.29436" lon="-2.43507">
        <ele>-19.39999961853</ele>
        <time>2019-09-01T08:31:05.000Z</time>
      </trkpt>
      <trkpt lat="47.29429" lon="-2.43521">
        <ele>-19.39999961853</ele>
        <time>2019-09-01T08:31:08.000Z</time>
      </trkpt>
      <trkpt lat="47.29426" lon="-2.43526">
        <ele>-19.39999961853</ele>
        <time>2019-09-01T08:31:09.000Z</time>
      </trkpt>
      <trkpt lat="47.29408" lon="-2.43558">
        <ele>-19.39999961853</ele>
        <time>2019-09-01T08:31:16.000Z</time>
      </trkpt>
      <trkpt lat="47.29396" lon="-2.43581">
        <ele>-19.39999961853</ele>
        <time>2019-09-01T08:31:22.000Z</time>
      </trkpt>
      <trkpt lat="47.29387" lon="-2.43592">
        <ele>-19.39999961853</ele>
        <time>2019-09-01T08:31:27.000Z</time>
      </trkpt>
      <trkpt lat="47.29385" lon="-2.436">
        <ele>-19.39999961853</ele>
        <time>2019-09-01T08:31:32.000Z</time>
      </trkpt>
      <trkpt lat="47.29383" lon="-2.43601">
        <ele>-19.39999961853</ele>
        <time>2019-09-01T08:31:37.000Z</time>
      </trkpt>
      <trkpt lat="47.29378" lon="-2.43603">
        <ele>-19.39999961853</ele>
        <time>2019-09-01T08:31:39.000Z</time>
      </trkpt>
      <trkpt lat="47.29364" lon="-2.43619">
        <ele>-19.39999961853</ele>
        <time>2019-09-01T08:31:44.000Z</time>
      </trkpt>
      <trkpt lat="47.29346" lon="-2.43639">
        <ele>-19.39999961853</ele>
        <time>2019-09-01T08:31:50.000Z</time>
      </trkpt>
      <trkpt lat="47.29334" lon="-2.43662">
        <ele>-19.39999961853</ele>
        <time>2019-09-01T08:31:54.000Z</time>
      </trkpt>
      <trkpt lat="47.29329" lon="-2.43669">
        <ele>-19.39999961853</ele>
        <time>2019-09-01T08:31:55.000Z</time>
      </trkpt>
      <trkpt lat="47.29316" lon="-2.43682">
        <ele>-19.39999961853</ele>
        <time>2019-09-01T08:31:57.000Z</time>
      </trkpt>
      <trkpt lat="47.29283" lon="-2.43712">
        <ele>-19.39999961853</ele>
        <time>2019-09-01T08:32:03.000Z</time>
      </trkpt>
      <trkpt lat="47.29242" lon="-2.43745">
        <ele>-19.39999961853</ele>
        <time>2019-09-01T08:32:11.000Z</time>
      </trkpt>
      <trkpt lat="47.29203" lon="-2.43779">
        <ele>-19.39999961853</ele>
        <time>2019-09-01T08:32:18.000Z</time>
      </trkpt>
      <trkpt lat="47.29153" lon="-2.43826">
        <ele>-19.39999961853</ele>
        <time>2019-09-01T08:32:27.000Z</time>
      </trkpt>
      <trkpt lat="47.29109" lon="-2.43857">
        <ele>-19.39999961853</ele>
        <time>2019-09-01T08:32:34.000Z</time>
      </trkpt>
      <trkpt lat="47.29076" lon="-2.43883">
        <ele>-19.39999961853</ele>
        <time>2019-09-01T08:32:39.000Z</time>
      </trkpt>
      <trkpt lat="47.29071" lon="-2.43891">
        <ele>-19.39999961853</ele>
        <time>2019-09-01T08:32:40.000Z</time>
      </trkpt>
      <trkpt lat="47.29056" lon="-2.43913">
        <ele>-19.39999961853</ele>
        <time>2019-09-01T08:32:43.000Z</time>
      </trkpt>
      <trkpt lat="47.29048" lon="-2.43932">
        <ele>-19.39999961853</ele>
        <time>2019-09-01T08:32:45.000Z</time>
      </trkpt>
      <trkpt lat="47.29023" lon="-2.43988">
        <ele>-19.39999961853</ele>
        <time>2019-09-01T08:32:51.000Z</time>
      </trkpt>
      <trkpt lat="47.28996" lon="-2.4405">
        <ele>-19.39999961853</ele>
        <time>2019-09-01T08:32:58.000Z</time>
      </trkpt>
      <trkpt lat="47.28972" lon="-2.44106">
        <ele>-19.39999961853</ele>
        <time>2019-09-01T08:33:05.000Z</time>
      </trkpt>
      <trkpt lat="47.28951" lon="-2.44152">
        <ele>-19.39999961853</ele>
        <time>2019-09-01T08:33:11.000Z</time>
      </trkpt>
      <trkpt lat="47.28924" lon="-2.44215">
        <ele>-19.39999961853</ele>
        <time>2019-09-01T08:33:18.000Z</time>
      </trkpt>
      <trkpt lat="47.28892" lon="-2.44291">
        <ele>-19.39999961853</ele>
        <time>2019-09-01T08:33:26.000Z</time>
      </trkpt>
      <trkpt lat="47.28888" lon="-2.443">
        <ele>-19.39999961853</ele>
        <time>2019-09-01T08:33:27.000Z</time>
      </trkpt>
      <trkpt lat="47.28856" lon="-2.44372">
        <ele>-19.39999961853</ele>
        <time>2019-09-01T08:33:35.000Z</time>
      </trkpt>
      <trkpt lat="47.28853" lon="-2.4438">
        <ele>-19.39999961853</ele>
        <time>2019-09-01T08:33:36.000Z</time>
      </trkpt>
      <trkpt lat="47.28824" lon="-2.44446">
        <ele>-19.39999961853</ele>
        <time>2019-09-01T08:33:44.000Z</time>
      </trkpt>
      <trkpt lat="47.28794" lon="-2.44515">
        <ele>-19.39999961853</ele>
        <time>2019-09-01T08:33:52.000Z</time>
      </trkpt>
      <trkpt lat="47.28769" lon="-2.44573">
        <ele>-19.39999961853</ele>
        <time>2019-09-01T08:33:59.000Z</time>
      </trkpt>
      <trkpt lat="47.2874" lon="-2.44638">
        <ele>-19.39999961853</ele>
        <time>2019-09-01T08:34:08.000Z</time>
      </trkpt>
      <trkpt lat="47.28717" lon="-2.44689">
        <ele>-19.39999961853</ele>
        <time>2019-09-01T08:34:14.000Z</time>
      </trkpt>
      <trkpt lat="47.2869" lon="-2.44754">
        <ele>-19.39999961853</ele>
        <time>2019-09-01T08:34:21.000Z</time>
      </trkpt>
      <trkpt lat="47.28664" lon="-2.44809">
        <ele>-19.39999961853</ele>
        <time>2019-09-01T08:34:27.000Z</time>
      </trkpt>
      <trkpt lat="47.2864" lon="-2.4487">
        <ele>-19.39999961853</ele>
        <time>2019-09-01T08:34:33.000Z</time>
      </trkpt>
      <trkpt lat="47.28616" lon="-2.44913">
        <ele>-19.39999961853</ele>
        <time>2019-09-01T08:34:38.000Z</time>
      </trkpt>
      <trkpt lat="47.2861" lon="-2.44921">
        <ele>-19.39999961853</ele>
        <time>2019-09-01T08:34:39.000Z</time>
      </trkpt>
      <trkpt lat="47.28565" lon="-2.44978">
        <ele>-19.39999961853</ele>
        <time>2019-09-01T08:34:46.000Z</time>
      </trkpt>
      <trkpt lat="47.28521" lon="-2.45032">
        <ele>-19.39999961853</ele>
        <time>2019-09-01T08:34:53.000Z</time>
      </trkpt>
      <trkpt lat="47.28515" lon="-2.4504">
        <ele>-19.39999961853</ele>
        <time>2019-09-01T08:34:54.000Z</time>
      </trkpt>
      <trkpt lat="47.28471" lon="-2.45094">
        <ele>-19.39999961853</ele>
        <time>2019-09-01T08:35:01.000Z</time>
      </trkpt>
      <trkpt lat="47.28465" lon="-2.45102">
        <ele>-19.39999961853</ele>
        <time>2019-09-01T08:35:02.000Z</time>
      </trkpt>
      <trkpt lat="47.28419" lon="-2.4515">
        <ele>-19.39999961853</ele>
        <time>2019-09-01T08:35:09.000Z</time>
      </trkpt>
      <trkpt lat="47.28412" lon="-2.45156">
        <ele>-19.39999961853</ele>
        <time>2019-09-01T08:35:10.000Z</time>
      </trkpt>
      <trkpt lat="47.2836" lon="-2.45194">
        <ele>-19.39999961853</ele>
        <time>2019-09-01T08:35:17.000Z</time>
      </trkpt>
      <trkpt lat="47.28308" lon="-2.45232">
        <ele>-19.39999961853</ele>
        <time>2019-09-01T08:35:24.000Z</time>
      </trkpt>
      <trkpt lat="47.28293" lon="-2.45242">
        <ele>-19.39999961853</ele>
        <time>2019-09-01T08:35:26.000Z</time>
      </trkpt>
      <trkpt lat="47.28249" lon="-2.45272">
        <ele>-19.39999961853</ele>
        <time>2019-09-01T08:35:32.000Z</time>
      </trkpt>
      <trkpt lat="47.28233" lon="-2.45276">
        <ele>-19.39999961853</ele>
        <time>2019-09-01T08:35:34.000Z</time>
      </trkpt>
      <trkpt lat="47.28217" lon="-2.45277">
        <ele>-19.39999961853</ele>
        <time>2019-09-01T08:35:36.000Z</time>
      </trkpt>
      <trkpt lat="47.28193" lon="-2.45275">
        <ele>-19.39999961853</ele>
        <time>2019-09-01T08:35:39.000Z</time>
      </trkpt>
      <trkpt lat="47.28134" lon="-2.45264">
        <ele>-19.39999961853</ele>
        <time>2019-09-01T08:35:46.000Z</time>
      </trkpt>
      <trkpt lat="47.281" lon="-2.45273">
        <ele>-19.39999961853</ele>
        <time>2019-09-01T08:35:50.000Z</time>
      </trkpt>
      <trkpt lat="47.28072" lon="-2.45296">
        <ele>-19.39999961853</ele>
        <time>2019-09-01T08:35:54.000Z</time>
      </trkpt>
      <trkpt lat="47.28051" lon="-2.4533">
        <ele>-19.39999961853</ele>
        <time>2019-09-01T08:35:58.000Z</time>
      </trkpt>
      <trkpt lat="47.28043" lon="-2.4535">
        <ele>-19.39999961853</ele>
        <time>2019-09-01T08:36:00.000Z</time>
      </trkpt>
      <trkpt lat="47.28035" lon="-2.45383">
        <ele>-19.39999961853</ele>
        <time>2019-09-01T08:36:03.000Z</time>
      </trkpt>
      <trkpt lat="47.28032" lon="-2.45439">
        <ele>-19.39999961853</ele>
        <time>2019-09-01T08:36:08.000Z</time>
      </trkpt>
      <trkpt lat="47.28032" lon="-2.45528">
        <ele>-19.39999961853</ele>
        <time>2019-09-01T08:36:16.000Z</time>
      </trkpt>
      <trkpt lat="47.28033" lon="-2.45607">
        <ele>-19.39999961853</ele>
        <time>2019-09-01T08:36:23.000Z</time>
      </trkpt>
      <trkpt lat="47.28033" lon="-2.45629">
        <ele>-19.39999961853</ele>
        <time>2019-09-01T08:36:25.000Z</time>
      </trkpt>
      <trkpt lat="47.28024" lon="-2.45656">
        <ele>-19.39999961853</ele>
        <time>2019-09-01T08:36:28.000Z</time>
      </trkpt>
      <trkpt lat="47.28017" lon="-2.45674">
        <ele>-19.39999961853</ele>
        <time>2019-09-01T08:36:30.000Z</time>
      </trkpt>
      <trkpt lat="47.28009" lon="-2.457">
        <ele>-19.39999961853</ele>
        <time>2019-09-01T08:36:33.000Z</time>
      </trkpt>
      <trkpt lat="47.27992" lon="-2.45754">
        <ele>-19.39999961853</ele>
        <time>2019-09-01T08:36:39.000Z</time>
      </trkpt>
      <trkpt lat="47.27974" lon="-2.45814">
        <ele>-19.39999961853</ele>
        <time>2019-09-01T08:36:46.000Z</time>
      </trkpt>
      <trkpt lat="47.27962" lon="-2.45842">
        <ele>-19.39999961853</ele>
        <time>2019-09-01T08:36:50.000Z</time>
      </trkpt>
      <trkpt lat="47.27944" lon="-2.45846">
        <ele>-19.39999961853</ele>
        <time>2019-09-01T08:36:53.000Z</time>
      </trkpt>
      <trkpt lat="47.27931" lon="-2.45852">
        <ele>-19.39999961853</ele>
        <time>2019-09-01T08:36:55.000Z</time>
      </trkpt>
      <trkpt lat="47.27916" lon="-2.45859">
        <ele>-19.799999237061</ele>
        <time>2019-09-01T08:36:57.000Z</time>
      </trkpt>
      <trkpt lat="47.27908" lon="-2.45863">
        <ele>-20.200000762939</ele>
        <time>2019-09-01T08:36:58.000Z</time>
      </trkpt>
      <trkpt lat="47.27899" lon="-2.45868">
        <ele>-20.60000038147</ele>
        <time>2019-09-01T08:36:59.000Z</time>
      </trkpt>
      <trkpt lat="47.2789" lon="-2.45872">
        <ele>-21</ele>
        <time>2019-09-01T08:37:00.000Z</time>
      </trkpt>
      <trkpt lat="47.27881" lon="-2.45876">
        <ele>-21.39999961853</ele>
        <time>2019-09-01T08:37:01.000Z</time>
      </trkpt>
      <trkpt lat="47.27865" lon="-2.45885">
        <ele>-21.39999961853</ele>
        <time>2019-09-01T08:37:03.000Z</time>
      </trkpt>
      <trkpt lat="47.27856" lon="-2.45889">
        <ele>-21.799999237061</ele>
        <time>2019-09-01T08:37:04.000Z</time>
      </trkpt>
      <trkpt lat="47.27848" lon="-2.45893">
        <ele>-22.200000762939</ele>
        <time>2019-09-01T08:37:05.000Z</time>
      </trkpt>
      <trkpt lat="47.2784" lon="-2.45897">
        <ele>-22.60000038147</ele>
        <time>2019-09-01T08:37:06.000Z</time>
      </trkpt>
      <trkpt lat="47.27833" lon="-2.45902">
        <ele>-23.200000762939</ele>
        <time>2019-09-01T08:37:07.000Z</time>
      </trkpt>
      <trkpt lat="47.27825" lon="-2.45905">
        <ele>-23.60000038147</ele>
        <time>2019-09-01T08:37:08.000Z</time>
      </trkpt>
      <trkpt lat="47.27818" lon="-2.45909">
        <ele>-23.60000038147</ele>
        <time>2019-09-01T08:37:09.000Z</time>
      </trkpt>
      <trkpt lat="47.27787" lon="-2.45926">
        <ele>-23.60000038147</ele>
        <time>2019-09-01T08:37:14.000Z</time>
      </trkpt>
      <trkpt lat="47.27781" lon="-2.45931">
        <ele>-23.60000038147</ele>
        <time>2019-09-01T08:37:15.000Z</time>
      </trkpt>
      <trkpt lat="47.27771" lon="-2.4594">
        <ele>-23.200000762939</ele>
        <time>2019-09-01T08:37:17.000Z</time>
      </trkpt>
      <trkpt lat="47.27767" lon="-2.45947">
        <ele>-22.60000038147</ele>
        <time>2019-09-01T08:37:18.000Z</time>
      </trkpt>
      <trkpt lat="47.27764" lon="-2.45955">
        <ele>-22.200000762939</ele>
        <time>2019-09-01T08:37:19.000Z</time>
      </trkpt>
      <trkpt lat="47.27762" lon="-2.45963">
        <ele>-21.799999237061</ele>
        <time>2019-09-01T08:37:20.000Z</time>
      </trkpt>
      <trkpt lat="47.27761" lon="-2.45971">
        <ele>-21.39999961853</ele>
        <time>2019-09-01T08:37:21.000Z</time>
      </trkpt>
      <trkpt lat="47.2776" lon="-2.45988">
        <ele>-21.39999961853</ele>
        <time>2019-09-01T08:37:23.000Z</time>
      </trkpt>
      <trkpt lat="47.27753" lon="-2.45996">
        <ele>-21.39999961853</ele>
        <time>2019-09-01T08:37:25.000Z</time>
      </trkpt>
      <trkpt lat="47.27746" lon="-2.46004">
        <ele>-21.39999961853</ele>
        <time>2019-09-01T08:37:28.000Z</time>
      </trkpt>
      <trkpt lat="47.27752" lon="-2.4602">
        <ele>-21.39999961853</ele>
        <time>2019-09-01T08:37:31.000Z</time>
      </trkpt>
      <trkpt lat="47.27769" lon="-2.46035">
        <ele>-21</ele>
        <time>2019-09-01T08:37:35.000Z</time>
      </trkpt>
      <trkpt lat="47.27774" lon="-2.46039">
        <ele>-20.60000038147</ele>
        <time>2019-09-01T08:37:36.000Z</time>
      </trkpt>
      <trkpt lat="47.27779" lon="-2.46042">
        <ele>-20.200000762939</ele>
        <time>2019-09-01T08:37:37.000Z</time>
      </trkpt>
      <trkpt lat="47.27785" lon="-2.46046">
        <ele>-19.799999237061</ele>
        <time>2019-09-01T08:37:38.000Z</time>
      </trkpt>
      <trkpt lat="47.2779" lon="-2.4605">
        <ele>-19.200000762939</ele>
        <time>2019-09-01T08:37:39.000Z</time>
      </trkpt>
      <trkpt lat="47.278" lon="-2.46058">
        <ele>-19.200000762939</ele>
        <time>2019-09-01T08:37:41.000Z</time>
      </trkpt>
      <trkpt lat="47.27828" lon="-2.46088">
        <ele>-19.200000762939</ele>
        <time>2019-09-01T08:37:47.000Z</time>
      </trkpt>
      <trkpt lat="47.27832" lon="-2.46094">
        <ele>-19.200000762939</ele>
        <time>2019-09-01T08:37:48.000Z</time>
      </trkpt>
      <trkpt lat="47.2784" lon="-2.46107">
        <ele>-19.200000762939</ele>
        <time>2019-09-01T08:37:50.000Z</time>
      </trkpt>
      <trkpt lat="47.27847" lon="-2.46129">
        <ele>-19.200000762939</ele>
        <time>2019-09-01T08:37:53.000Z</time>
      </trkpt>
      <trkpt lat="47.27843" lon="-2.46162">
        <ele>-19.200000762939</ele>
        <time>2019-09-01T08:37:57.000Z</time>
      </trkpt>
      <trkpt lat="47.27841" lon="-2.46189">
        <ele>-19.200000762939</ele>
        <time>2019-09-01T08:38:00.000Z</time>
      </trkpt>
      <trkpt lat="47.27839" lon="-2.46208">
        <ele>-19.200000762939</ele>
        <time>2019-09-01T08:38:02.000Z</time>
      </trkpt>
      <trkpt lat="47.27837" lon="-2.46217">
        <ele>-19.200000762939</ele>
        <time>2019-09-01T08:38:03.000Z</time>
      </trkpt>
      <trkpt lat="47.27833" lon="-2.46244">
        <ele>-19.200000762939</ele>
        <time>2019-09-01T08:38:06.000Z</time>
      </trkpt>
      <trkpt lat="47.27832" lon="-2.46254">
        <ele>-19.200000762939</ele>
        <time>2019-09-01T08:38:07.000Z</time>
      </trkpt>
      <trkpt lat="47.27834" lon="-2.4631">
        <ele>-19.200000762939</ele>
        <time>2019-09-01T08:38:13.000Z</time>
      </trkpt>
      <trkpt lat="47.27836" lon="-2.46317">
        <ele>-19.200000762939</ele>
        <time>2019-09-01T08:38:14.000Z</time>
      </trkpt>
      <trkpt lat="47.27842" lon="-2.46337">
        <ele>-19.200000762939</ele>
        <time>2019-09-01T08:38:17.000Z</time>
      </trkpt>
      <trkpt lat="47.27844" lon="-2.46343">
        <ele>-19.200000762939</ele>
        <time>2019-09-01T08:38:18.000Z</time>
      </trkpt>
      <trkpt lat="47.27845" lon="-2.46351">
        <ele>-19.200000762939</ele>
        <time>2019-09-01T08:38:21.000Z</time>
      </trkpt>
      <trkpt lat="47.27847" lon="-2.46363">
        <ele>-20.200000762939</ele>
        <time>2019-09-01T08:38:25.000Z</time>
      </trkpt>
      <trkpt lat="47.27847" lon="-2.46367">
        <ele>-20.60000038147</ele>
        <time>2019-09-01T08:38:26.000Z</time>
      </trkpt>
      <trkpt lat="47.27847" lon="-2.46374">
        <ele>-21</ele>
        <time>2019-09-01T08:38:27.000Z</time>
      </trkpt>
      <trkpt lat="47.27847" lon="-2.4638">
        <ele>-21.39999961853</ele>
        <time>2019-09-01T08:38:28.000Z</time>
      </trkpt>
      <trkpt lat="47.27846" lon="-2.46386">
        <ele>-21.39999961853</ele>
        <time>2019-09-01T08:38:29.000Z</time>
      </trkpt>
      <trkpt lat="47.27837" lon="-2.46437">
        <ele>-21.39999961853</ele>
        <time>2019-09-01T08:38:36.000Z</time>
      </trkpt>
      <trkpt lat="47.27836" lon="-2.46445">
        <ele>-21</ele>
        <time>2019-09-01T08:38:37.000Z</time>
      </trkpt>
      <trkpt lat="47.27835" lon="-2.46453">
        <ele>-20.39999961853</ele>
        <time>2019-09-01T08:38:38.000Z</time>
      </trkpt>
      <trkpt lat="47.27833" lon="-2.46461">
        <ele>-20</ele>
        <time>2019-09-01T08:38:39.000Z</time>
      </trkpt>
      <trkpt lat="47.27831" lon="-2.46469">
        <ele>-19.60000038147</ele>
        <time>2019-09-01T08:38:40.000Z</time>
      </trkpt>
      <trkpt lat="47.2783" lon="-2.46478">
        <ele>-19.200000762939</ele>
        <time>2019-09-01T08:38:41.000Z</time>
      </trkpt>
      <trkpt lat="47.27823" lon="-2.46512">
        <ele>-19.200000762939</ele>
        <time>2019-09-01T08:38:45.000Z</time>
      </trkpt>
      <trkpt lat="47.27811" lon="-2.46579">
        <ele>-19.200000762939</ele>
        <time>2019-09-01T08:38:53.000Z</time>
      </trkpt>
      <trkpt lat="47.27808" lon="-2.46594">
        <ele>-19.200000762939</ele>
        <time>2019-09-01T08:38:55.000Z</time>
      </trkpt>
      <trkpt lat="47.27799" lon="-2.46601">
        <ele>-19.200000762939</ele>
        <time>2019-09-01T08:38:57.000Z</time>
      </trkpt>
      <trkpt lat="47.2779" lon="-2.466">
        <ele>-19.200000762939</ele>
        <time>2019-09-01T08:38:59.000Z</time>
      </trkpt>
      <trkpt lat="47.27781" lon="-2.46598">
        <ele>-19.200000762939</ele>
        <time>2019-09-01T08:39:01.000Z</time>
      </trkpt>
      <trkpt lat="47.27777" lon="-2.46597">
        <ele>-19.200000762939</ele>
        <time>2019-09-01T08:39:02.000Z</time>
      </trkpt>
      <trkpt lat="47.27765" lon="-2.46594">
        <ele>-19.200000762939</ele>
        <time>2019-09-01T08:39:06.000Z</time>
      </trkpt>
      <trkpt lat="47.27765" lon="-2.46594">
        <ele>-19.200000762939</ele>
        <time>2019-09-01T08:39:08.000Z</time>
      </trkpt>
      <trkpt lat="47.27769" lon="-2.46596">
        <ele>-19.200000762939</ele>
        <time>2019-09-01T08:39:56.000Z</time>
      </trkpt>
      <trkpt lat="47.27771" lon="-2.46596">
        <ele>-19.200000762939</ele>
        <time>2019-09-01T08:39:57.000Z</time>
      </trkpt>
      <trkpt lat="47.27781" lon="-2.46596">
        <ele>-19.200000762939</ele>
        <time>2019-09-01T08:40:02.000Z</time>
      </trkpt>
      <trkpt lat="47.27781" lon="-2.46596">
        <ele>-19.200000762939</ele>
        <time>2019-09-01T08:40:03.000Z</time>
      </trkpt>
      <trkpt lat="47.27774" lon="-2.46594">
        <ele>-19.200000762939</ele>
        <time>2019-09-01T08:40:47.000Z</time>
      </trkpt>
      <trkpt lat="47.2777" lon="-2.46594">
        <ele>-19.200000762939</ele>
        <time>2019-09-01T08:40:49.000Z</time>
      </trkpt>
      <trkpt lat="47.27766" lon="-2.46597">
        <ele>-19.200000762939</ele>
        <time>2019-09-01T08:40:52.000Z</time>
      </trkpt>
      <trkpt lat="47.27765" lon="-2.46603">
        <ele>-19.200000762939</ele>
        <time>2019-09-01T08:40:54.000Z</time>
      </trkpt>
      <trkpt lat="47.27765" lon="-2.46615">
        <ele>-19.200000762939</ele>
        <time>2019-09-01T08:40:57.000Z</time>
      </trkpt>
      <trkpt lat="47.27763" lon="-2.46617">
        <ele>-19.200000762939</ele>
        <time>2019-09-01T08:40:58.000Z</time>
      </trkpt>
      <trkpt lat="47.27762" lon="-2.46635">
        <ele>-19.200000762939</ele>
        <time>2019-09-01T08:41:02.000Z</time>
      </trkpt>
      <trkpt lat="47.27763" lon="-2.46639">
        <ele>-19.200000762939</ele>
        <time>2019-09-01T08:41:03.000Z</time>
      </trkpt>
      <trkpt lat="47.27764" lon="-2.46657">
        <ele>-19.200000762939</ele>
        <time>2019-09-01T08:41:07.000Z</time>
      </trkpt>
      <trkpt lat="47.27764" lon="-2.46687">
        <ele>-19.200000762939</ele>
        <time>2019-09-01T08:41:12.000Z</time>
      </trkpt>
      <trkpt lat="47.27761" lon="-2.46705">
        <ele>-19.200000762939</ele>
        <time>2019-09-01T08:41:15.000Z</time>
      </trkpt>
      <trkpt lat="47.2776" lon="-2.4671">
        <ele>-19.200000762939</ele>
        <time>2019-09-01T08:41:16.000Z</time>
      </trkpt>
      <trkpt lat="47.27761" lon="-2.46726">
        <ele>-19.200000762939</ele>
        <time>2019-09-01T08:41:19.000Z</time>
      </trkpt>
      <trkpt lat="47.27766" lon="-2.46755">
        <ele>-19.200000762939</ele>
        <time>2019-09-01T08:41:24.000Z</time>
      </trkpt>
      <trkpt lat="47.27768" lon="-2.46762">
        <ele>-19.200000762939</ele>
        <time>2019-09-01T08:41:25.000Z</time>
      </trkpt>
      <trkpt lat="47.2778" lon="-2.46814">
        <ele>-19.200000762939</ele>
        <time>2019-09-01T08:41:33.000Z</time>
      </trkpt>
      <trkpt lat="47.27786" lon="-2.46849">
        <ele>-19.200000762939</ele>
        <time>2019-09-01T08:41:39.000Z</time>
      </trkpt>
      <trkpt lat="47.27786" lon="-2.46855">
        <ele>-19.200000762939</ele>
        <time>2019-09-01T08:41:40.000Z</time>
      </trkpt>
      <trkpt lat="47.27783" lon="-2.46883">
        <ele>-19.200000762939</ele>
        <time>2019-09-01T08:41:45.000Z</time>
      </trkpt>
      <trkpt lat="47.27782" lon="-2.46884">
        <ele>-19.200000762939</ele>
        <time>2019-09-01T08:41:46.000Z</time>
      </trkpt>
      <trkpt lat="47.27782" lon="-2.46884">
        <ele>-19.200000762939</ele>
        <time>2019-09-01T08:41:47.000Z</time>
      </trkpt>
      <trkpt lat="47.27783" lon="-2.46886">
        <ele>-19.200000762939</ele>
        <time>2019-09-01T08:41:53.000Z</time>
      </trkpt>
      <trkpt lat="47.27793" lon="-2.46891">
        <ele>-19.200000762939</ele>
        <time>2019-09-01T08:41:57.000Z</time>
      </trkpt>
      <trkpt lat="47.27795" lon="-2.46895">
        <ele>-19.200000762939</ele>
        <time>2019-09-01T08:41:58.000Z</time>
      </trkpt>
      <trkpt lat="47.27805" lon="-2.46912">
        <ele>-19.200000762939</ele>
        <time>2019-09-01T08:42:02.000Z</time>
      </trkpt>
      <trkpt lat="47.27815" lon="-2.46932">
        <ele>-19.200000762939</ele>
        <time>2019-09-01T08:42:06.000Z</time>
      </trkpt>
      <trkpt lat="47.27824" lon="-2.46941">
        <ele>-19.200000762939</ele>
        <time>2019-09-01T08:42:08.000Z</time>
      </trkpt>
      <trkpt lat="47.27829" lon="-2.46945">
        <ele>-19.200000762939</ele>
        <time>2019-09-01T08:42:09.000Z</time>
      </trkpt>
      <trkpt lat="47.27838" lon="-2.46949">
        <ele>-19.200000762939</ele>
        <time>2019-09-01T08:42:11.000Z</time>
      </trkpt>
      <trkpt lat="47.27851" lon="-2.46952">
        <ele>-19.200000762939</ele>
        <time>2019-09-01T08:42:15.000Z</time>
      </trkpt>
      <trkpt lat="47.27853" lon="-2.46951">
        <ele>-19.60000038147</ele>
        <time>2019-09-01T08:42:16.000Z</time>
      </trkpt>
      <trkpt lat="47.27854" lon="-2.46951">
        <ele>-20.200000762939</ele>
        <time>2019-09-01T08:42:17.000Z</time>
      </trkpt>
      <trkpt lat="47.27854" lon="-2.46952">
        <ele>-20.60000038147</ele>
        <time>2019-09-01T08:42:18.000Z</time>
      </trkpt>
      <trkpt lat="47.27859" lon="-2.4696">
        <ele>-21.39999961853</ele>
        <time>2019-09-01T08:48:40.000Z</time>
      </trkpt>
      <trkpt lat="47.27873" lon="-2.46973">
        <ele>-21.39999961853</ele>
        <time>2019-09-01T08:48:46.000Z</time>
      </trkpt>
      <trkpt lat="47.27888" lon="-2.46988">
        <ele>-21</ele>
        <time>2019-09-01T08:48:50.000Z</time>
      </trkpt>
      <trkpt lat="47.27893" lon="-2.46992">
        <ele>-20.60000038147</ele>
        <time>2019-09-01T08:48:51.000Z</time>
      </trkpt>
      <trkpt lat="47.27897" lon="-2.46996">
        <ele>-20</ele>
        <time>2019-09-01T08:48:52.000Z</time>
      </trkpt>
      <trkpt lat="47.27901" lon="-2.47">
        <ele>-19.60000038147</ele>
        <time>2019-09-01T08:48:53.000Z</time>
      </trkpt>
      <trkpt lat="47.27905" lon="-2.47004">
        <ele>-19.200000762939</ele>
        <time>2019-09-01T08:48:54.000Z</time>
      </trkpt>
      <trkpt lat="47.27913" lon="-2.47016">
        <ele>-19.200000762939</ele>
        <time>2019-09-01T08:48:57.000Z</time>
      </trkpt>
      <trkpt lat="47.27929" lon="-2.4704">
        <ele>-19.200000762939</ele>
        <time>2019-09-01T08:49:03.000Z</time>
      </trkpt>
      <trkpt lat="47.27947" lon="-2.4707">
        <ele>-19.200000762939</ele>
        <time>2019-09-01T08:49:10.000Z</time>
      </trkpt>
      <trkpt lat="47.27956" lon="-2.47096">
        <ele>-19.200000762939</ele>
        <time>2019-09-01T08:49:16.000Z</time>
      </trkpt>
      <trkpt lat="47.27965" lon="-2.47131">
        <ele>-19.200000762939</ele>
        <time>2019-09-01T08:49:23.000Z</time>
      </trkpt>
      <trkpt lat="47.27974" lon="-2.47175">
        <ele>-19.200000762939</ele>
        <time>2019-09-01T08:49:31.000Z</time>
      </trkpt>
      <trkpt lat="47.27982" lon="-2.47219">
        <ele>-19.200000762939</ele>
        <time>2019-09-01T08:49:38.000Z</time>
      </trkpt>
      <trkpt lat="47.27991" lon="-2.47271">
        <ele>-19.200000762939</ele>
        <time>2019-09-01T08:49:47.000Z</time>
      </trkpt>
      <trkpt lat="47.27997" lon="-2.47305">
        <ele>-19.200000762939</ele>
        <time>2019-09-01T08:49:54.000Z</time>
      </trkpt>
      <trkpt lat="47.28001" lon="-2.47325">
        <ele>-19.200000762939</ele>
        <time>2019-09-01T08:50:00.000Z</time>
      </trkpt>
      <trkpt lat="47.28005" lon="-2.47334">
        <ele>-19.200000762939</ele>
        <time>2019-09-01T08:50:06.000Z</time>
      </trkpt>
      <trkpt lat="47.28005" lon="-2.47334">
        <ele>-19.200000762939</ele>
        <time>2019-09-01T08:50:08.000Z</time>
      </trkpt>
      <trkpt lat="47.28007" lon="-2.47335">
        <ele>-19.200000762939</ele>
        <time>2019-09-01T08:50:16.000Z</time>
      </trkpt>
      <trkpt lat="47.28009" lon="-2.47336">
        <ele>-19.200000762939</ele>
        <time>2019-09-01T08:50:17.000Z</time>
      </trkpt>
      <trkpt lat="47.28021" lon="-2.47333">
        <ele>-19.200000762939</ele>
        <time>2019-09-01T08:50:21.000Z</time>
      </trkpt>
      <trkpt lat="47.28024" lon="-2.47332">
        <ele>-19.200000762939</ele>
        <time>2019-09-01T08:50:22.000Z</time>
      </trkpt>
      <trkpt lat="47.28036" lon="-2.4733">
        <ele>-19.200000762939</ele>
        <time>2019-09-01T08:50:25.000Z</time>
      </trkpt>
      <trkpt lat="47.28049" lon="-2.47326">
        <ele>-19.200000762939</ele>
        <time>2019-09-01T08:50:28.000Z</time>
      </trkpt>
      <trkpt lat="47.28077" lon="-2.4732">
        <ele>-19.200000762939</ele>
        <time>2019-09-01T08:50:34.000Z</time>
      </trkpt>
      <trkpt lat="47.28081" lon="-2.47318">
        <ele>-19.200000762939</ele>
        <time>2019-09-01T08:50:35.000Z</time>
      </trkpt>
      <trkpt lat="47.28113" lon="-2.47311">
        <ele>-19.200000762939</ele>
        <time>2019-09-01T08:50:41.000Z</time>
      </trkpt>
      <trkpt lat="47.28125" lon="-2.47321">
        <ele>-19.200000762939</ele>
        <time>2019-09-01T08:50:44.000Z</time>
      </trkpt>
      <trkpt lat="47.28126" lon="-2.47333">
        <ele>-20</ele>
        <time>2019-09-01T08:50:46.000Z</time>
      </trkpt>
      <trkpt lat="47.28126" lon="-2.47341">
        <ele>-20.60000038147</ele>
        <time>2019-09-01T08:50:47.000Z</time>
      </trkpt>
      <trkpt lat="47.28125" lon="-2.47348">
        <ele>-21</ele>
        <time>2019-09-01T08:50:48.000Z</time>
      </trkpt>
      <trkpt lat="47.28124" lon="-2.47356">
        <ele>-21.39999961853</ele>
        <time>2019-09-01T08:50:49.000Z</time>
      </trkpt>
      <trkpt lat="47.28122" lon="-2.47363">
        <ele>-21.39999961853</ele>
        <time>2019-09-01T08:50:50.000Z</time>
      </trkpt>
      <trkpt lat="47.28121" lon="-2.47371">
        <ele>-21.39999961853</ele>
        <time>2019-09-01T08:50:51.000Z</time>
      </trkpt>
      <trkpt lat="47.28112" lon="-2.47416">
        <ele>-21.39999961853</ele>
        <time>2019-09-01T08:50:57.000Z</time>
      </trkpt>
      <trkpt lat="47.281" lon="-2.47476">
        <ele>-21.39999961853</ele>
        <time>2019-09-01T08:51:04.000Z</time>
      </trkpt>
      <trkpt lat="47.28088" lon="-2.47539">
        <ele>-21.39999961853</ele>
        <time>2019-09-01T08:51:11.000Z</time>
      </trkpt>
      <trkpt lat="47.2808" lon="-2.47595">
        <ele>-21.39999961853</ele>
        <time>2019-09-01T08:51:17.000Z</time>
      </trkpt>
      <trkpt lat="47.28079" lon="-2.47646">
        <ele>-21.39999961853</ele>
        <time>2019-09-01T08:51:22.000Z</time>
      </trkpt>
      <trkpt lat="47.2808" lon="-2.47656">
        <ele>-21.39999961853</ele>
        <time>2019-09-01T08:51:23.000Z</time>
      </trkpt>
      <trkpt lat="47.28082" lon="-2.47685">
        <ele>-21.39999961853</ele>
        <time>2019-09-01T08:51:26.000Z</time>
      </trkpt>
      <trkpt lat="47.28085" lon="-2.47713">
        <ele>-21.39999961853</ele>
        <time>2019-09-01T08:51:29.000Z</time>
      </trkpt>
      <trkpt lat="47.28093" lon="-2.47769">
        <ele>-21.39999961853</ele>
        <time>2019-09-01T08:51:35.000Z</time>
      </trkpt>
      <trkpt lat="47.28098" lon="-2.47814">
        <ele>-21</ele>
        <time>2019-09-01T08:51:40.000Z</time>
      </trkpt>
      <trkpt lat="47.281" lon="-2.47823">
        <ele>-20.60000038147</ele>
        <time>2019-09-01T08:51:41.000Z</time>
      </trkpt>
      <trkpt lat="47.28101" lon="-2.47832">
        <ele>-20</ele>
        <time>2019-09-01T08:51:42.000Z</time>
      </trkpt>
      <trkpt lat="47.28102" lon="-2.4784">
        <ele>-19.60000038147</ele>
        <time>2019-09-01T08:51:43.000Z</time>
      </trkpt>
      <trkpt lat="47.28103" lon="-2.47848">
        <ele>-19.200000762939</ele>
        <time>2019-09-01T08:51:44.000Z</time>
      </trkpt>
      <trkpt lat="47.28105" lon="-2.47857">
        <ele>-19.200000762939</ele>
        <time>2019-09-01T08:51:45.000Z</time>
      </trkpt>
      <trkpt lat="47.2811" lon="-2.47872">
        <ele>-19.200000762939</ele>
        <time>2019-09-01T08:51:47.000Z</time>
      </trkpt>
      <trkpt lat="47.28111" lon="-2.47879">
        <ele>-19.200000762939</ele>
        <time>2019-09-01T08:51:48.000Z</time>
      </trkpt>
      <trkpt lat="47.28112" lon="-2.47906">
        <ele>-19.200000762939</ele>
        <time>2019-09-01T08:51:51.000Z</time>
      </trkpt>
      <trkpt lat="47.28121" lon="-2.47931">
        <ele>-19.200000762939</ele>
        <time>2019-09-01T08:51:54.000Z</time>
      </trkpt>
      <trkpt lat="47.28141" lon="-2.47952">
        <ele>-19.200000762939</ele>
        <time>2019-09-01T08:51:58.000Z</time>
      </trkpt>
      <trkpt lat="47.28151" lon="-2.47957">
        <ele>-19.200000762939</ele>
        <time>2019-09-01T08:52:00.000Z</time>
      </trkpt>
      <trkpt lat="47.28154" lon="-2.47962">
        <ele>-19.200000762939</ele>
        <time>2019-09-01T08:52:01.000Z</time>
      </trkpt>
      <trkpt lat="47.28156" lon="-2.47969">
        <ele>-19.200000762939</ele>
        <time>2019-09-01T08:52:02.000Z</time>
      </trkpt>
      <trkpt lat="47.28156" lon="-2.47995">
        <ele>-19.200000762939</ele>
        <time>2019-09-01T08:52:05.000Z</time>
      </trkpt>
      <trkpt lat="47.28163" lon="-2.48052">
        <ele>-19.200000762939</ele>
        <time>2019-09-01T08:52:11.000Z</time>
      </trkpt>
      <trkpt lat="47.2817" lon="-2.48121">
        <ele>-19.200000762939</ele>
        <time>2019-09-01T08:52:18.000Z</time>
      </trkpt>
      <trkpt lat="47.28181" lon="-2.48201">
        <ele>-19.200000762939</ele>
        <time>2019-09-01T08:52:26.000Z</time>
      </trkpt>
      <trkpt lat="47.28183" lon="-2.4821">
        <ele>-19.200000762939</ele>
        <time>2019-09-01T08:52:27.000Z</time>
      </trkpt>
      <trkpt lat="47.28189" lon="-2.48226">
        <ele>-19.200000762939</ele>
        <time>2019-09-01T08:52:29.000Z</time>
      </trkpt>
      <trkpt lat="47.28196" lon="-2.48238">
        <ele>-19.200000762939</ele>
        <time>2019-09-01T08:52:31.000Z</time>
      </trkpt>
      <trkpt lat="47.282" lon="-2.48261">
        <ele>-19.200000762939</ele>
        <time>2019-09-01T08:52:34.000Z</time>
      </trkpt>
      <trkpt lat="47.28198" lon="-2.48277">
        <ele>-19.200000762939</ele>
        <time>2019-09-01T08:52:36.000Z</time>
      </trkpt>
      <trkpt lat="47.28194" lon="-2.48302">
        <ele>-19.200000762939</ele>
        <time>2019-09-01T08:52:39.000Z</time>
      </trkpt>
      <trkpt lat="47.28192" lon="-2.48327">
        <ele>-19.200000762939</ele>
        <time>2019-09-01T08:52:42.000Z</time>
      </trkpt>
      <trkpt lat="47.28194" lon="-2.48343">
        <ele>-19.200000762939</ele>
        <time>2019-09-01T08:52:44.000Z</time>
      </trkpt>
      <trkpt lat="47.282" lon="-2.48357">
        <ele>-19.200000762939</ele>
        <time>2019-09-01T08:52:47.000Z</time>
      </trkpt>
      <trkpt lat="47.28215" lon="-2.48355">
        <ele>-19.200000762939</ele>
        <time>2019-09-01T08:52:50.000Z</time>
      </trkpt>
      <trkpt lat="47.2824" lon="-2.48351">
        <ele>-19.200000762939</ele>
        <time>2019-09-01T08:52:54.000Z</time>
      </trkpt>
      <trkpt lat="47.28254" lon="-2.48364">
        <ele>-19.200000762939</ele>
        <time>2019-09-01T08:52:57.000Z</time>
      </trkpt>
      <trkpt lat="47.28272" lon="-2.48378">
        <ele>-19.200000762939</ele>
        <time>2019-09-01T08:53:01.000Z</time>
      </trkpt>
      <trkpt lat="47.28288" lon="-2.48371">
        <ele>-19.200000762939</ele>
        <time>2019-09-01T08:53:04.000Z</time>
      </trkpt>
      <trkpt lat="47.28296" lon="-2.48377">
        <ele>-19.60000038147</ele>
        <time>2019-09-01T08:53:06.000Z</time>
      </trkpt>
      <trkpt lat="47.28299" lon="-2.48382">
        <ele>-20</ele>
        <time>2019-09-01T08:53:07.000Z</time>
      </trkpt>
      <trkpt lat="47.28304" lon="-2.48385">
        <ele>-20.60000038147</ele>
        <time>2019-09-01T08:53:08.000Z</time>
      </trkpt>
      <trkpt lat="47.28309" lon="-2.48387">
        <ele>-21</ele>
        <time>2019-09-01T08:53:09.000Z</time>
      </trkpt>
      <trkpt lat="47.28313" lon="-2.48385">
        <ele>-21.39999961853</ele>
        <time>2019-09-01T08:53:10.000Z</time>
      </trkpt>
      <trkpt lat="47.28334" lon="-2.48371">
        <ele>-21.39999961853</ele>
        <time>2019-09-01T08:53:14.000Z</time>
      </trkpt>
      <trkpt lat="47.28339" lon="-2.48367">
        <ele>-21.39999961853</ele>
        <time>2019-09-01T08:53:15.000Z</time>
      </trkpt>
      <trkpt lat="47.28349" lon="-2.4836">
        <ele>-21.39999961853</ele>
        <time>2019-09-01T08:53:17.000Z</time>
      </trkpt>
      <trkpt lat="47.28361" lon="-2.48359">
        <ele>-21.39999961853</ele>
        <time>2019-09-01T08:53:19.000Z</time>
      </trkpt>
      <trkpt lat="47.28378" lon="-2.48354">
        <ele>-21.39999961853</ele>
        <time>2019-09-01T08:53:22.000Z</time>
      </trkpt>
      <trkpt lat="47.28383" lon="-2.48354">
        <ele>-21</ele>
        <time>2019-09-01T08:53:23.000Z</time>
      </trkpt>
      <trkpt lat="47.28389" lon="-2.48354">
        <ele>-20.60000038147</ele>
        <time>2019-09-01T08:53:24.000Z</time>
      </trkpt>
      <trkpt lat="47.28395" lon="-2.48356">
        <ele>-20.200000762939</ele>
        <time>2019-09-01T08:53:25.000Z</time>
      </trkpt>
      <trkpt lat="47.28401" lon="-2.48359">
        <ele>-19.799999237061</ele>
        <time>2019-09-01T08:53:26.000Z</time>
      </trkpt>
      <trkpt lat="47.28406" lon="-2.48363">
        <ele>-19.39999961853</ele>
        <time>2019-09-01T08:53:27.000Z</time>
      </trkpt>
      <trkpt lat="47.28411" lon="-2.48367">
        <ele>-19.39999961853</ele>
        <time>2019-09-01T08:53:28.000Z</time>
      </trkpt>
      <trkpt lat="47.28416" lon="-2.48371">
        <ele>-19.39999961853</ele>
        <time>2019-09-01T08:53:29.000Z</time>
      </trkpt>
      <trkpt lat="47.28444" lon="-2.48394">
        <ele>-19.39999961853</ele>
        <time>2019-09-01T08:53:35.000Z</time>
      </trkpt>
      <trkpt lat="47.28448" lon="-2.48399">
        <ele>-19.39999961853</ele>
        <time>2019-09-01T08:53:36.000Z</time>
      </trkpt>
      <trkpt lat="47.28449" lon="-2.48412">
        <ele>-19.799999237061</ele>
        <time>2019-09-01T08:53:38.000Z</time>
      </trkpt>
      <trkpt lat="47.28447" lon="-2.48419">
        <ele>-20.200000762939</ele>
        <time>2019-09-01T08:53:39.000Z</time>
      </trkpt>
      <trkpt lat="47.28446" lon="-2.48427">
        <ele>-20.799999237061</ele>
        <time>2019-09-01T08:53:40.000Z</time>
      </trkpt>
      <trkpt lat="47.28446" lon="-2.48435">
        <ele>-21.200000762939</ele>
        <time>2019-09-01T08:53:41.000Z</time>
      </trkpt>
      <trkpt lat="47.28445" lon="-2.48442">
        <ele>-21.799999237061</ele>
        <time>2019-09-01T08:53:42.000Z</time>
      </trkpt>
      <trkpt lat="47.28442" lon="-2.48492">
        <ele>-21.799999237061</ele>
        <time>2019-09-01T08:53:48.000Z</time>
      </trkpt>
      <trkpt lat="47.2844" lon="-2.48507">
        <ele>-21.799999237061</ele>
        <time>2019-09-01T08:53:50.000Z</time>
      </trkpt>
      <trkpt lat="47.28433" lon="-2.48529">
        <ele>-21.799999237061</ele>
        <time>2019-09-01T08:53:53.000Z</time>
      </trkpt>
      <trkpt lat="47.28437" lon="-2.48544">
        <ele>-21.799999237061</ele>
        <time>2019-09-01T08:53:55.000Z</time>
      </trkpt>
      <trkpt lat="47.28451" lon="-2.48555">
        <ele>-21.799999237061</ele>
        <time>2019-09-01T08:53:58.000Z</time>
      </trkpt>
      <trkpt lat="47.2847" lon="-2.48572">
        <ele>-21.799999237061</ele>
        <time>2019-09-01T08:54:02.000Z</time>
      </trkpt>
      <trkpt lat="47.28477" lon="-2.48593">
        <ele>-21.799999237061</ele>
        <time>2019-09-01T08:54:05.000Z</time>
      </trkpt>
      <trkpt lat="47.28481" lon="-2.48608">
        <ele>-21.799999237061</ele>
        <time>2019-09-01T08:54:07.000Z</time>
      </trkpt>
      <trkpt lat="47.28478" lon="-2.48624">
        <ele>-21.799999237061</ele>
        <time>2019-09-01T08:54:09.000Z</time>
      </trkpt>
      <trkpt lat="47.28474" lon="-2.48641">
        <ele>-21.799999237061</ele>
        <time>2019-09-01T08:54:11.000Z</time>
      </trkpt>
      <trkpt lat="47.2847" lon="-2.48667">
        <ele>-21.799999237061</ele>
        <time>2019-09-01T08:54:14.000Z</time>
      </trkpt>
      <trkpt lat="47.2847" lon="-2.48676">
        <ele>-21.799999237061</ele>
        <time>2019-09-01T08:54:15.000Z</time>
      </trkpt>
      <trkpt lat="47.28477" lon="-2.48692">
        <ele>-21.799999237061</ele>
        <time>2019-09-01T08:54:17.000Z</time>
      </trkpt>
      <trkpt lat="47.2849" lon="-2.48708">
        <ele>-21.799999237061</ele>
        <time>2019-09-01T08:54:20.000Z</time>
      </trkpt>
      <trkpt lat="47.28495" lon="-2.48713">
        <ele>-21.799999237061</ele>
        <time>2019-09-01T08:54:21.000Z</time>
      </trkpt>
      <trkpt lat="47.28504" lon="-2.48725">
        <ele>-21.799999237061</ele>
        <time>2019-09-01T08:54:23.000Z</time>
      </trkpt>
      <trkpt lat="47.28516" lon="-2.48741">
        <ele>-21.799999237061</ele>
        <time>2019-09-01T08:54:26.000Z</time>
      </trkpt>
      <trkpt lat="47.28541" lon="-2.48784">
        <ele>-21.799999237061</ele>
        <time>2019-09-01T08:54:33.000Z</time>
      </trkpt>
      <trkpt lat="47.28556" lon="-2.4881">
        <ele>-21.799999237061</ele>
        <time>2019-09-01T08:54:37.000Z</time>
      </trkpt>
      <trkpt lat="47.28565" lon="-2.48825">
        <ele>-21.799999237061</ele>
        <time>2019-09-01T08:54:39.000Z</time>
      </trkpt>
      <trkpt lat="47.28569" lon="-2.48831">
        <ele>-21.799999237061</ele>
        <time>2019-09-01T08:54:40.000Z</time>
      </trkpt>
      <trkpt lat="47.28578" lon="-2.48846">
        <ele>-21.799999237061</ele>
        <time>2019-09-01T08:54:42.000Z</time>
      </trkpt>
      <trkpt lat="47.28579" lon="-2.48855">
        <ele>-21.799999237061</ele>
        <time>2019-09-01T08:54:43.000Z</time>
      </trkpt>
      <trkpt lat="47.28579" lon="-2.48882">
        <ele>-21.799999237061</ele>
        <time>2019-09-01T08:54:46.000Z</time>
      </trkpt>
      <trkpt lat="47.28579" lon="-2.48891">
        <ele>-21.799999237061</ele>
        <time>2019-09-01T08:54:47.000Z</time>
      </trkpt>
      <trkpt lat="47.28568" lon="-2.48912">
        <ele>-21.799999237061</ele>
        <time>2019-09-01T08:54:50.000Z</time>
      </trkpt>
      <trkpt lat="47.2855" lon="-2.48919">
        <ele>-21.799999237061</ele>
        <time>2019-09-01T08:54:53.000Z</time>
      </trkpt>
      <trkpt lat="47.28526" lon="-2.48928">
        <ele>-21.799999237061</ele>
        <time>2019-09-01T08:54:57.000Z</time>
      </trkpt>
      <trkpt lat="47.28514" lon="-2.48928">
        <ele>-21.799999237061</ele>
        <time>2019-09-01T08:54:59.000Z</time>
      </trkpt>
      <trkpt lat="47.28501" lon="-2.48926">
        <ele>-21.799999237061</ele>
        <time>2019-09-01T08:55:01.000Z</time>
      </trkpt>
      <trkpt lat="47.28482" lon="-2.48923">
        <ele>-21.799999237061</ele>
        <time>2019-09-01T08:55:04.000Z</time>
      </trkpt>
      <trkpt lat="47.28467" lon="-2.48939">
        <ele>-21.799999237061</ele>
        <time>2019-09-01T08:55:07.000Z</time>
      </trkpt>
      <trkpt lat="47.28463" lon="-2.48956">
        <ele>-21.799999237061</ele>
        <time>2019-09-01T08:55:09.000Z</time>
      </trkpt>
      <trkpt lat="47.28464" lon="-2.48963">
        <ele>-21.799999237061</ele>
        <time>2019-09-01T08:55:10.000Z</time>
      </trkpt>
      <trkpt lat="47.28479" lon="-2.48977">
        <ele>-21.799999237061</ele>
        <time>2019-09-01T08:55:12.000Z</time>
      </trkpt>
      <trkpt lat="47.28479" lon="-2.48977">
        <ele>-21.799999237061</ele>
        <time>2019-09-01T08:55:14.000Z</time>
      </trkpt>
      <trkpt lat="47.28494" lon="-2.48989">
        <ele>-21.799999237061</ele>
        <time>2019-09-01T08:55:17.000Z</time>
      </trkpt>
      <trkpt lat="47.28499" lon="-2.49005">
        <ele>-21.799999237061</ele>
        <time>2019-09-01T08:55:19.000Z</time>
      </trkpt>
      <trkpt lat="47.28501" lon="-2.49041">
        <ele>-21.799999237061</ele>
        <time>2019-09-01T08:55:23.000Z</time>
      </trkpt>
      <trkpt lat="47.28503" lon="-2.49059">
        <ele>-21.799999237061</ele>
        <time>2019-09-01T08:55:25.000Z</time>
      </trkpt>
      <trkpt lat="47.28505" lon="-2.49093">
        <ele>-21.799999237061</ele>
        <time>2019-09-01T08:55:29.000Z</time>
      </trkpt>
      <trkpt lat="47.28505" lon="-2.49102">
        <ele>-21.799999237061</ele>
        <time>2019-09-01T08:55:30.000Z</time>
      </trkpt>
      <trkpt lat="47.28503" lon="-2.49128">
        <ele>-21.799999237061</ele>
        <time>2019-09-01T08:55:33.000Z</time>
      </trkpt>
      <trkpt lat="47.2851" lon="-2.49158">
        <ele>-21.799999237061</ele>
        <time>2019-09-01T08:55:37.000Z</time>
      </trkpt>
      <trkpt lat="47.28519" lon="-2.49181">
        <ele>-21.799999237061</ele>
        <time>2019-09-01T08:55:40.000Z</time>
      </trkpt>
      <trkpt lat="47.28524" lon="-2.49198">
        <ele>-21.799999237061</ele>
        <time>2019-09-01T08:55:42.000Z</time>
      </trkpt>
      <trkpt lat="47.28528" lon="-2.49214">
        <ele>-21.799999237061</ele>
        <time>2019-09-01T08:55:44.000Z</time>
      </trkpt>
      <trkpt lat="47.28532" lon="-2.49239">
        <ele>-21.799999237061</ele>
        <time>2019-09-01T08:55:47.000Z</time>
      </trkpt>
      <trkpt lat="47.28537" lon="-2.49277">
        <ele>-21.799999237061</ele>
        <time>2019-09-01T08:55:52.000Z</time>
      </trkpt>
      <trkpt lat="47.28539" lon="-2.49285">
        <ele>-21.799999237061</ele>
        <time>2019-09-01T08:55:53.000Z</time>
      </trkpt>
      <trkpt lat="47.28542" lon="-2.49308">
        <ele>-21.799999237061</ele>
        <time>2019-09-01T08:55:56.000Z</time>
      </trkpt>
      <trkpt lat="47.28541" lon="-2.49324">
        <ele>-21.799999237061</ele>
        <time>2019-09-01T08:55:58.000Z</time>
      </trkpt>
      <trkpt lat="47.2854" lon="-2.4934">
        <ele>-21.799999237061</ele>
        <time>2019-09-01T08:56:00.000Z</time>
      </trkpt>
      <trkpt lat="47.28542" lon="-2.49357">
        <ele>-21.799999237061</ele>
        <time>2019-09-01T08:56:02.000Z</time>
      </trkpt>
      <trkpt lat="47.28547" lon="-2.49434">
        <ele>-21.799999237061</ele>
        <time>2019-09-01T08:56:11.000Z</time>
      </trkpt>
      <trkpt lat="47.28544" lon="-2.4945">
        <ele>-21.799999237061</ele>
        <time>2019-09-01T08:56:13.000Z</time>
      </trkpt>
      <trkpt lat="47.2854" lon="-2.49473">
        <ele>-21.799999237061</ele>
        <time>2019-09-01T08:56:16.000Z</time>
      </trkpt>
      <trkpt lat="47.28526" lon="-2.49487">
        <ele>-21.799999237061</ele>
        <time>2019-09-01T08:56:19.000Z</time>
      </trkpt>
      <trkpt lat="47.28509" lon="-2.49491">
        <ele>-21.799999237061</ele>
        <time>2019-09-01T08:56:22.000Z</time>
      </trkpt>
      <trkpt lat="47.28503" lon="-2.49492">
        <ele>-21.799999237061</ele>
        <time>2019-09-01T08:56:23.000Z</time>
      </trkpt>
      <trkpt lat="47.2848" lon="-2.49501">
        <ele>-21.799999237061</ele>
        <time>2019-09-01T08:56:27.000Z</time>
      </trkpt>
      <trkpt lat="47.28476" lon="-2.49506">
        <ele>-21.799999237061</ele>
        <time>2019-09-01T08:56:28.000Z</time>
      </trkpt>
      <trkpt lat="47.28469" lon="-2.49531">
        <ele>-21.799999237061</ele>
        <time>2019-09-01T08:56:31.000Z</time>
      </trkpt>
      <trkpt lat="47.28459" lon="-2.49544">
        <ele>-21.799999237061</ele>
        <time>2019-09-01T08:56:34.000Z</time>
      </trkpt>
      <trkpt lat="47.28443" lon="-2.49546">
        <ele>-21.799999237061</ele>
        <time>2019-09-01T08:56:37.000Z</time>
      </trkpt>
      <trkpt lat="47.28438" lon="-2.49548">
        <ele>-21.799999237061</ele>
        <time>2019-09-01T08:56:38.000Z</time>
      </trkpt>
      <trkpt lat="47.28399" lon="-2.49566">
        <ele>-21.799999237061</ele>
        <time>2019-09-01T08:56:45.000Z</time>
      </trkpt>
      <trkpt lat="47.28386" lon="-2.49579">
        <ele>-21.799999237061</ele>
        <time>2019-09-01T08:56:48.000Z</time>
      </trkpt>
      <trkpt lat="47.28385" lon="-2.49587">
        <ele>-21.799999237061</ele>
        <time>2019-09-01T08:56:49.000Z</time>
      </trkpt>
      <trkpt lat="47.28388" lon="-2.49609">
        <ele>-21.799999237061</ele>
        <time>2019-09-01T08:56:52.000Z</time>
      </trkpt>
      <trkpt lat="47.28396" lon="-2.49647">
        <ele>-21.799999237061</ele>
        <time>2019-09-01T08:56:57.000Z</time>
      </trkpt>
      <trkpt lat="47.28398" lon="-2.49655">
        <ele>-21.799999237061</ele>
        <time>2019-09-01T08:56:58.000Z</time>
      </trkpt>
      <trkpt lat="47.28406" lon="-2.49687">
        <ele>-21.799999237061</ele>
        <time>2019-09-01T08:57:02.000Z</time>
      </trkpt>
      <trkpt lat="47.28408" lon="-2.49695">
        <ele>-21.799999237061</ele>
        <time>2019-09-01T08:57:03.000Z</time>
      </trkpt>
      <trkpt lat="47.28414" lon="-2.49726">
        <ele>-21.799999237061</ele>
        <time>2019-09-01T08:57:07.000Z</time>
      </trkpt>
      <trkpt lat="47.28411" lon="-2.49734">
        <ele>-21.799999237061</ele>
        <time>2019-09-01T08:57:08.000Z</time>
      </trkpt>
      <trkpt lat="47.28402" lon="-2.49739">
        <ele>-21.799999237061</ele>
        <time>2019-09-01T08:57:10.000Z</time>
      </trkpt>
      <trkpt lat="47.28397" lon="-2.49742">
        <ele>-21.799999237061</ele>
        <time>2019-09-01T08:57:11.000Z</time>
      </trkpt>
      <trkpt lat="47.28393" lon="-2.49746">
        <ele>-21.799999237061</ele>
        <time>2019-09-01T08:57:12.000Z</time>
      </trkpt>
      <trkpt lat="47.28378" lon="-2.49757">
        <ele>-21.799999237061</ele>
        <time>2019-09-01T08:57:15.000Z</time>
      </trkpt>
      <trkpt lat="47.28373" lon="-2.4976">
        <ele>-21.799999237061</ele>
        <time>2019-09-01T08:57:16.000Z</time>
      </trkpt>
      <trkpt lat="47.28351" lon="-2.49775">
        <ele>-21.799999237061</ele>
        <time>2019-09-01T08:57:20.000Z</time>
      </trkpt>
      <trkpt lat="47.28347" lon="-2.49781">
        <ele>-21.799999237061</ele>
        <time>2019-09-01T08:57:21.000Z</time>
      </trkpt>
      <trkpt lat="47.28343" lon="-2.49797">
        <ele>-21.799999237061</ele>
        <time>2019-09-01T08:57:23.000Z</time>
      </trkpt>
      <trkpt lat="47.28342" lon="-2.49813">
        <ele>-21.799999237061</ele>
        <time>2019-09-01T08:57:25.000Z</time>
      </trkpt>
      <trkpt lat="47.28344" lon="-2.49821">
        <ele>-21.799999237061</ele>
        <time>2019-09-01T08:57:26.000Z</time>
      </trkpt>
      <trkpt lat="47.28347" lon="-2.49828">
        <ele>-21.799999237061</ele>
        <time>2019-09-01T08:57:27.000Z</time>
      </trkpt>
      <trkpt lat="47.28359" lon="-2.49834">
        <ele>-21.799999237061</ele>
        <time>2019-09-01T08:57:30.000Z</time>
      </trkpt>
      <trkpt lat="47.28362" lon="-2.49833">
        <ele>-21.799999237061</ele>
        <time>2019-09-01T08:57:32.000Z</time>
      </trkpt>
      <trkpt lat="47.28369" lon="-2.49835">
        <ele>-21.799999237061</ele>
        <time>2019-09-01T08:57:34.000Z</time>
      </trkpt>
      <trkpt lat="47.28383" lon="-2.49841">
        <ele>-21.799999237061</ele>
        <time>2019-09-01T08:57:37.000Z</time>
      </trkpt>
      <trkpt lat="47.28391" lon="-2.49851">
        <ele>-21.799999237061</ele>
        <time>2019-09-01T08:57:39.000Z</time>
      </trkpt>
      <trkpt lat="47.284" lon="-2.49881">
        <ele>-21.799999237061</ele>
        <time>2019-09-01T08:57:43.000Z</time>
      </trkpt>
      <trkpt lat="47.28409" lon="-2.49903">
        <ele>-21.799999237061</ele>
        <time>2019-09-01T08:57:46.000Z</time>
      </trkpt>
      <trkpt lat="47.28419" lon="-2.49912">
        <ele>-21.799999237061</ele>
        <time>2019-09-01T08:57:48.000Z</time>
      </trkpt>
      <trkpt lat="47.2844" lon="-2.49915">
        <ele>-21.799999237061</ele>
        <time>2019-09-01T08:57:52.000Z</time>
      </trkpt>
      <trkpt lat="47.28456" lon="-2.49903">
        <ele>-21.799999237061</ele>
        <time>2019-09-01T08:57:55.000Z</time>
      </trkpt>
      <trkpt lat="47.28461" lon="-2.49899">
        <ele>-21.799999237061</ele>
        <time>2019-09-01T08:57:56.000Z</time>
      </trkpt>
      <trkpt lat="47.28466" lon="-2.49897">
        <ele>-21.799999237061</ele>
        <time>2019-09-01T08:57:57.000Z</time>
      </trkpt>
      <trkpt lat="47.28483" lon="-2.49892">
        <ele>-21.799999237061</ele>
        <time>2019-09-01T08:58:00.000Z</time>
      </trkpt>
      <trkpt lat="47.28512" lon="-2.49889">
        <ele>-21.799999237061</ele>
        <time>2019-09-01T08:58:05.000Z</time>
      </trkpt>
      <trkpt lat="47.28522" lon="-2.49891">
        <ele>-21.799999237061</ele>
        <time>2019-09-01T08:58:07.000Z</time>
      </trkpt>
      <trkpt lat="47.28529" lon="-2.49903">
        <ele>-21.799999237061</ele>
        <time>2019-09-01T08:58:09.000Z</time>
      </trkpt>
      <trkpt lat="47.28532" lon="-2.49924">
        <ele>-21.799999237061</ele>
        <time>2019-09-01T08:58:12.000Z</time>
      </trkpt>
      <trkpt lat="47.28534" lon="-2.49969">
        <ele>-21.799999237061</ele>
        <time>2019-09-01T08:58:18.000Z</time>
      </trkpt>
      <trkpt lat="47.28538" lon="-2.50013">
        <ele>-21.799999237061</ele>
        <time>2019-09-01T08:58:24.000Z</time>
      </trkpt>
      <trkpt lat="47.28543" lon="-2.50025">
        <ele>-21.799999237061</ele>
        <time>2019-09-01T08:58:26.000Z</time>
      </trkpt>
      <trkpt lat="47.28546" lon="-2.5005">
        <ele>-21.799999237061</ele>
        <time>2019-09-01T08:58:31.000Z</time>
      </trkpt>
      <trkpt lat="47.28549" lon="-2.5008">
        <ele>-21.799999237061</ele>
        <time>2019-09-01T08:58:37.000Z</time>
      </trkpt>
      <trkpt lat="47.28554" lon="-2.50124">
        <ele>-21.799999237061</ele>
        <time>2019-09-01T08:58:44.000Z</time>
      </trkpt>
      <trkpt lat="47.28556" lon="-2.50141">
        <ele>-21.799999237061</ele>
        <time>2019-09-01T08:58:47.000Z</time>
      </trkpt>
      <trkpt lat="47.28555" lon="-2.50158">
        <ele>-21.799999237061</ele>
        <time>2019-09-01T08:58:50.000Z</time>
      </trkpt>
      <trkpt lat="47.28543" lon="-2.50167">
        <ele>-21.799999237061</ele>
        <time>2019-09-01T08:58:53.000Z</time>
      </trkpt>
      <trkpt lat="47.28539" lon="-2.50167">
        <ele>-22.200000762939</ele>
        <time>2019-09-01T08:58:54.000Z</time>
      </trkpt>
      <trkpt lat="47.28534" lon="-2.50167">
        <ele>-22.60000038147</ele>
        <time>2019-09-01T08:58:55.000Z</time>
      </trkpt>
      <trkpt lat="47.2853" lon="-2.50169">
        <ele>-23</ele>
        <time>2019-09-01T08:58:56.000Z</time>
      </trkpt>
      <trkpt lat="47.28526" lon="-2.5017">
        <ele>-23.39999961853</ele>
        <time>2019-09-01T08:58:57.000Z</time>
      </trkpt>
      <trkpt lat="47.28521" lon="-2.50172">
        <ele>-23.799999237061</ele>
        <time>2019-09-01T08:58:58.000Z</time>
      </trkpt>
      <trkpt lat="47.28519" lon="-2.50172">
        <ele>-23.799999237061</ele>
        <time>2019-09-01T08:58:59.000Z</time>
      </trkpt>
      <trkpt lat="47.28517" lon="-2.5017">
        <ele>-23.799999237061</ele>
        <time>2019-09-01T08:59:00.000Z</time>
      </trkpt>
      <trkpt lat="47.28513" lon="-2.50165">
        <ele>-23.799999237061</ele>
        <time>2019-09-01T08:59:02.000Z</time>
      </trkpt>
      <trkpt lat="47.28506" lon="-2.50162">
        <ele>-23.799999237061</ele>
        <time>2019-09-01T08:59:04.000Z</time>
      </trkpt>
      <trkpt lat="47.28501" lon="-2.50162">
        <ele>-23.799999237061</ele>
        <time>2019-09-01T08:59:06.000Z</time>
      </trkpt>
      <trkpt lat="47.28497" lon="-2.50175">
        <ele>-23.799999237061</ele>
        <time>2019-09-01T08:59:09.000Z</time>
      </trkpt>
      <trkpt lat="47.28496" lon="-2.50187">
        <ele>-23.799999237061</ele>
        <time>2019-09-01T08:59:11.000Z</time>
      </trkpt>
      <trkpt lat="47.28497" lon="-2.50204">
        <ele>-23.799999237061</ele>
        <time>2019-09-01T08:59:14.000Z</time>
      </trkpt>
      <trkpt lat="47.28495" lon="-2.50225">
        <ele>-23.799999237061</ele>
        <time>2019-09-01T08:59:19.000Z</time>
      </trkpt>
      <trkpt lat="47.28495" lon="-2.50224">
        <ele>-23.799999237061</ele>
        <time>2019-09-01T08:59:20.000Z</time>
      </trkpt>
      <trkpt lat="47.28493" lon="-2.50229">
        <ele>-23.799999237061</ele>
        <time>2019-09-01T08:59:25.000Z</time>
      </trkpt>
      <trkpt lat="47.28492" lon="-2.50233">
        <ele>-23.799999237061</ele>
        <time>2019-09-01T08:59:26.000Z</time>
      </trkpt>
      <trkpt lat="47.28488" lon="-2.50238">
        <ele>-23.799999237061</ele>
        <time>2019-09-01T08:59:28.000Z</time>
      </trkpt>
      <trkpt lat="47.28485" lon="-2.50245">
        <ele>-23.799999237061</ele>
        <time>2019-09-01T08:59:30.000Z</time>
      </trkpt>
      <trkpt lat="47.28486" lon="-2.50257">
        <ele>-23.799999237061</ele>
        <time>2019-09-01T08:59:33.000Z</time>
      </trkpt>
      <trkpt lat="47.28487" lon="-2.5026">
        <ele>-23.799999237061</ele>
        <time>2019-09-01T08:59:34.000Z</time>
      </trkpt>
      <trkpt lat="47.28496" lon="-2.50273">
        <ele>-23.799999237061</ele>
        <time>2019-09-01T08:59:39.000Z</time>
      </trkpt>
      <trkpt lat="47.28501" lon="-2.50276">
        <ele>-23.799999237061</ele>
        <time>2019-09-01T08:59:41.000Z</time>
      </trkpt>
      <trkpt lat="47.28507" lon="-2.50279">
        <ele>-23.799999237061</ele>
        <time>2019-09-01T08:59:44.000Z</time>
      </trkpt>
      <trkpt lat="47.28518" lon="-2.50284">
        <ele>-23.799999237061</ele>
        <time>2019-09-01T08:59:50.000Z</time>
      </trkpt>
      <trkpt lat="47.28536" lon="-2.50295">
        <ele>-23.799999237061</ele>
        <time>2019-09-01T08:59:56.000Z</time>
      </trkpt>
      <trkpt lat="47.28555" lon="-2.5031">
        <ele>-23.799999237061</ele>
        <time>2019-09-01T09:00:02.000Z</time>
      </trkpt>
      <trkpt lat="47.28574" lon="-2.50324">
        <ele>-23.799999237061</ele>
        <time>2019-09-01T09:00:07.000Z</time>
      </trkpt>
      <trkpt lat="47.28578" lon="-2.50326">
        <ele>-23.799999237061</ele>
        <time>2019-09-01T09:00:08.000Z</time>
      </trkpt>
      <trkpt lat="47.28583" lon="-2.50327">
        <ele>-23.799999237061</ele>
        <time>2019-09-01T09:00:09.000Z</time>
      </trkpt>
      <trkpt lat="47.28598" lon="-2.50327">
        <ele>-23.799999237061</ele>
        <time>2019-09-01T09:00:12.000Z</time>
      </trkpt>
      <trkpt lat="47.28617" lon="-2.50332">
        <ele>-23.200000762939</ele>
        <time>2019-09-01T09:00:16.000Z</time>
      </trkpt>
      <trkpt lat="47.28621" lon="-2.50334">
        <ele>-22.799999237061</ele>
        <time>2019-09-01T09:00:17.000Z</time>
      </trkpt>
      <trkpt lat="47.28625" lon="-2.50337">
        <ele>-22.39999961853</ele>
        <time>2019-09-01T09:00:18.000Z</time>
      </trkpt>
      <trkpt lat="47.28629" lon="-2.5034">
        <ele>-22</ele>
        <time>2019-09-01T09:00:19.000Z</time>
      </trkpt>
      <trkpt lat="47.28634" lon="-2.50343">
        <ele>-21.60000038147</ele>
        <time>2019-09-01T09:00:20.000Z</time>
      </trkpt>
      <trkpt lat="47.28648" lon="-2.50351">
        <ele>-21.60000038147</ele>
        <time>2019-09-01T09:00:23.000Z</time>
      </trkpt>
      <trkpt lat="47.28657" lon="-2.50358">
        <ele>-21.60000038147</ele>
        <time>2019-09-01T09:00:25.000Z</time>
      </trkpt>
      <trkpt lat="47.28673" lon="-2.50371">
        <ele>-21.60000038147</ele>
        <time>2019-09-01T09:00:29.000Z</time>
      </trkpt>
      <trkpt lat="47.28694" lon="-2.50392">
        <ele>-21.60000038147</ele>
        <time>2019-09-01T09:00:35.000Z</time>
      </trkpt>
      <trkpt lat="47.28702" lon="-2.50393">
        <ele>-21.60000038147</ele>
        <time>2019-09-01T09:00:37.000Z</time>
      </trkpt>
      <trkpt lat="47.28707" lon="-2.50389">
        <ele>-21.60000038147</ele>
        <time>2019-09-01T09:00:38.000Z</time>
      </trkpt>
      <trkpt lat="47.28715" lon="-2.50372">
        <ele>-21.60000038147</ele>
        <time>2019-09-01T09:00:41.000Z</time>
      </trkpt>
      <trkpt lat="47.28719" lon="-2.50359">
        <ele>-21.60000038147</ele>
        <time>2019-09-01T09:00:43.000Z</time>
      </trkpt>
      <trkpt lat="47.28725" lon="-2.50342">
        <ele>-21.60000038147</ele>
        <time>2019-09-01T09:00:46.000Z</time>
      </trkpt>
      <trkpt lat="47.28732" lon="-2.50326">
        <ele>-21.60000038147</ele>
        <time>2019-09-01T09:00:49.000Z</time>
      </trkpt>
      <trkpt lat="47.28744" lon="-2.50315">
        <ele>-21.60000038147</ele>
        <time>2019-09-01T09:00:52.000Z</time>
      </trkpt>
      <trkpt lat="47.28761" lon="-2.50321">
        <ele>-21.60000038147</ele>
        <time>2019-09-01T09:00:56.000Z</time>
      </trkpt>
      <trkpt lat="47.28766" lon="-2.50323">
        <ele>-21.60000038147</ele>
        <time>2019-09-01T09:00:57.000Z</time>
      </trkpt>
      <trkpt lat="47.28774" lon="-2.50329">
        <ele>-21.200000762939</ele>
        <time>2019-09-01T09:00:59.000Z</time>
      </trkpt>
      <trkpt lat="47.28779" lon="-2.50331">
        <ele>-20.60000038147</ele>
        <time>2019-09-01T09:01:00.000Z</time>
      </trkpt>
      <trkpt lat="47.28783" lon="-2.50334">
        <ele>-20.200000762939</ele>
        <time>2019-09-01T09:01:01.000Z</time>
      </trkpt>
      <trkpt lat="47.28788" lon="-2.50337">
        <ele>-19.200000762939</ele>
        <time>2019-09-01T09:01:02.000Z</time>
      </trkpt>
      <trkpt lat="47.28803" lon="-2.50347">
        <ele>-19.200000762939</ele>
        <time>2019-09-01T09:01:05.000Z</time>
      </trkpt>
      <trkpt lat="47.28808" lon="-2.50351">
        <ele>-19.200000762939</ele>
        <time>2019-09-01T09:01:06.000Z</time>
      </trkpt>
      <trkpt lat="47.28849" lon="-2.50378">
        <ele>-19.200000762939</ele>
        <time>2019-09-01T09:01:14.000Z</time>
      </trkpt>
      <trkpt lat="47.28874" lon="-2.50393">
        <ele>-19.60000038147</ele>
        <time>2019-09-01T09:01:19.000Z</time>
      </trkpt>
      <trkpt lat="47.28879" lon="-2.50397">
        <ele>-20</ele>
        <time>2019-09-01T09:01:20.000Z</time>
      </trkpt>
      <trkpt lat="47.28883" lon="-2.50401">
        <ele>-20.39999961853</ele>
        <time>2019-09-01T09:01:21.000Z</time>
      </trkpt>
      <trkpt lat="47.28886" lon="-2.50406">
        <ele>-20.799999237061</ele>
        <time>2019-09-01T09:01:22.000Z</time>
      </trkpt>
      <trkpt lat="47.28888" lon="-2.50412">
        <ele>-21.200000762939</ele>
        <time>2019-09-01T09:01:23.000Z</time>
      </trkpt>
      <trkpt lat="47.28887" lon="-2.50425">
        <ele>-21.200000762939</ele>
        <time>2019-09-01T09:01:25.000Z</time>
      </trkpt>
      <trkpt lat="47.28879" lon="-2.50451">
        <ele>-21.200000762939</ele>
        <time>2019-09-01T09:01:29.000Z</time>
      </trkpt>
      <trkpt lat="47.28877" lon="-2.50457">
        <ele>-21.200000762939</ele>
        <time>2019-09-01T09:01:30.000Z</time>
      </trkpt>
      <trkpt lat="47.28863" lon="-2.50503">
        <ele>-21.200000762939</ele>
        <time>2019-09-01T09:01:37.000Z</time>
      </trkpt>
      <trkpt lat="47.28861" lon="-2.50517">
        <ele>-21.200000762939</ele>
        <time>2019-09-01T09:01:39.000Z</time>
      </trkpt>
      <trkpt lat="47.28864" lon="-2.50532">
        <ele>-21.200000762939</ele>
        <time>2019-09-01T09:01:41.000Z</time>
      </trkpt>
      <trkpt lat="47.28876" lon="-2.50543">
        <ele>-21.200000762939</ele>
        <time>2019-09-01T09:01:44.000Z</time>
      </trkpt>
      <trkpt lat="47.28886" lon="-2.50549">
        <ele>-21.200000762939</ele>
        <time>2019-09-01T09:01:46.000Z</time>
      </trkpt>
      <trkpt lat="47.28906" lon="-2.50562">
        <ele>-21.200000762939</ele>
        <time>2019-09-01T09:01:50.000Z</time>
      </trkpt>
      <trkpt lat="47.28941" lon="-2.50587">
        <ele>-21.200000762939</ele>
        <time>2019-09-01T09:01:57.000Z</time>
      </trkpt>
      <trkpt lat="47.28987" lon="-2.50618">
        <ele>-21.200000762939</ele>
        <time>2019-09-01T09:02:06.000Z</time>
      </trkpt>
      <trkpt lat="47.29019" lon="-2.50642">
        <ele>-21.200000762939</ele>
        <time>2019-09-01T09:02:12.000Z</time>
      </trkpt>
      <trkpt lat="47.29043" lon="-2.5066">
        <ele>-21.200000762939</ele>
        <time>2019-09-01T09:02:17.000Z</time>
      </trkpt>
      <trkpt lat="47.29048" lon="-2.50661">
        <ele>-21.200000762939</ele>
        <time>2019-09-01T09:02:18.000Z</time>
      </trkpt>
      <trkpt lat="47.29057" lon="-2.50675">
        <ele>-21.200000762939</ele>
        <time>2019-09-01T09:02:21.000Z</time>
      </trkpt>
      <trkpt lat="47.29059" lon="-2.50681">
        <ele>-21.200000762939</ele>
        <time>2019-09-01T09:02:22.000Z</time>
      </trkpt>
      <trkpt lat="47.29063" lon="-2.50685">
        <ele>-21.200000762939</ele>
        <time>2019-09-01T09:02:23.000Z</time>
      </trkpt>
      <trkpt lat="47.29071" lon="-2.50689">
        <ele>-21.200000762939</ele>
        <time>2019-09-01T09:02:25.000Z</time>
      </trkpt>
      <trkpt lat="47.29085" lon="-2.50687">
        <ele>-21.200000762939</ele>
        <time>2019-09-01T09:02:28.000Z</time>
      </trkpt>
      <trkpt lat="47.2909" lon="-2.50685">
        <ele>-21.200000762939</ele>
        <time>2019-09-01T09:02:29.000Z</time>
      </trkpt>
      <trkpt lat="47.29095" lon="-2.50685">
        <ele>-21.200000762939</ele>
        <time>2019-09-01T09:02:30.000Z</time>
      </trkpt>
      <trkpt lat="47.2911" lon="-2.50681">
        <ele>-21.200000762939</ele>
        <time>2019-09-01T09:02:33.000Z</time>
      </trkpt>
      <trkpt lat="47.29138" lon="-2.50675">
        <ele>-21.200000762939</ele>
        <time>2019-09-01T09:02:38.000Z</time>
      </trkpt>
      <trkpt lat="47.29143" lon="-2.50673">
        <ele>-21.200000762939</ele>
        <time>2019-09-01T09:02:39.000Z</time>
      </trkpt>
      <trkpt lat="47.29172" lon="-2.50659">
        <ele>-21.200000762939</ele>
        <time>2019-09-01T09:02:45.000Z</time>
      </trkpt>
      <trkpt lat="47.2918" lon="-2.50656">
        <ele>-21.200000762939</ele>
        <time>2019-09-01T09:02:47.000Z</time>
      </trkpt>
      <trkpt lat="47.2919" lon="-2.50653">
        <ele>-21.200000762939</ele>
        <time>2019-09-01T09:02:50.000Z</time>
      </trkpt>
      <trkpt lat="47.29199" lon="-2.50648">
        <ele>-21.200000762939</ele>
        <time>2019-09-01T09:02:55.000Z</time>
      </trkpt>
      <trkpt lat="47.29198" lon="-2.50648">
        <ele>-21.200000762939</ele>
        <time>2019-09-01T09:02:56.000Z</time>
      </trkpt>
      <trkpt lat="47.29205" lon="-2.50653">
        <ele>-21.200000762939</ele>
        <time>2019-09-01T09:03:15.000Z</time>
      </trkpt>
      <trkpt lat="47.29206" lon="-2.50656">
        <ele>-21.200000762939</ele>
        <time>2019-09-01T09:03:16.000Z</time>
      </trkpt>
      <trkpt lat="47.29211" lon="-2.50669">
        <ele>-21.200000762939</ele>
        <time>2019-09-01T09:03:19.000Z</time>
      </trkpt>
      <trkpt lat="47.29213" lon="-2.50673">
        <ele>-21.200000762939</ele>
        <time>2019-09-01T09:03:20.000Z</time>
      </trkpt>
      <trkpt lat="47.29218" lon="-2.50696">
        <ele>-21.200000762939</ele>
        <time>2019-09-01T09:03:25.000Z</time>
      </trkpt>
      <trkpt lat="47.2922" lon="-2.50704">
        <ele>-21.200000762939</ele>
        <time>2019-09-01T09:03:30.000Z</time>
      </trkpt>
      <trkpt lat="47.29218" lon="-2.50707">
        <ele>-21.200000762939</ele>
        <time>2019-09-01T09:08:31.000Z</time>
      </trkpt>
      <trkpt lat="47.29216" lon="-2.50713">
        <ele>-21.200000762939</ele>
        <time>2019-09-01T09:08:33.000Z</time>
      </trkpt>
      <trkpt lat="47.29213" lon="-2.50721">
        <ele>-21.200000762939</ele>
        <time>2019-09-01T09:08:35.000Z</time>
      </trkpt>
      <trkpt lat="47.29209" lon="-2.50736">
        <ele>-21.200000762939</ele>
        <time>2019-09-01T09:08:38.000Z</time>
      </trkpt>
      <trkpt lat="47.29202" lon="-2.50776">
        <ele>-21.200000762939</ele>
        <time>2019-09-01T09:08:45.000Z</time>
      </trkpt>
      <trkpt lat="47.29203" lon="-2.50782">
        <ele>-21.200000762939</ele>
        <time>2019-09-01T09:08:46.000Z</time>
      </trkpt>
      <trkpt lat="47.2921" lon="-2.50797">
        <ele>-21.200000762939</ele>
        <time>2019-09-01T09:08:49.000Z</time>
      </trkpt>
      <trkpt lat="47.29213" lon="-2.50802">
        <ele>-21.200000762939</ele>
        <time>2019-09-01T09:08:50.000Z</time>
      </trkpt>
      <trkpt lat="47.29219" lon="-2.50812">
        <ele>-21.200000762939</ele>
        <time>2019-09-01T09:08:52.000Z</time>
      </trkpt>
      <trkpt lat="47.2923" lon="-2.50829">
        <ele>-21.200000762939</ele>
        <time>2019-09-01T09:08:56.000Z</time>
      </trkpt>
      <trkpt lat="47.29244" lon="-2.50857">
        <ele>-21.200000762939</ele>
        <time>2019-09-01T09:09:02.000Z</time>
      </trkpt>
      <trkpt lat="47.29256" lon="-2.50873">
        <ele>-21.200000762939</ele>
        <time>2019-09-01T09:09:08.000Z</time>
      </trkpt>
      <trkpt lat="47.29265" lon="-2.50881">
        <ele>-21.200000762939</ele>
        <time>2019-09-01T09:09:14.000Z</time>
      </trkpt>
      <trkpt lat="47.29277" lon="-2.50896">
        <ele>-21.200000762939</ele>
        <time>2019-09-01T09:09:20.000Z</time>
      </trkpt>
      <trkpt lat="47.2929" lon="-2.50903">
        <ele>-21.200000762939</ele>
        <time>2019-09-01T09:09:24.000Z</time>
      </trkpt>
      <trkpt lat="47.29294" lon="-2.50904">
        <ele>-21.200000762939</ele>
        <time>2019-09-01T09:09:25.000Z</time>
      </trkpt>
      <trkpt lat="47.29304" lon="-2.50905">
        <ele>-21.200000762939</ele>
        <time>2019-09-01T09:09:27.000Z</time>
      </trkpt>
      <trkpt lat="47.29318" lon="-2.50911">
        <ele>-21.200000762939</ele>
        <time>2019-09-01T09:09:30.000Z</time>
      </trkpt>
      <trkpt lat="47.29327" lon="-2.50917">
        <ele>-21.200000762939</ele>
        <time>2019-09-01T09:09:32.000Z</time>
      </trkpt>
      <trkpt lat="47.29338" lon="-2.50926">
        <ele>-21.200000762939</ele>
        <time>2019-09-01T09:09:35.000Z</time>
      </trkpt>
      <trkpt lat="47.2935" lon="-2.50935">
        <ele>-21.200000762939</ele>
        <time>2019-09-01T09:09:38.000Z</time>
      </trkpt>
      <trkpt lat="47.29363" lon="-2.50938">
        <ele>-21.200000762939</ele>
        <time>2019-09-01T09:09:41.000Z</time>
      </trkpt>
      <trkpt lat="47.29379" lon="-2.50951">
        <ele>-21.200000762939</ele>
        <time>2019-09-01T09:09:45.000Z</time>
      </trkpt>
      <trkpt lat="47.29382" lon="-2.50956">
        <ele>-20.799999237061</ele>
        <time>2019-09-01T09:09:46.000Z</time>
      </trkpt>
      <trkpt lat="47.29385" lon="-2.50961">
        <ele>-20.39999961853</ele>
        <time>2019-09-01T09:09:47.000Z</time>
      </trkpt>
      <trkpt lat="47.29388" lon="-2.50966">
        <ele>-20</ele>
        <time>2019-09-01T09:09:48.000Z</time>
      </trkpt>
      <trkpt lat="47.2939" lon="-2.50973">
        <ele>-19.60000038147</ele>
        <time>2019-09-01T09:09:49.000Z</time>
      </trkpt>
      <trkpt lat="47.29392" lon="-2.5098">
        <ele>-19.200000762939</ele>
        <time>2019-09-01T09:09:50.000Z</time>
      </trkpt>
      <trkpt lat="47.29393" lon="-2.50987">
        <ele>-19.60000038147</ele>
        <time>2019-09-01T09:09:51.000Z</time>
      </trkpt>
      <trkpt lat="47.29393" lon="-2.50994">
        <ele>-20.200000762939</ele>
        <time>2019-09-01T09:09:52.000Z</time>
      </trkpt>
      <trkpt lat="47.29395" lon="-2.51002">
        <ele>-20.60000038147</ele>
        <time>2019-09-01T09:09:53.000Z</time>
      </trkpt>
      <trkpt lat="47.29397" lon="-2.51009">
        <ele>-21</ele>
        <time>2019-09-01T09:09:54.000Z</time>
      </trkpt>
      <trkpt lat="47.294" lon="-2.51015">
        <ele>-21.60000038147</ele>
        <time>2019-09-01T09:09:55.000Z</time>
      </trkpt>
      <trkpt lat="47.29412" lon="-2.5103">
        <ele>-21.60000038147</ele>
        <time>2019-09-01T09:09:58.000Z</time>
      </trkpt>
      <trkpt lat="47.29416" lon="-2.51036">
        <ele>-21.60000038147</ele>
        <time>2019-09-01T09:09:59.000Z</time>
      </trkpt>
      <trkpt lat="47.29436" lon="-2.51065">
        <ele>-21.60000038147</ele>
        <time>2019-09-01T09:10:05.000Z</time>
      </trkpt>
      <trkpt lat="47.29457" lon="-2.51094">
        <ele>-21.60000038147</ele>
        <time>2019-09-01T09:10:11.000Z</time>
      </trkpt>
      <trkpt lat="47.29482" lon="-2.51128">
        <ele>-21.60000038147</ele>
        <time>2019-09-01T09:10:18.000Z</time>
      </trkpt>
      <trkpt lat="47.295" lon="-2.51156">
        <ele>-21.60000038147</ele>
        <time>2019-09-01T09:10:24.000Z</time>
      </trkpt>
      <trkpt lat="47.2951" lon="-2.51184">
        <ele>-21.60000038147</ele>
        <time>2019-09-01T09:10:29.000Z</time>
      </trkpt>
      <trkpt lat="47.29513" lon="-2.51195">
        <ele>-21.60000038147</ele>
        <time>2019-09-01T09:10:31.000Z</time>
      </trkpt>
      <trkpt lat="47.29519" lon="-2.51217">
        <ele>-21.60000038147</ele>
        <time>2019-09-01T09:10:35.000Z</time>
      </trkpt>
      <trkpt lat="47.29528" lon="-2.51236">
        <ele>-21.60000038147</ele>
        <time>2019-09-01T09:10:40.000Z</time>
      </trkpt>
      <trkpt lat="47.29531" lon="-2.51251">
        <ele>-21.60000038147</ele>
        <time>2019-09-01T09:10:44.000Z</time>
      </trkpt>
      <trkpt lat="47.29536" lon="-2.51277">
        <ele>-21.60000038147</ele>
        <time>2019-09-01T09:10:49.000Z</time>
      </trkpt>
      <trkpt lat="47.29544" lon="-2.51307">
        <ele>-21.60000038147</ele>
        <time>2019-09-01T09:10:54.000Z</time>
      </trkpt>
      <trkpt lat="47.29549" lon="-2.51316">
        <ele>-21.60000038147</ele>
        <time>2019-09-01T09:10:56.000Z</time>
      </trkpt>
      <trkpt lat="47.29562" lon="-2.51325">
        <ele>-21.60000038147</ele>
        <time>2019-09-01T09:10:59.000Z</time>
      </trkpt>
      <trkpt lat="47.29567" lon="-2.51327">
        <ele>-21.60000038147</ele>
        <time>2019-09-01T09:11:00.000Z</time>
      </trkpt>
      <trkpt lat="47.29596" lon="-2.51342">
        <ele>-21.60000038147</ele>
        <time>2019-09-01T09:11:06.000Z</time>
      </trkpt>
      <trkpt lat="47.29633" lon="-2.51374">
        <ele>-21.60000038147</ele>
        <time>2019-09-01T09:11:15.000Z</time>
      </trkpt>
      <trkpt lat="47.29668" lon="-2.51403">
        <ele>-21.60000038147</ele>
        <time>2019-09-01T09:11:23.000Z</time>
      </trkpt>
      <trkpt lat="47.29694" lon="-2.51425">
        <ele>-21.60000038147</ele>
        <time>2019-09-01T09:11:29.000Z</time>
      </trkpt>
      <trkpt lat="47.29732" lon="-2.51449">
        <ele>-21.60000038147</ele>
        <time>2019-09-01T09:11:37.000Z</time>
      </trkpt>
      <trkpt lat="47.29771" lon="-2.51473">
        <ele>-21.60000038147</ele>
        <time>2019-09-01T09:11:45.000Z</time>
      </trkpt>
      <trkpt lat="47.29795" lon="-2.51484">
        <ele>-21.60000038147</ele>
        <time>2019-09-01T09:11:50.000Z</time>
      </trkpt>
      <trkpt lat="47.29799" lon="-2.51484">
        <ele>-21.60000038147</ele>
        <time>2019-09-01T09:11:51.000Z</time>
      </trkpt>
      <trkpt lat="47.2983" lon="-2.51481">
        <ele>-21.60000038147</ele>
        <time>2019-09-01T09:11:58.000Z</time>
      </trkpt>
      <trkpt lat="47.29836" lon="-2.51484">
        <ele>-21.60000038147</ele>
        <time>2019-09-01T09:12:00.000Z</time>
      </trkpt>
      <trkpt lat="47.29837" lon="-2.51487">
        <ele>-21.60000038147</ele>
        <time>2019-09-01T09:12:01.000Z</time>
      </trkpt>
      <trkpt lat="47.2984" lon="-2.51491">
        <ele>-21.60000038147</ele>
        <time>2019-09-01T09:12:03.000Z</time>
      </trkpt>
      <trkpt lat="47.29846" lon="-2.51488">
        <ele>-21.60000038147</ele>
        <time>2019-09-01T09:12:05.000Z</time>
      </trkpt>
      <trkpt lat="47.29859" lon="-2.51492">
        <ele>-21.60000038147</ele>
        <time>2019-09-01T09:12:09.000Z</time>
      </trkpt>
      <trkpt lat="47.29866" lon="-2.51507">
        <ele>-21.60000038147</ele>
        <time>2019-09-01T09:12:12.000Z</time>
      </trkpt>
      <trkpt lat="47.29871" lon="-2.51523">
        <ele>-21.60000038147</ele>
        <time>2019-09-01T09:12:15.000Z</time>
      </trkpt>
      <trkpt lat="47.29879" lon="-2.51551">
        <ele>-21.60000038147</ele>
        <time>2019-09-01T09:12:20.000Z</time>
      </trkpt>
      <trkpt lat="47.29884" lon="-2.51562">
        <ele>-21.60000038147</ele>
        <time>2019-09-01T09:12:22.000Z</time>
      </trkpt>
      <trkpt lat="47.2989" lon="-2.51592">
        <ele>-21.60000038147</ele>
        <time>2019-09-01T09:12:27.000Z</time>
      </trkpt>
      <trkpt lat="47.29896" lon="-2.51619">
        <ele>-21.60000038147</ele>
        <time>2019-09-01T09:12:33.000Z</time>
      </trkpt>
      <trkpt lat="47.29903" lon="-2.51649">
        <ele>-21.60000038147</ele>
        <time>2019-09-01T09:12:40.000Z</time>
      </trkpt>
      <trkpt lat="47.29904" lon="-2.5166">
        <ele>-21.60000038147</ele>
        <time>2019-09-01T09:12:45.000Z</time>
      </trkpt>
      <trkpt lat="47.29904" lon="-2.51662">
        <ele>-21.60000038147</ele>
        <time>2019-09-01T09:12:48.000Z</time>
      </trkpt>
      <trkpt lat="47.29909" lon="-2.51668">
        <ele>-21.60000038147</ele>
        <time>2019-09-01T09:20:10.000Z</time>
      </trkpt>
      <trkpt lat="47.2991" lon="-2.5167">
        <ele>-21.60000038147</ele>
        <time>2019-09-01T09:20:11.000Z</time>
      </trkpt>
      <trkpt lat="47.29914" lon="-2.51678">
        <ele>-21.60000038147</ele>
        <time>2019-09-01T09:20:15.000Z</time>
      </trkpt>
      <trkpt lat="47.29915" lon="-2.51681">
        <ele>-21.60000038147</ele>
        <time>2019-09-01T09:20:16.000Z</time>
      </trkpt>
      <trkpt lat="47.29922" lon="-2.51697">
        <ele>-21.60000038147</ele>
        <time>2019-09-01T09:20:20.000Z</time>
      </trkpt>
      <trkpt lat="47.29935" lon="-2.51725">
        <ele>-21.60000038147</ele>
        <time>2019-09-01T09:20:27.000Z</time>
      </trkpt>
      <trkpt lat="47.29951" lon="-2.51761">
        <ele>-21.60000038147</ele>
        <time>2019-09-01T09:20:35.000Z</time>
      </trkpt>
      <trkpt lat="47.29965" lon="-2.51794">
        <ele>-21.60000038147</ele>
        <time>2019-09-01T09:20:42.000Z</time>
      </trkpt>
      <trkpt lat="47.29981" lon="-2.51828">
        <ele>-21.60000038147</ele>
        <time>2019-09-01T09:20:50.000Z</time>
      </trkpt>
      <trkpt lat="47.2999" lon="-2.51858">
        <ele>-21.60000038147</ele>
        <time>2019-09-01T09:20:57.000Z</time>
      </trkpt>
      <trkpt lat="47.29986" lon="-2.51878">
        <ele>-21.60000038147</ele>
        <time>2019-09-01T09:21:01.000Z</time>
      </trkpt>
      <trkpt lat="47.29977" lon="-2.51894">
        <ele>-21.60000038147</ele>
        <time>2019-09-01T09:21:05.000Z</time>
      </trkpt>
      <trkpt lat="47.29976" lon="-2.51898">
        <ele>-21.60000038147</ele>
        <time>2019-09-01T09:21:06.000Z</time>
      </trkpt>
      <trkpt lat="47.2998" lon="-2.51903">
        <ele>-21.60000038147</ele>
        <time>2019-09-01T09:21:08.000Z</time>
      </trkpt>
      <trkpt lat="47.29988" lon="-2.51913">
        <ele>-21.60000038147</ele>
        <time>2019-09-01T09:21:11.000Z</time>
      </trkpt>
      <trkpt lat="47.29994" lon="-2.51921">
        <ele>-21.60000038147</ele>
        <time>2019-09-01T09:21:13.000Z</time>
      </trkpt>
      <trkpt lat="47.30003" lon="-2.51935">
        <ele>-21.60000038147</ele>
        <time>2019-09-01T09:21:16.000Z</time>
      </trkpt>
      <trkpt lat="47.30015" lon="-2.51956">
        <ele>-21.60000038147</ele>
        <time>2019-09-01T09:21:20.000Z</time>
      </trkpt>
      <trkpt lat="47.30024" lon="-2.51971">
        <ele>-21.60000038147</ele>
        <time>2019-09-01T09:21:23.000Z</time>
      </trkpt>
      <trkpt lat="47.30025" lon="-2.51978">
        <ele>-21.60000038147</ele>
        <time>2019-09-01T09:21:24.000Z</time>
      </trkpt>
      <trkpt lat="47.30025" lon="-2.52011">
        <ele>-21.60000038147</ele>
        <time>2019-09-01T09:21:28.000Z</time>
      </trkpt>
      <trkpt lat="47.30025" lon="-2.52019">
        <ele>-21.60000038147</ele>
        <time>2019-09-01T09:21:29.000Z</time>
      </trkpt>
      <trkpt lat="47.30031" lon="-2.52083">
        <ele>-21.60000038147</ele>
        <time>2019-09-01T09:21:36.000Z</time>
      </trkpt>
      <trkpt lat="47.30035" lon="-2.5213">
        <ele>-21.60000038147</ele>
        <time>2019-09-01T09:21:41.000Z</time>
      </trkpt>
      <trkpt lat="47.30038" lon="-2.5216">
        <ele>-21.60000038147</ele>
        <time>2019-09-01T09:21:44.000Z</time>
      </trkpt>
      <trkpt lat="47.30046" lon="-2.52238">
        <ele>-21</ele>
        <time>2019-09-01T09:21:52.000Z</time>
      </trkpt>
      <trkpt lat="47.30046" lon="-2.52248">
        <ele>-20.60000038147</ele>
        <time>2019-09-01T09:21:53.000Z</time>
      </trkpt>
      <trkpt lat="47.30046" lon="-2.52257">
        <ele>-20.200000762939</ele>
        <time>2019-09-01T09:21:54.000Z</time>
      </trkpt>
      <trkpt lat="47.30047" lon="-2.52266">
        <ele>-19.799999237061</ele>
        <time>2019-09-01T09:21:55.000Z</time>
      </trkpt>
      <trkpt lat="47.30049" lon="-2.52275">
        <ele>-19.39999961853</ele>
        <time>2019-09-01T09:21:56.000Z</time>
      </trkpt>
      <trkpt lat="47.3005" lon="-2.52284">
        <ele>-19.39999961853</ele>
        <time>2019-09-01T09:21:57.000Z</time>
      </trkpt>
      <trkpt lat="47.30052" lon="-2.52322">
        <ele>-19.39999961853</ele>
        <time>2019-09-01T09:22:01.000Z</time>
      </trkpt>
      <trkpt lat="47.30058" lon="-2.52349">
        <ele>-19.39999961853</ele>
        <time>2019-09-01T09:22:04.000Z</time>
      </trkpt>
      <trkpt lat="47.30059" lon="-2.52358">
        <ele>-19.39999961853</ele>
        <time>2019-09-01T09:22:05.000Z</time>
      </trkpt>
      <trkpt lat="47.3006" lon="-2.52368">
        <ele>-19.39999961853</ele>
        <time>2019-09-01T09:22:06.000Z</time>
      </trkpt>
      <trkpt lat="47.30066" lon="-2.5243">
        <ele>-19.39999961853</ele>
        <time>2019-09-01T09:22:12.000Z</time>
      </trkpt>
      <trkpt lat="47.30071" lon="-2.52473">
        <ele>-19.799999237061</ele>
        <time>2019-09-01T09:22:16.000Z</time>
      </trkpt>
      <trkpt lat="47.30072" lon="-2.52483">
        <ele>-20.200000762939</ele>
        <time>2019-09-01T09:22:17.000Z</time>
      </trkpt>
      <trkpt lat="47.30074" lon="-2.52493">
        <ele>-20.60000038147</ele>
        <time>2019-09-01T09:22:18.000Z</time>
      </trkpt>
      <trkpt lat="47.30075" lon="-2.52504">
        <ele>-21</ele>
        <time>2019-09-01T09:22:19.000Z</time>
      </trkpt>
      <trkpt lat="47.30076" lon="-2.52514">
        <ele>-21.39999961853</ele>
        <time>2019-09-01T09:22:20.000Z</time>
      </trkpt>
      <trkpt lat="47.30082" lon="-2.52593">
        <ele>-21.39999961853</ele>
        <time>2019-09-01T09:22:28.000Z</time>
      </trkpt>
      <trkpt lat="47.30088" lon="-2.52643">
        <ele>-21.39999961853</ele>
        <time>2019-09-01T09:22:33.000Z</time>
      </trkpt>
      <trkpt lat="47.30093" lon="-2.52705">
        <ele>-21.39999961853</ele>
        <time>2019-09-01T09:22:39.000Z</time>
      </trkpt>
      <trkpt lat="47.30094" lon="-2.52715">
        <ele>-21.39999961853</ele>
        <time>2019-09-01T09:22:40.000Z</time>
      </trkpt>
      <trkpt lat="47.30093" lon="-2.52734">
        <ele>-21</ele>
        <time>2019-09-01T09:22:42.000Z</time>
      </trkpt>
      <trkpt lat="47.30092" lon="-2.52742">
        <ele>-20.60000038147</ele>
        <time>2019-09-01T09:22:43.000Z</time>
      </trkpt>
      <trkpt lat="47.30091" lon="-2.52752">
        <ele>-20</ele>
        <time>2019-09-01T09:22:44.000Z</time>
      </trkpt>
      <trkpt lat="47.30089" lon="-2.52761">
        <ele>-19.60000038147</ele>
        <time>2019-09-01T09:22:45.000Z</time>
      </trkpt>
      <trkpt lat="47.30088" lon="-2.52769">
        <ele>-19.200000762939</ele>
        <time>2019-09-01T09:22:46.000Z</time>
      </trkpt>
      <trkpt lat="47.30081" lon="-2.52811">
        <ele>-19.60000038147</ele>
        <time>2019-09-01T09:22:51.000Z</time>
      </trkpt>
      <trkpt lat="47.3008" lon="-2.52821">
        <ele>-20.200000762939</ele>
        <time>2019-09-01T09:22:52.000Z</time>
      </trkpt>
      <trkpt lat="47.30079" lon="-2.52829">
        <ele>-20.60000038147</ele>
        <time>2019-09-01T09:22:53.000Z</time>
      </trkpt>
      <trkpt lat="47.30078" lon="-2.52838">
        <ele>-21</ele>
        <time>2019-09-01T09:22:54.000Z</time>
      </trkpt>
      <trkpt lat="47.30076" lon="-2.52846">
        <ele>-21.39999961853</ele>
        <time>2019-09-01T09:22:55.000Z</time>
      </trkpt>
      <trkpt lat="47.30071" lon="-2.52883">
        <ele>-21.39999961853</ele>
        <time>2019-09-01T09:22:59.000Z</time>
      </trkpt>
      <trkpt lat="47.30058" lon="-2.52944">
        <ele>-21.39999961853</ele>
        <time>2019-09-01T09:23:06.000Z</time>
      </trkpt>
      <trkpt lat="47.3004" lon="-2.53021">
        <ele>-21.39999961853</ele>
        <time>2019-09-01T09:23:15.000Z</time>
      </trkpt>
      <trkpt lat="47.30038" lon="-2.53039">
        <ele>-21.39999961853</ele>
        <time>2019-09-01T09:23:17.000Z</time>
      </trkpt>
      <trkpt lat="47.30037" lon="-2.53069">
        <ele>-21.39999961853</ele>
        <time>2019-09-01T09:23:20.000Z</time>
      </trkpt>
      <trkpt lat="47.30041" lon="-2.53141">
        <ele>-21.39999961853</ele>
        <time>2019-09-01T09:23:27.000Z</time>
      </trkpt>
      <trkpt lat="47.30046" lon="-2.53222">
        <ele>-21.39999961853</ele>
        <time>2019-09-01T09:23:35.000Z</time>
      </trkpt>
      <trkpt lat="47.30049" lon="-2.53291">
        <ele>-21.39999961853</ele>
        <time>2019-09-01T09:23:42.000Z</time>
      </trkpt>
      <trkpt lat="47.30043" lon="-2.53364">
        <ele>-21.39999961853</ele>
        <time>2019-09-01T09:23:50.000Z</time>
      </trkpt>
      <trkpt lat="47.30041" lon="-2.53373">
        <ele>-21.39999961853</ele>
        <time>2019-09-01T09:23:51.000Z</time>
      </trkpt>
      <trkpt lat="47.30039" lon="-2.53382">
        <ele>-21.39999961853</ele>
        <time>2019-09-01T09:23:52.000Z</time>
      </trkpt>
      <trkpt lat="47.3003" lon="-2.53408">
        <ele>-21.39999961853</ele>
        <time>2019-09-01T09:23:55.000Z</time>
      </trkpt>
      <trkpt lat="47.30006" lon="-2.53455">
        <ele>-21.39999961853</ele>
        <time>2019-09-01T09:24:01.000Z</time>
      </trkpt>
      <trkpt lat="47.29976" lon="-2.53507">
        <ele>-21.39999961853</ele>
        <time>2019-09-01T09:24:08.000Z</time>
      </trkpt>
      <trkpt lat="47.29941" lon="-2.53565">
        <ele>-21.39999961853</ele>
        <time>2019-09-01T09:24:16.000Z</time>
      </trkpt>
      <trkpt lat="47.29918" lon="-2.53616">
        <ele>-21.39999961853</ele>
        <time>2019-09-01T09:24:22.000Z</time>
      </trkpt>
      <trkpt lat="47.29912" lon="-2.53645">
        <ele>-21.39999961853</ele>
        <time>2019-09-01T09:24:25.000Z</time>
      </trkpt>
      <trkpt lat="47.29909" lon="-2.53663">
        <ele>-21.39999961853</ele>
        <time>2019-09-01T09:24:27.000Z</time>
      </trkpt>
      <trkpt lat="47.29907" lon="-2.5369">
        <ele>-21.39999961853</ele>
        <time>2019-09-01T09:24:30.000Z</time>
      </trkpt>
      <trkpt lat="47.29905" lon="-2.53716">
        <ele>-21.39999961853</ele>
        <time>2019-09-01T09:24:33.000Z</time>
      </trkpt>
      <trkpt lat="47.29891" lon="-2.53736">
        <ele>-21.39999961853</ele>
        <time>2019-09-01T09:24:36.000Z</time>
      </trkpt>
      <trkpt lat="47.29864" lon="-2.53772">
        <ele>-21.39999961853</ele>
        <time>2019-09-01T09:24:42.000Z</time>
      </trkpt>
      <trkpt lat="47.29855" lon="-2.53781">
        <ele>-21.39999961853</ele>
        <time>2019-09-01T09:24:44.000Z</time>
      </trkpt>
      <trkpt lat="47.29845" lon="-2.53793">
        <ele>-21.39999961853</ele>
        <time>2019-09-01T09:24:47.000Z</time>
      </trkpt>
      <trkpt lat="47.29834" lon="-2.53814">
        <ele>-21.39999961853</ele>
        <time>2019-09-01T09:24:51.000Z</time>
      </trkpt>
      <trkpt lat="47.2983" lon="-2.5382">
        <ele>-21.39999961853</ele>
        <time>2019-09-01T09:24:52.000Z</time>
      </trkpt>
      <trkpt lat="47.29824" lon="-2.5383">
        <ele>-21.39999961853</ele>
        <time>2019-09-01T09:24:54.000Z</time>
      </trkpt>
      <trkpt lat="47.29821" lon="-2.5384">
        <ele>-21.39999961853</ele>
        <time>2019-09-01T09:24:56.000Z</time>
      </trkpt>
      <trkpt lat="47.29819" lon="-2.5385">
        <ele>-21.39999961853</ele>
        <time>2019-09-01T09:24:58.000Z</time>
      </trkpt>
      <trkpt lat="47.29817" lon="-2.53867">
        <ele>-21.39999961853</ele>
        <time>2019-09-01T09:25:02.000Z</time>
      </trkpt>
      <trkpt lat="47.29814" lon="-2.53889">
        <ele>-21.39999961853</ele>
        <time>2019-09-01T09:25:06.000Z</time>
      </trkpt>
      <trkpt lat="47.29811" lon="-2.53895">
        <ele>-21.39999961853</ele>
        <time>2019-09-01T09:25:07.000Z</time>
      </trkpt>
      <trkpt lat="47.29797" lon="-2.53926">
        <ele>-21.39999961853</ele>
        <time>2019-09-01T09:25:12.000Z</time>
      </trkpt>
      <trkpt lat="47.29793" lon="-2.53931">
        <ele>-21.39999961853</ele>
        <time>2019-09-01T09:25:13.000Z</time>
      </trkpt>
      <trkpt lat="47.29788" lon="-2.53935">
        <ele>-22.39999961853</ele>
        <time>2019-09-01T09:25:14.000Z</time>
      </trkpt>
      <trkpt lat="47.29783" lon="-2.53938">
        <ele>-22.799999237061</ele>
        <time>2019-09-01T09:25:15.000Z</time>
      </trkpt>
      <trkpt lat="47.29779" lon="-2.53941">
        <ele>-23.200000762939</ele>
        <time>2019-09-01T09:25:16.000Z</time>
      </trkpt>
      <trkpt lat="47.29774" lon="-2.53943">
        <ele>-23.60000038147</ele>
        <time>2019-09-01T09:25:17.000Z</time>
      </trkpt>
      <trkpt lat="47.29761" lon="-2.53943">
        <ele>-23.60000038147</ele>
        <time>2019-09-01T09:25:21.000Z</time>
      </trkpt>
      <trkpt lat="47.29747" lon="-2.53943">
        <ele>-23.60000038147</ele>
        <time>2019-09-01T09:25:26.000Z</time>
      </trkpt>
      <trkpt lat="47.29724" lon="-2.53942">
        <ele>-23.60000038147</ele>
        <time>2019-09-01T09:25:31.000Z</time>
      </trkpt>
      <trkpt lat="47.2971" lon="-2.53942">
        <ele>-23.60000038147</ele>
        <time>2019-09-01T09:25:34.000Z</time>
      </trkpt>
      <trkpt lat="47.29705" lon="-2.53933">
        <ele>-23.60000038147</ele>
        <time>2019-09-01T09:25:36.000Z</time>
      </trkpt>
      <trkpt lat="47.29705" lon="-2.53917">
        <ele>-23.60000038147</ele>
        <time>2019-09-01T09:25:39.000Z</time>
      </trkpt>
      <trkpt lat="47.29706" lon="-2.53911">
        <ele>-23.60000038147</ele>
        <time>2019-09-01T09:25:40.000Z</time>
      </trkpt>
      <trkpt lat="47.29706" lon="-2.53895">
        <ele>-23.200000762939</ele>
        <time>2019-09-01T09:25:42.000Z</time>
      </trkpt>
      <trkpt lat="47.29706" lon="-2.53888">
        <ele>-22.799999237061</ele>
        <time>2019-09-01T09:25:43.000Z</time>
      </trkpt>
      <trkpt lat="47.29706" lon="-2.53881">
        <ele>-22.39999961853</ele>
        <time>2019-09-01T09:25:44.000Z</time>
      </trkpt>
      <trkpt lat="47.29706" lon="-2.53874">
        <ele>-21.799999237061</ele>
        <time>2019-09-01T09:25:45.000Z</time>
      </trkpt>
      <trkpt lat="47.29707" lon="-2.53867">
        <ele>-21.39999961853</ele>
        <time>2019-09-01T09:25:46.000Z</time>
      </trkpt>
      <trkpt lat="47.29708" lon="-2.53822">
        <ele>-21.39999961853</ele>
        <time>2019-09-01T09:25:52.000Z</time>
      </trkpt>
      <trkpt lat="47.29707" lon="-2.53802">
        <ele>-21.39999961853</ele>
        <time>2019-09-01T09:25:55.000Z</time>
      </trkpt>
      <trkpt lat="47.29703" lon="-2.53798">
        <ele>-21.39999961853</ele>
        <time>2019-09-01T09:25:56.000Z</time>
      </trkpt>
      <trkpt lat="47.29685" lon="-2.53791">
        <ele>-21.39999961853</ele>
        <time>2019-09-01T09:26:00.000Z</time>
      </trkpt>
      <trkpt lat="47.29667" lon="-2.53792">
        <ele>-21.39999961853</ele>
        <time>2019-09-01T09:26:03.000Z</time>
      </trkpt>
      <trkpt lat="47.29661" lon="-2.53795">
        <ele>-21.39999961853</ele>
        <time>2019-09-01T09:26:04.000Z</time>
      </trkpt>
      <trkpt lat="47.29655" lon="-2.53798">
        <ele>-21.39999961853</ele>
        <time>2019-09-01T09:26:05.000Z</time>
      </trkpt>
      <trkpt lat="47.29619" lon="-2.53826">
        <ele>-21</ele>
        <time>2019-09-01T09:26:11.000Z</time>
      </trkpt>
      <trkpt lat="47.29613" lon="-2.53831">
        <ele>-20.60000038147</ele>
        <time>2019-09-01T09:26:12.000Z</time>
      </trkpt>
      <trkpt lat="47.29608" lon="-2.53835">
        <ele>-20.200000762939</ele>
        <time>2019-09-01T09:26:13.000Z</time>
      </trkpt>
      <trkpt lat="47.29602" lon="-2.53839">
        <ele>-19.799999237061</ele>
        <time>2019-09-01T09:26:14.000Z</time>
      </trkpt>
      <trkpt lat="47.29596" lon="-2.53844">
        <ele>-19.39999961853</ele>
        <time>2019-09-01T09:26:15.000Z</time>
      </trkpt>
      <trkpt lat="47.29591" lon="-2.5385">
        <ele>-19.39999961853</ele>
        <time>2019-09-01T09:26:16.000Z</time>
      </trkpt>
      <trkpt lat="47.29579" lon="-2.53861">
        <ele>-19.39999961853</ele>
        <time>2019-09-01T09:26:18.000Z</time>
      </trkpt>
      <trkpt lat="47.29574" lon="-2.53867">
        <ele>-19.39999961853</ele>
        <time>2019-09-01T09:26:19.000Z</time>
      </trkpt>
      <trkpt lat="47.29565" lon="-2.53885">
        <ele>-19.39999961853</ele>
        <time>2019-09-01T09:26:21.000Z</time>
      </trkpt>
      <trkpt lat="47.29554" lon="-2.5391">
        <ele>-19.39999961853</ele>
        <time>2019-09-01T09:26:24.000Z</time>
      </trkpt>
      <trkpt lat="47.29547" lon="-2.53926">
        <ele>-19.39999961853</ele>
        <time>2019-09-01T09:26:26.000Z</time>
      </trkpt>
      <trkpt lat="47.29532" lon="-2.53957">
        <ele>-19.39999961853</ele>
        <time>2019-09-01T09:26:30.000Z</time>
      </trkpt>
      <trkpt lat="47.29518" lon="-2.53979">
        <ele>-19.39999961853</ele>
        <time>2019-09-01T09:26:33.000Z</time>
      </trkpt>
      <trkpt lat="47.29478" lon="-2.54032">
        <ele>-19.39999961853</ele>
        <time>2019-09-01T09:26:41.000Z</time>
      </trkpt>
      <trkpt lat="47.29472" lon="-2.54037">
        <ele>-19.39999961853</ele>
        <time>2019-09-01T09:26:42.000Z</time>
      </trkpt>
      <trkpt lat="47.29454" lon="-2.54048">
        <ele>-19.39999961853</ele>
        <time>2019-09-01T09:26:45.000Z</time>
      </trkpt>
      <trkpt lat="47.2942" lon="-2.54074">
        <ele>-19.39999961853</ele>
        <time>2019-09-01T09:26:51.000Z</time>
      </trkpt>
      <trkpt lat="47.29413" lon="-2.54082">
        <ele>-19.39999961853</ele>
        <time>2019-09-01T09:26:53.000Z</time>
      </trkpt>
      <trkpt lat="47.29406" lon="-2.54089">
        <ele>-19.39999961853</ele>
        <time>2019-09-01T09:26:55.000Z</time>
      </trkpt>
      <trkpt lat="47.29389" lon="-2.54097">
        <ele>-19.39999961853</ele>
        <time>2019-09-01T09:26:59.000Z</time>
      </trkpt>
      <trkpt lat="47.29386" lon="-2.54095">
        <ele>-19.39999961853</ele>
        <time>2019-09-01T09:27:00.000Z</time>
      </trkpt>
      <trkpt lat="47.29364" lon="-2.54078">
        <ele>-19.39999961853</ele>
        <time>2019-09-01T09:27:07.000Z</time>
      </trkpt>
      <trkpt lat="47.29341" lon="-2.54054">
        <ele>-19.39999961853</ele>
        <time>2019-09-01T09:27:14.000Z</time>
      </trkpt>
      <trkpt lat="47.29324" lon="-2.54036">
        <ele>-19.39999961853</ele>
        <time>2019-09-01T09:27:20.000Z</time>
      </trkpt>
      <trkpt lat="47.29305" lon="-2.54017">
        <ele>-19.39999961853</ele>
        <time>2019-09-01T09:27:27.000Z</time>
      </trkpt>
      <trkpt lat="47.29286" lon="-2.54002">
        <ele>-19.39999961853</ele>
        <time>2019-09-01T09:27:34.000Z</time>
      </trkpt>
      <trkpt lat="47.29258" lon="-2.53994">
        <ele>-19.39999961853</ele>
        <time>2019-09-01T09:27:41.000Z</time>
      </trkpt>
      <trkpt lat="47.29229" lon="-2.53987">
        <ele>-19.39999961853</ele>
        <time>2019-09-01T09:27:46.000Z</time>
      </trkpt>
      <trkpt lat="47.29204" lon="-2.53981">
        <ele>-19</ele>
        <time>2019-09-01T09:27:50.000Z</time>
      </trkpt>
      <trkpt lat="47.29197" lon="-2.5398">
        <ele>-18.60000038147</ele>
        <time>2019-09-01T09:27:51.000Z</time>
      </trkpt>
      <trkpt lat="47.2919" lon="-2.53979">
        <ele>-18.200000762939</ele>
        <time>2019-09-01T09:27:52.000Z</time>
      </trkpt>
      <trkpt lat="47.29182" lon="-2.53977">
        <ele>-17.799999237061</ele>
        <time>2019-09-01T09:27:53.000Z</time>
      </trkpt>
      <trkpt lat="47.29175" lon="-2.53974">
        <ele>-17.39999961853</ele>
        <time>2019-09-01T09:27:54.000Z</time>
      </trkpt>
      <trkpt lat="47.29157" lon="-2.53959">
        <ele>-17.39999961853</ele>
        <time>2019-09-01T09:27:57.000Z</time>
      </trkpt>
      <trkpt lat="47.29151" lon="-2.53953">
        <ele>-17.39999961853</ele>
        <time>2019-09-01T09:27:58.000Z</time>
      </trkpt>
      <trkpt lat="47.29125" lon="-2.53921">
        <ele>-17.39999961853</ele>
        <time>2019-09-01T09:28:03.000Z</time>
      </trkpt>
      <trkpt lat="47.29121" lon="-2.53913">
        <ele>-17.39999961853</ele>
        <time>2019-09-01T09:28:04.000Z</time>
      </trkpt>
      <trkpt lat="47.2911" lon="-2.53891">
        <ele>-17.39999961853</ele>
        <time>2019-09-01T09:28:07.000Z</time>
      </trkpt>
      <trkpt lat="47.29108" lon="-2.53884">
        <ele>-17.39999961853</ele>
        <time>2019-09-01T09:28:08.000Z</time>
      </trkpt>
      <trkpt lat="47.29106" lon="-2.53878">
        <ele>-17</ele>
        <time>2019-09-01T09:28:09.000Z</time>
      </trkpt>
      <trkpt lat="47.29105" lon="-2.53871">
        <ele>-16.60000038147</ele>
        <time>2019-09-01T09:28:10.000Z</time>
      </trkpt>
      <trkpt lat="47.29104" lon="-2.53866">
        <ele>-16.200000762939</ele>
        <time>2019-09-01T09:28:11.000Z</time>
      </trkpt>
      <trkpt lat="47.29103" lon="-2.5386">
        <ele>-15.800000190735</ele>
        <time>2019-09-01T09:28:12.000Z</time>
      </trkpt>
      <trkpt lat="47.29102" lon="-2.53855">
        <ele>-15.39999961853</ele>
        <time>2019-09-01T09:28:13.000Z</time>
      </trkpt>
      <trkpt lat="47.29099" lon="-2.53825">
        <ele>-15.39999961853</ele>
        <time>2019-09-01T09:28:18.000Z</time>
      </trkpt>
      <trkpt lat="47.29095" lon="-2.53802">
        <ele>-15.39999961853</ele>
        <time>2019-09-01T09:28:21.000Z</time>
      </trkpt>
      <trkpt lat="47.29092" lon="-2.53778">
        <ele>-15.39999961853</ele>
        <time>2019-09-01T09:28:24.000Z</time>
      </trkpt>
      <trkpt lat="47.29094" lon="-2.53733">
        <ele>-15.39999961853</ele>
        <time>2019-09-01T09:28:29.000Z</time>
      </trkpt>
      <trkpt lat="47.29097" lon="-2.53675">
        <ele>-15.39999961853</ele>
        <time>2019-09-01T09:28:35.000Z</time>
      </trkpt>
      <trkpt lat="47.29098" lon="-2.53666">
        <ele>-15.39999961853</ele>
        <time>2019-09-01T09:28:36.000Z</time>
      </trkpt>
      <trkpt lat="47.291" lon="-2.53636">
        <ele>-15.39999961853</ele>
        <time>2019-09-01T09:28:39.000Z</time>
      </trkpt>
      <trkpt lat="47.29103" lon="-2.53574">
        <ele>-15.39999961853</ele>
        <time>2019-09-01T09:28:46.000Z</time>
      </trkpt>
      <trkpt lat="47.29104" lon="-2.53567">
        <ele>-15.39999961853</ele>
        <time>2019-09-01T09:28:47.000Z</time>
      </trkpt>
      <trkpt lat="47.29106" lon="-2.53553">
        <ele>-15.39999961853</ele>
        <time>2019-09-01T09:28:50.000Z</time>
      </trkpt>
      <trkpt lat="47.29114" lon="-2.53536">
        <ele>-15.39999961853</ele>
        <time>2019-09-01T09:28:54.000Z</time>
      </trkpt>
      <trkpt lat="47.29127" lon="-2.53524">
        <ele>-15.39999961853</ele>
        <time>2019-09-01T09:28:57.000Z</time>
      </trkpt>
      <trkpt lat="47.29137" lon="-2.53515">
        <ele>-15.39999961853</ele>
        <time>2019-09-01T09:28:59.000Z</time>
      </trkpt>
      <trkpt lat="47.29141" lon="-2.5351">
        <ele>-15.39999961853</ele>
        <time>2019-09-01T09:29:00.000Z</time>
      </trkpt>
      <trkpt lat="47.29144" lon="-2.53492">
        <ele>-15.39999961853</ele>
        <time>2019-09-01T09:29:02.000Z</time>
      </trkpt>
      <trkpt lat="47.29141" lon="-2.53476">
        <ele>-15.39999961853</ele>
        <time>2019-09-01T09:29:04.000Z</time>
      </trkpt>
      <trkpt lat="47.2914" lon="-2.53459">
        <ele>-15.39999961853</ele>
        <time>2019-09-01T09:29:06.000Z</time>
      </trkpt>
      <trkpt lat="47.29137" lon="-2.53415">
        <ele>-15.39999961853</ele>
        <time>2019-09-01T09:29:11.000Z</time>
      </trkpt>
      <trkpt lat="47.29132" lon="-2.53361">
        <ele>-15.39999961853</ele>
        <time>2019-09-01T09:29:17.000Z</time>
      </trkpt>
      <trkpt lat="47.29131" lon="-2.53336">
        <ele>-15</ele>
        <time>2019-09-01T09:29:20.000Z</time>
      </trkpt>
      <trkpt lat="47.29131" lon="-2.53327">
        <ele>-14.60000038147</ele>
        <time>2019-09-01T09:29:21.000Z</time>
      </trkpt>
      <trkpt lat="47.2913" lon="-2.5332">
        <ele>-13.800000190735</ele>
        <time>2019-09-01T09:29:22.000Z</time>
      </trkpt>
      <trkpt lat="47.29129" lon="-2.53313">
        <ele>-13.39999961853</ele>
        <time>2019-09-01T09:29:23.000Z</time>
      </trkpt>
      <trkpt lat="47.29129" lon="-2.53305">
        <ele>-13.39999961853</ele>
        <time>2019-09-01T09:29:24.000Z</time>
      </trkpt>
      <trkpt lat="47.29126" lon="-2.53277">
        <ele>-13.39999961853</ele>
        <time>2019-09-01T09:29:28.000Z</time>
      </trkpt>
      <trkpt lat="47.29124" lon="-2.53271">
        <ele>-13.39999961853</ele>
        <time>2019-09-01T09:29:29.000Z</time>
      </trkpt>
      <trkpt lat="47.29115" lon="-2.53241">
        <ele>-13.39999961853</ele>
        <time>2019-09-01T09:29:33.000Z</time>
      </trkpt>
      <trkpt lat="47.29114" lon="-2.53232">
        <ele>-13.39999961853</ele>
        <time>2019-09-01T09:29:34.000Z</time>
      </trkpt>
      <trkpt lat="47.29102" lon="-2.53178">
        <ele>-13.39999961853</ele>
        <time>2019-09-01T09:29:40.000Z</time>
      </trkpt>
      <trkpt lat="47.29093" lon="-2.53145">
        <ele>-13.39999961853</ele>
        <time>2019-09-01T09:29:44.000Z</time>
      </trkpt>
      <trkpt lat="47.2909" lon="-2.53138">
        <ele>-13.39999961853</ele>
        <time>2019-09-01T09:29:45.000Z</time>
      </trkpt>
      <trkpt lat="47.29075" lon="-2.53104">
        <ele>-13.39999961853</ele>
        <time>2019-09-01T09:29:50.000Z</time>
      </trkpt>
      <trkpt lat="47.29072" lon="-2.53097">
        <ele>-13.39999961853</ele>
        <time>2019-09-01T09:29:51.000Z</time>
      </trkpt>
      <trkpt lat="47.29054" lon="-2.53056">
        <ele>-13.39999961853</ele>
        <time>2019-09-01T09:29:57.000Z</time>
      </trkpt>
      <trkpt lat="47.29046" lon="-2.53035">
        <ele>-13.39999961853</ele>
        <time>2019-09-01T09:30:00.000Z</time>
      </trkpt>
      <trkpt lat="47.29039" lon="-2.53021">
        <ele>-13.39999961853</ele>
        <time>2019-09-01T09:30:02.000Z</time>
      </trkpt>
      <trkpt lat="47.29032" lon="-2.53008">
        <ele>-13.39999961853</ele>
        <time>2019-09-01T09:30:04.000Z</time>
      </trkpt>
      <trkpt lat="47.29018" lon="-2.5298">
        <ele>-13.39999961853</ele>
        <time>2019-09-01T09:30:08.000Z</time>
      </trkpt>
      <trkpt lat="47.29015" lon="-2.52973">
        <ele>-12.800000190735</ele>
        <time>2019-09-01T09:30:09.000Z</time>
      </trkpt>
      <trkpt lat="47.29012" lon="-2.52965">
        <ele>-12.39999961853</ele>
        <time>2019-09-01T09:30:10.000Z</time>
      </trkpt>
      <trkpt lat="47.2901" lon="-2.52957">
        <ele>-12</ele>
        <time>2019-09-01T09:30:11.000Z</time>
      </trkpt>
      <trkpt lat="47.29007" lon="-2.52949">
        <ele>-11.199999809265</ele>
        <time>2019-09-01T09:30:12.000Z</time>
      </trkpt>
      <trkpt lat="47.29002" lon="-2.52933">
        <ele>-11.199999809265</ele>
        <time>2019-09-01T09:30:14.000Z</time>
      </trkpt>
      <trkpt lat="47.28988" lon="-2.52889">
        <ele>-11.199999809265</ele>
        <time>2019-09-01T09:30:20.000Z</time>
      </trkpt>
      <trkpt lat="47.28983" lon="-2.52868">
        <ele>-11.199999809265</ele>
        <time>2019-09-01T09:30:23.000Z</time>
      </trkpt>
      <trkpt lat="47.2898" lon="-2.52855">
        <ele>-11.199999809265</ele>
        <time>2019-09-01T09:30:25.000Z</time>
      </trkpt>
      <trkpt lat="47.28972" lon="-2.52843">
        <ele>-11.199999809265</ele>
        <time>2019-09-01T09:30:27.000Z</time>
      </trkpt>
      <trkpt lat="47.2897" lon="-2.52836">
        <ele>-11.199999809265</ele>
        <time>2019-09-01T09:30:28.000Z</time>
      </trkpt>
      <trkpt lat="47.28954" lon="-2.52787">
        <ele>-11.199999809265</ele>
        <time>2019-09-01T09:30:34.000Z</time>
      </trkpt>
      <trkpt lat="47.2895" lon="-2.52767">
        <ele>-11.199999809265</ele>
        <time>2019-09-01T09:30:36.000Z</time>
      </trkpt>
      <trkpt lat="47.28948" lon="-2.52745">
        <ele>-11.199999809265</ele>
        <time>2019-09-01T09:30:38.000Z</time>
      </trkpt>
      <trkpt lat="47.28943" lon="-2.52661">
        <ele>-11.199999809265</ele>
        <time>2019-09-01T09:30:45.000Z</time>
      </trkpt>
      <trkpt lat="47.2894" lon="-2.52574">
        <ele>-11.199999809265</ele>
        <time>2019-09-01T09:30:52.000Z</time>
      </trkpt>
      <trkpt lat="47.28939" lon="-2.52562">
        <ele>-11.199999809265</ele>
        <time>2019-09-01T09:30:53.000Z</time>
      </trkpt>
      <trkpt lat="47.28935" lon="-2.52515">
        <ele>-11.199999809265</ele>
        <time>2019-09-01T09:30:57.000Z</time>
      </trkpt>
      <trkpt lat="47.28929" lon="-2.52495">
        <ele>-11.199999809265</ele>
        <time>2019-09-01T09:30:59.000Z</time>
      </trkpt>
      <trkpt lat="47.28917" lon="-2.52442">
        <ele>-11.199999809265</ele>
        <time>2019-09-01T09:31:04.000Z</time>
      </trkpt>
      <trkpt lat="47.28906" lon="-2.52365">
        <ele>-11.199999809265</ele>
        <time>2019-09-01T09:31:11.000Z</time>
      </trkpt>
      <trkpt lat="47.28906" lon="-2.52301">
        <ele>-11.199999809265</ele>
        <time>2019-09-01T09:31:17.000Z</time>
      </trkpt>
      <trkpt lat="47.28903" lon="-2.52226">
        <ele>-11.199999809265</ele>
        <time>2019-09-01T09:31:24.000Z</time>
      </trkpt>
      <trkpt lat="47.28889" lon="-2.5219">
        <ele>-11.199999809265</ele>
        <time>2019-09-01T09:31:28.000Z</time>
      </trkpt>
      <trkpt lat="47.28876" lon="-2.52157">
        <ele>-11.60000038147</ele>
        <time>2019-09-01T09:31:32.000Z</time>
      </trkpt>
      <trkpt lat="47.28873" lon="-2.52149">
        <ele>-12</ele>
        <time>2019-09-01T09:31:33.000Z</time>
      </trkpt>
      <trkpt lat="47.2887" lon="-2.52142">
        <ele>-12.39999961853</ele>
        <time>2019-09-01T09:31:34.000Z</time>
      </trkpt>
      <trkpt lat="47.28867" lon="-2.52135">
        <ele>-12.800000190735</ele>
        <time>2019-09-01T09:31:35.000Z</time>
      </trkpt>
      <trkpt lat="47.28865" lon="-2.52131">
        <ele>-13.199999809265</ele>
        <time>2019-09-01T09:31:36.000Z</time>
      </trkpt>
      <trkpt lat="47.28864" lon="-2.52122">
        <ele>-13.199999809265</ele>
        <time>2019-09-01T09:31:38.000Z</time>
      </trkpt>
      <trkpt lat="47.28861" lon="-2.52104">
        <ele>-13.199999809265</ele>
        <time>2019-09-01T09:31:41.000Z</time>
      </trkpt>
      <trkpt lat="47.28859" lon="-2.52097">
        <ele>-13.199999809265</ele>
        <time>2019-09-01T09:31:42.000Z</time>
      </trkpt>
      <trkpt lat="47.28843" lon="-2.52058">
        <ele>-13.199999809265</ele>
        <time>2019-09-01T09:31:47.000Z</time>
      </trkpt>
      <trkpt lat="47.28814" lon="-2.51994">
        <ele>-13.199999809265</ele>
        <time>2019-09-01T09:31:55.000Z</time>
      </trkpt>
      <trkpt lat="47.28807" lon="-2.51978">
        <ele>-13.199999809265</ele>
        <time>2019-09-01T09:31:57.000Z</time>
      </trkpt>
      <trkpt lat="47.28797" lon="-2.51954">
        <ele>-13.199999809265</ele>
        <time>2019-09-01T09:32:00.000Z</time>
      </trkpt>
      <trkpt lat="47.28777" lon="-2.51917">
        <ele>-13.199999809265</ele>
        <time>2019-09-01T09:32:05.000Z</time>
      </trkpt>
      <trkpt lat="47.28771" lon="-2.51901">
        <ele>-13.199999809265</ele>
        <time>2019-09-01T09:32:07.000Z</time>
      </trkpt>
      <trkpt lat="47.28768" lon="-2.51885">
        <ele>-13.199999809265</ele>
        <time>2019-09-01T09:32:09.000Z</time>
      </trkpt>
      <trkpt lat="47.28773" lon="-2.51869">
        <ele>-13.199999809265</ele>
        <time>2019-09-01T09:32:12.000Z</time>
      </trkpt>
      <trkpt lat="47.28781" lon="-2.51863">
        <ele>-13.199999809265</ele>
        <time>2019-09-01T09:32:14.000Z</time>
      </trkpt>
      <trkpt lat="47.28785" lon="-2.5186">
        <ele>-13.199999809265</ele>
        <time>2019-09-01T09:32:15.000Z</time>
      </trkpt>
      <trkpt lat="47.2879" lon="-2.51858">
        <ele>-13.199999809265</ele>
        <time>2019-09-01T09:32:16.000Z</time>
      </trkpt>
      <trkpt lat="47.28813" lon="-2.51856">
        <ele>-13.199999809265</ele>
        <time>2019-09-01T09:32:20.000Z</time>
      </trkpt>
      <trkpt lat="47.28819" lon="-2.51857">
        <ele>-13.199999809265</ele>
        <time>2019-09-01T09:32:21.000Z</time>
      </trkpt>
      <trkpt lat="47.28844" lon="-2.51856">
        <ele>-13.199999809265</ele>
        <time>2019-09-01T09:32:25.000Z</time>
      </trkpt>
      <trkpt lat="47.28893" lon="-2.51855">
        <ele>-13.199999809265</ele>
        <time>2019-09-01T09:32:33.000Z</time>
      </trkpt>
      <trkpt lat="47.28922" lon="-2.51854">
        <ele>-13.199999809265</ele>
        <time>2019-09-01T09:32:39.000Z</time>
      </trkpt>
      <trkpt lat="47.2893" lon="-2.51855">
        <ele>-13.199999809265</ele>
        <time>2019-09-01T09:32:41.000Z</time>
      </trkpt>
      <trkpt lat="47.2894" lon="-2.51852">
        <ele>-13.199999809265</ele>
        <time>2019-09-01T09:32:43.000Z</time>
      </trkpt>
      <trkpt lat="47.28945" lon="-2.51835">
        <ele>-13.199999809265</ele>
        <time>2019-09-01T09:32:46.000Z</time>
      </trkpt>
      <trkpt lat="47.28944" lon="-2.51819">
        <ele>-13.199999809265</ele>
        <time>2019-09-01T09:32:49.000Z</time>
      </trkpt>
      <trkpt lat="47.28943" lon="-2.51816">
        <ele>-13.199999809265</ele>
        <time>2019-09-01T09:32:50.000Z</time>
      </trkpt>
      <trkpt lat="47.28941" lon="-2.51812">
        <ele>-13.199999809265</ele>
        <time>2019-09-01T09:32:54.000Z</time>
      </trkpt>
      <trkpt lat="47.2894" lon="-2.51811">
        <ele>-13.199999809265</ele>
        <time>2019-09-01T09:32:56.000Z</time>
      </trkpt>
      <trkpt lat="47.28936" lon="-2.51813">
        <ele>-13.199999809265</ele>
        <time>2019-09-01T09:33:01.000Z</time>
      </trkpt>
      <trkpt lat="47.28931" lon="-2.51818">
        <ele>-13.199999809265</ele>
        <time>2019-09-01T09:33:03.000Z</time>
      </trkpt>
      <trkpt lat="47.28925" lon="-2.51832">
        <ele>-13.199999809265</ele>
        <time>2019-09-01T09:33:06.000Z</time>
      </trkpt>
      <trkpt lat="47.28911" lon="-2.51831">
        <ele>-13.199999809265</ele>
        <time>2019-09-01T09:33:09.000Z</time>
      </trkpt>
      <trkpt lat="47.289" lon="-2.51826">
        <ele>-13.199999809265</ele>
        <time>2019-09-01T09:33:11.000Z</time>
      </trkpt>
      <trkpt lat="47.28879" lon="-2.51819">
        <ele>-13.199999809265</ele>
        <time>2019-09-01T09:33:15.000Z</time>
      </trkpt>
      <trkpt lat="47.28866" lon="-2.51818">
        <ele>-13.199999809265</ele>
        <time>2019-09-01T09:33:18.000Z</time>
      </trkpt>
      <trkpt lat="47.28862" lon="-2.51822">
        <ele>-13.199999809265</ele>
        <time>2019-09-01T09:33:19.000Z</time>
      </trkpt>
      <trkpt lat="47.28859" lon="-2.51836">
        <ele>-13.199999809265</ele>
        <time>2019-09-01T09:33:22.000Z</time>
      </trkpt>
      <trkpt lat="47.28859" lon="-2.5184">
        <ele>-13.199999809265</ele>
        <time>2019-09-01T09:33:23.000Z</time>
      </trkpt>
      <trkpt lat="47.28853" lon="-2.51851">
        <ele>-13.199999809265</ele>
        <time>2019-09-01T09:33:27.000Z</time>
      </trkpt>
      <trkpt lat="47.28849" lon="-2.51852">
        <ele>-13.199999809265</ele>
        <time>2019-09-01T09:33:29.000Z</time>
      </trkpt>
      <trkpt lat="47.28842" lon="-2.51852">
        <ele>-13.199999809265</ele>
        <time>2019-09-01T09:33:31.000Z</time>
      </trkpt>
      <trkpt lat="47.2884" lon="-2.5185">
        <ele>-13.199999809265</ele>
        <time>2019-09-01T09:33:32.000Z</time>
      </trkpt>
      <trkpt lat="47.28837" lon="-2.51844">
        <ele>-13.199999809265</ele>
        <time>2019-09-01T09:33:34.000Z</time>
      </trkpt>
      <trkpt lat="47.28836" lon="-2.51837">
        <ele>-13.199999809265</ele>
        <time>2019-09-01T09:33:36.000Z</time>
      </trkpt>
      <trkpt lat="47.28833" lon="-2.51825">
        <ele>-13.199999809265</ele>
        <time>2019-09-01T09:33:39.000Z</time>
      </trkpt>
      <trkpt lat="47.28832" lon="-2.51812">
        <ele>-13.199999809265</ele>
        <time>2019-09-01T09:33:44.000Z</time>
      </trkpt>
      <trkpt lat="47.28831" lon="-2.51814">
        <ele>-13.199999809265</ele>
        <time>2019-09-01T09:33:47.000Z</time>
      </trkpt>
      <trkpt lat="47.2883" lon="-2.51816">
        <ele>-13.199999809265</ele>
        <time>2019-09-01T09:33:48.000Z</time>
      </trkpt>
      <trkpt lat="47.2882" lon="-2.51817">
        <ele>-13.199999809265</ele>
        <time>2019-09-01T09:33:51.000Z</time>
      </trkpt>
      <trkpt lat="47.28812" lon="-2.51816">
        <ele>-13.199999809265</ele>
        <time>2019-09-01T09:33:53.000Z</time>
      </trkpt>
      <trkpt lat="47.28803" lon="-2.51816">
        <ele>-13.199999809265</ele>
        <time>2019-09-01T09:33:55.000Z</time>
      </trkpt>
      <trkpt lat="47.28792" lon="-2.51817">
        <ele>-13.199999809265</ele>
        <time>2019-09-01T09:33:57.000Z</time>
      </trkpt>
      <trkpt lat="47.28787" lon="-2.51819">
        <ele>-13.199999809265</ele>
        <time>2019-09-01T09:33:58.000Z</time>
      </trkpt>
      <trkpt lat="47.28762" lon="-2.51828">
        <ele>-13.199999809265</ele>
        <time>2019-09-01T09:34:02.000Z</time>
      </trkpt>
      <trkpt lat="47.28724" lon="-2.51836">
        <ele>-13.199999809265</ele>
        <time>2019-09-01T09:34:07.000Z</time>
      </trkpt>
      <trkpt lat="47.28708" lon="-2.51834">
        <ele>-13.199999809265</ele>
        <time>2019-09-01T09:34:09.000Z</time>
      </trkpt>
      <trkpt lat="47.28694" lon="-2.5183">
        <ele>-13.199999809265</ele>
        <time>2019-09-01T09:34:11.000Z</time>
      </trkpt>
      <trkpt lat="47.28666" lon="-2.51812">
        <ele>-13.60000038147</ele>
        <time>2019-09-01T09:34:15.000Z</time>
      </trkpt>
      <trkpt lat="47.2866" lon="-2.51807">
        <ele>-14</ele>
        <time>2019-09-01T09:34:16.000Z</time>
      </trkpt>
      <trkpt lat="47.28652" lon="-2.51802">
        <ele>-14.39999961853</ele>
        <time>2019-09-01T09:34:17.000Z</time>
      </trkpt>
      <trkpt lat="47.28647" lon="-2.51797">
        <ele>-14.800000190735</ele>
        <time>2019-09-01T09:34:18.000Z</time>
      </trkpt>
      <trkpt lat="47.28642" lon="-2.51791">
        <ele>-15.199999809265</ele>
        <time>2019-09-01T09:34:19.000Z</time>
      </trkpt>
      <trkpt lat="47.28639" lon="-2.51784">
        <ele>-15.199999809265</ele>
        <time>2019-09-01T09:34:20.000Z</time>
      </trkpt>
      <trkpt lat="47.28637" lon="-2.51758">
        <ele>-15.199999809265</ele>
        <time>2019-09-01T09:34:24.000Z</time>
      </trkpt>
      <trkpt lat="47.28637" lon="-2.5175">
        <ele>-15.199999809265</ele>
        <time>2019-09-01T09:34:25.000Z</time>
      </trkpt>
      <trkpt lat="47.28636" lon="-2.51728">
        <ele>-15.199999809265</ele>
        <time>2019-09-01T09:34:28.000Z</time>
      </trkpt>
      <trkpt lat="47.28633" lon="-2.51709">
        <ele>-15.199999809265</ele>
        <time>2019-09-01T09:34:31.000Z</time>
      </trkpt>
      <trkpt lat="47.28635" lon="-2.51705">
        <ele>-15.199999809265</ele>
        <time>2019-09-01T09:34:32.000Z</time>
      </trkpt>
      <trkpt lat="47.28638" lon="-2.51701">
        <ele>-15.199999809265</ele>
        <time>2019-09-01T09:34:34.000Z</time>
      </trkpt>
      <trkpt lat="47.28654" lon="-2.51693">
        <ele>-15.199999809265</ele>
        <time>2019-09-01T09:34:38.000Z</time>
      </trkpt>
      <trkpt lat="47.28689" lon="-2.51673">
        <ele>-15.199999809265</ele>
        <time>2019-09-01T09:34:45.000Z</time>
      </trkpt>
      <trkpt lat="47.28693" lon="-2.5167">
        <ele>-15.199999809265</ele>
        <time>2019-09-01T09:34:46.000Z</time>
      </trkpt>
      <trkpt lat="47.28701" lon="-2.51659">
        <ele>-15.199999809265</ele>
        <time>2019-09-01T09:34:48.000Z</time>
      </trkpt>
      <trkpt lat="47.287" lon="-2.51637">
        <ele>-15.199999809265</ele>
        <time>2019-09-01T09:34:51.000Z</time>
      </trkpt>
      <trkpt lat="47.28697" lon="-2.51633">
        <ele>-15.199999809265</ele>
        <time>2019-09-01T09:34:52.000Z</time>
      </trkpt>
      <trkpt lat="47.28691" lon="-2.51628">
        <ele>-15.199999809265</ele>
        <time>2019-09-01T09:34:54.000Z</time>
      </trkpt>
      <trkpt lat="47.28685" lon="-2.51626">
        <ele>-15.199999809265</ele>
        <time>2019-09-01T09:34:56.000Z</time>
      </trkpt>
      <trkpt lat="47.28673" lon="-2.51625">
        <ele>-15.199999809265</ele>
        <time>2019-09-01T09:34:59.000Z</time>
      </trkpt>
      <trkpt lat="47.28667" lon="-2.51625">
        <ele>-15.199999809265</ele>
        <time>2019-09-01T09:35:00.000Z</time>
      </trkpt>
      <trkpt lat="47.28652" lon="-2.51625">
        <ele>-15.199999809265</ele>
        <time>2019-09-01T09:35:03.000Z</time>
      </trkpt>
      <trkpt lat="47.28646" lon="-2.51617">
        <ele>-15.199999809265</ele>
        <time>2019-09-01T09:35:05.000Z</time>
      </trkpt>
      <trkpt lat="47.28643" lon="-2.51606">
        <ele>-15.199999809265</ele>
        <time>2019-09-01T09:35:07.000Z</time>
      </trkpt>
      <trkpt lat="47.28643" lon="-2.51598">
        <ele>-15.199999809265</ele>
        <time>2019-09-01T09:35:08.000Z</time>
      </trkpt>
      <trkpt lat="47.2864" lon="-2.51578">
        <ele>-15.199999809265</ele>
        <time>2019-09-01T09:35:11.000Z</time>
      </trkpt>
      <trkpt lat="47.28639" lon="-2.5157">
        <ele>-15.199999809265</ele>
        <time>2019-09-01T09:35:12.000Z</time>
      </trkpt>
      <trkpt lat="47.2864" lon="-2.51545">
        <ele>-15.199999809265</ele>
        <time>2019-09-01T09:35:16.000Z</time>
      </trkpt>
      <trkpt lat="47.28641" lon="-2.51542">
        <ele>-15.60000038147</ele>
        <time>2019-09-01T09:35:17.000Z</time>
      </trkpt>
      <trkpt lat="47.28643" lon="-2.5154">
        <ele>-16.200000762939</ele>
        <time>2019-09-01T09:35:18.000Z</time>
      </trkpt>
      <trkpt lat="47.28645" lon="-2.51539">
        <ele>-16.60000038147</ele>
        <time>2019-09-01T09:35:19.000Z</time>
      </trkpt>
      <trkpt lat="47.28647" lon="-2.51539">
        <ele>-17</ele>
        <time>2019-09-01T09:35:20.000Z</time>
      </trkpt>
      <trkpt lat="47.2865" lon="-2.51539">
        <ele>-17.39999961853</ele>
        <time>2019-09-01T09:35:21.000Z</time>
      </trkpt>
      <trkpt lat="47.28666" lon="-2.51546">
        <ele>-17.39999961853</ele>
        <time>2019-09-01T09:35:25.000Z</time>
      </trkpt>
      <trkpt lat="47.28684" lon="-2.51545">
        <ele>-17.39999961853</ele>
        <time>2019-09-01T09:35:29.000Z</time>
      </trkpt>
      <trkpt lat="47.28691" lon="-2.51539">
        <ele>-17.39999961853</ele>
        <time>2019-09-01T09:35:31.000Z</time>
      </trkpt>
      <trkpt lat="47.28704" lon="-2.51519">
        <ele>-17.39999961853</ele>
        <time>2019-09-01T09:35:36.000Z</time>
      </trkpt>
      <trkpt lat="47.2871" lon="-2.51501">
        <ele>-17.39999961853</ele>
        <time>2019-09-01T09:35:40.000Z</time>
      </trkpt>
      <trkpt lat="47.28714" lon="-2.51499">
        <ele>-17.39999961853</ele>
        <time>2019-09-01T09:35:41.000Z</time>
      </trkpt>
      <trkpt lat="47.28734" lon="-2.51491">
        <ele>-17.39999961853</ele>
        <time>2019-09-01T09:35:46.000Z</time>
      </trkpt>
      <trkpt lat="47.28752" lon="-2.51483">
        <ele>-17</ele>
        <time>2019-09-01T09:35:50.000Z</time>
      </trkpt>
      <trkpt lat="47.28757" lon="-2.51481">
        <ele>-16.60000038147</ele>
        <time>2019-09-01T09:35:51.000Z</time>
      </trkpt>
      <trkpt lat="47.28762" lon="-2.51478">
        <ele>-16.200000762939</ele>
        <time>2019-09-01T09:35:52.000Z</time>
      </trkpt>
      <trkpt lat="47.28767" lon="-2.51474">
        <ele>-15.800000190735</ele>
        <time>2019-09-01T09:35:53.000Z</time>
      </trkpt>
      <trkpt lat="47.28773" lon="-2.5147">
        <ele>-15.39999961853</ele>
        <time>2019-09-01T09:35:54.000Z</time>
      </trkpt>
      <trkpt lat="47.28783" lon="-2.51461">
        <ele>-15.39999961853</ele>
        <time>2019-09-01T09:35:56.000Z</time>
      </trkpt>
      <trkpt lat="47.28797" lon="-2.51445">
        <ele>-15.39999961853</ele>
        <time>2019-09-01T09:35:59.000Z</time>
      </trkpt>
      <trkpt lat="47.28806" lon="-2.51437">
        <ele>-15.39999961853</ele>
        <time>2019-09-01T09:36:01.000Z</time>
      </trkpt>
      <trkpt lat="47.28811" lon="-2.51428">
        <ele>-15.39999961853</ele>
        <time>2019-09-01T09:36:04.000Z</time>
      </trkpt>
      <trkpt lat="47.28812" lon="-2.51426">
        <ele>-15.39999961853</ele>
        <time>2019-09-01T09:36:05.000Z</time>
      </trkpt>
      <trkpt lat="47.28811" lon="-2.51423">
        <ele>-15.39999961853</ele>
        <time>2019-09-01T09:36:06.000Z</time>
      </trkpt>
      <trkpt lat="47.28806" lon="-2.51422">
        <ele>-15.39999961853</ele>
        <time>2019-09-01T09:36:08.000Z</time>
      </trkpt>
      <trkpt lat="47.28795" lon="-2.51425">
        <ele>-15.39999961853</ele>
        <time>2019-09-01T09:36:11.000Z</time>
      </trkpt>
      <trkpt lat="47.28791" lon="-2.51425">
        <ele>-15.39999961853</ele>
        <time>2019-09-01T09:36:12.000Z</time>
      </trkpt>
      <trkpt lat="47.28755" lon="-2.51436">
        <ele>-15.39999961853</ele>
        <time>2019-09-01T09:36:19.000Z</time>
      </trkpt>
      <trkpt lat="47.28739" lon="-2.51438">
        <ele>-15.39999961853</ele>
        <time>2019-09-01T09:36:22.000Z</time>
      </trkpt>
      <trkpt lat="47.28732" lon="-2.51435">
        <ele>-15.39999961853</ele>
        <time>2019-09-01T09:36:24.000Z</time>
      </trkpt>
      <trkpt lat="47.2873" lon="-2.51427">
        <ele>-15.39999961853</ele>
        <time>2019-09-01T09:36:26.000Z</time>
      </trkpt>
      <trkpt lat="47.2873" lon="-2.51423">
        <ele>-15.39999961853</ele>
        <time>2019-09-01T09:36:27.000Z</time>
      </trkpt>
      <trkpt lat="47.28727" lon="-2.51407">
        <ele>-15.39999961853</ele>
        <time>2019-09-01T09:36:31.000Z</time>
      </trkpt>
      <trkpt lat="47.28726" lon="-2.51404">
        <ele>-15.39999961853</ele>
        <time>2019-09-01T09:36:32.000Z</time>
      </trkpt>
      <trkpt lat="47.28723" lon="-2.51379">
        <ele>-15.39999961853</ele>
        <time>2019-09-01T09:36:38.000Z</time>
      </trkpt>
      <trkpt lat="47.28715" lon="-2.51345">
        <ele>-15.39999961853</ele>
        <time>2019-09-01T09:36:46.000Z</time>
      </trkpt>
      <trkpt lat="47.2871" lon="-2.51314">
        <ele>-15.39999961853</ele>
        <time>2019-09-01T09:36:53.000Z</time>
      </trkpt>
      <trkpt lat="47.28707" lon="-2.51294">
        <ele>-15.39999961853</ele>
        <time>2019-09-01T09:36:58.000Z</time>
      </trkpt>
      <trkpt lat="47.28701" lon="-2.51267">
        <ele>-15.39999961853</ele>
        <time>2019-09-01T09:37:04.000Z</time>
      </trkpt>
      <trkpt lat="47.28695" lon="-2.51236">
        <ele>-15.39999961853</ele>
        <time>2019-09-01T09:37:10.000Z</time>
      </trkpt>
      <trkpt lat="47.28686" lon="-2.51203">
        <ele>-15.39999961853</ele>
        <time>2019-09-01T09:37:17.000Z</time>
      </trkpt>
      <trkpt lat="47.28684" lon="-2.51194">
        <ele>-15.800000190735</ele>
        <time>2019-09-01T09:37:19.000Z</time>
      </trkpt>
      <trkpt lat="47.28683" lon="-2.5119">
        <ele>-16.200000762939</ele>
        <time>2019-09-01T09:37:20.000Z</time>
      </trkpt>
      <trkpt lat="47.28682" lon="-2.51185">
        <ele>-16.60000038147</ele>
        <time>2019-09-01T09:37:21.000Z</time>
      </trkpt>
      <trkpt lat="47.28681" lon="-2.5118">
        <ele>-17</ele>
        <time>2019-09-01T09:37:22.000Z</time>
      </trkpt>
      <trkpt lat="47.28681" lon="-2.51176">
        <ele>-17.39999961853</ele>
        <time>2019-09-01T09:37:23.000Z</time>
      </trkpt>
      <trkpt lat="47.28676" lon="-2.5115">
        <ele>-17.39999961853</ele>
        <time>2019-09-01T09:37:29.000Z</time>
      </trkpt>
      <trkpt lat="47.28669" lon="-2.51124">
        <ele>-17.39999961853</ele>
        <time>2019-09-01T09:37:35.000Z</time>
      </trkpt>
      <trkpt lat="47.28664" lon="-2.51108">
        <ele>-17.39999961853</ele>
        <time>2019-09-01T09:37:39.000Z</time>
      </trkpt>
      <trkpt lat="47.28662" lon="-2.51105">
        <ele>-17.39999961853</ele>
        <time>2019-09-01T09:37:40.000Z</time>
      </trkpt>
      <trkpt lat="47.28653" lon="-2.51106">
        <ele>-17.39999961853</ele>
        <time>2019-09-01T09:37:43.000Z</time>
      </trkpt>
      <trkpt lat="47.28648" lon="-2.51109">
        <ele>-17.39999961853</ele>
        <time>2019-09-01T09:37:45.000Z</time>
      </trkpt>
      <trkpt lat="47.28636" lon="-2.5112">
        <ele>-17.39999961853</ele>
        <time>2019-09-01T09:37:50.000Z</time>
      </trkpt>
      <trkpt lat="47.28619" lon="-2.51134">
        <ele>-17.39999961853</ele>
        <time>2019-09-01T09:37:57.000Z</time>
      </trkpt>
      <trkpt lat="47.28602" lon="-2.51151">
        <ele>-17.39999961853</ele>
        <time>2019-09-01T09:38:03.000Z</time>
      </trkpt>
      <trkpt lat="47.28575" lon="-2.51176">
        <ele>-17.39999961853</ele>
        <time>2019-09-01T09:38:12.000Z</time>
      </trkpt>
      <trkpt lat="47.28555" lon="-2.51197">
        <ele>-17.39999961853</ele>
        <time>2019-09-01T09:38:19.000Z</time>
      </trkpt>
      <trkpt lat="47.2853" lon="-2.51217">
        <ele>-17.39999961853</ele>
        <time>2019-09-01T09:38:24.000Z</time>
      </trkpt>
      <trkpt lat="47.28494" lon="-2.51254">
        <ele>-17.39999961853</ele>
        <time>2019-09-01T09:38:31.000Z</time>
      </trkpt>
      <trkpt lat="47.28464" lon="-2.51282">
        <ele>-17.39999961853</ele>
        <time>2019-09-01T09:38:37.000Z</time>
      </trkpt>
      <trkpt lat="47.28439" lon="-2.51309">
        <ele>-17.39999961853</ele>
        <time>2019-09-01T09:38:43.000Z</time>
      </trkpt>
      <trkpt lat="47.28435" lon="-2.51311">
        <ele>-17.39999961853</ele>
        <time>2019-09-01T09:38:44.000Z</time>
      </trkpt>
      <trkpt lat="47.28424" lon="-2.51302">
        <ele>-17.39999961853</ele>
        <time>2019-09-01T09:38:47.000Z</time>
      </trkpt>
      <trkpt lat="47.28421" lon="-2.51296">
        <ele>-17.39999961853</ele>
        <time>2019-09-01T09:38:48.000Z</time>
      </trkpt>
      <trkpt lat="47.28409" lon="-2.51277">
        <ele>-17.39999961853</ele>
        <time>2019-09-01T09:38:51.000Z</time>
      </trkpt>
      <trkpt lat="47.28387" lon="-2.51259">
        <ele>-17.39999961853</ele>
        <time>2019-09-01T09:38:55.000Z</time>
      </trkpt>
      <trkpt lat="47.28381" lon="-2.51255">
        <ele>-17.39999961853</ele>
        <time>2019-09-01T09:38:56.000Z</time>
      </trkpt>
      <trkpt lat="47.28333" lon="-2.5122">
        <ele>-17.39999961853</ele>
        <time>2019-09-01T09:39:04.000Z</time>
      </trkpt>
      <trkpt lat="47.28315" lon="-2.51207">
        <ele>-17.39999961853</ele>
        <time>2019-09-01T09:39:07.000Z</time>
      </trkpt>
      <trkpt lat="47.28305" lon="-2.51195">
        <ele>-17.39999961853</ele>
        <time>2019-09-01T09:39:09.000Z</time>
      </trkpt>
      <trkpt lat="47.28301" lon="-2.51187">
        <ele>-17.39999961853</ele>
        <time>2019-09-01T09:39:10.000Z</time>
      </trkpt>
      <trkpt lat="47.28291" lon="-2.51163">
        <ele>-17.39999961853</ele>
        <time>2019-09-01T09:39:13.000Z</time>
      </trkpt>
      <trkpt lat="47.28273" lon="-2.51105">
        <ele>-17.39999961853</ele>
        <time>2019-09-01T09:39:20.000Z</time>
      </trkpt>
      <trkpt lat="47.28252" lon="-2.51046">
        <ele>-17.39999961853</ele>
        <time>2019-09-01T09:39:27.000Z</time>
      </trkpt>
      <trkpt lat="47.28241" lon="-2.50987">
        <ele>-17.39999961853</ele>
        <time>2019-09-01T09:39:33.000Z</time>
      </trkpt>
      <trkpt lat="47.28228" lon="-2.50899">
        <ele>-17.39999961853</ele>
        <time>2019-09-01T09:39:41.000Z</time>
      </trkpt>
      <trkpt lat="47.28215" lon="-2.50838">
        <ele>-17.39999961853</ele>
        <time>2019-09-01T09:39:47.000Z</time>
      </trkpt>
      <trkpt lat="47.28213" lon="-2.50829">
        <ele>-17.39999961853</ele>
        <time>2019-09-01T09:39:48.000Z</time>
      </trkpt>
      <trkpt lat="47.28208" lon="-2.50801">
        <ele>-17.39999961853</ele>
        <time>2019-09-01T09:39:51.000Z</time>
      </trkpt>
      <trkpt lat="47.28205" lon="-2.50773">
        <ele>-17.39999961853</ele>
        <time>2019-09-01T09:39:54.000Z</time>
      </trkpt>
      <trkpt lat="47.28201" lon="-2.50722">
        <ele>-17.39999961853</ele>
        <time>2019-09-01T09:40:00.000Z</time>
      </trkpt>
      <trkpt lat="47.28207" lon="-2.50698">
        <ele>-17.39999961853</ele>
        <time>2019-09-01T09:40:03.000Z</time>
      </trkpt>
      <trkpt lat="47.28209" lon="-2.50689">
        <ele>-17.39999961853</ele>
        <time>2019-09-01T09:40:04.000Z</time>
      </trkpt>
      <trkpt lat="47.2822" lon="-2.50632">
        <ele>-17.39999961853</ele>
        <time>2019-09-01T09:40:10.000Z</time>
      </trkpt>
      <trkpt lat="47.28225" lon="-2.50613">
        <ele>-17.39999961853</ele>
        <time>2019-09-01T09:40:12.000Z</time>
      </trkpt>
      <trkpt lat="47.28233" lon="-2.50586">
        <ele>-17.39999961853</ele>
        <time>2019-09-01T09:40:15.000Z</time>
      </trkpt>
      <trkpt lat="47.28249" lon="-2.50529">
        <ele>-17.39999961853</ele>
        <time>2019-09-01T09:40:21.000Z</time>
      </trkpt>
      <trkpt lat="47.28267" lon="-2.50467">
        <ele>-17.799999237061</ele>
        <time>2019-09-01T09:40:27.000Z</time>
      </trkpt>
      <trkpt lat="47.28269" lon="-2.50458">
        <ele>-18.39999961853</ele>
        <time>2019-09-01T09:40:28.000Z</time>
      </trkpt>
      <trkpt lat="47.28272" lon="-2.50448">
        <ele>-18.799999237061</ele>
        <time>2019-09-01T09:40:29.000Z</time>
      </trkpt>
      <trkpt lat="47.28274" lon="-2.50439">
        <ele>-19.200000762939</ele>
        <time>2019-09-01T09:40:30.000Z</time>
      </trkpt>
      <trkpt lat="47.28277" lon="-2.50429">
        <ele>-19.60000038147</ele>
        <time>2019-09-01T09:40:31.000Z</time>
      </trkpt>
      <trkpt lat="47.28283" lon="-2.504">
        <ele>-19.60000038147</ele>
        <time>2019-09-01T09:40:34.000Z</time>
      </trkpt>
      <trkpt lat="47.28284" lon="-2.5039">
        <ele>-19.60000038147</ele>
        <time>2019-09-01T09:40:35.000Z</time>
      </trkpt>
      <trkpt lat="47.28287" lon="-2.50339">
        <ele>-19.60000038147</ele>
        <time>2019-09-01T09:40:40.000Z</time>
      </trkpt>
      <trkpt lat="47.28288" lon="-2.50318">
        <ele>-19.60000038147</ele>
        <time>2019-09-01T09:40:42.000Z</time>
      </trkpt>
      <trkpt lat="47.28288" lon="-2.50298">
        <ele>-19.60000038147</ele>
        <time>2019-09-01T09:40:44.000Z</time>
      </trkpt>
      <trkpt lat="47.28281" lon="-2.50279">
        <ele>-19.60000038147</ele>
        <time>2019-09-01T09:40:46.000Z</time>
      </trkpt>
      <trkpt lat="47.2827" lon="-2.50265">
        <ele>-19.60000038147</ele>
        <time>2019-09-01T09:40:48.000Z</time>
      </trkpt>
      <trkpt lat="47.28258" lon="-2.50253">
        <ele>-19.60000038147</ele>
        <time>2019-09-01T09:40:50.000Z</time>
      </trkpt>
      <trkpt lat="47.28246" lon="-2.5024">
        <ele>-19.60000038147</ele>
        <time>2019-09-01T09:40:52.000Z</time>
      </trkpt>
      <trkpt lat="47.28236" lon="-2.50225">
        <ele>-19.60000038147</ele>
        <time>2019-09-01T09:40:54.000Z</time>
      </trkpt>
      <trkpt lat="47.2821" lon="-2.50171">
        <ele>-19.60000038147</ele>
        <time>2019-09-01T09:41:00.000Z</time>
      </trkpt>
      <trkpt lat="47.28198" lon="-2.50126">
        <ele>-19.60000038147</ele>
        <time>2019-09-01T09:41:05.000Z</time>
      </trkpt>
      <trkpt lat="47.28187" lon="-2.50081">
        <ele>-19.60000038147</ele>
        <time>2019-09-01T09:41:10.000Z</time>
      </trkpt>
      <trkpt lat="47.28178" lon="-2.50034">
        <ele>-19.60000038147</ele>
        <time>2019-09-01T09:41:15.000Z</time>
      </trkpt>
      <trkpt lat="47.28176" lon="-2.50024">
        <ele>-19.60000038147</ele>
        <time>2019-09-01T09:41:16.000Z</time>
      </trkpt>
      <trkpt lat="47.28172" lon="-2.50005">
        <ele>-19.60000038147</ele>
        <time>2019-09-01T09:41:18.000Z</time>
      </trkpt>
      <trkpt lat="47.28171" lon="-2.49996">
        <ele>-19.60000038147</ele>
        <time>2019-09-01T09:41:19.000Z</time>
      </trkpt>
      <trkpt lat="47.28165" lon="-2.49955">
        <ele>-19.60000038147</ele>
        <time>2019-09-01T09:41:23.000Z</time>
      </trkpt>
      <trkpt lat="47.28162" lon="-2.49945">
        <ele>-19.60000038147</ele>
        <time>2019-09-01T09:41:24.000Z</time>
      </trkpt>
      <trkpt lat="47.2816" lon="-2.49934">
        <ele>-19.60000038147</ele>
        <time>2019-09-01T09:41:25.000Z</time>
      </trkpt>
      <trkpt lat="47.28156" lon="-2.49901">
        <ele>-19.60000038147</ele>
        <time>2019-09-01T09:41:28.000Z</time>
      </trkpt>
      <trkpt lat="47.28148" lon="-2.49839">
        <ele>-19.60000038147</ele>
        <time>2019-09-01T09:41:34.000Z</time>
      </trkpt>
      <trkpt lat="47.28141" lon="-2.49776">
        <ele>-19.60000038147</ele>
        <time>2019-09-01T09:41:40.000Z</time>
      </trkpt>
      <trkpt lat="47.28133" lon="-2.49708">
        <ele>-19.60000038147</ele>
        <time>2019-09-01T09:41:47.000Z</time>
      </trkpt>
      <trkpt lat="47.28123" lon="-2.49659">
        <ele>-19.60000038147</ele>
        <time>2019-09-01T09:41:53.000Z</time>
      </trkpt>
      <trkpt lat="47.28121" lon="-2.49652">
        <ele>-19.60000038147</ele>
        <time>2019-09-01T09:41:54.000Z</time>
      </trkpt>
      <trkpt lat="47.28112" lon="-2.49635">
        <ele>-19.60000038147</ele>
        <time>2019-09-01T09:41:57.000Z</time>
      </trkpt>
      <trkpt lat="47.28108" lon="-2.4963">
        <ele>-19.60000038147</ele>
        <time>2019-09-01T09:41:58.000Z</time>
      </trkpt>
      <trkpt lat="47.28105" lon="-2.49626">
        <ele>-19.60000038147</ele>
        <time>2019-09-01T09:41:59.000Z</time>
      </trkpt>
      <trkpt lat="47.28095" lon="-2.4961">
        <ele>-19.60000038147</ele>
        <time>2019-09-01T09:42:02.000Z</time>
      </trkpt>
      <trkpt lat="47.28077" lon="-2.49584">
        <ele>-19.60000038147</ele>
        <time>2019-09-01T09:42:06.000Z</time>
      </trkpt>
      <trkpt lat="47.28045" lon="-2.49539">
        <ele>-19.60000038147</ele>
        <time>2019-09-01T09:42:13.000Z</time>
      </trkpt>
      <trkpt lat="47.28035" lon="-2.49524">
        <ele>-19.60000038147</ele>
        <time>2019-09-01T09:42:16.000Z</time>
      </trkpt>
      <trkpt lat="47.28032" lon="-2.49518">
        <ele>-19.60000038147</ele>
        <time>2019-09-01T09:42:17.000Z</time>
      </trkpt>
      <trkpt lat="47.28026" lon="-2.49506">
        <ele>-19.60000038147</ele>
        <time>2019-09-01T09:42:21.000Z</time>
      </trkpt>
      <trkpt lat="47.28022" lon="-2.49499">
        <ele>-19.60000038147</ele>
        <time>2019-09-01T09:42:24.000Z</time>
      </trkpt>
      <trkpt lat="47.28022" lon="-2.49497">
        <ele>-19.60000038147</ele>
        <time>2019-09-01T09:42:26.000Z</time>
      </trkpt>
      <trkpt lat="47.28027" lon="-2.49489">
        <ele>-19.60000038147</ele>
        <time>2019-09-01T09:42:47.000Z</time>
      </trkpt>
      <trkpt lat="47.28027" lon="-2.49482">
        <ele>-19.60000038147</ele>
        <time>2019-09-01T09:42:50.000Z</time>
      </trkpt>
      <trkpt lat="47.28024" lon="-2.4946">
        <ele>-19.60000038147</ele>
        <time>2019-09-01T09:42:55.000Z</time>
      </trkpt>
      <trkpt lat="47.28016" lon="-2.49432">
        <ele>-19.60000038147</ele>
        <time>2019-09-01T09:43:01.000Z</time>
      </trkpt>
      <trkpt lat="47.28013" lon="-2.4942">
        <ele>-19.200000762939</ele>
        <time>2019-09-01T09:43:03.000Z</time>
      </trkpt>
      <trkpt lat="47.28012" lon="-2.49413">
        <ele>-18.799999237061</ele>
        <time>2019-09-01T09:43:04.000Z</time>
      </trkpt>
      <trkpt lat="47.28012" lon="-2.49406">
        <ele>-18.39999961853</ele>
        <time>2019-09-01T09:43:05.000Z</time>
      </trkpt>
      <trkpt lat="47.28012" lon="-2.49398">
        <ele>-18</ele>
        <time>2019-09-01T09:43:06.000Z</time>
      </trkpt>
      <trkpt lat="47.28012" lon="-2.4939">
        <ele>-17.60000038147</ele>
        <time>2019-09-01T09:43:07.000Z</time>
      </trkpt>
      <trkpt lat="47.28006" lon="-2.49355">
        <ele>-17.60000038147</ele>
        <time>2019-09-01T09:43:11.000Z</time>
      </trkpt>
      <trkpt lat="47.28003" lon="-2.49347">
        <ele>-17.60000038147</ele>
        <time>2019-09-01T09:43:12.000Z</time>
      </trkpt>
      <trkpt lat="47.27991" lon="-2.49299">
        <ele>-18</ele>
        <time>2019-09-01T09:43:18.000Z</time>
      </trkpt>
      <trkpt lat="47.27989" lon="-2.49291">
        <ele>-18.39999961853</ele>
        <time>2019-09-01T09:43:19.000Z</time>
      </trkpt>
      <trkpt lat="47.27987" lon="-2.49284">
        <ele>-18.799999237061</ele>
        <time>2019-09-01T09:43:20.000Z</time>
      </trkpt>
      <trkpt lat="47.27983" lon="-2.49278">
        <ele>-19.200000762939</ele>
        <time>2019-09-01T09:43:21.000Z</time>
      </trkpt>
      <trkpt lat="47.27979" lon="-2.49274">
        <ele>-19.60000038147</ele>
        <time>2019-09-01T09:43:22.000Z</time>
      </trkpt>
      <trkpt lat="47.27969" lon="-2.4927">
        <ele>-19.60000038147</ele>
        <time>2019-09-01T09:43:24.000Z</time>
      </trkpt>
      <trkpt lat="47.27949" lon="-2.49259">
        <ele>-19.60000038147</ele>
        <time>2019-09-01T09:43:28.000Z</time>
      </trkpt>
      <trkpt lat="47.27924" lon="-2.49249">
        <ele>-19.60000038147</ele>
        <time>2019-09-01T09:43:33.000Z</time>
      </trkpt>
      <trkpt lat="47.27904" lon="-2.4924">
        <ele>-19.60000038147</ele>
        <time>2019-09-01T09:43:37.000Z</time>
      </trkpt>
      <trkpt lat="47.27895" lon="-2.49238">
        <ele>-19.60000038147</ele>
        <time>2019-09-01T09:43:39.000Z</time>
      </trkpt>
      <trkpt lat="47.27872" lon="-2.49234">
        <ele>-19.60000038147</ele>
        <time>2019-09-01T09:43:45.000Z</time>
      </trkpt>
      <trkpt lat="47.27867" lon="-2.49235">
        <ele>-19.60000038147</ele>
        <time>2019-09-01T09:43:47.000Z</time>
      </trkpt>
      <trkpt lat="47.27866" lon="-2.49237">
        <ele>-19.60000038147</ele>
        <time>2019-09-01T09:43:49.000Z</time>
      </trkpt>
      <trkpt lat="47.27864" lon="-2.49238">
        <ele>-19.60000038147</ele>
        <time>2019-09-01T09:43:53.000Z</time>
      </trkpt>
      <trkpt lat="47.27861" lon="-2.49242">
        <ele>-19.60000038147</ele>
        <time>2019-09-01T09:44:07.000Z</time>
      </trkpt>
      <trkpt lat="47.27859" lon="-2.49242">
        <ele>-19.200000762939</ele>
        <time>2019-09-01T09:44:08.000Z</time>
      </trkpt>
      <trkpt lat="47.27858" lon="-2.49243">
        <ele>-18.799999237061</ele>
        <time>2019-09-01T09:44:09.000Z</time>
      </trkpt>
      <trkpt lat="47.27857" lon="-2.49243">
        <ele>-18.39999961853</ele>
        <time>2019-09-01T09:44:10.000Z</time>
      </trkpt>
      <trkpt lat="47.27856" lon="-2.49244">
        <ele>-18</ele>
        <time>2019-09-01T09:44:11.000Z</time>
      </trkpt>
      <trkpt lat="47.27854" lon="-2.49244">
        <ele>-17.60000038147</ele>
        <time>2019-09-01T09:44:12.000Z</time>
      </trkpt>
      <trkpt lat="47.27852" lon="-2.49244">
        <ele>-17.60000038147</ele>
        <time>2019-09-01T09:44:15.000Z</time>
      </trkpt>
      <trkpt lat="47.27846" lon="-2.49247">
        <ele>-17.60000038147</ele>
        <time>2019-09-01T09:44:21.000Z</time>
      </trkpt>
      <trkpt lat="47.27844" lon="-2.4925">
        <ele>-17.60000038147</ele>
        <time>2019-09-01T09:46:26.000Z</time>
      </trkpt>
      <trkpt lat="47.27839" lon="-2.49256">
        <ele>-17.60000038147</ele>
        <time>2019-09-01T09:46:29.000Z</time>
      </trkpt>
      <trkpt lat="47.27835" lon="-2.49261">
        <ele>-17.60000038147</ele>
        <time>2019-09-01T09:46:33.000Z</time>
      </trkpt>
      <trkpt lat="47.27833" lon="-2.49263">
        <ele>-17.60000038147</ele>
        <time>2019-09-01T09:46:35.000Z</time>
      </trkpt>
      <trkpt lat="47.27826" lon="-2.49264">
        <ele>-17.60000038147</ele>
        <time>2019-09-01T09:46:38.000Z</time>
      </trkpt>
      <trkpt lat="47.27821" lon="-2.49264">
        <ele>-17.60000038147</ele>
        <time>2019-09-01T09:46:39.000Z</time>
      </trkpt>
      <trkpt lat="47.27805" lon="-2.49262">
        <ele>-17.60000038147</ele>
        <time>2019-09-01T09:46:42.000Z</time>
      </trkpt>
      <trkpt lat="47.27773" lon="-2.49258">
        <ele>-17.60000038147</ele>
        <time>2019-09-01T09:46:47.000Z</time>
      </trkpt>
      <trkpt lat="47.27729" lon="-2.49256">
        <ele>-17.60000038147</ele>
        <time>2019-09-01T09:46:54.000Z</time>
      </trkpt>
      <trkpt lat="47.27708" lon="-2.49256">
        <ele>-17.60000038147</ele>
        <time>2019-09-01T09:46:57.000Z</time>
      </trkpt>
      <trkpt lat="47.27694" lon="-2.49254">
        <ele>-17.60000038147</ele>
        <time>2019-09-01T09:46:59.000Z</time>
      </trkpt>
      <trkpt lat="47.27658" lon="-2.49242">
        <ele>-17.60000038147</ele>
        <time>2019-09-01T09:47:04.000Z</time>
      </trkpt>
      <trkpt lat="47.27637" lon="-2.49238">
        <ele>-17.60000038147</ele>
        <time>2019-09-01T09:47:07.000Z</time>
      </trkpt>
      <trkpt lat="47.27632" lon="-2.49231">
        <ele>-17.60000038147</ele>
        <time>2019-09-01T09:47:08.000Z</time>
      </trkpt>
      <trkpt lat="47.27614" lon="-2.49197">
        <ele>-17.60000038147</ele>
        <time>2019-09-01T09:47:12.000Z</time>
      </trkpt>
      <trkpt lat="47.27594" lon="-2.49152">
        <ele>-17.60000038147</ele>
        <time>2019-09-01T09:47:17.000Z</time>
      </trkpt>
      <trkpt lat="47.27589" lon="-2.49125">
        <ele>-17.60000038147</ele>
        <time>2019-09-01T09:47:20.000Z</time>
      </trkpt>
      <trkpt lat="47.27588" lon="-2.49109">
        <ele>-17.60000038147</ele>
        <time>2019-09-01T09:47:22.000Z</time>
      </trkpt>
      <trkpt lat="47.27585" lon="-2.49101">
        <ele>-17.60000038147</ele>
        <time>2019-09-01T09:47:24.000Z</time>
      </trkpt>
      <trkpt lat="47.27583" lon="-2.49101">
        <ele>-17.60000038147</ele>
        <time>2019-09-01T09:47:25.000Z</time>
      </trkpt>
      <trkpt lat="47.27571" lon="-2.49101">
        <ele>-17.60000038147</ele>
        <time>2019-09-01T09:47:28.000Z</time>
      </trkpt>
      <trkpt lat="47.2756" lon="-2.49101">
        <ele>-17.60000038147</ele>
        <time>2019-09-01T09:47:32.000Z</time>
      </trkpt>
      <trkpt lat="47.27553" lon="-2.491">
        <ele>-18</ele>
        <time>2019-09-01T09:47:36.000Z</time>
      </trkpt>
      <trkpt lat="47.27552" lon="-2.491">
        <ele>-18.39999961853</ele>
        <time>2019-09-01T09:47:37.000Z</time>
      </trkpt>
      <trkpt lat="47.2755" lon="-2.49099">
        <ele>-18.799999237061</ele>
        <time>2019-09-01T09:47:38.000Z</time>
      </trkpt>
      <trkpt lat="47.27548" lon="-2.49097">
        <ele>-19.39999961853</ele>
        <time>2019-09-01T09:47:39.000Z</time>
      </trkpt>
      <trkpt lat="47.27547" lon="-2.49092">
        <ele>-19.799999237061</ele>
        <time>2019-09-01T09:47:40.000Z</time>
      </trkpt>
      <trkpt lat="47.27545" lon="-2.49081">
        <ele>-19.799999237061</ele>
        <time>2019-09-01T09:47:42.000Z</time>
      </trkpt>
      <trkpt lat="47.27541" lon="-2.4906">
        <ele>-19.799999237061</ele>
        <time>2019-09-01T09:47:46.000Z</time>
      </trkpt>
      <trkpt lat="47.2754" lon="-2.49049">
        <ele>-19.39999961853</ele>
        <time>2019-09-01T09:47:48.000Z</time>
      </trkpt>
      <trkpt lat="47.2754" lon="-2.49043">
        <ele>-19</ele>
        <time>2019-09-01T09:47:49.000Z</time>
      </trkpt>
      <trkpt lat="47.27539" lon="-2.49037">
        <ele>-18.39999961853</ele>
        <time>2019-09-01T09:47:50.000Z</time>
      </trkpt>
      <trkpt lat="47.27538" lon="-2.4903">
        <ele>-18</ele>
        <time>2019-09-01T09:47:51.000Z</time>
      </trkpt>
      <trkpt lat="47.27536" lon="-2.49024">
        <ele>-17.60000038147</ele>
        <time>2019-09-01T09:47:52.000Z</time>
      </trkpt>
      <trkpt lat="47.27535" lon="-2.49018">
        <ele>-17.60000038147</ele>
        <time>2019-09-01T09:47:53.000Z</time>
      </trkpt>
      <trkpt lat="47.27531" lon="-2.48993">
        <ele>-17.60000038147</ele>
        <time>2019-09-01T09:47:57.000Z</time>
      </trkpt>
      <trkpt lat="47.27531" lon="-2.48986">
        <ele>-17.60000038147</ele>
        <time>2019-09-01T09:47:58.000Z</time>
      </trkpt>
      <trkpt lat="47.27529" lon="-2.4896">
        <ele>-17.60000038147</ele>
        <time>2019-09-01T09:48:03.000Z</time>
      </trkpt>
      <trkpt lat="47.27527" lon="-2.48936">
        <ele>-17.60000038147</ele>
        <time>2019-09-01T09:48:08.000Z</time>
      </trkpt>
      <trkpt lat="47.27526" lon="-2.48931">
        <ele>-17.60000038147</ele>
        <time>2019-09-01T09:48:09.000Z</time>
      </trkpt>
      <trkpt lat="47.27519" lon="-2.48916">
        <ele>-17.60000038147</ele>
        <time>2019-09-01T09:48:12.000Z</time>
      </trkpt>
      <trkpt lat="47.27519" lon="-2.48893">
        <ele>-17.60000038147</ele>
        <time>2019-09-01T09:48:16.000Z</time>
      </trkpt>
      <trkpt lat="47.2752" lon="-2.48886">
        <ele>-17.60000038147</ele>
        <time>2019-09-01T09:48:17.000Z</time>
      </trkpt>
      <trkpt lat="47.27522" lon="-2.48871">
        <ele>-17.60000038147</ele>
        <time>2019-09-01T09:48:19.000Z</time>
      </trkpt>
      <trkpt lat="47.27524" lon="-2.48863">
        <ele>-17.60000038147</ele>
        <time>2019-09-01T09:48:20.000Z</time>
      </trkpt>
      <trkpt lat="47.27538" lon="-2.48808">
        <ele>-17.60000038147</ele>
        <time>2019-09-01T09:48:27.000Z</time>
      </trkpt>
      <trkpt lat="47.27542" lon="-2.48776">
        <ele>-17.60000038147</ele>
        <time>2019-09-01T09:48:31.000Z</time>
      </trkpt>
      <trkpt lat="47.27542" lon="-2.48768">
        <ele>-17.60000038147</ele>
        <time>2019-09-01T09:48:32.000Z</time>
      </trkpt>
      <trkpt lat="47.27539" lon="-2.48748">
        <ele>-17.60000038147</ele>
        <time>2019-09-01T09:48:35.000Z</time>
      </trkpt>
      <trkpt lat="47.27537" lon="-2.48731">
        <ele>-17.60000038147</ele>
        <time>2019-09-01T09:48:38.000Z</time>
      </trkpt>
      <trkpt lat="47.27531" lon="-2.48709">
        <ele>-17.60000038147</ele>
        <time>2019-09-01T09:48:42.000Z</time>
      </trkpt>
      <trkpt lat="47.27523" lon="-2.48688">
        <ele>-17.60000038147</ele>
        <time>2019-09-01T09:48:47.000Z</time>
      </trkpt>
      <trkpt lat="47.27521" lon="-2.48676">
        <ele>-17.60000038147</ele>
        <time>2019-09-01T09:48:49.000Z</time>
      </trkpt>
      <trkpt lat="47.27521" lon="-2.48669">
        <ele>-17.60000038147</ele>
        <time>2019-09-01T09:48:50.000Z</time>
      </trkpt>
      <trkpt lat="47.27519" lon="-2.48661">
        <ele>-17.60000038147</ele>
        <time>2019-09-01T09:48:51.000Z</time>
      </trkpt>
      <trkpt lat="47.27517" lon="-2.48647">
        <ele>-17.60000038147</ele>
        <time>2019-09-01T09:48:53.000Z</time>
      </trkpt>
      <trkpt lat="47.27512" lon="-2.48633">
        <ele>-17.60000038147</ele>
        <time>2019-09-01T09:48:55.000Z</time>
      </trkpt>
      <trkpt lat="47.27505" lon="-2.48614">
        <ele>-17.60000038147</ele>
        <time>2019-09-01T09:48:58.000Z</time>
      </trkpt>
      <trkpt lat="47.27498" lon="-2.48603">
        <ele>-17.60000038147</ele>
        <time>2019-09-01T09:49:00.000Z</time>
      </trkpt>
      <trkpt lat="47.27495" lon="-2.48598">
        <ele>-17.60000038147</ele>
        <time>2019-09-01T09:49:01.000Z</time>
      </trkpt>
      <trkpt lat="47.27482" lon="-2.48576">
        <ele>-17.60000038147</ele>
        <time>2019-09-01T09:49:05.000Z</time>
      </trkpt>
      <trkpt lat="47.27475" lon="-2.48565">
        <ele>-17.60000038147</ele>
        <time>2019-09-01T09:49:07.000Z</time>
      </trkpt>
      <trkpt lat="47.2747" lon="-2.48545">
        <ele>-17.60000038147</ele>
        <time>2019-09-01T09:49:10.000Z</time>
      </trkpt>
      <trkpt lat="47.27471" lon="-2.48514">
        <ele>-17.60000038147</ele>
        <time>2019-09-01T09:49:14.000Z</time>
      </trkpt>
      <trkpt lat="47.2747" lon="-2.48506">
        <ele>-17.60000038147</ele>
        <time>2019-09-01T09:49:15.000Z</time>
      </trkpt>
      <trkpt lat="47.27466" lon="-2.48475">
        <ele>-17.60000038147</ele>
        <time>2019-09-01T09:49:19.000Z</time>
      </trkpt>
      <trkpt lat="47.27465" lon="-2.48467">
        <ele>-17.60000038147</ele>
        <time>2019-09-01T09:49:20.000Z</time>
      </trkpt>
      <trkpt lat="47.27456" lon="-2.48413">
        <ele>-17.60000038147</ele>
        <time>2019-09-01T09:49:27.000Z</time>
      </trkpt>
      <trkpt lat="47.27441" lon="-2.48364">
        <ele>-17.60000038147</ele>
        <time>2019-09-01T09:49:34.000Z</time>
      </trkpt>
      <trkpt lat="47.27436" lon="-2.48352">
        <ele>-17.60000038147</ele>
        <time>2019-09-01T09:49:36.000Z</time>
      </trkpt>
      <trkpt lat="47.27431" lon="-2.4833">
        <ele>-17.60000038147</ele>
        <time>2019-09-01T09:49:39.000Z</time>
      </trkpt>
      <trkpt lat="47.2743" lon="-2.48322">
        <ele>-17.60000038147</ele>
        <time>2019-09-01T09:49:40.000Z</time>
      </trkpt>
      <trkpt lat="47.27423" lon="-2.48273">
        <ele>-17.60000038147</ele>
        <time>2019-09-01T09:49:46.000Z</time>
      </trkpt>
      <trkpt lat="47.27421" lon="-2.48265">
        <ele>-17.60000038147</ele>
        <time>2019-09-01T09:49:47.000Z</time>
      </trkpt>
      <trkpt lat="47.27413" lon="-2.48215">
        <ele>-17.60000038147</ele>
        <time>2019-09-01T09:49:53.000Z</time>
      </trkpt>
      <trkpt lat="47.27408" lon="-2.48177">
        <ele>-17.200000762939</ele>
        <time>2019-09-01T09:49:58.000Z</time>
      </trkpt>
      <trkpt lat="47.27407" lon="-2.4817">
        <ele>-16.39999961853</ele>
        <time>2019-09-01T09:49:59.000Z</time>
      </trkpt>
      <trkpt lat="47.27407" lon="-2.48162">
        <ele>-16</ele>
        <time>2019-09-01T09:50:00.000Z</time>
      </trkpt>
      <trkpt lat="47.27407" lon="-2.48155">
        <ele>-15.60000038147</ele>
        <time>2019-09-01T09:50:01.000Z</time>
      </trkpt>
      <trkpt lat="47.27407" lon="-2.48147">
        <ele>-15.60000038147</ele>
        <time>2019-09-01T09:50:02.000Z</time>
      </trkpt>
      <trkpt lat="47.27414" lon="-2.4813">
        <ele>-15.60000038147</ele>
        <time>2019-09-01T09:50:05.000Z</time>
      </trkpt>
      <trkpt lat="47.27429" lon="-2.48128">
        <ele>-15.60000038147</ele>
        <time>2019-09-01T09:50:08.000Z</time>
      </trkpt>
      <trkpt lat="47.27452" lon="-2.48127">
        <ele>-15.60000038147</ele>
        <time>2019-09-01T09:50:13.000Z</time>
      </trkpt>
      <trkpt lat="47.27456" lon="-2.48126">
        <ele>-15</ele>
        <time>2019-09-01T09:50:14.000Z</time>
      </trkpt>
      <trkpt lat="47.27461" lon="-2.48124">
        <ele>-14.60000038147</ele>
        <time>2019-09-01T09:50:15.000Z</time>
      </trkpt>
      <trkpt lat="47.27464" lon="-2.48123">
        <ele>-14.199999809265</ele>
        <time>2019-09-01T09:50:16.000Z</time>
      </trkpt>
      <trkpt lat="47.27468" lon="-2.48121">
        <ele>-13.800000190735</ele>
        <time>2019-09-01T09:50:17.000Z</time>
      </trkpt>
      <trkpt lat="47.27473" lon="-2.4812">
        <ele>-13.39999961853</ele>
        <time>2019-09-01T09:50:18.000Z</time>
      </trkpt>
      <trkpt lat="47.27477" lon="-2.48118">
        <ele>-13.39999961853</ele>
        <time>2019-09-01T09:50:19.000Z</time>
      </trkpt>
      <trkpt lat="47.27492" lon="-2.48113">
        <ele>-13.39999961853</ele>
        <time>2019-09-01T09:50:24.000Z</time>
      </trkpt>
      <trkpt lat="47.27503" lon="-2.48117">
        <ele>-13.39999961853</ele>
        <time>2019-09-01T09:50:28.000Z</time>
      </trkpt>
      <trkpt lat="47.27511" lon="-2.48128">
        <ele>-13.39999961853</ele>
        <time>2019-09-01T09:50:32.000Z</time>
      </trkpt>
      <trkpt lat="47.27523" lon="-2.48136">
        <ele>-13.39999961853</ele>
        <time>2019-09-01T09:50:37.000Z</time>
      </trkpt>
      <trkpt lat="47.27527" lon="-2.48137">
        <ele>-13.39999961853</ele>
        <time>2019-09-01T09:50:38.000Z</time>
      </trkpt>
      <trkpt lat="47.27532" lon="-2.48137">
        <ele>-13</ele>
        <time>2019-09-01T09:50:39.000Z</time>
      </trkpt>
      <trkpt lat="47.27537" lon="-2.48138">
        <ele>-12.60000038147</ele>
        <time>2019-09-01T09:50:40.000Z</time>
      </trkpt>
      <trkpt lat="47.27543" lon="-2.48139">
        <ele>-12</ele>
        <time>2019-09-01T09:50:41.000Z</time>
      </trkpt>
      <trkpt lat="47.27548" lon="-2.48141">
        <ele>-11.60000038147</ele>
        <time>2019-09-01T09:50:42.000Z</time>
      </trkpt>
      <trkpt lat="47.27554" lon="-2.48143">
        <ele>-11.199999809265</ele>
        <time>2019-09-01T09:50:43.000Z</time>
      </trkpt>
      <trkpt lat="47.27578" lon="-2.48151">
        <ele>-11.199999809265</ele>
        <time>2019-09-01T09:50:48.000Z</time>
      </trkpt>
      <trkpt lat="47.27583" lon="-2.48155">
        <ele>-11.199999809265</ele>
        <time>2019-09-01T09:50:49.000Z</time>
      </trkpt>
      <trkpt lat="47.27601" lon="-2.48171">
        <ele>-11.199999809265</ele>
        <time>2019-09-01T09:50:53.000Z</time>
      </trkpt>
      <trkpt lat="47.27636" lon="-2.48205">
        <ele>-11.199999809265</ele>
        <time>2019-09-01T09:51:01.000Z</time>
      </trkpt>
      <trkpt lat="47.27642" lon="-2.48217">
        <ele>-11.199999809265</ele>
        <time>2019-09-01T09:51:04.000Z</time>
      </trkpt>
      <trkpt lat="47.27642" lon="-2.48221">
        <ele>-11.199999809265</ele>
        <time>2019-09-01T09:51:05.000Z</time>
      </trkpt>
      <trkpt lat="47.27639" lon="-2.48237">
        <ele>-11.199999809265</ele>
        <time>2019-09-01T09:51:09.000Z</time>
      </trkpt>
      <trkpt lat="47.27645" lon="-2.4825">
        <ele>-11.199999809265</ele>
        <time>2019-09-01T09:51:12.000Z</time>
      </trkpt>
      <trkpt lat="47.27647" lon="-2.48254">
        <ele>-11.199999809265</ele>
        <time>2019-09-01T09:51:13.000Z</time>
      </trkpt>
      <trkpt lat="47.27651" lon="-2.48259">
        <ele>-11.199999809265</ele>
        <time>2019-09-01T09:51:14.000Z</time>
      </trkpt>
      <trkpt lat="47.2766" lon="-2.48263">
        <ele>-11.199999809265</ele>
        <time>2019-09-01T09:51:16.000Z</time>
      </trkpt>
      <trkpt lat="47.27676" lon="-2.48264">
        <ele>-11.199999809265</ele>
        <time>2019-09-01T09:51:20.000Z</time>
      </trkpt>
      <trkpt lat="47.27687" lon="-2.48274">
        <ele>-11.199999809265</ele>
        <time>2019-09-01T09:51:24.000Z</time>
      </trkpt>
      <trkpt lat="47.2769" lon="-2.48276">
        <ele>-11.199999809265</ele>
        <time>2019-09-01T09:51:26.000Z</time>
      </trkpt>
      <trkpt lat="47.27693" lon="-2.48276">
        <ele>-11.199999809265</ele>
        <time>2019-09-01T09:51:28.000Z</time>
      </trkpt>
      <trkpt lat="47.27695" lon="-2.48278">
        <ele>-11.60000038147</ele>
        <time>2019-09-01T09:51:29.000Z</time>
      </trkpt>
      <trkpt lat="47.27697" lon="-2.48281">
        <ele>-12</ele>
        <time>2019-09-01T09:51:30.000Z</time>
      </trkpt>
      <trkpt lat="47.27699" lon="-2.48284">
        <ele>-12.39999961853</ele>
        <time>2019-09-01T09:51:31.000Z</time>
      </trkpt>
      <trkpt lat="47.27701" lon="-2.48288">
        <ele>-12.800000190735</ele>
        <time>2019-09-01T09:51:32.000Z</time>
      </trkpt>
      <trkpt lat="47.27704" lon="-2.48293">
        <ele>-13.199999809265</ele>
        <time>2019-09-01T09:51:33.000Z</time>
      </trkpt>
      <trkpt lat="47.27715" lon="-2.48307">
        <ele>-13.199999809265</ele>
        <time>2019-09-01T09:51:36.000Z</time>
      </trkpt>
      <trkpt lat="47.27717" lon="-2.48308">
        <ele>-13.199999809265</ele>
        <time>2019-09-01T09:51:37.000Z</time>
      </trkpt>
      <trkpt lat="47.27719" lon="-2.48306">
        <ele>-13.60000038147</ele>
        <time>2019-09-01T09:51:38.000Z</time>
      </trkpt>
      <trkpt lat="47.2772" lon="-2.48303">
        <ele>-14.199999809265</ele>
        <time>2019-09-01T09:51:39.000Z</time>
      </trkpt>
      <trkpt lat="47.27721" lon="-2.48301">
        <ele>-14.60000038147</ele>
        <time>2019-09-01T09:51:40.000Z</time>
      </trkpt>
      <trkpt lat="47.27722" lon="-2.48299">
        <ele>-15</ele>
        <time>2019-09-01T09:51:41.000Z</time>
      </trkpt>
      <trkpt lat="47.27724" lon="-2.48299">
        <ele>-15.39999961853</ele>
        <time>2019-09-01T09:51:42.000Z</time>
      </trkpt>
      <trkpt lat="47.27727" lon="-2.48289">
        <ele>-15.39999961853</ele>
        <time>2019-09-01T09:51:45.000Z</time>
      </trkpt>
      <trkpt lat="47.27731" lon="-2.48277">
        <ele>-15.39999961853</ele>
        <time>2019-09-01T09:51:49.000Z</time>
      </trkpt>
      <trkpt lat="47.27735" lon="-2.48271">
        <ele>-15.39999961853</ele>
        <time>2019-09-01T09:51:52.000Z</time>
      </trkpt>
      <trkpt lat="47.27737" lon="-2.48269">
        <ele>-15.39999961853</ele>
        <time>2019-09-01T09:51:53.000Z</time>
      </trkpt>
      <trkpt lat="47.27748" lon="-2.48265">
        <ele>-15.39999961853</ele>
        <time>2019-09-01T09:51:58.000Z</time>
      </trkpt>
      <trkpt lat="47.27752" lon="-2.48258">
        <ele>-15.39999961853</ele>
        <time>2019-09-01T09:52:02.000Z</time>
      </trkpt>
      <trkpt lat="47.27748" lon="-2.48252">
        <ele>-15.39999961853</ele>
        <time>2019-09-01T09:52:04.000Z</time>
      </trkpt>
      <trkpt lat="47.27745" lon="-2.48247">
        <ele>-15.39999961853</ele>
        <time>2019-09-01T09:52:05.000Z</time>
      </trkpt>
      <trkpt lat="47.27743" lon="-2.48242">
        <ele>-15.39999961853</ele>
        <time>2019-09-01T09:52:06.000Z</time>
      </trkpt>
      <trkpt lat="47.27732" lon="-2.48221">
        <ele>-15</ele>
        <time>2019-09-01T09:52:10.000Z</time>
      </trkpt>
      <trkpt lat="47.27729" lon="-2.48216">
        <ele>-14.39999961853</ele>
        <time>2019-09-01T09:52:11.000Z</time>
      </trkpt>
      <trkpt lat="47.27726" lon="-2.48211">
        <ele>-14</ele>
        <time>2019-09-01T09:52:12.000Z</time>
      </trkpt>
      <trkpt lat="47.27724" lon="-2.48206">
        <ele>-13.60000038147</ele>
        <time>2019-09-01T09:52:13.000Z</time>
      </trkpt>
      <trkpt lat="47.27722" lon="-2.48202">
        <ele>-13.199999809265</ele>
        <time>2019-09-01T09:52:14.000Z</time>
      </trkpt>
      <trkpt lat="47.27718" lon="-2.48194">
        <ele>-13.199999809265</ele>
        <time>2019-09-01T09:52:16.000Z</time>
      </trkpt>
      <trkpt lat="47.27713" lon="-2.4818">
        <ele>-12.800000190735</ele>
        <time>2019-09-01T09:52:20.000Z</time>
      </trkpt>
      <trkpt lat="47.27714" lon="-2.48176">
        <ele>-12.39999961853</ele>
        <time>2019-09-01T09:52:21.000Z</time>
      </trkpt>
      <trkpt lat="47.27715" lon="-2.48172">
        <ele>-11.800000190735</ele>
        <time>2019-09-01T09:52:22.000Z</time>
      </trkpt>
      <trkpt lat="47.27716" lon="-2.4817">
        <ele>-11.39999961853</ele>
        <time>2019-09-01T09:52:23.000Z</time>
      </trkpt>
      <trkpt lat="47.27716" lon="-2.48168">
        <ele>-11</ele>
        <time>2019-09-01T09:52:24.000Z</time>
      </trkpt>
      <trkpt lat="47.27716" lon="-2.48167">
        <ele>-10.60000038147</ele>
        <time>2019-09-01T09:52:25.000Z</time>
      </trkpt>
      <trkpt lat="47.27716" lon="-2.48166">
        <ele>-10</ele>
        <time>2019-09-01T09:52:26.000Z</time>
      </trkpt>
      <trkpt lat="47.2772" lon="-2.4815">
        <ele>-6.5999999046326</ele>
        <time>2019-09-01T09:52:52.000Z</time>
      </trkpt>
      <trkpt lat="47.2772" lon="-2.48145">
        <ele>-6.5999999046326</ele>
        <time>2019-09-01T09:52:54.000Z</time>
      </trkpt>
      <trkpt lat="47.27725" lon="-2.48127">
        <ele>-6.1999998092651</ele>
        <time>2019-09-01T09:53:00.000Z</time>
      </trkpt>
      <trkpt lat="47.27725" lon="-2.48124">
        <ele>-5.5999999046326</ele>
        <time>2019-09-01T09:53:01.000Z</time>
      </trkpt>
      <trkpt lat="47.27725" lon="-2.48121">
        <ele>-5.1999998092651</ele>
        <time>2019-09-01T09:53:02.000Z</time>
      </trkpt>
      <trkpt lat="47.27724" lon="-2.48118">
        <ele>-4.8000001907349</ele>
        <time>2019-09-01T09:53:03.000Z</time>
      </trkpt>
      <trkpt lat="47.27723" lon="-2.48115">
        <ele>-4.4000000953674</ele>
        <time>2019-09-01T09:53:04.000Z</time>
      </trkpt>
      <trkpt lat="47.27712" lon="-2.48101">
        <ele>-4.4000000953674</ele>
        <time>2019-09-01T09:53:09.000Z</time>
      </trkpt>
      <trkpt lat="47.27704" lon="-2.4809">
        <ele>-4.8000001907349</ele>
        <time>2019-09-01T09:53:13.000Z</time>
      </trkpt>
      <trkpt lat="47.27701" lon="-2.48087">
        <ele>-5.1999998092651</ele>
        <time>2019-09-01T09:53:14.000Z</time>
      </trkpt>
      <trkpt lat="47.27699" lon="-2.48084">
        <ele>-5.5999999046326</ele>
        <time>2019-09-01T09:53:15.000Z</time>
      </trkpt>
      <trkpt lat="47.27698" lon="-2.4808">
        <ele>-6</ele>
        <time>2019-09-01T09:53:16.000Z</time>
      </trkpt>
      <trkpt lat="47.27696" lon="-2.48075">
        <ele>-6.4000000953674</ele>
        <time>2019-09-01T09:53:17.000Z</time>
      </trkpt>
      <trkpt lat="47.27693" lon="-2.48064">
        <ele>-6.4000000953674</ele>
        <time>2019-09-01T09:53:19.000Z</time>
      </trkpt>
      <trkpt lat="47.27686" lon="-2.48023">
        <ele>-6.4000000953674</ele>
        <time>2019-09-01T09:53:26.000Z</time>
      </trkpt>
      <trkpt lat="47.27679" lon="-2.47989">
        <ele>-6.4000000953674</ele>
        <time>2019-09-01T09:53:31.000Z</time>
      </trkpt>
      <trkpt lat="47.2767" lon="-2.47932">
        <ele>-7</ele>
        <time>2019-09-01T09:53:37.000Z</time>
      </trkpt>
      <trkpt lat="47.27668" lon="-2.47921">
        <ele>-7.4000000953674</ele>
        <time>2019-09-01T09:53:38.000Z</time>
      </trkpt>
      <trkpt lat="47.27666" lon="-2.4791">
        <ele>-7.8000001907349</ele>
        <time>2019-09-01T09:53:39.000Z</time>
      </trkpt>
      <trkpt lat="47.27664" lon="-2.47899">
        <ele>-8.1999998092651</ele>
        <time>2019-09-01T09:53:40.000Z</time>
      </trkpt>
      <trkpt lat="47.27662" lon="-2.47888">
        <ele>-8.8000001907349</ele>
        <time>2019-09-01T09:53:41.000Z</time>
      </trkpt>
      <trkpt lat="47.27657" lon="-2.47866">
        <ele>-8.8000001907349</ele>
        <time>2019-09-01T09:53:43.000Z</time>
      </trkpt>
      <trkpt lat="47.2765" lon="-2.47825">
        <ele>-9.1999998092651</ele>
        <time>2019-09-01T09:53:47.000Z</time>
      </trkpt>
      <trkpt lat="47.27649" lon="-2.47815">
        <ele>-9.6000003814697</ele>
        <time>2019-09-01T09:53:48.000Z</time>
      </trkpt>
      <trkpt lat="47.27647" lon="-2.47805">
        <ele>-10</ele>
        <time>2019-09-01T09:53:49.000Z</time>
      </trkpt>
      <trkpt lat="47.27645" lon="-2.47796">
        <ele>-10.39999961853</ele>
        <time>2019-09-01T09:53:50.000Z</time>
      </trkpt>
      <trkpt lat="47.27643" lon="-2.47787">
        <ele>-10.800000190735</ele>
        <time>2019-09-01T09:53:51.000Z</time>
      </trkpt>
      <trkpt lat="47.27638" lon="-2.47763">
        <ele>-10.800000190735</ele>
        <time>2019-09-01T09:53:54.000Z</time>
      </trkpt>
      <trkpt lat="47.27633" lon="-2.47748">
        <ele>-10.800000190735</ele>
        <time>2019-09-01T09:53:56.000Z</time>
      </trkpt>
      <trkpt lat="47.27626" lon="-2.47721">
        <ele>-10.800000190735</ele>
        <time>2019-09-01T09:54:00.000Z</time>
      </trkpt>
      <trkpt lat="47.27622" lon="-2.47718">
        <ele>-10.800000190735</ele>
        <time>2019-09-01T09:54:01.000Z</time>
      </trkpt>
      <trkpt lat="47.27606" lon="-2.47719">
        <ele>-10.800000190735</ele>
        <time>2019-09-01T09:54:04.000Z</time>
      </trkpt>
      <trkpt lat="47.27594" lon="-2.47722">
        <ele>-11.60000038147</ele>
        <time>2019-09-01T09:54:06.000Z</time>
      </trkpt>
      <trkpt lat="47.27587" lon="-2.47724">
        <ele>-12</ele>
        <time>2019-09-01T09:54:07.000Z</time>
      </trkpt>
      <trkpt lat="47.27579" lon="-2.47725">
        <ele>-12.39999961853</ele>
        <time>2019-09-01T09:54:08.000Z</time>
      </trkpt>
      <trkpt lat="47.27572" lon="-2.47725">
        <ele>-12.800000190735</ele>
        <time>2019-09-01T09:54:09.000Z</time>
      </trkpt>
      <trkpt lat="47.27565" lon="-2.47727">
        <ele>-12.800000190735</ele>
        <time>2019-09-01T09:54:10.000Z</time>
      </trkpt>
      <trkpt lat="47.27547" lon="-2.4774">
        <ele>-12.800000190735</ele>
        <time>2019-09-01T09:54:13.000Z</time>
      </trkpt>
      <trkpt lat="47.27541" lon="-2.47745">
        <ele>-13.39999961853</ele>
        <time>2019-09-01T09:54:14.000Z</time>
      </trkpt>
      <trkpt lat="47.27536" lon="-2.4775">
        <ele>-13.800000190735</ele>
        <time>2019-09-01T09:54:15.000Z</time>
      </trkpt>
      <trkpt lat="47.27531" lon="-2.47755">
        <ele>-14.199999809265</ele>
        <time>2019-09-01T09:54:16.000Z</time>
      </trkpt>
      <trkpt lat="47.27525" lon="-2.47759">
        <ele>-14.60000038147</ele>
        <time>2019-09-01T09:54:17.000Z</time>
      </trkpt>
      <trkpt lat="47.27521" lon="-2.47764">
        <ele>-15</ele>
        <time>2019-09-01T09:54:18.000Z</time>
      </trkpt>
      <trkpt lat="47.27504" lon="-2.47781">
        <ele>-15</ele>
        <time>2019-09-01T09:54:23.000Z</time>
      </trkpt>
      <trkpt lat="47.27494" lon="-2.47791">
        <ele>-15</ele>
        <time>2019-09-01T09:54:28.000Z</time>
      </trkpt>
      <trkpt lat="47.27489" lon="-2.47796">
        <ele>-15.39999961853</ele>
        <time>2019-09-01T09:54:30.000Z</time>
      </trkpt>
      <trkpt lat="47.27487" lon="-2.47799">
        <ele>-16.200000762939</ele>
        <time>2019-09-01T09:54:31.000Z</time>
      </trkpt>
      <trkpt lat="47.27485" lon="-2.47801">
        <ele>-16.60000038147</ele>
        <time>2019-09-01T09:54:32.000Z</time>
      </trkpt>
      <trkpt lat="47.27483" lon="-2.47804">
        <ele>-17</ele>
        <time>2019-09-01T09:54:33.000Z</time>
      </trkpt>
      <trkpt lat="47.27478" lon="-2.47809">
        <ele>-17</ele>
        <time>2019-09-01T09:54:35.000Z</time>
      </trkpt>
      <trkpt lat="47.27473" lon="-2.4781">
        <ele>-17</ele>
        <time>2019-09-01T09:54:37.000Z</time>
      </trkpt>
      <trkpt lat="47.27468" lon="-2.47808">
        <ele>-17</ele>
        <time>2019-09-01T09:54:39.000Z</time>
      </trkpt>
      <trkpt lat="47.27462" lon="-2.47797">
        <ele>-17</ele>
        <time>2019-09-01T09:54:42.000Z</time>
      </trkpt>
      <trkpt lat="47.2746" lon="-2.47794">
        <ele>-17</ele>
        <time>2019-09-01T09:54:43.000Z</time>
      </trkpt>
      <trkpt lat="47.27454" lon="-2.4778">
        <ele>-17</ele>
        <time>2019-09-01T09:54:48.000Z</time>
      </trkpt>
      <trkpt lat="47.27445" lon="-2.47769">
        <ele>-17</ele>
        <time>2019-09-01T09:54:55.000Z</time>
      </trkpt>
      <trkpt lat="47.27442" lon="-2.47763">
        <ele>-17</ele>
        <time>2019-09-01T09:54:59.000Z</time>
      </trkpt>
      <trkpt lat="47.27438" lon="-2.47749">
        <ele>-17</ele>
        <time>2019-09-01T09:57:01.000Z</time>
      </trkpt>
      <trkpt lat="47.27439" lon="-2.47734">
        <ele>-17</ele>
        <time>2019-09-01T09:57:06.000Z</time>
      </trkpt>
      <trkpt lat="47.2744" lon="-2.4773">
        <ele>-17</ele>
        <time>2019-09-01T09:57:07.000Z</time>
      </trkpt>
      <trkpt lat="47.27439" lon="-2.47705">
        <ele>-17</ele>
        <time>2019-09-01T09:57:12.000Z</time>
      </trkpt>
      <trkpt lat="47.27434" lon="-2.47678">
        <ele>-17</ele>
        <time>2019-09-01T09:57:18.000Z</time>
      </trkpt>
      <trkpt lat="47.27431" lon="-2.47676">
        <ele>-17</ele>
        <time>2019-09-01T09:57:19.000Z</time>
      </trkpt>
      <trkpt lat="47.27424" lon="-2.47677">
        <ele>-17</ele>
        <time>2019-09-01T09:57:21.000Z</time>
      </trkpt>
      <trkpt lat="47.27408" lon="-2.47676">
        <ele>-17</ele>
        <time>2019-09-01T09:57:26.000Z</time>
      </trkpt>
      <trkpt lat="47.27404" lon="-2.47673">
        <ele>-17</ele>
        <time>2019-09-01T09:57:27.000Z</time>
      </trkpt>
      <trkpt lat="47.27386" lon="-2.47661">
        <ele>-17</ele>
        <time>2019-09-01T09:57:31.000Z</time>
      </trkpt>
      <trkpt lat="47.27378" lon="-2.47654">
        <ele>-17</ele>
        <time>2019-09-01T09:57:33.000Z</time>
      </trkpt>
      <trkpt lat="47.27365" lon="-2.47644">
        <ele>-17</ele>
        <time>2019-09-01T09:57:36.000Z</time>
      </trkpt>
      <trkpt lat="47.2735" lon="-2.47631">
        <ele>-17</ele>
        <time>2019-09-01T09:57:40.000Z</time>
      </trkpt>
      <trkpt lat="47.27342" lon="-2.47624">
        <ele>-16.60000038147</ele>
        <time>2019-09-01T09:57:42.000Z</time>
      </trkpt>
      <trkpt lat="47.27338" lon="-2.47621">
        <ele>-16.200000762939</ele>
        <time>2019-09-01T09:57:43.000Z</time>
      </trkpt>
      <trkpt lat="47.27335" lon="-2.47619">
        <ele>-15.800000190735</ele>
        <time>2019-09-01T09:57:44.000Z</time>
      </trkpt>
      <trkpt lat="47.27333" lon="-2.47617">
        <ele>-15.39999961853</ele>
        <time>2019-09-01T09:57:45.000Z</time>
      </trkpt>
      <trkpt lat="47.2733" lon="-2.47618">
        <ele>-14.800000190735</ele>
        <time>2019-09-01T09:57:46.000Z</time>
      </trkpt>
      <trkpt lat="47.27322" lon="-2.47615">
        <ele>-14.39999961853</ele>
        <time>2019-09-01T09:57:49.000Z</time>
      </trkpt>
      <trkpt lat="47.27319" lon="-2.47612">
        <ele>-14</ele>
        <time>2019-09-01T09:57:50.000Z</time>
      </trkpt>
      <trkpt lat="47.27317" lon="-2.47608">
        <ele>-13.39999961853</ele>
        <time>2019-09-01T09:57:51.000Z</time>
      </trkpt>
      <trkpt lat="47.27314" lon="-2.47603">
        <ele>-13</ele>
        <time>2019-09-01T09:57:52.000Z</time>
      </trkpt>
      <trkpt lat="47.27312" lon="-2.47599">
        <ele>-12.60000038147</ele>
        <time>2019-09-01T09:57:53.000Z</time>
      </trkpt>
      <trkpt lat="47.27307" lon="-2.47592">
        <ele>-12.60000038147</ele>
        <time>2019-09-01T09:57:55.000Z</time>
      </trkpt>
      <trkpt lat="47.273" lon="-2.47582">
        <ele>-12.60000038147</ele>
        <time>2019-09-01T09:57:59.000Z</time>
      </trkpt>
      <trkpt lat="47.27306" lon="-2.47576">
        <ele>-12.60000038147</ele>
        <time>2019-09-01T09:58:02.000Z</time>
      </trkpt>
      <trkpt lat="47.27305" lon="-2.47567">
        <ele>-12.60000038147</ele>
        <time>2019-09-01T09:58:05.000Z</time>
      </trkpt>
      <trkpt lat="47.27296" lon="-2.47553">
        <ele>-12.60000038147</ele>
        <time>2019-09-01T09:58:08.000Z</time>
      </trkpt>
      <trkpt lat="47.2729" lon="-2.47541">
        <ele>-12.60000038147</ele>
        <time>2019-09-01T09:58:10.000Z</time>
      </trkpt>
      <trkpt lat="47.27286" lon="-2.47526">
        <ele>-12.60000038147</ele>
        <time>2019-09-01T09:58:12.000Z</time>
      </trkpt>
      <trkpt lat="47.27274" lon="-2.47475">
        <ele>-12.60000038147</ele>
        <time>2019-09-01T09:58:18.000Z</time>
      </trkpt>
      <trkpt lat="47.27266" lon="-2.47434">
        <ele>-12.60000038147</ele>
        <time>2019-09-01T09:58:23.000Z</time>
      </trkpt>
      <trkpt lat="47.27266" lon="-2.47426">
        <ele>-12</ele>
        <time>2019-09-01T09:58:24.000Z</time>
      </trkpt>
      <trkpt lat="47.27267" lon="-2.47418">
        <ele>-11.60000038147</ele>
        <time>2019-09-01T09:58:25.000Z</time>
      </trkpt>
      <trkpt lat="47.2727" lon="-2.47411">
        <ele>-11.199999809265</ele>
        <time>2019-09-01T09:58:26.000Z</time>
      </trkpt>
      <trkpt lat="47.27273" lon="-2.47404">
        <ele>-10.800000190735</ele>
        <time>2019-09-01T09:58:27.000Z</time>
      </trkpt>
      <trkpt lat="47.27277" lon="-2.47398">
        <ele>-10.199999809265</ele>
        <time>2019-09-01T09:58:28.000Z</time>
      </trkpt>
      <trkpt lat="47.27285" lon="-2.47387">
        <ele>-10.199999809265</ele>
        <time>2019-09-01T09:58:30.000Z</time>
      </trkpt>
      <trkpt lat="47.2729" lon="-2.47373">
        <ele>-10.199999809265</ele>
        <time>2019-09-01T09:58:32.000Z</time>
      </trkpt>
      <trkpt lat="47.27293" lon="-2.47341">
        <ele>-10.199999809265</ele>
        <time>2019-09-01T09:58:36.000Z</time>
      </trkpt>
      <trkpt lat="47.27293" lon="-2.47334">
        <ele>-10.199999809265</ele>
        <time>2019-09-01T09:58:37.000Z</time>
      </trkpt>
      <trkpt lat="47.27299" lon="-2.47325">
        <ele>-10.199999809265</ele>
        <time>2019-09-01T09:58:39.000Z</time>
      </trkpt>
      <trkpt lat="47.27313" lon="-2.47315">
        <ele>-10.199999809265</ele>
        <time>2019-09-01T09:58:42.000Z</time>
      </trkpt>
      <trkpt lat="47.27321" lon="-2.47308">
        <ele>-10.199999809265</ele>
        <time>2019-09-01T09:58:44.000Z</time>
      </trkpt>
      <trkpt lat="47.27334" lon="-2.47303">
        <ele>-10.199999809265</ele>
        <time>2019-09-01T09:58:47.000Z</time>
      </trkpt>
      <trkpt lat="47.27339" lon="-2.47302">
        <ele>-10.199999809265</ele>
        <time>2019-09-01T09:58:48.000Z</time>
      </trkpt>
      <trkpt lat="47.27344" lon="-2.47299">
        <ele>-10.199999809265</ele>
        <time>2019-09-01T09:58:49.000Z</time>
      </trkpt>
      <trkpt lat="47.27356" lon="-2.47294">
        <ele>-10.199999809265</ele>
        <time>2019-09-01T09:58:51.000Z</time>
      </trkpt>
      <trkpt lat="47.27362" lon="-2.4729">
        <ele>-10.199999809265</ele>
        <time>2019-09-01T09:58:52.000Z</time>
      </trkpt>
      <trkpt lat="47.27379" lon="-2.47274">
        <ele>-10.199999809265</ele>
        <time>2019-09-01T09:58:55.000Z</time>
      </trkpt>
      <trkpt lat="47.2739" lon="-2.47264">
        <ele>-10.60000038147</ele>
        <time>2019-09-01T09:58:57.000Z</time>
      </trkpt>
      <trkpt lat="47.27395" lon="-2.4726">
        <ele>-11.199999809265</ele>
        <time>2019-09-01T09:58:58.000Z</time>
      </trkpt>
      <trkpt lat="47.274" lon="-2.47255">
        <ele>-11.60000038147</ele>
        <time>2019-09-01T09:58:59.000Z</time>
      </trkpt>
      <trkpt lat="47.27406" lon="-2.47251">
        <ele>-12</ele>
        <time>2019-09-01T09:59:00.000Z</time>
      </trkpt>
      <trkpt lat="47.27411" lon="-2.47249">
        <ele>-12.39999961853</ele>
        <time>2019-09-01T09:59:01.000Z</time>
      </trkpt>
      <trkpt lat="47.27427" lon="-2.4724">
        <ele>-12.39999961853</ele>
        <time>2019-09-01T09:59:04.000Z</time>
      </trkpt>
      <trkpt lat="47.27437" lon="-2.47234">
        <ele>-12.39999961853</ele>
        <time>2019-09-01T09:59:06.000Z</time>
      </trkpt>
      <trkpt lat="47.27469" lon="-2.47212">
        <ele>-12.800000190735</ele>
        <time>2019-09-01T09:59:12.000Z</time>
      </trkpt>
      <trkpt lat="47.27475" lon="-2.47208">
        <ele>-13.199999809265</ele>
        <time>2019-09-01T09:59:13.000Z</time>
      </trkpt>
      <trkpt lat="47.2748" lon="-2.47205">
        <ele>-13.60000038147</ele>
        <time>2019-09-01T09:59:14.000Z</time>
      </trkpt>
      <trkpt lat="47.27485" lon="-2.47202">
        <ele>-14</ele>
        <time>2019-09-01T09:59:15.000Z</time>
      </trkpt>
      <trkpt lat="47.27491" lon="-2.47198">
        <ele>-14.39999961853</ele>
        <time>2019-09-01T09:59:16.000Z</time>
      </trkpt>
      <trkpt lat="47.27504" lon="-2.47186">
        <ele>-14.39999961853</ele>
        <time>2019-09-01T09:59:19.000Z</time>
      </trkpt>
      <trkpt lat="47.27502" lon="-2.47174">
        <ele>-14.39999961853</ele>
        <time>2019-09-01T09:59:21.000Z</time>
      </trkpt>
      <trkpt lat="47.27499" lon="-2.47167">
        <ele>-14.800000190735</ele>
        <time>2019-09-01T09:59:22.000Z</time>
      </trkpt>
      <trkpt lat="47.27497" lon="-2.47159">
        <ele>-15.199999809265</ele>
        <time>2019-09-01T09:59:23.000Z</time>
      </trkpt>
      <trkpt lat="47.27494" lon="-2.47151">
        <ele>-15.60000038147</ele>
        <time>2019-09-01T09:59:24.000Z</time>
      </trkpt>
      <trkpt lat="47.27492" lon="-2.47144">
        <ele>-16.200000762939</ele>
        <time>2019-09-01T09:59:25.000Z</time>
      </trkpt>
      <trkpt lat="47.27489" lon="-2.47137">
        <ele>-16.60000038147</ele>
        <time>2019-09-01T09:59:26.000Z</time>
      </trkpt>
      <trkpt lat="47.27484" lon="-2.47122">
        <ele>-16.60000038147</ele>
        <time>2019-09-01T09:59:28.000Z</time>
      </trkpt>
      <trkpt lat="47.27477" lon="-2.47099">
        <ele>-16.60000038147</ele>
        <time>2019-09-01T09:59:31.000Z</time>
      </trkpt>
      <trkpt lat="47.27476" lon="-2.47091">
        <ele>-16.60000038147</ele>
        <time>2019-09-01T09:59:32.000Z</time>
      </trkpt>
      <trkpt lat="47.27479" lon="-2.47077">
        <ele>-16.60000038147</ele>
        <time>2019-09-01T09:59:34.000Z</time>
      </trkpt>
      <trkpt lat="47.27488" lon="-2.47067">
        <ele>-16.200000762939</ele>
        <time>2019-09-01T09:59:36.000Z</time>
      </trkpt>
      <trkpt lat="47.27492" lon="-2.47063">
        <ele>-15.800000190735</ele>
        <time>2019-09-01T09:59:37.000Z</time>
      </trkpt>
      <trkpt lat="47.27497" lon="-2.47058">
        <ele>-15.39999961853</ele>
        <time>2019-09-01T09:59:38.000Z</time>
      </trkpt>
      <trkpt lat="47.27501" lon="-2.47052">
        <ele>-15</ele>
        <time>2019-09-01T09:59:39.000Z</time>
      </trkpt>
      <trkpt lat="47.27505" lon="-2.47046">
        <ele>-14.60000038147</ele>
        <time>2019-09-01T09:59:40.000Z</time>
      </trkpt>
      <trkpt lat="47.27514" lon="-2.47036">
        <ele>-14.60000038147</ele>
        <time>2019-09-01T09:59:42.000Z</time>
      </trkpt>
      <trkpt lat="47.27535" lon="-2.47006">
        <ele>-14.60000038147</ele>
        <time>2019-09-01T09:59:47.000Z</time>
      </trkpt>
      <trkpt lat="47.27551" lon="-2.46978">
        <ele>-14.60000038147</ele>
        <time>2019-09-01T09:59:52.000Z</time>
      </trkpt>
      <trkpt lat="47.27565" lon="-2.46977">
        <ele>-14.60000038147</ele>
        <time>2019-09-01T09:59:55.000Z</time>
      </trkpt>
      <trkpt lat="47.27576" lon="-2.46983">
        <ele>-14.60000038147</ele>
        <time>2019-09-01T09:59:57.000Z</time>
      </trkpt>
      <trkpt lat="47.27584" lon="-2.46987">
        <ele>-14.60000038147</ele>
        <time>2019-09-01T09:59:59.000Z</time>
      </trkpt>
      <trkpt lat="47.276" lon="-2.46991">
        <ele>-14.60000038147</ele>
        <time>2019-09-01T10:00:04.000Z</time>
      </trkpt>
      <trkpt lat="47.27618" lon="-2.46991">
        <ele>-14.60000038147</ele>
        <time>2019-09-01T10:00:09.000Z</time>
      </trkpt>
      <trkpt lat="47.27634" lon="-2.4699">
        <ele>-14.60000038147</ele>
        <time>2019-09-01T10:00:13.000Z</time>
      </trkpt>
      <trkpt lat="47.27649" lon="-2.46992">
        <ele>-15</ele>
        <time>2019-09-01T10:00:16.000Z</time>
      </trkpt>
      <trkpt lat="47.27654" lon="-2.46993">
        <ele>-15.39999961853</ele>
        <time>2019-09-01T10:00:17.000Z</time>
      </trkpt>
      <trkpt lat="47.27659" lon="-2.46991">
        <ele>-16.200000762939</ele>
        <time>2019-09-01T10:00:18.000Z</time>
      </trkpt>
      <trkpt lat="47.27661" lon="-2.46986">
        <ele>-16.60000038147</ele>
        <time>2019-09-01T10:00:19.000Z</time>
      </trkpt>
      <trkpt lat="47.27664" lon="-2.46977">
        <ele>-16.60000038147</ele>
        <time>2019-09-01T10:00:21.000Z</time>
      </trkpt>
      <trkpt lat="47.27663" lon="-2.46957">
        <ele>-16.60000038147</ele>
        <time>2019-09-01T10:00:24.000Z</time>
      </trkpt>
      <trkpt lat="47.27663" lon="-2.4695">
        <ele>-16.60000038147</ele>
        <time>2019-09-01T10:00:25.000Z</time>
      </trkpt>
      <trkpt lat="47.27671" lon="-2.46929">
        <ele>-16.60000038147</ele>
        <time>2019-09-01T10:00:29.000Z</time>
      </trkpt>
      <trkpt lat="47.27686" lon="-2.46933">
        <ele>-16.60000038147</ele>
        <time>2019-09-01T10:00:32.000Z</time>
      </trkpt>
      <trkpt lat="47.27696" lon="-2.46936">
        <ele>-16.60000038147</ele>
        <time>2019-09-01T10:00:34.000Z</time>
      </trkpt>
      <trkpt lat="47.27705" lon="-2.46938">
        <ele>-16.60000038147</ele>
        <time>2019-09-01T10:00:36.000Z</time>
      </trkpt>
      <trkpt lat="47.27714" lon="-2.46938">
        <ele>-16.60000038147</ele>
        <time>2019-09-01T10:00:38.000Z</time>
      </trkpt>
      <trkpt lat="47.27747" lon="-2.46934">
        <ele>-16.60000038147</ele>
        <time>2019-09-01T10:00:44.000Z</time>
      </trkpt>
      <trkpt lat="47.27762" lon="-2.46933">
        <ele>-16.60000038147</ele>
        <time>2019-09-01T10:00:47.000Z</time>
      </trkpt>
      <trkpt lat="47.27764" lon="-2.46929">
        <ele>-17.200000762939</ele>
        <time>2019-09-01T10:00:48.000Z</time>
      </trkpt>
      <trkpt lat="47.27765" lon="-2.46925">
        <ele>-17.60000038147</ele>
        <time>2019-09-01T10:00:49.000Z</time>
      </trkpt>
      <trkpt lat="47.27766" lon="-2.46919">
        <ele>-18.200000762939</ele>
        <time>2019-09-01T10:00:50.000Z</time>
      </trkpt>
      <trkpt lat="47.27767" lon="-2.46913">
        <ele>-18.60000038147</ele>
        <time>2019-09-01T10:00:51.000Z</time>
      </trkpt>
      <trkpt lat="47.27769" lon="-2.46907">
        <ele>-19</ele>
        <time>2019-09-01T10:00:52.000Z</time>
      </trkpt>
      <trkpt lat="47.27778" lon="-2.46887">
        <ele>-19</ele>
        <time>2019-09-01T10:00:55.000Z</time>
      </trkpt>
      <trkpt lat="47.27782" lon="-2.4685">
        <ele>-19</ele>
        <time>2019-09-01T10:00:59.000Z</time>
      </trkpt>
      <trkpt lat="47.27778" lon="-2.46813">
        <ele>-19</ele>
        <time>2019-09-01T10:01:03.000Z</time>
      </trkpt>
      <trkpt lat="47.27773" lon="-2.46795">
        <ele>-19</ele>
        <time>2019-09-01T10:01:05.000Z</time>
      </trkpt>
      <trkpt lat="47.27766" lon="-2.46769">
        <ele>-19</ele>
        <time>2019-09-01T10:01:08.000Z</time>
      </trkpt>
      <trkpt lat="47.27756" lon="-2.46722">
        <ele>-19</ele>
        <time>2019-09-01T10:01:14.000Z</time>
      </trkpt>
      <trkpt lat="47.27756" lon="-2.46706">
        <ele>-19</ele>
        <time>2019-09-01T10:01:16.000Z</time>
      </trkpt>
      <trkpt lat="47.27759" lon="-2.4669">
        <ele>-19</ele>
        <time>2019-09-01T10:01:18.000Z</time>
      </trkpt>
      <trkpt lat="47.2776" lon="-2.46667">
        <ele>-19</ele>
        <time>2019-09-01T10:01:21.000Z</time>
      </trkpt>
      <trkpt lat="47.2776" lon="-2.4666">
        <ele>-19</ele>
        <time>2019-09-01T10:01:22.000Z</time>
      </trkpt>
      <trkpt lat="47.27762" lon="-2.46653">
        <ele>-19</ele>
        <time>2019-09-01T10:01:23.000Z</time>
      </trkpt>
      <trkpt lat="47.27759" lon="-2.46633">
        <ele>-19</ele>
        <time>2019-09-01T10:01:26.000Z</time>
      </trkpt>
      <trkpt lat="47.27762" lon="-2.46616">
        <ele>-19</ele>
        <time>2019-09-01T10:01:29.000Z</time>
      </trkpt>
      <trkpt lat="47.27761" lon="-2.46592">
        <ele>-19</ele>
        <time>2019-09-01T10:01:33.000Z</time>
      </trkpt>
      <trkpt lat="47.27751" lon="-2.46576">
        <ele>-19</ele>
        <time>2019-09-01T10:01:36.000Z</time>
      </trkpt>
      <trkpt lat="47.27748" lon="-2.46569">
        <ele>-19</ele>
        <time>2019-09-01T10:01:37.000Z</time>
      </trkpt>
      <trkpt lat="47.27745" lon="-2.46562">
        <ele>-19</ele>
        <time>2019-09-01T10:01:38.000Z</time>
      </trkpt>
      <trkpt lat="47.27738" lon="-2.46537">
        <ele>-19</ele>
        <time>2019-09-01T10:01:41.000Z</time>
      </trkpt>
      <trkpt lat="47.27736" lon="-2.46527">
        <ele>-19</ele>
        <time>2019-09-01T10:01:42.000Z</time>
      </trkpt>
      <trkpt lat="47.27723" lon="-2.46469">
        <ele>-18.60000038147</ele>
        <time>2019-09-01T10:01:48.000Z</time>
      </trkpt>
      <trkpt lat="47.27719" lon="-2.4646">
        <ele>-18.200000762939</ele>
        <time>2019-09-01T10:01:49.000Z</time>
      </trkpt>
      <trkpt lat="47.27716" lon="-2.46451">
        <ele>-17.799999237061</ele>
        <time>2019-09-01T10:01:50.000Z</time>
      </trkpt>
      <trkpt lat="47.27712" lon="-2.46443">
        <ele>-17.39999961853</ele>
        <time>2019-09-01T10:01:51.000Z</time>
      </trkpt>
      <trkpt lat="47.27707" lon="-2.46434">
        <ele>-17</ele>
        <time>2019-09-01T10:01:52.000Z</time>
      </trkpt>
      <trkpt lat="47.27703" lon="-2.46426">
        <ele>-17</ele>
        <time>2019-09-01T10:01:53.000Z</time>
      </trkpt>
      <trkpt lat="47.27697" lon="-2.46408">
        <ele>-17</ele>
        <time>2019-09-01T10:01:55.000Z</time>
      </trkpt>
      <trkpt lat="47.27688" lon="-2.46382">
        <ele>-17</ele>
        <time>2019-09-01T10:01:58.000Z</time>
      </trkpt>
      <trkpt lat="47.27686" lon="-2.46373">
        <ele>-17</ele>
        <time>2019-09-01T10:01:59.000Z</time>
      </trkpt>
      <trkpt lat="47.27675" lon="-2.4634">
        <ele>-17</ele>
        <time>2019-09-01T10:02:03.000Z</time>
      </trkpt>
      <trkpt lat="47.27674" lon="-2.46332">
        <ele>-17</ele>
        <time>2019-09-01T10:02:04.000Z</time>
      </trkpt>
      <trkpt lat="47.27666" lon="-2.463">
        <ele>-17</ele>
        <time>2019-09-01T10:02:08.000Z</time>
      </trkpt>
      <trkpt lat="47.27658" lon="-2.46281">
        <ele>-17</ele>
        <time>2019-09-01T10:02:11.000Z</time>
      </trkpt>
      <trkpt lat="47.27666" lon="-2.46265">
        <ele>-17</ele>
        <time>2019-09-01T10:02:14.000Z</time>
      </trkpt>
      <trkpt lat="47.27671" lon="-2.46241">
        <ele>-17</ele>
        <time>2019-09-01T10:02:17.000Z</time>
      </trkpt>
      <trkpt lat="47.27669" lon="-2.46224">
        <ele>-17</ele>
        <time>2019-09-01T10:02:19.000Z</time>
      </trkpt>
      <trkpt lat="47.27667" lon="-2.46195">
        <ele>-17</ele>
        <time>2019-09-01T10:02:22.000Z</time>
      </trkpt>
      <trkpt lat="47.27667" lon="-2.46167">
        <ele>-17</ele>
        <time>2019-09-01T10:02:25.000Z</time>
      </trkpt>
      <trkpt lat="47.27666" lon="-2.46148">
        <ele>-17</ele>
        <time>2019-09-01T10:02:27.000Z</time>
      </trkpt>
      <trkpt lat="47.27663" lon="-2.46128">
        <ele>-17</ele>
        <time>2019-09-01T10:02:29.000Z</time>
      </trkpt>
      <trkpt lat="47.27659" lon="-2.46107">
        <ele>-17</ele>
        <time>2019-09-01T10:02:31.000Z</time>
      </trkpt>
      <trkpt lat="47.27648" lon="-2.46048">
        <ele>-17</ele>
        <time>2019-09-01T10:02:37.000Z</time>
      </trkpt>
      <trkpt lat="47.27639" lon="-2.45991">
        <ele>-17.60000038147</ele>
        <time>2019-09-01T10:02:43.000Z</time>
      </trkpt>
      <trkpt lat="47.27638" lon="-2.45981">
        <ele>-18</ele>
        <time>2019-09-01T10:02:44.000Z</time>
      </trkpt>
      <trkpt lat="47.27638" lon="-2.45971">
        <ele>-18.39999961853</ele>
        <time>2019-09-01T10:02:45.000Z</time>
      </trkpt>
      <trkpt lat="47.27638" lon="-2.45962">
        <ele>-19.200000762939</ele>
        <time>2019-09-01T10:02:46.000Z</time>
      </trkpt>
      <trkpt lat="47.27637" lon="-2.45921">
        <ele>-19.200000762939</ele>
        <time>2019-09-01T10:02:50.000Z</time>
      </trkpt>
      <trkpt lat="47.27639" lon="-2.45869">
        <ele>-19.200000762939</ele>
        <time>2019-09-01T10:02:55.000Z</time>
      </trkpt>
      <trkpt lat="47.27642" lon="-2.4581">
        <ele>-19.200000762939</ele>
        <time>2019-09-01T10:03:01.000Z</time>
      </trkpt>
      <trkpt lat="47.27638" lon="-2.45755">
        <ele>-19.200000762939</ele>
        <time>2019-09-01T10:03:07.000Z</time>
      </trkpt>
      <trkpt lat="47.27637" lon="-2.45739">
        <ele>-19.200000762939</ele>
        <time>2019-09-01T10:03:09.000Z</time>
      </trkpt>
      <trkpt lat="47.27634" lon="-2.45725">
        <ele>-18.799999237061</ele>
        <time>2019-09-01T10:03:11.000Z</time>
      </trkpt>
      <trkpt lat="47.27633" lon="-2.45718">
        <ele>-18.39999961853</ele>
        <time>2019-09-01T10:03:12.000Z</time>
      </trkpt>
      <trkpt lat="47.27631" lon="-2.45713">
        <ele>-18</ele>
        <time>2019-09-01T10:03:13.000Z</time>
      </trkpt>
      <trkpt lat="47.2763" lon="-2.45708">
        <ele>-17.60000038147</ele>
        <time>2019-09-01T10:03:14.000Z</time>
      </trkpt>
      <trkpt lat="47.27627" lon="-2.45705">
        <ele>-17.200000762939</ele>
        <time>2019-09-01T10:03:15.000Z</time>
      </trkpt>
      <trkpt lat="47.27623" lon="-2.45705">
        <ele>-17.200000762939</ele>
        <time>2019-09-01T10:03:16.000Z</time>
      </trkpt>
      <trkpt lat="47.27608" lon="-2.45711">
        <ele>-17.200000762939</ele>
        <time>2019-09-01T10:03:19.000Z</time>
      </trkpt>
      <trkpt lat="47.27569" lon="-2.45725">
        <ele>-17.200000762939</ele>
        <time>2019-09-01T10:03:25.000Z</time>
      </trkpt>
      <trkpt lat="47.27526" lon="-2.4574">
        <ele>-17.200000762939</ele>
        <time>2019-09-01T10:03:31.000Z</time>
      </trkpt>
      <trkpt lat="47.27468" lon="-2.45761">
        <ele>-17.200000762939</ele>
        <time>2019-09-01T10:03:39.000Z</time>
      </trkpt>
      <trkpt lat="47.2746" lon="-2.45763">
        <ele>-17.200000762939</ele>
        <time>2019-09-01T10:03:40.000Z</time>
      </trkpt>
      <trkpt lat="47.27416" lon="-2.45772">
        <ele>-17.200000762939</ele>
        <time>2019-09-01T10:03:46.000Z</time>
      </trkpt>
      <trkpt lat="47.27408" lon="-2.45771">
        <ele>-17.200000762939</ele>
        <time>2019-09-01T10:03:47.000Z</time>
      </trkpt>
      <trkpt lat="47.27386" lon="-2.45775">
        <ele>-17.200000762939</ele>
        <time>2019-09-01T10:03:50.000Z</time>
      </trkpt>
      <trkpt lat="47.27374" lon="-2.45774">
        <ele>-17.200000762939</ele>
        <time>2019-09-01T10:03:52.000Z</time>
      </trkpt>
      <trkpt lat="47.27369" lon="-2.45768">
        <ele>-17.200000762939</ele>
        <time>2019-09-01T10:03:53.000Z</time>
      </trkpt>
      <trkpt lat="47.27361" lon="-2.45744">
        <ele>-17.200000762939</ele>
        <time>2019-09-01T10:03:56.000Z</time>
      </trkpt>
      <trkpt lat="47.27352" lon="-2.45721">
        <ele>-17.200000762939</ele>
        <time>2019-09-01T10:03:59.000Z</time>
      </trkpt>
      <trkpt lat="47.27347" lon="-2.45707">
        <ele>-17.200000762939</ele>
        <time>2019-09-01T10:04:01.000Z</time>
      </trkpt>
      <trkpt lat="47.27332" lon="-2.45662">
        <ele>-17.200000762939</ele>
        <time>2019-09-01T10:04:08.000Z</time>
      </trkpt>
      <trkpt lat="47.27322" lon="-2.45629">
        <ele>-17.200000762939</ele>
        <time>2019-09-01T10:04:12.000Z</time>
      </trkpt>
      <trkpt lat="47.27321" lon="-2.45619">
        <ele>-17.200000762939</ele>
        <time>2019-09-01T10:04:13.000Z</time>
      </trkpt>
      <trkpt lat="47.2733" lon="-2.45596">
        <ele>-17.200000762939</ele>
        <time>2019-09-01T10:04:16.000Z</time>
      </trkpt>
      <trkpt lat="47.2735" lon="-2.45586">
        <ele>-17.200000762939</ele>
        <time>2019-09-01T10:04:19.000Z</time>
      </trkpt>
      <trkpt lat="47.27356" lon="-2.45581">
        <ele>-17.200000762939</ele>
        <time>2019-09-01T10:04:20.000Z</time>
      </trkpt>
      <trkpt lat="47.27369" lon="-2.45574">
        <ele>-17.200000762939</ele>
        <time>2019-09-01T10:04:22.000Z</time>
      </trkpt>
      <trkpt lat="47.27382" lon="-2.45571">
        <ele>-17.200000762939</ele>
        <time>2019-09-01T10:04:24.000Z</time>
      </trkpt>
      <trkpt lat="47.27402" lon="-2.45565">
        <ele>-17.200000762939</ele>
        <time>2019-09-01T10:04:27.000Z</time>
      </trkpt>
      <trkpt lat="47.27416" lon="-2.45559">
        <ele>-17.200000762939</ele>
        <time>2019-09-01T10:04:29.000Z</time>
      </trkpt>
      <trkpt lat="47.27423" lon="-2.45555">
        <ele>-17.200000762939</ele>
        <time>2019-09-01T10:04:30.000Z</time>
      </trkpt>
      <trkpt lat="47.27433" lon="-2.45541">
        <ele>-17.200000762939</ele>
        <time>2019-09-01T10:04:32.000Z</time>
      </trkpt>
      <trkpt lat="47.27437" lon="-2.45514">
        <ele>-17.200000762939</ele>
        <time>2019-09-01T10:04:35.000Z</time>
      </trkpt>
      <trkpt lat="47.27447" lon="-2.45505">
        <ele>-17.200000762939</ele>
        <time>2019-09-01T10:04:38.000Z</time>
      </trkpt>
      <trkpt lat="47.27463" lon="-2.45497">
        <ele>-17.200000762939</ele>
        <time>2019-09-01T10:04:41.000Z</time>
      </trkpt>
      <trkpt lat="47.27468" lon="-2.45494">
        <ele>-17.200000762939</ele>
        <time>2019-09-01T10:04:42.000Z</time>
      </trkpt>
      <trkpt lat="47.27486" lon="-2.45481">
        <ele>-17.200000762939</ele>
        <time>2019-09-01T10:04:45.000Z</time>
      </trkpt>
      <trkpt lat="47.27491" lon="-2.45477">
        <ele>-17.200000762939</ele>
        <time>2019-09-01T10:04:46.000Z</time>
      </trkpt>
      <trkpt lat="47.27494" lon="-2.4547">
        <ele>-17.200000762939</ele>
        <time>2019-09-01T10:04:47.000Z</time>
      </trkpt>
      <trkpt lat="47.27494" lon="-2.45454">
        <ele>-17.200000762939</ele>
        <time>2019-09-01T10:04:49.000Z</time>
      </trkpt>
      <trkpt lat="47.27489" lon="-2.45426">
        <ele>-17.200000762939</ele>
        <time>2019-09-01T10:04:52.000Z</time>
      </trkpt>
      <trkpt lat="47.27488" lon="-2.45417">
        <ele>-17.200000762939</ele>
        <time>2019-09-01T10:04:53.000Z</time>
      </trkpt>
      <trkpt lat="47.27488" lon="-2.45408">
        <ele>-17.200000762939</ele>
        <time>2019-09-01T10:04:54.000Z</time>
      </trkpt>
      <trkpt lat="47.27493" lon="-2.45399">
        <ele>-17.200000762939</ele>
        <time>2019-09-01T10:04:56.000Z</time>
      </trkpt>
      <trkpt lat="47.27509" lon="-2.45395">
        <ele>-17.200000762939</ele>
        <time>2019-09-01T10:04:59.000Z</time>
      </trkpt>
      <trkpt lat="47.27514" lon="-2.45394">
        <ele>-17.200000762939</ele>
        <time>2019-09-01T10:05:00.000Z</time>
      </trkpt>
      <trkpt lat="47.2752" lon="-2.45392">
        <ele>-17.200000762939</ele>
        <time>2019-09-01T10:05:01.000Z</time>
      </trkpt>
      <trkpt lat="47.27538" lon="-2.45382">
        <ele>-17.200000762939</ele>
        <time>2019-09-01T10:05:04.000Z</time>
      </trkpt>
      <trkpt lat="47.27579" lon="-2.45366">
        <ele>-17.200000762939</ele>
        <time>2019-09-01T10:05:10.000Z</time>
      </trkpt>
      <trkpt lat="47.27611" lon="-2.4536">
        <ele>-17.200000762939</ele>
        <time>2019-09-01T10:05:15.000Z</time>
      </trkpt>
      <trkpt lat="47.27616" lon="-2.45357">
        <ele>-17.200000762939</ele>
        <time>2019-09-01T10:05:16.000Z</time>
      </trkpt>
      <trkpt lat="47.27619" lon="-2.45345">
        <ele>-17.200000762939</ele>
        <time>2019-09-01T10:05:18.000Z</time>
      </trkpt>
      <trkpt lat="47.27616" lon="-2.45318">
        <ele>-17.200000762939</ele>
        <time>2019-09-01T10:05:21.000Z</time>
      </trkpt>
      <trkpt lat="47.27609" lon="-2.45254">
        <ele>-17.200000762939</ele>
        <time>2019-09-01T10:05:27.000Z</time>
      </trkpt>
      <trkpt lat="47.27608" lon="-2.45243">
        <ele>-17.60000038147</ele>
        <time>2019-09-01T10:05:28.000Z</time>
      </trkpt>
      <trkpt lat="47.27607" lon="-2.45232">
        <ele>-18</ele>
        <time>2019-09-01T10:05:29.000Z</time>
      </trkpt>
      <trkpt lat="47.27606" lon="-2.45221">
        <ele>-18.39999961853</ele>
        <time>2019-09-01T10:05:30.000Z</time>
      </trkpt>
      <trkpt lat="47.27604" lon="-2.4521">
        <ele>-19</ele>
        <time>2019-09-01T10:05:31.000Z</time>
      </trkpt>
      <trkpt lat="47.27602" lon="-2.45199">
        <ele>-19.39999961853</ele>
        <time>2019-09-01T10:05:32.000Z</time>
      </trkpt>
      <trkpt lat="47.276" lon="-2.45187">
        <ele>-19.39999961853</ele>
        <time>2019-09-01T10:05:33.000Z</time>
      </trkpt>
      <trkpt lat="47.27587" lon="-2.45107">
        <ele>-19.39999961853</ele>
        <time>2019-09-01T10:05:40.000Z</time>
      </trkpt>
      <trkpt lat="47.27582" lon="-2.4509">
        <ele>-19.39999961853</ele>
        <time>2019-09-01T10:05:42.000Z</time>
      </trkpt>
      <trkpt lat="47.27579" lon="-2.45084">
        <ele>-19.39999961853</ele>
        <time>2019-09-01T10:05:43.000Z</time>
      </trkpt>
      <trkpt lat="47.27575" lon="-2.45077">
        <ele>-19.799999237061</ele>
        <time>2019-09-01T10:05:44.000Z</time>
      </trkpt>
      <trkpt lat="47.27571" lon="-2.45071">
        <ele>-20.200000762939</ele>
        <time>2019-09-01T10:05:45.000Z</time>
      </trkpt>
      <trkpt lat="47.27567" lon="-2.45064">
        <ele>-20.60000038147</ele>
        <time>2019-09-01T10:05:46.000Z</time>
      </trkpt>
      <trkpt lat="47.27564" lon="-2.45057">
        <ele>-21.200000762939</ele>
        <time>2019-09-01T10:05:47.000Z</time>
      </trkpt>
      <trkpt lat="47.2756" lon="-2.45049">
        <ele>-21.60000038147</ele>
        <time>2019-09-01T10:05:48.000Z</time>
      </trkpt>
      <trkpt lat="47.27536" lon="-2.44988">
        <ele>-21.60000038147</ele>
        <time>2019-09-01T10:05:55.000Z</time>
      </trkpt>
      <trkpt lat="47.27519" lon="-2.44933">
        <ele>-21.200000762939</ele>
        <time>2019-09-01T10:06:01.000Z</time>
      </trkpt>
      <trkpt lat="47.27516" lon="-2.44924">
        <ele>-20.799999237061</ele>
        <time>2019-09-01T10:06:02.000Z</time>
      </trkpt>
      <trkpt lat="47.27514" lon="-2.44915">
        <ele>-20.39999961853</ele>
        <time>2019-09-01T10:06:03.000Z</time>
      </trkpt>
      <trkpt lat="47.27512" lon="-2.44906">
        <ele>-19.60000038147</ele>
        <time>2019-09-01T10:06:04.000Z</time>
      </trkpt>
      <trkpt lat="47.27503" lon="-2.44855">
        <ele>-19.60000038147</ele>
        <time>2019-09-01T10:06:10.000Z</time>
      </trkpt>
      <trkpt lat="47.2751" lon="-2.44836">
        <ele>-19.60000038147</ele>
        <time>2019-09-01T10:06:13.000Z</time>
      </trkpt>
      <trkpt lat="47.27521" lon="-2.44828">
        <ele>-19.60000038147</ele>
        <time>2019-09-01T10:06:15.000Z</time>
      </trkpt>
      <trkpt lat="47.27531" lon="-2.44817">
        <ele>-19.60000038147</ele>
        <time>2019-09-01T10:06:17.000Z</time>
      </trkpt>
      <trkpt lat="47.27534" lon="-2.44793">
        <ele>-19.60000038147</ele>
        <time>2019-09-01T10:06:20.000Z</time>
      </trkpt>
      <trkpt lat="47.2753" lon="-2.44778">
        <ele>-19.60000038147</ele>
        <time>2019-09-01T10:06:22.000Z</time>
      </trkpt>
      <trkpt lat="47.27529" lon="-2.44769">
        <ele>-19.60000038147</ele>
        <time>2019-09-01T10:06:23.000Z</time>
      </trkpt>
      <trkpt lat="47.27527" lon="-2.4476">
        <ele>-19.60000038147</ele>
        <time>2019-09-01T10:06:24.000Z</time>
      </trkpt>
      <trkpt lat="47.27525" lon="-2.44751">
        <ele>-19.60000038147</ele>
        <time>2019-09-01T10:06:25.000Z</time>
      </trkpt>
      <trkpt lat="47.27516" lon="-2.44714">
        <ele>-19.60000038147</ele>
        <time>2019-09-01T10:06:29.000Z</time>
      </trkpt>
      <trkpt lat="47.27509" lon="-2.44696">
        <ele>-19.60000038147</ele>
        <time>2019-09-01T10:06:31.000Z</time>
      </trkpt>
      <trkpt lat="47.275" lon="-2.44681">
        <ele>-19.60000038147</ele>
        <time>2019-09-01T10:06:33.000Z</time>
      </trkpt>
      <trkpt lat="47.2749" lon="-2.44667">
        <ele>-20</ele>
        <time>2019-09-01T10:06:35.000Z</time>
      </trkpt>
      <trkpt lat="47.27485" lon="-2.4466">
        <ele>-20.39999961853</ele>
        <time>2019-09-01T10:06:36.000Z</time>
      </trkpt>
      <trkpt lat="47.27481" lon="-2.44651">
        <ele>-20.799999237061</ele>
        <time>2019-09-01T10:06:37.000Z</time>
      </trkpt>
      <trkpt lat="47.27476" lon="-2.44643">
        <ele>-21.200000762939</ele>
        <time>2019-09-01T10:06:38.000Z</time>
      </trkpt>
      <trkpt lat="47.27473" lon="-2.44635">
        <ele>-21.60000038147</ele>
        <time>2019-09-01T10:06:39.000Z</time>
      </trkpt>
      <trkpt lat="47.27461" lon="-2.44612">
        <ele>-21.60000038147</ele>
        <time>2019-09-01T10:06:42.000Z</time>
      </trkpt>
      <trkpt lat="47.27453" lon="-2.44596">
        <ele>-21.60000038147</ele>
        <time>2019-09-01T10:06:44.000Z</time>
      </trkpt>
      <trkpt lat="47.27451" lon="-2.44587">
        <ele>-21.60000038147</ele>
        <time>2019-09-01T10:06:45.000Z</time>
      </trkpt>
      <trkpt lat="47.27449" lon="-2.44548">
        <ele>-21.60000038147</ele>
        <time>2019-09-01T10:06:49.000Z</time>
      </trkpt>
      <trkpt lat="47.27445" lon="-2.44519">
        <ele>-21.60000038147</ele>
        <time>2019-09-01T10:06:52.000Z</time>
      </trkpt>
      <trkpt lat="47.27442" lon="-2.44511">
        <ele>-21.60000038147</ele>
        <time>2019-09-01T10:06:53.000Z</time>
      </trkpt>
      <trkpt lat="47.27437" lon="-2.44493">
        <ele>-21.60000038147</ele>
        <time>2019-09-01T10:06:55.000Z</time>
      </trkpt>
      <trkpt lat="47.27435" lon="-2.44474">
        <ele>-21.60000038147</ele>
        <time>2019-09-01T10:06:57.000Z</time>
      </trkpt>
      <trkpt lat="47.27436" lon="-2.44411">
        <ele>-21.60000038147</ele>
        <time>2019-09-01T10:07:04.000Z</time>
      </trkpt>
      <trkpt lat="47.27435" lon="-2.44383">
        <ele>-21.60000038147</ele>
        <time>2019-09-01T10:07:07.000Z</time>
      </trkpt>
      <trkpt lat="47.27432" lon="-2.44363">
        <ele>-21.60000038147</ele>
        <time>2019-09-01T10:07:09.000Z</time>
      </trkpt>
      <trkpt lat="47.27423" lon="-2.44288">
        <ele>-21.60000038147</ele>
        <time>2019-09-01T10:07:16.000Z</time>
      </trkpt>
      <trkpt lat="47.27417" lon="-2.44229">
        <ele>-21.60000038147</ele>
        <time>2019-09-01T10:07:22.000Z</time>
      </trkpt>
      <trkpt lat="47.2741" lon="-2.44168">
        <ele>-21.200000762939</ele>
        <time>2019-09-01T10:07:29.000Z</time>
      </trkpt>
      <trkpt lat="47.2741" lon="-2.44161">
        <ele>-20.799999237061</ele>
        <time>2019-09-01T10:07:30.000Z</time>
      </trkpt>
      <trkpt lat="47.27411" lon="-2.44155">
        <ele>-20.39999961853</ele>
        <time>2019-09-01T10:07:31.000Z</time>
      </trkpt>
      <trkpt lat="47.27412" lon="-2.44149">
        <ele>-20</ele>
        <time>2019-09-01T10:07:32.000Z</time>
      </trkpt>
      <trkpt lat="47.27415" lon="-2.44143">
        <ele>-19.60000038147</ele>
        <time>2019-09-01T10:07:33.000Z</time>
      </trkpt>
      <trkpt lat="47.27432" lon="-2.4413">
        <ele>-19.60000038147</ele>
        <time>2019-09-01T10:07:36.000Z</time>
      </trkpt>
      <trkpt lat="47.2747" lon="-2.44105">
        <ele>-19.60000038147</ele>
        <time>2019-09-01T10:07:42.000Z</time>
      </trkpt>
      <trkpt lat="47.27519" lon="-2.44073">
        <ele>-19.60000038147</ele>
        <time>2019-09-01T10:07:50.000Z</time>
      </trkpt>
      <trkpt lat="47.27525" lon="-2.44069">
        <ele>-19.60000038147</ele>
        <time>2019-09-01T10:07:51.000Z</time>
      </trkpt>
      <trkpt lat="47.27565" lon="-2.44056">
        <ele>-19.60000038147</ele>
        <time>2019-09-01T10:07:57.000Z</time>
      </trkpt>
      <trkpt lat="47.27614" lon="-2.44054">
        <ele>-19.60000038147</ele>
        <time>2019-09-01T10:08:04.000Z</time>
      </trkpt>
      <trkpt lat="47.2764" lon="-2.4405">
        <ele>-19.60000038147</ele>
        <time>2019-09-01T10:08:08.000Z</time>
      </trkpt>
      <trkpt lat="47.27653" lon="-2.44049">
        <ele>-19.60000038147</ele>
        <time>2019-09-01T10:08:10.000Z</time>
      </trkpt>
      <trkpt lat="47.27672" lon="-2.44047">
        <ele>-20</ele>
        <time>2019-09-01T10:08:13.000Z</time>
      </trkpt>
      <trkpt lat="47.27678" lon="-2.44045">
        <ele>-20.39999961853</ele>
        <time>2019-09-01T10:08:14.000Z</time>
      </trkpt>
      <trkpt lat="47.27684" lon="-2.44044">
        <ele>-20.799999237061</ele>
        <time>2019-09-01T10:08:15.000Z</time>
      </trkpt>
      <trkpt lat="47.2769" lon="-2.44042">
        <ele>-21.200000762939</ele>
        <time>2019-09-01T10:08:16.000Z</time>
      </trkpt>
      <trkpt lat="47.27696" lon="-2.44039">
        <ele>-21.60000038147</ele>
        <time>2019-09-01T10:08:17.000Z</time>
      </trkpt>
      <trkpt lat="47.27706" lon="-2.44038">
        <ele>-21.60000038147</ele>
        <time>2019-09-01T10:08:19.000Z</time>
      </trkpt>
      <trkpt lat="47.27715" lon="-2.44032">
        <ele>-21.60000038147</ele>
        <time>2019-09-01T10:08:21.000Z</time>
      </trkpt>
      <trkpt lat="47.27723" lon="-2.4401">
        <ele>-21.60000038147</ele>
        <time>2019-09-01T10:08:24.000Z</time>
      </trkpt>
      <trkpt lat="47.2774" lon="-2.43957">
        <ele>-21.60000038147</ele>
        <time>2019-09-01T10:08:30.000Z</time>
      </trkpt>
      <trkpt lat="47.2776" lon="-2.43876">
        <ele>-21.60000038147</ele>
        <time>2019-09-01T10:08:39.000Z</time>
      </trkpt>
      <trkpt lat="47.27765" lon="-2.43855">
        <ele>-21.60000038147</ele>
        <time>2019-09-01T10:08:43.000Z</time>
      </trkpt>
      <trkpt lat="47.27764" lon="-2.43849">
        <ele>-21.60000038147</ele>
        <time>2019-09-01T10:08:44.000Z</time>
      </trkpt>
      <trkpt lat="47.27764" lon="-2.43826">
        <ele>-21.60000038147</ele>
        <time>2019-09-01T10:08:47.000Z</time>
      </trkpt>
      <trkpt lat="47.27773" lon="-2.43801">
        <ele>-21.60000038147</ele>
        <time>2019-09-01T10:08:50.000Z</time>
      </trkpt>
      <trkpt lat="47.27783" lon="-2.43787">
        <ele>-21.60000038147</ele>
        <time>2019-09-01T10:08:52.000Z</time>
      </trkpt>
      <trkpt lat="47.27791" lon="-2.4377">
        <ele>-21.60000038147</ele>
        <time>2019-09-01T10:08:54.000Z</time>
      </trkpt>
      <trkpt lat="47.27802" lon="-2.43724">
        <ele>-21.60000038147</ele>
        <time>2019-09-01T10:08:59.000Z</time>
      </trkpt>
      <trkpt lat="47.27817" lon="-2.43659">
        <ele>-21.60000038147</ele>
        <time>2019-09-01T10:09:06.000Z</time>
      </trkpt>
      <trkpt lat="47.27836" lon="-2.43582">
        <ele>-21.60000038147</ele>
        <time>2019-09-01T10:09:14.000Z</time>
      </trkpt>
      <trkpt lat="47.27838" lon="-2.43573">
        <ele>-21.60000038147</ele>
        <time>2019-09-01T10:09:15.000Z</time>
      </trkpt>
      <trkpt lat="47.2785" lon="-2.43516">
        <ele>-21.60000038147</ele>
        <time>2019-09-01T10:09:21.000Z</time>
      </trkpt>
      <trkpt lat="47.27857" lon="-2.43447">
        <ele>-21.60000038147</ele>
        <time>2019-09-01T10:09:28.000Z</time>
      </trkpt>
      <trkpt lat="47.27862" lon="-2.43397">
        <ele>-21.60000038147</ele>
        <time>2019-09-01T10:09:34.000Z</time>
      </trkpt>
      <trkpt lat="47.2786" lon="-2.43383">
        <ele>-21.60000038147</ele>
        <time>2019-09-01T10:09:38.000Z</time>
      </trkpt>
      <trkpt lat="47.27861" lon="-2.43378">
        <ele>-21.60000038147</ele>
        <time>2019-09-01T10:09:42.000Z</time>
      </trkpt>
      <trkpt lat="47.27856" lon="-2.43369">
        <ele>-21.60000038147</ele>
        <time>2019-09-01T10:09:46.000Z</time>
      </trkpt>
      <trkpt lat="47.27856" lon="-2.43364">
        <ele>-21.60000038147</ele>
        <time>2019-09-01T10:09:47.000Z</time>
      </trkpt>
      <trkpt lat="47.27861" lon="-2.43355">
        <ele>-21.60000038147</ele>
        <time>2019-09-01T10:09:50.000Z</time>
      </trkpt>
      <trkpt lat="47.27865" lon="-2.43342">
        <ele>-21.60000038147</ele>
        <time>2019-09-01T10:09:55.000Z</time>
      </trkpt>
      <trkpt lat="47.27868" lon="-2.43329">
        <ele>-21.60000038147</ele>
        <time>2019-09-01T10:10:02.000Z</time>
      </trkpt>
      <trkpt lat="47.27868" lon="-2.43327">
        <ele>-21.60000038147</ele>
        <time>2019-09-01T10:10:03.000Z</time>
      </trkpt>
      <trkpt lat="47.27869" lon="-2.43303">
        <ele>-21.60000038147</ele>
        <time>2019-09-01T10:10:10.000Z</time>
      </trkpt>
      <trkpt lat="47.27868" lon="-2.43275">
        <ele>-21.60000038147</ele>
        <time>2019-09-01T10:10:15.000Z</time>
      </trkpt>
      <trkpt lat="47.27865" lon="-2.43231">
        <ele>-21.60000038147</ele>
        <time>2019-09-01T10:10:22.000Z</time>
      </trkpt>
      <trkpt lat="47.2786" lon="-2.4319">
        <ele>-21.60000038147</ele>
        <time>2019-09-01T10:10:28.000Z</time>
      </trkpt>
      <trkpt lat="47.27857" lon="-2.43165">
        <ele>-21.60000038147</ele>
        <time>2019-09-01T10:10:32.000Z</time>
      </trkpt>
      <trkpt lat="47.27856" lon="-2.43152">
        <ele>-21.60000038147</ele>
        <time>2019-09-01T10:10:34.000Z</time>
      </trkpt>
      <trkpt lat="47.27852" lon="-2.43112">
        <ele>-21.60000038147</ele>
        <time>2019-09-01T10:10:41.000Z</time>
      </trkpt>
      <trkpt lat="47.27848" lon="-2.43079">
        <ele>-21.60000038147</ele>
        <time>2019-09-01T10:10:47.000Z</time>
      </trkpt>
      <trkpt lat="47.2784" lon="-2.43038">
        <ele>-21.60000038147</ele>
        <time>2019-09-01T10:10:55.000Z</time>
      </trkpt>
      <trkpt lat="47.27819" lon="-2.43025">
        <ele>-21.60000038147</ele>
        <time>2019-09-01T10:11:01.000Z</time>
      </trkpt>
      <trkpt lat="47.27813" lon="-2.43021">
        <ele>-21.60000038147</ele>
        <time>2019-09-01T10:11:05.000Z</time>
      </trkpt>
      <trkpt lat="47.27811" lon="-2.43017">
        <ele>-21.60000038147</ele>
        <time>2019-09-01T10:11:08.000Z</time>
      </trkpt>
      <trkpt lat="47.27809" lon="-2.43011">
        <ele>-21.60000038147</ele>
        <time>2019-09-01T10:11:11.000Z</time>
      </trkpt>
      <trkpt lat="47.27813" lon="-2.42993">
        <ele>-21.60000038147</ele>
        <time>2019-09-01T10:11:15.000Z</time>
      </trkpt>
      <trkpt lat="47.27811" lon="-2.42972">
        <ele>-21.60000038147</ele>
        <time>2019-09-01T10:11:18.000Z</time>
      </trkpt>
      <trkpt lat="47.27809" lon="-2.42965">
        <ele>-21.60000038147</ele>
        <time>2019-09-01T10:11:19.000Z</time>
      </trkpt>
      <trkpt lat="47.27802" lon="-2.42919">
        <ele>-21.60000038147</ele>
        <time>2019-09-01T10:11:25.000Z</time>
      </trkpt>
      <trkpt lat="47.27798" lon="-2.42886">
        <ele>-21.60000038147</ele>
        <time>2019-09-01T10:11:31.000Z</time>
      </trkpt>
      <trkpt lat="47.27796" lon="-2.42883">
        <ele>-21.60000038147</ele>
        <time>2019-09-01T10:11:32.000Z</time>
      </trkpt>
      <trkpt lat="47.27796" lon="-2.42874">
        <ele>-21.60000038147</ele>
        <time>2019-09-01T10:11:34.000Z</time>
      </trkpt>
      <trkpt lat="47.27799" lon="-2.42853">
        <ele>-21.60000038147</ele>
        <time>2019-09-01T10:11:40.000Z</time>
      </trkpt>
      <trkpt lat="47.27798" lon="-2.4283">
        <ele>-21.60000038147</ele>
        <time>2019-09-01T10:11:46.000Z</time>
      </trkpt>
      <trkpt lat="47.27799" lon="-2.42825">
        <ele>-21.60000038147</ele>
        <time>2019-09-01T10:11:49.000Z</time>
      </trkpt>
      <trkpt lat="47.27801" lon="-2.4282">
        <ele>-21.60000038147</ele>
        <time>2019-09-01T10:11:51.000Z</time>
      </trkpt>
      <trkpt lat="47.27811" lon="-2.42821">
        <ele>-21.60000038147</ele>
        <time>2019-09-01T10:11:55.000Z</time>
      </trkpt>
      <trkpt lat="47.27814" lon="-2.42822">
        <ele>-21.60000038147</ele>
        <time>2019-09-01T10:11:56.000Z</time>
      </trkpt>
      <trkpt lat="47.27823" lon="-2.4282">
        <ele>-21.60000038147</ele>
        <time>2019-09-01T10:11:59.000Z</time>
      </trkpt>
      <trkpt lat="47.27825" lon="-2.42817">
        <ele>-21.60000038147</ele>
        <time>2019-09-01T10:12:00.000Z</time>
      </trkpt>
      <trkpt lat="47.27828" lon="-2.42796">
        <ele>-21.60000038147</ele>
        <time>2019-09-01T10:12:04.000Z</time>
      </trkpt>
      <trkpt lat="47.27828" lon="-2.4279">
        <ele>-21.60000038147</ele>
        <time>2019-09-01T10:12:05.000Z</time>
      </trkpt>
      <trkpt lat="47.27827" lon="-2.42753">
        <ele>-21.200000762939</ele>
        <time>2019-09-01T10:12:11.000Z</time>
      </trkpt>
      <trkpt lat="47.27826" lon="-2.42746">
        <ele>-20.799999237061</ele>
        <time>2019-09-01T10:12:12.000Z</time>
      </trkpt>
      <trkpt lat="47.27826" lon="-2.4274">
        <ele>-20.39999961853</ele>
        <time>2019-09-01T10:12:13.000Z</time>
      </trkpt>
      <trkpt lat="47.27825" lon="-2.42733">
        <ele>-19.60000038147</ele>
        <time>2019-09-01T10:12:14.000Z</time>
      </trkpt>
      <trkpt lat="47.27825" lon="-2.42711">
        <ele>-19.60000038147</ele>
        <time>2019-09-01T10:12:17.000Z</time>
      </trkpt>
      <trkpt lat="47.27821" lon="-2.42661">
        <ele>-19.60000038147</ele>
        <time>2019-09-01T10:12:23.000Z</time>
      </trkpt>
      <trkpt lat="47.27818" lon="-2.42643">
        <ele>-20</ele>
        <time>2019-09-01T10:12:25.000Z</time>
      </trkpt>
      <trkpt lat="47.27816" lon="-2.42634">
        <ele>-20.39999961853</ele>
        <time>2019-09-01T10:12:26.000Z</time>
      </trkpt>
      <trkpt lat="47.27815" lon="-2.42625">
        <ele>-20.799999237061</ele>
        <time>2019-09-01T10:12:27.000Z</time>
      </trkpt>
      <trkpt lat="47.27813" lon="-2.42615">
        <ele>-21.39999961853</ele>
        <time>2019-09-01T10:12:28.000Z</time>
      </trkpt>
      <trkpt lat="47.27811" lon="-2.42605">
        <ele>-21.799999237061</ele>
        <time>2019-09-01T10:12:29.000Z</time>
      </trkpt>
      <trkpt lat="47.27809" lon="-2.42596">
        <ele>-21.799999237061</ele>
        <time>2019-09-01T10:12:30.000Z</time>
      </trkpt>
      <trkpt lat="47.27793" lon="-2.42544">
        <ele>-21.799999237061</ele>
        <time>2019-09-01T10:12:36.000Z</time>
      </trkpt>
      <trkpt lat="47.27771" lon="-2.42483">
        <ele>-21.799999237061</ele>
        <time>2019-09-01T10:12:43.000Z</time>
      </trkpt>
      <trkpt lat="47.27754" lon="-2.42406">
        <ele>-21.799999237061</ele>
        <time>2019-09-01T10:12:51.000Z</time>
      </trkpt>
      <trkpt lat="47.27742" lon="-2.42325">
        <ele>-21.799999237061</ele>
        <time>2019-09-01T10:12:59.000Z</time>
      </trkpt>
      <trkpt lat="47.27736" lon="-2.4227">
        <ele>-21.799999237061</ele>
        <time>2019-09-01T10:13:05.000Z</time>
      </trkpt>
      <trkpt lat="47.27734" lon="-2.42235">
        <ele>-21.799999237061</ele>
        <time>2019-09-01T10:13:10.000Z</time>
      </trkpt>
      <trkpt lat="47.27733" lon="-2.42183">
        <ele>-21.799999237061</ele>
        <time>2019-09-01T10:13:16.000Z</time>
      </trkpt>
      <trkpt lat="47.27733" lon="-2.42134">
        <ele>-21.799999237061</ele>
        <time>2019-09-01T10:13:22.000Z</time>
      </trkpt>
      <trkpt lat="47.27739" lon="-2.42082">
        <ele>-21.799999237061</ele>
        <time>2019-09-01T10:13:28.000Z</time>
      </trkpt>
      <trkpt lat="47.27748" lon="-2.42021">
        <ele>-21.799999237061</ele>
        <time>2019-09-01T10:13:34.000Z</time>
      </trkpt>
      <trkpt lat="47.27754" lon="-2.42002">
        <ele>-21.799999237061</ele>
        <time>2019-09-01T10:13:36.000Z</time>
      </trkpt>
      <trkpt lat="47.27762" lon="-2.41974">
        <ele>-21.799999237061</ele>
        <time>2019-09-01T10:13:39.000Z</time>
      </trkpt>
      <trkpt lat="47.27764" lon="-2.41964">
        <ele>-21.799999237061</ele>
        <time>2019-09-01T10:13:40.000Z</time>
      </trkpt>
      <trkpt lat="47.27772" lon="-2.41937">
        <ele>-21.799999237061</ele>
        <time>2019-09-01T10:13:43.000Z</time>
      </trkpt>
      <trkpt lat="47.27795" lon="-2.41874">
        <ele>-21.799999237061</ele>
        <time>2019-09-01T10:13:50.000Z</time>
      </trkpt>
      <trkpt lat="47.27815" lon="-2.41828">
        <ele>-21.799999237061</ele>
        <time>2019-09-01T10:13:55.000Z</time>
      </trkpt>
      <trkpt lat="47.27843" lon="-2.41761">
        <ele>-21.799999237061</ele>
        <time>2019-09-01T10:14:02.000Z</time>
      </trkpt>
      <trkpt lat="47.27846" lon="-2.41749">
        <ele>-21.799999237061</ele>
        <time>2019-09-01T10:14:03.000Z</time>
      </trkpt>
      <trkpt lat="47.27855" lon="-2.41729">
        <ele>-21.799999237061</ele>
        <time>2019-09-01T10:14:05.000Z</time>
      </trkpt>
      <trkpt lat="47.27867" lon="-2.41709">
        <ele>-21.799999237061</ele>
        <time>2019-09-01T10:14:07.000Z</time>
      </trkpt>
      <trkpt lat="47.27884" lon="-2.41676">
        <ele>-21.799999237061</ele>
        <time>2019-09-01T10:14:10.000Z</time>
      </trkpt>
      <trkpt lat="47.27917" lon="-2.41613">
        <ele>-21.799999237061</ele>
        <time>2019-09-01T10:14:16.000Z</time>
      </trkpt>
      <trkpt lat="47.27942" lon="-2.41563">
        <ele>-21.799999237061</ele>
        <time>2019-09-01T10:14:21.000Z</time>
      </trkpt>
      <trkpt lat="47.27964" lon="-2.41519">
        <ele>-21.799999237061</ele>
        <time>2019-09-01T10:14:26.000Z</time>
      </trkpt>
      <trkpt lat="47.27967" lon="-2.41511">
        <ele>-21.799999237061</ele>
        <time>2019-09-01T10:14:27.000Z</time>
      </trkpt>
      <trkpt lat="47.27975" lon="-2.41477">
        <ele>-21.799999237061</ele>
        <time>2019-09-01T10:14:31.000Z</time>
      </trkpt>
      <trkpt lat="47.27987" lon="-2.41423">
        <ele>-21.799999237061</ele>
        <time>2019-09-01T10:14:38.000Z</time>
      </trkpt>
      <trkpt lat="47.27991" lon="-2.4139">
        <ele>-21.799999237061</ele>
        <time>2019-09-01T10:14:42.000Z</time>
      </trkpt>
      <trkpt lat="47.27992" lon="-2.41384">
        <ele>-21.799999237061</ele>
        <time>2019-09-01T10:14:43.000Z</time>
      </trkpt>
      <trkpt lat="47.27995" lon="-2.41351">
        <ele>-21.799999237061</ele>
        <time>2019-09-01T10:14:48.000Z</time>
      </trkpt>
      <trkpt lat="47.27999" lon="-2.41325">
        <ele>-21.799999237061</ele>
        <time>2019-09-01T10:14:53.000Z</time>
      </trkpt>
      <trkpt lat="47.28006" lon="-2.41293">
        <ele>-21.799999237061</ele>
        <time>2019-09-01T10:14:58.000Z</time>
      </trkpt>
      <trkpt lat="47.28017" lon="-2.41238">
        <ele>-21.799999237061</ele>
        <time>2019-09-01T10:15:06.000Z</time>
      </trkpt>
      <trkpt lat="47.28026" lon="-2.41207">
        <ele>-21.799999237061</ele>
        <time>2019-09-01T10:15:10.000Z</time>
      </trkpt>
      <trkpt lat="47.2803" lon="-2.41189">
        <ele>-21.799999237061</ele>
        <time>2019-09-01T10:15:12.000Z</time>
      </trkpt>
      <trkpt lat="47.28041" lon="-2.4114">
        <ele>-21.799999237061</ele>
        <time>2019-09-01T10:15:18.000Z</time>
      </trkpt>
      <trkpt lat="47.28045" lon="-2.41118">
        <ele>-21.799999237061</ele>
        <time>2019-09-01T10:15:23.000Z</time>
      </trkpt>
      <trkpt lat="47.28045" lon="-2.4111">
        <ele>-21.799999237061</ele>
        <time>2019-09-01T10:15:28.000Z</time>
      </trkpt>
      <trkpt lat="47.28048" lon="-2.41107">
        <ele>-21.799999237061</ele>
        <time>2019-09-01T10:15:37.000Z</time>
      </trkpt>
      <trkpt lat="47.2805" lon="-2.41101">
        <ele>-21.799999237061</ele>
        <time>2019-09-01T10:15:39.000Z</time>
      </trkpt>
      <trkpt lat="47.28052" lon="-2.41081">
        <ele>-21.799999237061</ele>
        <time>2019-09-01T10:15:43.000Z</time>
      </trkpt>
      <trkpt lat="47.28053" lon="-2.41073">
        <ele>-21.799999237061</ele>
        <time>2019-09-01T10:15:44.000Z</time>
      </trkpt>
      <trkpt lat="47.28057" lon="-2.41047">
        <ele>-21.799999237061</ele>
        <time>2019-09-01T10:15:47.000Z</time>
      </trkpt>
      <trkpt lat="47.28066" lon="-2.40994">
        <ele>-21.799999237061</ele>
        <time>2019-09-01T10:15:52.000Z</time>
      </trkpt>
      <trkpt lat="47.2808" lon="-2.40945">
        <ele>-21.799999237061</ele>
        <time>2019-09-01T10:15:57.000Z</time>
      </trkpt>
      <trkpt lat="47.28082" lon="-2.40926">
        <ele>-21.799999237061</ele>
        <time>2019-09-01T10:15:59.000Z</time>
      </trkpt>
      <trkpt lat="47.2808" lon="-2.40917">
        <ele>-21.799999237061</ele>
        <time>2019-09-01T10:16:00.000Z</time>
      </trkpt>
      <trkpt lat="47.28077" lon="-2.40909">
        <ele>-21.39999961853</ele>
        <time>2019-09-01T10:16:01.000Z</time>
      </trkpt>
      <trkpt lat="47.28072" lon="-2.409">
        <ele>-21</ele>
        <time>2019-09-01T10:16:02.000Z</time>
      </trkpt>
      <trkpt lat="47.28068" lon="-2.40891">
        <ele>-20.60000038147</ele>
        <time>2019-09-01T10:16:03.000Z</time>
      </trkpt>
      <trkpt lat="47.28064" lon="-2.40883">
        <ele>-20</ele>
        <time>2019-09-01T10:16:04.000Z</time>
      </trkpt>
      <trkpt lat="47.28059" lon="-2.40874">
        <ele>-19.60000038147</ele>
        <time>2019-09-01T10:16:05.000Z</time>
      </trkpt>
      <trkpt lat="47.28042" lon="-2.40833">
        <ele>-19.60000038147</ele>
        <time>2019-09-01T10:16:10.000Z</time>
      </trkpt>
      <trkpt lat="47.28034" lon="-2.4082">
        <ele>-19.60000038147</ele>
        <time>2019-09-01T10:16:12.000Z</time>
      </trkpt>
      <trkpt lat="47.28031" lon="-2.40804">
        <ele>-19.60000038147</ele>
        <time>2019-09-01T10:16:14.000Z</time>
      </trkpt>
      <trkpt lat="47.28037" lon="-2.40783">
        <ele>-19.60000038147</ele>
        <time>2019-09-01T10:16:17.000Z</time>
      </trkpt>
      <trkpt lat="47.28047" lon="-2.40743">
        <ele>-19.60000038147</ele>
        <time>2019-09-01T10:16:23.000Z</time>
      </trkpt>
      <trkpt lat="47.28055" lon="-2.40699">
        <ele>-19.60000038147</ele>
        <time>2019-09-01T10:16:29.000Z</time>
      </trkpt>
      <trkpt lat="47.28056" lon="-2.40682">
        <ele>-19.60000038147</ele>
        <time>2019-09-01T10:16:31.000Z</time>
      </trkpt>
      <trkpt lat="47.28055" lon="-2.40656">
        <ele>-19.60000038147</ele>
        <time>2019-09-01T10:16:34.000Z</time>
      </trkpt>
      <trkpt lat="47.28052" lon="-2.4064">
        <ele>-19.60000038147</ele>
        <time>2019-09-01T10:16:36.000Z</time>
      </trkpt>
      <trkpt lat="47.28048" lon="-2.40616">
        <ele>-19.60000038147</ele>
        <time>2019-09-01T10:16:39.000Z</time>
      </trkpt>
      <trkpt lat="47.28049" lon="-2.40609">
        <ele>-19.60000038147</ele>
        <time>2019-09-01T10:16:40.000Z</time>
      </trkpt>
      <trkpt lat="47.28053" lon="-2.40586">
        <ele>-19.60000038147</ele>
        <time>2019-09-01T10:16:43.000Z</time>
      </trkpt>
      <trkpt lat="47.28054" lon="-2.40578">
        <ele>-19.60000038147</ele>
        <time>2019-09-01T10:16:44.000Z</time>
      </trkpt>
      <trkpt lat="47.28062" lon="-2.40533">
        <ele>-19.60000038147</ele>
        <time>2019-09-01T10:16:49.000Z</time>
      </trkpt>
      <trkpt lat="47.28077" lon="-2.40476">
        <ele>-19.60000038147</ele>
        <time>2019-09-01T10:16:55.000Z</time>
      </trkpt>
      <trkpt lat="47.28095" lon="-2.40446">
        <ele>-19.60000038147</ele>
        <time>2019-09-01T10:16:59.000Z</time>
      </trkpt>
      <trkpt lat="47.28104" lon="-2.40429">
        <ele>-19.60000038147</ele>
        <time>2019-09-01T10:17:01.000Z</time>
      </trkpt>
      <trkpt lat="47.28111" lon="-2.40399">
        <ele>-19.60000038147</ele>
        <time>2019-09-01T10:17:04.000Z</time>
      </trkpt>
      <trkpt lat="47.28115" lon="-2.40357">
        <ele>-19.60000038147</ele>
        <time>2019-09-01T10:17:08.000Z</time>
      </trkpt>
      <trkpt lat="47.28126" lon="-2.40273">
        <ele>-19.60000038147</ele>
        <time>2019-09-01T10:17:16.000Z</time>
      </trkpt>
      <trkpt lat="47.28136" lon="-2.40185">
        <ele>-19.60000038147</ele>
        <time>2019-09-01T10:17:24.000Z</time>
      </trkpt>
      <trkpt lat="47.28138" lon="-2.40163">
        <ele>-19.60000038147</ele>
        <time>2019-09-01T10:17:26.000Z</time>
      </trkpt>
      <trkpt lat="47.28144" lon="-2.40088">
        <ele>-19.60000038147</ele>
        <time>2019-09-01T10:17:33.000Z</time>
      </trkpt>
      <trkpt lat="47.28151" lon="-2.40015">
        <ele>-19.60000038147</ele>
        <time>2019-09-01T10:17:40.000Z</time>
      </trkpt>
      <trkpt lat="47.28155" lon="-2.39955">
        <ele>-19.60000038147</ele>
        <time>2019-09-01T10:17:45.000Z</time>
      </trkpt>
      <trkpt lat="47.28156" lon="-2.39942">
        <ele>-19.60000038147</ele>
        <time>2019-09-01T10:17:46.000Z</time>
      </trkpt>
      <trkpt lat="47.28163" lon="-2.39851">
        <ele>-19.60000038147</ele>
        <time>2019-09-01T10:17:53.000Z</time>
      </trkpt>
      <trkpt lat="47.28165" lon="-2.39809">
        <ele>-19.200000762939</ele>
        <time>2019-09-01T10:17:56.000Z</time>
      </trkpt>
      <trkpt lat="47.28166" lon="-2.39796">
        <ele>-18.799999237061</ele>
        <time>2019-09-01T10:17:57.000Z</time>
      </trkpt>
      <trkpt lat="47.28168" lon="-2.39782">
        <ele>-18.39999961853</ele>
        <time>2019-09-01T10:17:58.000Z</time>
      </trkpt>
      <trkpt lat="47.28169" lon="-2.39769">
        <ele>-18</ele>
        <time>2019-09-01T10:17:59.000Z</time>
      </trkpt>
      <trkpt lat="47.28169" lon="-2.39756">
        <ele>-17.60000038147</ele>
        <time>2019-09-01T10:18:00.000Z</time>
      </trkpt>
      <trkpt lat="47.28174" lon="-2.39676">
        <ele>-17.60000038147</ele>
        <time>2019-09-01T10:18:06.000Z</time>
      </trkpt>
      <trkpt lat="47.28173" lon="-2.3965">
        <ele>-17.60000038147</ele>
        <time>2019-09-01T10:18:08.000Z</time>
      </trkpt>
      <trkpt lat="47.28176" lon="-2.39571">
        <ele>-17.60000038147</ele>
        <time>2019-09-01T10:18:14.000Z</time>
      </trkpt>
      <trkpt lat="47.28178" lon="-2.39483">
        <ele>-17.60000038147</ele>
        <time>2019-09-01T10:18:21.000Z</time>
      </trkpt>
      <trkpt lat="47.28179" lon="-2.39445">
        <ele>-17.60000038147</ele>
        <time>2019-09-01T10:18:24.000Z</time>
      </trkpt>
      <trkpt lat="47.28177" lon="-2.39359">
        <ele>-17.60000038147</ele>
        <time>2019-09-01T10:18:31.000Z</time>
      </trkpt>
      <trkpt lat="47.28177" lon="-2.39346">
        <ele>-17.60000038147</ele>
        <time>2019-09-01T10:18:32.000Z</time>
      </trkpt>
      <trkpt lat="47.28177" lon="-2.39293">
        <ele>-17.60000038147</ele>
        <time>2019-09-01T10:18:37.000Z</time>
      </trkpt>
      <trkpt lat="47.28177" lon="-2.3927">
        <ele>-17.60000038147</ele>
        <time>2019-09-01T10:18:41.000Z</time>
      </trkpt>
      <trkpt lat="47.28176" lon="-2.39254">
        <ele>-17.60000038147</ele>
        <time>2019-09-01T10:18:45.000Z</time>
      </trkpt>
      <trkpt lat="47.28176" lon="-2.3925">
        <ele>-17.60000038147</ele>
        <time>2019-09-01T10:18:48.000Z</time>
      </trkpt>
      <trkpt lat="47.28177" lon="-2.3925">
        <ele>-19.60000038147</ele>
        <time>2019-09-01T10:19:30.000Z</time>
      </trkpt>
      <trkpt lat="47.28177" lon="-2.39234">
        <ele>-19.60000038147</ele>
        <time>2019-09-01T10:19:34.000Z</time>
      </trkpt>
      <trkpt lat="47.28176" lon="-2.39199">
        <ele>-19.60000038147</ele>
        <time>2019-09-01T10:19:38.000Z</time>
      </trkpt>
      <trkpt lat="47.28172" lon="-2.39146">
        <ele>-19.60000038147</ele>
        <time>2019-09-01T10:19:43.000Z</time>
      </trkpt>
      <trkpt lat="47.28171" lon="-2.39122">
        <ele>-19.200000762939</ele>
        <time>2019-09-01T10:19:45.000Z</time>
      </trkpt>
      <trkpt lat="47.2817" lon="-2.39109">
        <ele>-18.799999237061</ele>
        <time>2019-09-01T10:19:46.000Z</time>
      </trkpt>
      <trkpt lat="47.28169" lon="-2.39097">
        <ele>-18.39999961853</ele>
        <time>2019-09-01T10:19:47.000Z</time>
      </trkpt>
      <trkpt lat="47.28169" lon="-2.39085">
        <ele>-18</ele>
        <time>2019-09-01T10:19:48.000Z</time>
      </trkpt>
      <trkpt lat="47.28168" lon="-2.39072">
        <ele>-17.60000038147</ele>
        <time>2019-09-01T10:19:49.000Z</time>
      </trkpt>
      <trkpt lat="47.28159" lon="-2.38981">
        <ele>-17.60000038147</ele>
        <time>2019-09-01T10:19:56.000Z</time>
      </trkpt>
      <trkpt lat="47.28144" lon="-2.38917">
        <ele>-17.60000038147</ele>
        <time>2019-09-01T10:20:01.000Z</time>
      </trkpt>
      <trkpt lat="47.28141" lon="-2.38904">
        <ele>-17.60000038147</ele>
        <time>2019-09-01T10:20:02.000Z</time>
      </trkpt>
      <trkpt lat="47.28135" lon="-2.38849">
        <ele>-17.60000038147</ele>
        <time>2019-09-01T10:20:06.000Z</time>
      </trkpt>
      <trkpt lat="47.28127" lon="-2.38766">
        <ele>-17.60000038147</ele>
        <time>2019-09-01T10:20:12.000Z</time>
      </trkpt>
      <trkpt lat="47.28123" lon="-2.38726">
        <ele>-17.60000038147</ele>
        <time>2019-09-01T10:20:15.000Z</time>
      </trkpt>
      <trkpt lat="47.28115" lon="-2.38649">
        <ele>-17.60000038147</ele>
        <time>2019-09-01T10:20:21.000Z</time>
      </trkpt>
      <trkpt lat="47.28107" lon="-2.38564">
        <ele>-17.60000038147</ele>
        <time>2019-09-01T10:20:28.000Z</time>
      </trkpt>
      <trkpt lat="47.28096" lon="-2.38482">
        <ele>-17.60000038147</ele>
        <time>2019-09-01T10:20:35.000Z</time>
      </trkpt>
      <trkpt lat="47.28094" lon="-2.38471">
        <ele>-17.60000038147</ele>
        <time>2019-09-01T10:20:36.000Z</time>
      </trkpt>
      <trkpt lat="47.2808" lon="-2.38389">
        <ele>-17.60000038147</ele>
        <time>2019-09-01T10:20:43.000Z</time>
      </trkpt>
      <trkpt lat="47.28063" lon="-2.38306">
        <ele>-17.60000038147</ele>
        <time>2019-09-01T10:20:50.000Z</time>
      </trkpt>
      <trkpt lat="47.28061" lon="-2.38295">
        <ele>-17.60000038147</ele>
        <time>2019-09-01T10:20:51.000Z</time>
      </trkpt>
      <trkpt lat="47.28047" lon="-2.38216">
        <ele>-17.60000038147</ele>
        <time>2019-09-01T10:20:58.000Z</time>
      </trkpt>
      <trkpt lat="47.28044" lon="-2.38205">
        <ele>-17.60000038147</ele>
        <time>2019-09-01T10:20:59.000Z</time>
      </trkpt>
      <trkpt lat="47.28031" lon="-2.38137">
        <ele>-17.60000038147</ele>
        <time>2019-09-01T10:21:06.000Z</time>
      </trkpt>
      <trkpt lat="47.28023" lon="-2.381">
        <ele>-17.60000038147</ele>
        <time>2019-09-01T10:21:11.000Z</time>
      </trkpt>
      <trkpt lat="47.28014" lon="-2.38047">
        <ele>-17.60000038147</ele>
        <time>2019-09-01T10:21:18.000Z</time>
      </trkpt>
      <trkpt lat="47.27999" lon="-2.37971">
        <ele>-17.60000038147</ele>
        <time>2019-09-01T10:21:27.000Z</time>
      </trkpt>
      <trkpt lat="47.27988" lon="-2.37908">
        <ele>-17.60000038147</ele>
        <time>2019-09-01T10:21:34.000Z</time>
      </trkpt>
      <trkpt lat="47.27975" lon="-2.37833">
        <ele>-17.60000038147</ele>
        <time>2019-09-01T10:21:42.000Z</time>
      </trkpt>
      <trkpt lat="47.27973" lon="-2.37825">
        <ele>-17.60000038147</ele>
        <time>2019-09-01T10:21:43.000Z</time>
      </trkpt>
      <trkpt lat="47.27967" lon="-2.37804">
        <ele>-17.60000038147</ele>
        <time>2019-09-01T10:21:46.000Z</time>
      </trkpt>
      <trkpt lat="47.27966" lon="-2.37782">
        <ele>-17.60000038147</ele>
        <time>2019-09-01T10:21:50.000Z</time>
      </trkpt>
      <trkpt lat="47.27963" lon="-2.37771">
        <ele>-17.60000038147</ele>
        <time>2019-09-01T10:21:53.000Z</time>
      </trkpt>
      <trkpt lat="47.2796" lon="-2.37761">
        <ele>-17.60000038147</ele>
        <time>2019-09-01T10:21:56.000Z</time>
      </trkpt>
      <trkpt lat="47.27955" lon="-2.37741">
        <ele>-17.60000038147</ele>
        <time>2019-09-01T10:22:00.000Z</time>
      </trkpt>
      <trkpt lat="47.27954" lon="-2.37734">
        <ele>-17.60000038147</ele>
        <time>2019-09-01T10:22:01.000Z</time>
      </trkpt>
      <trkpt lat="47.27953" lon="-2.37727">
        <ele>-17.60000038147</ele>
        <time>2019-09-01T10:22:02.000Z</time>
      </trkpt>
      <trkpt lat="47.27945" lon="-2.37697">
        <ele>-17.60000038147</ele>
        <time>2019-09-01T10:22:06.000Z</time>
      </trkpt>
      <trkpt lat="47.27931" lon="-2.37644">
        <ele>-17.60000038147</ele>
        <time>2019-09-01T10:22:12.000Z</time>
      </trkpt>
      <trkpt lat="47.27916" lon="-2.3757">
        <ele>-17.60000038147</ele>
        <time>2019-09-01T10:22:19.000Z</time>
      </trkpt>
      <trkpt lat="47.27896" lon="-2.37491">
        <ele>-17.60000038147</ele>
        <time>2019-09-01T10:22:26.000Z</time>
      </trkpt>
      <trkpt lat="47.27876" lon="-2.37406">
        <ele>-17.60000038147</ele>
        <time>2019-09-01T10:22:33.000Z</time>
      </trkpt>
      <trkpt lat="47.27858" lon="-2.37335">
        <ele>-17.60000038147</ele>
        <time>2019-09-01T10:22:39.000Z</time>
      </trkpt>
      <trkpt lat="47.27845" lon="-2.37287">
        <ele>-17.60000038147</ele>
        <time>2019-09-01T10:22:43.000Z</time>
      </trkpt>
      <trkpt lat="47.27842" lon="-2.37276">
        <ele>-17.60000038147</ele>
        <time>2019-09-01T10:22:44.000Z</time>
      </trkpt>
      <trkpt lat="47.27831" lon="-2.3724">
        <ele>-17.60000038147</ele>
        <time>2019-09-01T10:22:48.000Z</time>
      </trkpt>
      <trkpt lat="47.2783" lon="-2.37233">
        <ele>-17.60000038147</ele>
        <time>2019-09-01T10:22:49.000Z</time>
      </trkpt>
      <trkpt lat="47.27826" lon="-2.37214">
        <ele>-17.60000038147</ele>
        <time>2019-09-01T10:22:52.000Z</time>
      </trkpt>
      <trkpt lat="47.27825" lon="-2.37209">
        <ele>-17.60000038147</ele>
        <time>2019-09-01T10:22:53.000Z</time>
      </trkpt>
      <trkpt lat="47.27819" lon="-2.37188">
        <ele>-17.60000038147</ele>
        <time>2019-09-01T10:22:56.000Z</time>
      </trkpt>
      <trkpt lat="47.27815" lon="-2.37163">
        <ele>-17.60000038147</ele>
        <time>2019-09-01T10:22:59.000Z</time>
      </trkpt>
      <trkpt lat="47.27809" lon="-2.37147">
        <ele>-17.60000038147</ele>
        <time>2019-09-01T10:23:01.000Z</time>
      </trkpt>
      <trkpt lat="47.27803" lon="-2.37128">
        <ele>-17.60000038147</ele>
        <time>2019-09-01T10:23:03.000Z</time>
      </trkpt>
      <trkpt lat="47.27784" lon="-2.37055">
        <ele>-17.60000038147</ele>
        <time>2019-09-01T10:23:10.000Z</time>
      </trkpt>
      <trkpt lat="47.27764" lon="-2.36979">
        <ele>-17.60000038147</ele>
        <time>2019-09-01T10:23:17.000Z</time>
      </trkpt>
      <trkpt lat="47.27761" lon="-2.36967">
        <ele>-17.60000038147</ele>
        <time>2019-09-01T10:23:18.000Z</time>
      </trkpt>
      <trkpt lat="47.2774" lon="-2.36896">
        <ele>-17.60000038147</ele>
        <time>2019-09-01T10:23:24.000Z</time>
      </trkpt>
      <trkpt lat="47.27725" lon="-2.36849">
        <ele>-17.200000762939</ele>
        <time>2019-09-01T10:23:28.000Z</time>
      </trkpt>
      <trkpt lat="47.27722" lon="-2.36837">
        <ele>-16.799999237061</ele>
        <time>2019-09-01T10:23:29.000Z</time>
      </trkpt>
      <trkpt lat="47.27719" lon="-2.36826">
        <ele>-16.39999961853</ele>
        <time>2019-09-01T10:23:30.000Z</time>
      </trkpt>
      <trkpt lat="47.27716" lon="-2.36815">
        <ele>-16</ele>
        <time>2019-09-01T10:23:31.000Z</time>
      </trkpt>
      <trkpt lat="47.27712" lon="-2.36802">
        <ele>-15.60000038147</ele>
        <time>2019-09-01T10:23:32.000Z</time>
      </trkpt>
      <trkpt lat="47.27705" lon="-2.36781">
        <ele>-15.60000038147</ele>
        <time>2019-09-01T10:23:34.000Z</time>
      </trkpt>
      <trkpt lat="47.2769" lon="-2.36739">
        <ele>-15.60000038147</ele>
        <time>2019-09-01T10:23:38.000Z</time>
      </trkpt>
      <trkpt lat="47.27659" lon="-2.36648">
        <ele>-15.60000038147</ele>
        <time>2019-09-01T10:23:47.000Z</time>
      </trkpt>
      <trkpt lat="47.27655" lon="-2.36637">
        <ele>-15.60000038147</ele>
        <time>2019-09-01T10:23:48.000Z</time>
      </trkpt>
      <trkpt lat="47.27634" lon="-2.36573">
        <ele>-15.60000038147</ele>
        <time>2019-09-01T10:23:54.000Z</time>
      </trkpt>
      <trkpt lat="47.27631" lon="-2.36563">
        <ele>-16</ele>
        <time>2019-09-01T10:23:55.000Z</time>
      </trkpt>
      <trkpt lat="47.27627" lon="-2.36553">
        <ele>-16.39999961853</ele>
        <time>2019-09-01T10:23:56.000Z</time>
      </trkpt>
      <trkpt lat="47.27624" lon="-2.36543">
        <ele>-16.799999237061</ele>
        <time>2019-09-01T10:23:57.000Z</time>
      </trkpt>
      <trkpt lat="47.2762" lon="-2.36533">
        <ele>-17.200000762939</ele>
        <time>2019-09-01T10:23:58.000Z</time>
      </trkpt>
      <trkpt lat="47.27616" lon="-2.36523">
        <ele>-17.60000038147</ele>
        <time>2019-09-01T10:23:59.000Z</time>
      </trkpt>
      <trkpt lat="47.27601" lon="-2.36483">
        <ele>-17.60000038147</ele>
        <time>2019-09-01T10:24:03.000Z</time>
      </trkpt>
      <trkpt lat="47.27575" lon="-2.36414">
        <ele>-17.60000038147</ele>
        <time>2019-09-01T10:24:10.000Z</time>
      </trkpt>
      <trkpt lat="47.27549" lon="-2.36346">
        <ele>-17.60000038147</ele>
        <time>2019-09-01T10:24:17.000Z</time>
      </trkpt>
      <trkpt lat="47.27527" lon="-2.36285">
        <ele>-17.60000038147</ele>
        <time>2019-09-01T10:24:23.000Z</time>
      </trkpt>
      <trkpt lat="47.27497" lon="-2.36207">
        <ele>-17.60000038147</ele>
        <time>2019-09-01T10:24:31.000Z</time>
      </trkpt>
      <trkpt lat="47.27473" lon="-2.36142">
        <ele>-17.60000038147</ele>
        <time>2019-09-01T10:24:38.000Z</time>
      </trkpt>
      <trkpt lat="47.27465" lon="-2.36114">
        <ele>-17.60000038147</ele>
        <time>2019-09-01T10:24:41.000Z</time>
      </trkpt>
      <trkpt lat="47.27457" lon="-2.36097">
        <ele>-17.60000038147</ele>
        <time>2019-09-01T10:24:43.000Z</time>
      </trkpt>
      <trkpt lat="47.27446" lon="-2.3607">
        <ele>-17.60000038147</ele>
        <time>2019-09-01T10:24:46.000Z</time>
      </trkpt>
      <trkpt lat="47.27439" lon="-2.36052">
        <ele>-17.60000038147</ele>
        <time>2019-09-01T10:24:48.000Z</time>
      </trkpt>
      <trkpt lat="47.27408" lon="-2.35979">
        <ele>-17.60000038147</ele>
        <time>2019-09-01T10:24:56.000Z</time>
      </trkpt>
      <trkpt lat="47.27387" lon="-2.35927">
        <ele>-17.60000038147</ele>
        <time>2019-09-01T10:25:02.000Z</time>
      </trkpt>
      <trkpt lat="47.27364" lon="-2.35866">
        <ele>-17.60000038147</ele>
        <time>2019-09-01T10:25:09.000Z</time>
      </trkpt>
      <trkpt lat="47.27337" lon="-2.35799">
        <ele>-17.60000038147</ele>
        <time>2019-09-01T10:25:17.000Z</time>
      </trkpt>
      <trkpt lat="47.27322" lon="-2.35755">
        <ele>-17.60000038147</ele>
        <time>2019-09-01T10:25:22.000Z</time>
      </trkpt>
      <trkpt lat="47.2731" lon="-2.35735">
        <ele>-17.60000038147</ele>
        <time>2019-09-01T10:25:25.000Z</time>
      </trkpt>
      <trkpt lat="47.27307" lon="-2.35727">
        <ele>-17.60000038147</ele>
        <time>2019-09-01T10:25:26.000Z</time>
      </trkpt>
      <trkpt lat="47.27296" lon="-2.35697">
        <ele>-17.60000038147</ele>
        <time>2019-09-01T10:25:30.000Z</time>
      </trkpt>
      <trkpt lat="47.27292" lon="-2.3569">
        <ele>-17.60000038147</ele>
        <time>2019-09-01T10:25:31.000Z</time>
      </trkpt>
      <trkpt lat="47.27275" lon="-2.35653">
        <ele>-17.60000038147</ele>
        <time>2019-09-01T10:25:36.000Z</time>
      </trkpt>
      <trkpt lat="47.27245" lon="-2.35588">
        <ele>-17.60000038147</ele>
        <time>2019-09-01T10:25:44.000Z</time>
      </trkpt>
      <trkpt lat="47.27216" lon="-2.35524">
        <ele>-17.60000038147</ele>
        <time>2019-09-01T10:25:52.000Z</time>
      </trkpt>
      <trkpt lat="47.27184" lon="-2.35459">
        <ele>-17.60000038147</ele>
        <time>2019-09-01T10:26:00.000Z</time>
      </trkpt>
      <trkpt lat="47.27151" lon="-2.35393">
        <ele>-17.60000038147</ele>
        <time>2019-09-01T10:26:08.000Z</time>
      </trkpt>
      <trkpt lat="47.27147" lon="-2.35385">
        <ele>-17.60000038147</ele>
        <time>2019-09-01T10:26:09.000Z</time>
      </trkpt>
      <trkpt lat="47.27109" lon="-2.35322">
        <ele>-17.60000038147</ele>
        <time>2019-09-01T10:26:17.000Z</time>
      </trkpt>
      <trkpt lat="47.27074" lon="-2.35267">
        <ele>-17.60000038147</ele>
        <time>2019-09-01T10:26:24.000Z</time>
      </trkpt>
      <trkpt lat="47.27032" lon="-2.35203">
        <ele>-17.60000038147</ele>
        <time>2019-09-01T10:26:32.000Z</time>
      </trkpt>
      <trkpt lat="47.26991" lon="-2.35141">
        <ele>-17.60000038147</ele>
        <time>2019-09-01T10:26:40.000Z</time>
      </trkpt>
      <trkpt lat="47.26981" lon="-2.35126">
        <ele>-17.60000038147</ele>
        <time>2019-09-01T10:26:42.000Z</time>
      </trkpt>
      <trkpt lat="47.26945" lon="-2.35073">
        <ele>-17.60000038147</ele>
        <time>2019-09-01T10:26:49.000Z</time>
      </trkpt>
      <trkpt lat="47.26914" lon="-2.35026">
        <ele>-17.60000038147</ele>
        <time>2019-09-01T10:26:55.000Z</time>
      </trkpt>
      <trkpt lat="47.26878" lon="-2.34972">
        <ele>-17.60000038147</ele>
        <time>2019-09-01T10:27:02.000Z</time>
      </trkpt>
      <trkpt lat="47.26842" lon="-2.34919">
        <ele>-17.60000038147</ele>
        <time>2019-09-01T10:27:09.000Z</time>
      </trkpt>
      <trkpt lat="47.26801" lon="-2.3486">
        <ele>-17.60000038147</ele>
        <time>2019-09-01T10:27:17.000Z</time>
      </trkpt>
      <trkpt lat="47.26764" lon="-2.34809">
        <ele>-17.60000038147</ele>
        <time>2019-09-01T10:27:24.000Z</time>
      </trkpt>
      <trkpt lat="47.26734" lon="-2.3477">
        <ele>-17.60000038147</ele>
        <time>2019-09-01T10:27:30.000Z</time>
      </trkpt>
      <trkpt lat="47.26699" lon="-2.34726">
        <ele>-17.60000038147</ele>
        <time>2019-09-01T10:27:37.000Z</time>
      </trkpt>
      <trkpt lat="47.26659" lon="-2.34677">
        <ele>-17.60000038147</ele>
        <time>2019-09-01T10:27:45.000Z</time>
      </trkpt>
      <trkpt lat="47.26619" lon="-2.34627">
        <ele>-17.60000038147</ele>
        <time>2019-09-01T10:27:53.000Z</time>
      </trkpt>
      <trkpt lat="47.26579" lon="-2.34579">
        <ele>-17.60000038147</ele>
        <time>2019-09-01T10:28:01.000Z</time>
      </trkpt>
      <trkpt lat="47.26532" lon="-2.34531">
        <ele>-17.60000038147</ele>
        <time>2019-09-01T10:28:10.000Z</time>
      </trkpt>
      <trkpt lat="47.26526" lon="-2.34527">
        <ele>-17.60000038147</ele>
        <time>2019-09-01T10:28:11.000Z</time>
      </trkpt>
      <trkpt lat="47.26491" lon="-2.34502">
        <ele>-17.60000038147</ele>
        <time>2019-09-01T10:28:17.000Z</time>
      </trkpt>
      <trkpt lat="47.26438" lon="-2.34463">
        <ele>-17.60000038147</ele>
        <time>2019-09-01T10:28:26.000Z</time>
      </trkpt>
      <trkpt lat="47.26389" lon="-2.34425">
        <ele>-17.60000038147</ele>
        <time>2019-09-01T10:28:34.000Z</time>
      </trkpt>
      <trkpt lat="47.2635" lon="-2.34387">
        <ele>-17.60000038147</ele>
        <time>2019-09-01T10:28:41.000Z</time>
      </trkpt>
      <trkpt lat="47.26345" lon="-2.34383">
        <ele>-17.60000038147</ele>
        <time>2019-09-01T10:28:42.000Z</time>
      </trkpt>
      <trkpt lat="47.26326" lon="-2.34376">
        <ele>-17.60000038147</ele>
        <time>2019-09-01T10:28:45.000Z</time>
      </trkpt>
      <trkpt lat="47.26313" lon="-2.34357">
        <ele>-17.60000038147</ele>
        <time>2019-09-01T10:28:48.000Z</time>
      </trkpt>
      <trkpt lat="47.26303" lon="-2.34344">
        <ele>-17.60000038147</ele>
        <time>2019-09-01T10:28:50.000Z</time>
      </trkpt>
      <trkpt lat="47.26292" lon="-2.34332">
        <ele>-17.60000038147</ele>
        <time>2019-09-01T10:28:52.000Z</time>
      </trkpt>
      <trkpt lat="47.26247" lon="-2.34287">
        <ele>-17.60000038147</ele>
        <time>2019-09-01T10:29:00.000Z</time>
      </trkpt>
      <trkpt lat="47.26202" lon="-2.34241">
        <ele>-17.60000038147</ele>
        <time>2019-09-01T10:29:08.000Z</time>
      </trkpt>
      <trkpt lat="47.26197" lon="-2.34235">
        <ele>-17.60000038147</ele>
        <time>2019-09-01T10:29:09.000Z</time>
      </trkpt>
      <trkpt lat="47.26159" lon="-2.34198">
        <ele>-17.60000038147</ele>
        <time>2019-09-01T10:29:16.000Z</time>
      </trkpt>
      <trkpt lat="47.26143" lon="-2.34186">
        <ele>-17.60000038147</ele>
        <time>2019-09-01T10:29:19.000Z</time>
      </trkpt>
      <trkpt lat="47.26138" lon="-2.34184">
        <ele>-17.60000038147</ele>
        <time>2019-09-01T10:29:20.000Z</time>
      </trkpt>
      <trkpt lat="47.26132" lon="-2.34181">
        <ele>-17.60000038147</ele>
        <time>2019-09-01T10:29:21.000Z</time>
      </trkpt>
      <trkpt lat="47.26123" lon="-2.3417">
        <ele>-17.60000038147</ele>
        <time>2019-09-01T10:29:23.000Z</time>
      </trkpt>
      <trkpt lat="47.26119" lon="-2.34165">
        <ele>-17.60000038147</ele>
        <time>2019-09-01T10:29:24.000Z</time>
      </trkpt>
      <trkpt lat="47.26102" lon="-2.34154">
        <ele>-17.60000038147</ele>
        <time>2019-09-01T10:29:27.000Z</time>
      </trkpt>
      <trkpt lat="47.26058" lon="-2.34132">
        <ele>-17.60000038147</ele>
        <time>2019-09-01T10:29:34.000Z</time>
      </trkpt>
      <trkpt lat="47.26026" lon="-2.34116">
        <ele>-18.200000762939</ele>
        <time>2019-09-01T10:29:39.000Z</time>
      </trkpt>
      <trkpt lat="47.2602" lon="-2.34113">
        <ele>-18.60000038147</ele>
        <time>2019-09-01T10:29:40.000Z</time>
      </trkpt>
      <trkpt lat="47.26014" lon="-2.3411">
        <ele>-19</ele>
        <time>2019-09-01T10:29:41.000Z</time>
      </trkpt>
      <trkpt lat="47.26007" lon="-2.34107">
        <ele>-19.39999961853</ele>
        <time>2019-09-01T10:29:42.000Z</time>
      </trkpt>
      <trkpt lat="47.26001" lon="-2.34104">
        <ele>-19.799999237061</ele>
        <time>2019-09-01T10:29:43.000Z</time>
      </trkpt>
      <trkpt lat="47.25972" lon="-2.3409">
        <ele>-19.799999237061</ele>
        <time>2019-09-01T10:29:48.000Z</time>
      </trkpt>
      <trkpt lat="47.25944" lon="-2.34078">
        <ele>-19.799999237061</ele>
        <time>2019-09-01T10:29:54.000Z</time>
      </trkpt>
      <trkpt lat="47.2593" lon="-2.34073">
        <ele>-19.799999237061</ele>
        <time>2019-09-01T10:29:57.000Z</time>
      </trkpt>
      <trkpt lat="47.25915" lon="-2.34077">
        <ele>-19.799999237061</ele>
        <time>2019-09-01T10:30:00.000Z</time>
      </trkpt>
      <trkpt lat="47.25903" lon="-2.34092">
        <ele>-19.799999237061</ele>
        <time>2019-09-01T10:30:03.000Z</time>
      </trkpt>
      <trkpt lat="47.259" lon="-2.34098">
        <ele>-19.799999237061</ele>
        <time>2019-09-01T10:30:04.000Z</time>
      </trkpt>
      <trkpt lat="47.25893" lon="-2.3411">
        <ele>-19.799999237061</ele>
        <time>2019-09-01T10:30:06.000Z</time>
      </trkpt>
      <trkpt lat="47.2589" lon="-2.34117">
        <ele>-20.200000762939</ele>
        <time>2019-09-01T10:30:07.000Z</time>
      </trkpt>
      <trkpt lat="47.25888" lon="-2.34124">
        <ele>-20.60000038147</ele>
        <time>2019-09-01T10:30:08.000Z</time>
      </trkpt>
      <trkpt lat="47.25885" lon="-2.34131">
        <ele>-21</ele>
        <time>2019-09-01T10:30:09.000Z</time>
      </trkpt>
      <trkpt lat="47.25883" lon="-2.34139">
        <ele>-21.39999961853</ele>
        <time>2019-09-01T10:30:10.000Z</time>
      </trkpt>
      <trkpt lat="47.25881" lon="-2.34146">
        <ele>-21.799999237061</ele>
        <time>2019-09-01T10:30:11.000Z</time>
      </trkpt>
      <trkpt lat="47.25878" lon="-2.34159">
        <ele>-21.799999237061</ele>
        <time>2019-09-01T10:30:13.000Z</time>
      </trkpt>
      <trkpt lat="47.25875" lon="-2.34163">
        <ele>-21.799999237061</ele>
        <time>2019-09-01T10:30:14.000Z</time>
      </trkpt>
      <trkpt lat="47.25864" lon="-2.34163">
        <ele>-21.799999237061</ele>
        <time>2019-09-01T10:30:17.000Z</time>
      </trkpt>
      <trkpt lat="47.25846" lon="-2.34154">
        <ele>-21.799999237061</ele>
        <time>2019-09-01T10:30:23.000Z</time>
      </trkpt>
      <trkpt lat="47.25838" lon="-2.34154">
        <ele>-21.799999237061</ele>
        <time>2019-09-01T10:30:26.000Z</time>
      </trkpt>
      <trkpt lat="47.25836" lon="-2.34159">
        <ele>-21.799999237061</ele>
        <time>2019-09-01T10:30:27.000Z</time>
      </trkpt>
      <trkpt lat="47.25827" lon="-2.34174">
        <ele>-21.799999237061</ele>
        <time>2019-09-01T10:30:31.000Z</time>
      </trkpt>
      <trkpt lat="47.25817" lon="-2.34174">
        <ele>-21.39999961853</ele>
        <time>2019-09-01T10:30:33.000Z</time>
      </trkpt>
      <trkpt lat="47.25812" lon="-2.34174">
        <ele>-21</ele>
        <time>2019-09-01T10:30:34.000Z</time>
      </trkpt>
      <trkpt lat="47.25807" lon="-2.34174">
        <ele>-20.60000038147</ele>
        <time>2019-09-01T10:30:35.000Z</time>
      </trkpt>
      <trkpt lat="47.25803" lon="-2.34174">
        <ele>-20.200000762939</ele>
        <time>2019-09-01T10:30:36.000Z</time>
      </trkpt>
      <trkpt lat="47.25798" lon="-2.34174">
        <ele>-19.60000038147</ele>
        <time>2019-09-01T10:30:37.000Z</time>
      </trkpt>
      <trkpt lat="47.25774" lon="-2.34176">
        <ele>-19.60000038147</ele>
        <time>2019-09-01T10:30:42.000Z</time>
      </trkpt>
      <trkpt lat="47.2575" lon="-2.34181">
        <ele>-19.60000038147</ele>
        <time>2019-09-01T10:30:46.000Z</time>
      </trkpt>
      <trkpt lat="47.25744" lon="-2.34183">
        <ele>-19.60000038147</ele>
        <time>2019-09-01T10:30:47.000Z</time>
      </trkpt>
      <trkpt lat="47.25712" lon="-2.34188">
        <ele>-19.60000038147</ele>
        <time>2019-09-01T10:30:53.000Z</time>
      </trkpt>
      <trkpt lat="47.2569" lon="-2.34188">
        <ele>-19.60000038147</ele>
        <time>2019-09-01T10:30:59.000Z</time>
      </trkpt>
      <trkpt lat="47.25673" lon="-2.34184">
        <ele>-19.60000038147</ele>
        <time>2019-09-01T10:31:04.000Z</time>
      </trkpt>
      <trkpt lat="47.25669" lon="-2.34181">
        <ele>-19.60000038147</ele>
        <time>2019-09-01T10:31:05.000Z</time>
      </trkpt>
      <trkpt lat="47.25661" lon="-2.34166">
        <ele>-19.60000038147</ele>
        <time>2019-09-01T10:31:08.000Z</time>
      </trkpt>
      <trkpt lat="47.25653" lon="-2.3415">
        <ele>-19.60000038147</ele>
        <time>2019-09-01T10:31:11.000Z</time>
      </trkpt>
      <trkpt lat="47.25647" lon="-2.34131">
        <ele>-19.60000038147</ele>
        <time>2019-09-01T10:31:14.000Z</time>
      </trkpt>
      <trkpt lat="47.25642" lon="-2.341">
        <ele>-19.60000038147</ele>
        <time>2019-09-01T10:31:19.000Z</time>
      </trkpt>
      <trkpt lat="47.25641" lon="-2.34094">
        <ele>-19.60000038147</ele>
        <time>2019-09-01T10:31:20.000Z</time>
      </trkpt>
      <trkpt lat="47.25643" lon="-2.34068">
        <ele>-19.60000038147</ele>
        <time>2019-09-01T10:31:24.000Z</time>
      </trkpt>
      <trkpt lat="47.25645" lon="-2.34053">
        <ele>-19.60000038147</ele>
        <time>2019-09-01T10:31:26.000Z</time>
      </trkpt>
      <trkpt lat="47.25654" lon="-2.34008">
        <ele>-19.60000038147</ele>
        <time>2019-09-01T10:31:32.000Z</time>
      </trkpt>
      <trkpt lat="47.25659" lon="-2.3398">
        <ele>-19.60000038147</ele>
        <time>2019-09-01T10:31:36.000Z</time>
      </trkpt>
      <trkpt lat="47.25661" lon="-2.33966">
        <ele>-19.60000038147</ele>
        <time>2019-09-01T10:31:38.000Z</time>
      </trkpt>
      <trkpt lat="47.25663" lon="-2.33951">
        <ele>-19.60000038147</ele>
        <time>2019-09-01T10:31:40.000Z</time>
      </trkpt>
      <trkpt lat="47.25661" lon="-2.33935">
        <ele>-19.60000038147</ele>
        <time>2019-09-01T10:31:42.000Z</time>
      </trkpt>
      <trkpt lat="47.25651" lon="-2.3388">
        <ele>-19.60000038147</ele>
        <time>2019-09-01T10:31:49.000Z</time>
      </trkpt>
      <trkpt lat="47.25641" lon="-2.33825">
        <ele>-19.60000038147</ele>
        <time>2019-09-01T10:31:56.000Z</time>
      </trkpt>
      <trkpt lat="47.25634" lon="-2.33794">
        <ele>-19.60000038147</ele>
        <time>2019-09-01T10:32:00.000Z</time>
      </trkpt>
      <trkpt lat="47.25627" lon="-2.33776">
        <ele>-19.60000038147</ele>
        <time>2019-09-01T10:32:03.000Z</time>
      </trkpt>
      <trkpt lat="47.2562" lon="-2.33766">
        <ele>-19.60000038147</ele>
        <time>2019-09-01T10:32:05.000Z</time>
      </trkpt>
      <trkpt lat="47.256" lon="-2.33761">
        <ele>-19.200000762939</ele>
        <time>2019-09-01T10:32:09.000Z</time>
      </trkpt>
      <trkpt lat="47.25594" lon="-2.3376">
        <ele>-18.799999237061</ele>
        <time>2019-09-01T10:32:10.000Z</time>
      </trkpt>
      <trkpt lat="47.25588" lon="-2.3376">
        <ele>-18.39999961853</ele>
        <time>2019-09-01T10:32:11.000Z</time>
      </trkpt>
      <trkpt lat="47.25582" lon="-2.3376">
        <ele>-18</ele>
        <time>2019-09-01T10:32:12.000Z</time>
      </trkpt>
      <trkpt lat="47.25576" lon="-2.33761">
        <ele>-17.60000038147</ele>
        <time>2019-09-01T10:32:13.000Z</time>
      </trkpt>
      <trkpt lat="47.25569" lon="-2.3376">
        <ele>-17.60000038147</ele>
        <time>2019-09-01T10:32:14.000Z</time>
      </trkpt>
      <trkpt lat="47.2553" lon="-2.33761">
        <ele>-17.60000038147</ele>
        <time>2019-09-01T10:32:20.000Z</time>
      </trkpt>
      <trkpt lat="47.25483" lon="-2.33757">
        <ele>-17.60000038147</ele>
        <time>2019-09-01T10:32:27.000Z</time>
      </trkpt>
      <trkpt lat="47.25469" lon="-2.33752">
        <ele>-17.60000038147</ele>
        <time>2019-09-01T10:32:29.000Z</time>
      </trkpt>
      <trkpt lat="47.25459" lon="-2.33744">
        <ele>-17.60000038147</ele>
        <time>2019-09-01T10:32:31.000Z</time>
      </trkpt>
      <trkpt lat="47.25452" lon="-2.33719">
        <ele>-17.60000038147</ele>
        <time>2019-09-01T10:32:34.000Z</time>
      </trkpt>
      <trkpt lat="47.2545" lon="-2.3371">
        <ele>-17.60000038147</ele>
        <time>2019-09-01T10:32:35.000Z</time>
      </trkpt>
      <trkpt lat="47.25446" lon="-2.33663">
        <ele>-17.60000038147</ele>
        <time>2019-09-01T10:32:40.000Z</time>
      </trkpt>
      <trkpt lat="47.25441" lon="-2.3363">
        <ele>-17.60000038147</ele>
        <time>2019-09-01T10:32:44.000Z</time>
      </trkpt>
      <trkpt lat="47.25441" lon="-2.33622">
        <ele>-17.60000038147</ele>
        <time>2019-09-01T10:32:45.000Z</time>
      </trkpt>
      <trkpt lat="47.25441" lon="-2.33601">
        <ele>-17.60000038147</ele>
        <time>2019-09-01T10:32:48.000Z</time>
      </trkpt>
      <trkpt lat="47.25441" lon="-2.33589">
        <ele>-17.60000038147</ele>
        <time>2019-09-01T10:32:50.000Z</time>
      </trkpt>
      <trkpt lat="47.25442" lon="-2.33585">
        <ele>-17.60000038147</ele>
        <time>2019-09-01T10:32:51.000Z</time>
      </trkpt>
      <trkpt lat="47.25445" lon="-2.3358">
        <ele>-18</ele>
        <time>2019-09-01T10:32:53.000Z</time>
      </trkpt>
      <trkpt lat="47.25449" lon="-2.33579">
        <ele>-18.39999961853</ele>
        <time>2019-09-01T10:32:54.000Z</time>
      </trkpt>
      <trkpt lat="47.25452" lon="-2.33577">
        <ele>-18.799999237061</ele>
        <time>2019-09-01T10:32:55.000Z</time>
      </trkpt>
      <trkpt lat="47.25454" lon="-2.33574">
        <ele>-19.200000762939</ele>
        <time>2019-09-01T10:32:56.000Z</time>
      </trkpt>
      <trkpt lat="47.25455" lon="-2.3357">
        <ele>-19.60000038147</ele>
        <time>2019-09-01T10:32:57.000Z</time>
      </trkpt>
      <trkpt lat="47.25453" lon="-2.3356">
        <ele>-19.60000038147</ele>
        <time>2019-09-01T10:32:59.000Z</time>
      </trkpt>
      <trkpt lat="47.25451" lon="-2.33543">
        <ele>-19.60000038147</ele>
        <time>2019-09-01T10:33:02.000Z</time>
      </trkpt>
      <trkpt lat="47.25448" lon="-2.33525">
        <ele>-19.60000038147</ele>
        <time>2019-09-01T10:33:05.000Z</time>
      </trkpt>
      <trkpt lat="47.2544" lon="-2.33485">
        <ele>-19.60000038147</ele>
        <time>2019-09-01T10:33:11.000Z</time>
      </trkpt>
      <trkpt lat="47.25433" lon="-2.33463">
        <ele>-19.60000038147</ele>
        <time>2019-09-01T10:33:15.000Z</time>
      </trkpt>
      <trkpt lat="47.25431" lon="-2.33443">
        <ele>-19.60000038147</ele>
        <time>2019-09-01T10:33:18.000Z</time>
      </trkpt>
      <trkpt lat="47.25431" lon="-2.33428">
        <ele>-19.60000038147</ele>
        <time>2019-09-01T10:33:20.000Z</time>
      </trkpt>
      <trkpt lat="47.25431" lon="-2.33396">
        <ele>-19.200000762939</ele>
        <time>2019-09-01T10:33:24.000Z</time>
      </trkpt>
      <trkpt lat="47.25431" lon="-2.33389">
        <ele>-18.799999237061</ele>
        <time>2019-09-01T10:33:25.000Z</time>
      </trkpt>
      <trkpt lat="47.25431" lon="-2.3338">
        <ele>-18.39999961853</ele>
        <time>2019-09-01T10:33:26.000Z</time>
      </trkpt>
      <trkpt lat="47.25431" lon="-2.33372">
        <ele>-17.799999237061</ele>
        <time>2019-09-01T10:33:27.000Z</time>
      </trkpt>
      <trkpt lat="47.25431" lon="-2.33365">
        <ele>-17.39999961853</ele>
        <time>2019-09-01T10:33:28.000Z</time>
      </trkpt>
      <trkpt lat="47.25432" lon="-2.33349">
        <ele>-17.39999961853</ele>
        <time>2019-09-01T10:33:30.000Z</time>
      </trkpt>
      <trkpt lat="47.25436" lon="-2.33335">
        <ele>-17.39999961853</ele>
        <time>2019-09-01T10:33:32.000Z</time>
      </trkpt>
      <trkpt lat="47.25444" lon="-2.33315">
        <ele>-17.39999961853</ele>
        <time>2019-09-01T10:33:35.000Z</time>
      </trkpt>
      <trkpt lat="47.25446" lon="-2.33308">
        <ele>-17.39999961853</ele>
        <time>2019-09-01T10:33:36.000Z</time>
      </trkpt>
      <trkpt lat="47.25449" lon="-2.33292">
        <ele>-17.39999961853</ele>
        <time>2019-09-01T10:33:38.000Z</time>
      </trkpt>
      <trkpt lat="47.25445" lon="-2.3327">
        <ele>-17.39999961853</ele>
        <time>2019-09-01T10:33:41.000Z</time>
      </trkpt>
      <trkpt lat="47.2544" lon="-2.33256">
        <ele>-17.39999961853</ele>
        <time>2019-09-01T10:33:43.000Z</time>
      </trkpt>
      <trkpt lat="47.25431" lon="-2.33236">
        <ele>-17.39999961853</ele>
        <time>2019-09-01T10:33:46.000Z</time>
      </trkpt>
      <trkpt lat="47.25428" lon="-2.3323">
        <ele>-17.39999961853</ele>
        <time>2019-09-01T10:33:47.000Z</time>
      </trkpt>
      <trkpt lat="47.25407" lon="-2.33184">
        <ele>-17.39999961853</ele>
        <time>2019-09-01T10:33:54.000Z</time>
      </trkpt>
      <trkpt lat="47.25391" lon="-2.33148">
        <ele>-17.39999961853</ele>
        <time>2019-09-01T10:34:00.000Z</time>
      </trkpt>
      <trkpt lat="47.25377" lon="-2.33122">
        <ele>-17.39999961853</ele>
        <time>2019-09-01T10:34:06.000Z</time>
      </trkpt>
      <trkpt lat="47.25375" lon="-2.33121">
        <ele>-17.39999961853</ele>
        <time>2019-09-01T10:34:09.000Z</time>
      </trkpt>
      <trkpt lat="47.25372" lon="-2.33109">
        <ele>-17.39999961853</ele>
        <time>2019-09-01T10:47:02.000Z</time>
      </trkpt>
      <trkpt lat="47.25369" lon="-2.331">
        <ele>-17.39999961853</ele>
        <time>2019-09-01T10:47:05.000Z</time>
      </trkpt>
      <trkpt lat="47.2536" lon="-2.33076">
        <ele>-17.39999961853</ele>
        <time>2019-09-01T10:47:11.000Z</time>
      </trkpt>
      <trkpt lat="47.25348" lon="-2.33043">
        <ele>-17.39999961853</ele>
        <time>2019-09-01T10:47:18.000Z</time>
      </trkpt>
      <trkpt lat="47.25333" lon="-2.33006">
        <ele>-17.39999961853</ele>
        <time>2019-09-01T10:47:25.000Z</time>
      </trkpt>
      <trkpt lat="47.25317" lon="-2.32965">
        <ele>-17.39999961853</ele>
        <time>2019-09-01T10:47:33.000Z</time>
      </trkpt>
      <trkpt lat="47.2531" lon="-2.32949">
        <ele>-17</ele>
        <time>2019-09-01T10:47:36.000Z</time>
      </trkpt>
      <trkpt lat="47.25309" lon="-2.32944">
        <ele>-16.200000762939</ele>
        <time>2019-09-01T10:47:37.000Z</time>
      </trkpt>
      <trkpt lat="47.25307" lon="-2.32939">
        <ele>-15.800000190735</ele>
        <time>2019-09-01T10:47:38.000Z</time>
      </trkpt>
      <trkpt lat="47.25307" lon="-2.32933">
        <ele>-15.39999961853</ele>
        <time>2019-09-01T10:47:39.000Z</time>
      </trkpt>
      <trkpt lat="47.25308" lon="-2.32927">
        <ele>-15.39999961853</ele>
        <time>2019-09-01T10:47:40.000Z</time>
      </trkpt>
      <trkpt lat="47.25316" lon="-2.32913">
        <ele>-15.39999961853</ele>
        <time>2019-09-01T10:47:43.000Z</time>
      </trkpt>
      <trkpt lat="47.25324" lon="-2.32906">
        <ele>-15.39999961853</ele>
        <time>2019-09-01T10:47:45.000Z</time>
      </trkpt>
      <trkpt lat="47.25327" lon="-2.32901">
        <ele>-15.39999961853</ele>
        <time>2019-09-01T10:47:46.000Z</time>
      </trkpt>
      <trkpt lat="47.25335" lon="-2.32893">
        <ele>-15.39999961853</ele>
        <time>2019-09-01T10:47:48.000Z</time>
      </trkpt>
      <trkpt lat="47.25368" lon="-2.32863">
        <ele>-15.39999961853</ele>
        <time>2019-09-01T10:47:56.000Z</time>
      </trkpt>
      <trkpt lat="47.25371" lon="-2.32859">
        <ele>-15.39999961853</ele>
        <time>2019-09-01T10:47:57.000Z</time>
      </trkpt>
      <trkpt lat="47.25386" lon="-2.3284">
        <ele>-15.39999961853</ele>
        <time>2019-09-01T10:48:01.000Z</time>
      </trkpt>
      <trkpt lat="47.25415" lon="-2.32804">
        <ele>-15.39999961853</ele>
        <time>2019-09-01T10:48:09.000Z</time>
      </trkpt>
      <trkpt lat="47.25419" lon="-2.32799">
        <ele>-15.39999961853</ele>
        <time>2019-09-01T10:48:10.000Z</time>
      </trkpt>
      <trkpt lat="47.25426" lon="-2.32783">
        <ele>-15.39999961853</ele>
        <time>2019-09-01T10:48:13.000Z</time>
      </trkpt>
      <trkpt lat="47.25429" lon="-2.32772">
        <ele>-15.39999961853</ele>
        <time>2019-09-01T10:48:15.000Z</time>
      </trkpt>
      <trkpt lat="47.25432" lon="-2.32768">
        <ele>-15.39999961853</ele>
        <time>2019-09-01T10:48:16.000Z</time>
      </trkpt>
      <trkpt lat="47.25435" lon="-2.32764">
        <ele>-15</ele>
        <time>2019-09-01T10:48:17.000Z</time>
      </trkpt>
      <trkpt lat="47.25439" lon="-2.32759">
        <ele>-14.60000038147</ele>
        <time>2019-09-01T10:48:18.000Z</time>
      </trkpt>
      <trkpt lat="47.25443" lon="-2.32754">
        <ele>-14.199999809265</ele>
        <time>2019-09-01T10:48:19.000Z</time>
      </trkpt>
      <trkpt lat="47.25446" lon="-2.32749">
        <ele>-13.800000190735</ele>
        <time>2019-09-01T10:48:20.000Z</time>
      </trkpt>
      <trkpt lat="47.25449" lon="-2.32744">
        <ele>-13.39999961853</ele>
        <time>2019-09-01T10:48:21.000Z</time>
      </trkpt>
      <trkpt lat="47.25456" lon="-2.32735">
        <ele>-13.39999961853</ele>
        <time>2019-09-01T10:48:23.000Z</time>
      </trkpt>
      <trkpt lat="47.25481" lon="-2.32702">
        <ele>-13.39999961853</ele>
        <time>2019-09-01T10:48:30.000Z</time>
      </trkpt>
      <trkpt lat="47.25486" lon="-2.3269">
        <ele>-13.39999961853</ele>
        <time>2019-09-01T10:48:32.000Z</time>
      </trkpt>
      <trkpt lat="47.25487" lon="-2.32676">
        <ele>-13.39999961853</ele>
        <time>2019-09-01T10:48:34.000Z</time>
      </trkpt>
      <trkpt lat="47.25483" lon="-2.32634">
        <ele>-13.39999961853</ele>
        <time>2019-09-01T10:48:40.000Z</time>
      </trkpt>
      <trkpt lat="47.25482" lon="-2.32627">
        <ele>-13</ele>
        <time>2019-09-01T10:48:41.000Z</time>
      </trkpt>
      <trkpt lat="47.2548" lon="-2.3262">
        <ele>-12.60000038147</ele>
        <time>2019-09-01T10:48:42.000Z</time>
      </trkpt>
      <trkpt lat="47.25479" lon="-2.32613">
        <ele>-12.199999809265</ele>
        <time>2019-09-01T10:48:43.000Z</time>
      </trkpt>
      <trkpt lat="47.25478" lon="-2.32606">
        <ele>-11.60000038147</ele>
        <time>2019-09-01T10:48:44.000Z</time>
      </trkpt>
      <trkpt lat="47.25477" lon="-2.326">
        <ele>-11.199999809265</ele>
        <time>2019-09-01T10:48:45.000Z</time>
      </trkpt>
      <trkpt lat="47.25475" lon="-2.3258">
        <ele>-11.199999809265</ele>
        <time>2019-09-01T10:48:48.000Z</time>
      </trkpt>
      <trkpt lat="47.25475" lon="-2.32574">
        <ele>-11.199999809265</ele>
        <time>2019-09-01T10:48:49.000Z</time>
      </trkpt>
      <trkpt lat="47.25482" lon="-2.3256">
        <ele>-11.199999809265</ele>
        <time>2019-09-01T10:48:52.000Z</time>
      </trkpt>
      <trkpt lat="47.25498" lon="-2.32545">
        <ele>-11.199999809265</ele>
        <time>2019-09-01T10:48:56.000Z</time>
      </trkpt>
      <trkpt lat="47.25502" lon="-2.3254">
        <ele>-11.199999809265</ele>
        <time>2019-09-01T10:48:57.000Z</time>
      </trkpt>
      <trkpt lat="47.25519" lon="-2.32522">
        <ele>-11.199999809265</ele>
        <time>2019-09-01T10:49:01.000Z</time>
      </trkpt>
      <trkpt lat="47.25529" lon="-2.32514">
        <ele>-11.199999809265</ele>
        <time>2019-09-01T10:49:03.000Z</time>
      </trkpt>
      <trkpt lat="47.25559" lon="-2.32485">
        <ele>-11.199999809265</ele>
        <time>2019-09-01T10:49:09.000Z</time>
      </trkpt>
      <trkpt lat="47.25576" lon="-2.3247">
        <ele>-11.60000038147</ele>
        <time>2019-09-01T10:49:12.000Z</time>
      </trkpt>
      <trkpt lat="47.25581" lon="-2.32464">
        <ele>-12</ele>
        <time>2019-09-01T10:49:13.000Z</time>
      </trkpt>
      <trkpt lat="47.25586" lon="-2.32458">
        <ele>-12.39999961853</ele>
        <time>2019-09-01T10:49:14.000Z</time>
      </trkpt>
      <trkpt lat="47.25592" lon="-2.32452">
        <ele>-13.39999961853</ele>
        <time>2019-09-01T10:49:15.000Z</time>
      </trkpt>
      <trkpt lat="47.25597" lon="-2.32447">
        <ele>-13.39999961853</ele>
        <time>2019-09-01T10:49:16.000Z</time>
      </trkpt>
      <trkpt lat="47.25613" lon="-2.32429">
        <ele>-13.800000190735</ele>
        <time>2019-09-01T10:49:19.000Z</time>
      </trkpt>
      <trkpt lat="47.25618" lon="-2.32424">
        <ele>-14.199999809265</ele>
        <time>2019-09-01T10:49:20.000Z</time>
      </trkpt>
      <trkpt lat="47.25624" lon="-2.32418">
        <ele>-14.60000038147</ele>
        <time>2019-09-01T10:49:21.000Z</time>
      </trkpt>
      <trkpt lat="47.25629" lon="-2.32413">
        <ele>-15</ele>
        <time>2019-09-01T10:49:22.000Z</time>
      </trkpt>
      <trkpt lat="47.25635" lon="-2.32407">
        <ele>-15.60000038147</ele>
        <time>2019-09-01T10:49:23.000Z</time>
      </trkpt>
      <trkpt lat="47.2564" lon="-2.32403">
        <ele>-15.60000038147</ele>
        <time>2019-09-01T10:49:24.000Z</time>
      </trkpt>
      <trkpt lat="47.25646" lon="-2.32401">
        <ele>-16</ele>
        <time>2019-09-01T10:49:25.000Z</time>
      </trkpt>
      <trkpt lat="47.25649" lon="-2.32401">
        <ele>-16.39999961853</ele>
        <time>2019-09-01T10:49:26.000Z</time>
      </trkpt>
      <trkpt lat="47.2565" lon="-2.32401">
        <ele>-17</ele>
        <time>2019-09-01T10:49:27.000Z</time>
      </trkpt>
      <trkpt lat="47.25651" lon="-2.324">
        <ele>-17.39999961853</ele>
        <time>2019-09-01T10:49:28.000Z</time>
      </trkpt>
      <trkpt lat="47.25655" lon="-2.32402">
        <ele>-17.799999237061</ele>
        <time>2019-09-01T10:49:29.000Z</time>
      </trkpt>
      <trkpt lat="47.25658" lon="-2.32405">
        <ele>-18.200000762939</ele>
        <time>2019-09-01T10:49:30.000Z</time>
      </trkpt>
      <trkpt lat="47.25662" lon="-2.32408">
        <ele>-18.60000038147</ele>
        <time>2019-09-01T10:49:31.000Z</time>
      </trkpt>
      <trkpt lat="47.25665" lon="-2.3241">
        <ele>-19</ele>
        <time>2019-09-01T10:49:32.000Z</time>
      </trkpt>
      <trkpt lat="47.25669" lon="-2.32413">
        <ele>-19.39999961853</ele>
        <time>2019-09-01T10:49:33.000Z</time>
      </trkpt>
      <trkpt lat="47.25674" lon="-2.32415">
        <ele>-19.799999237061</ele>
        <time>2019-09-01T10:49:34.000Z</time>
      </trkpt>
      <trkpt lat="47.25679" lon="-2.32417">
        <ele>-19.799999237061</ele>
        <time>2019-09-01T10:49:35.000Z</time>
      </trkpt>
      <trkpt lat="47.2569" lon="-2.32418">
        <ele>-19.39999961853</ele>
        <time>2019-09-01T10:49:37.000Z</time>
      </trkpt>
      <trkpt lat="47.25695" lon="-2.32418">
        <ele>-19</ele>
        <time>2019-09-01T10:49:38.000Z</time>
      </trkpt>
      <trkpt lat="47.25701" lon="-2.32419">
        <ele>-18.200000762939</ele>
        <time>2019-09-01T10:49:39.000Z</time>
      </trkpt>
      <trkpt lat="47.25706" lon="-2.32419">
        <ele>-17.60000038147</ele>
        <time>2019-09-01T10:49:40.000Z</time>
      </trkpt>
      <trkpt lat="47.25734" lon="-2.32421">
        <ele>-18.200000762939</ele>
        <time>2019-09-01T10:49:45.000Z</time>
      </trkpt>
      <trkpt lat="47.25739" lon="-2.32421">
        <ele>-18.60000038147</ele>
        <time>2019-09-01T10:49:46.000Z</time>
      </trkpt>
      <trkpt lat="47.25744" lon="-2.32421">
        <ele>-19</ele>
        <time>2019-09-01T10:49:47.000Z</time>
      </trkpt>
      <trkpt lat="47.25749" lon="-2.32421">
        <ele>-19.39999961853</ele>
        <time>2019-09-01T10:49:48.000Z</time>
      </trkpt>
      <trkpt lat="47.25754" lon="-2.3242">
        <ele>-19.799999237061</ele>
        <time>2019-09-01T10:49:49.000Z</time>
      </trkpt>
      <trkpt lat="47.25764" lon="-2.32418">
        <ele>-19.799999237061</ele>
        <time>2019-09-01T10:49:51.000Z</time>
      </trkpt>
      <trkpt lat="47.25776" lon="-2.32414">
        <ele>-19.799999237061</ele>
        <time>2019-09-01T10:49:54.000Z</time>
      </trkpt>
      <trkpt lat="47.25781" lon="-2.32416">
        <ele>-19.799999237061</ele>
        <time>2019-09-01T10:49:55.000Z</time>
      </trkpt>
      <trkpt lat="47.25794" lon="-2.32435">
        <ele>-19.799999237061</ele>
        <time>2019-09-01T10:49:59.000Z</time>
      </trkpt>
      <trkpt lat="47.25798" lon="-2.32441">
        <ele>-19.799999237061</ele>
        <time>2019-09-01T10:50:00.000Z</time>
      </trkpt>
      <trkpt lat="47.25802" lon="-2.32446">
        <ele>-19.799999237061</ele>
        <time>2019-09-01T10:50:01.000Z</time>
      </trkpt>
      <trkpt lat="47.25813" lon="-2.32454">
        <ele>-19.799999237061</ele>
        <time>2019-09-01T10:50:03.000Z</time>
      </trkpt>
      <trkpt lat="47.25823" lon="-2.3246">
        <ele>-19.799999237061</ele>
        <time>2019-09-01T10:50:05.000Z</time>
      </trkpt>
      <trkpt lat="47.2585" lon="-2.32471">
        <ele>-19.799999237061</ele>
        <time>2019-09-01T10:50:10.000Z</time>
      </trkpt>
      <trkpt lat="47.25865" lon="-2.3247">
        <ele>-19.799999237061</ele>
        <time>2019-09-01T10:50:13.000Z</time>
      </trkpt>
      <trkpt lat="47.25875" lon="-2.32469">
        <ele>-19.799999237061</ele>
        <time>2019-09-01T10:50:15.000Z</time>
      </trkpt>
      <trkpt lat="47.2589" lon="-2.32463">
        <ele>-19.799999237061</ele>
        <time>2019-09-01T10:50:18.000Z</time>
      </trkpt>
      <trkpt lat="47.25899" lon="-2.32454">
        <ele>-19.799999237061</ele>
        <time>2019-09-01T10:50:20.000Z</time>
      </trkpt>
      <trkpt lat="47.25924" lon="-2.32425">
        <ele>-19.799999237061</ele>
        <time>2019-09-01T10:50:26.000Z</time>
      </trkpt>
      <trkpt lat="47.25928" lon="-2.3242">
        <ele>-19.799999237061</ele>
        <time>2019-09-01T10:50:27.000Z</time>
      </trkpt>
      <trkpt lat="47.25948" lon="-2.32393">
        <ele>-19.799999237061</ele>
        <time>2019-09-01T10:50:32.000Z</time>
      </trkpt>
      <trkpt lat="47.25977" lon="-2.32358">
        <ele>-19.799999237061</ele>
        <time>2019-09-01T10:50:39.000Z</time>
      </trkpt>
      <trkpt lat="47.26004" lon="-2.32322">
        <ele>-19.799999237061</ele>
        <time>2019-09-01T10:50:46.000Z</time>
      </trkpt>
      <trkpt lat="47.26031" lon="-2.32289">
        <ele>-19.799999237061</ele>
        <time>2019-09-01T10:50:53.000Z</time>
      </trkpt>
      <trkpt lat="47.26055" lon="-2.32261">
        <ele>-19.799999237061</ele>
        <time>2019-09-01T10:50:59.000Z</time>
      </trkpt>
      <trkpt lat="47.26063" lon="-2.32253">
        <ele>-19.799999237061</ele>
        <time>2019-09-01T10:51:01.000Z</time>
      </trkpt>
      <trkpt lat="47.26082" lon="-2.3223">
        <ele>-19.799999237061</ele>
        <time>2019-09-01T10:51:06.000Z</time>
      </trkpt>
      <trkpt lat="47.26098" lon="-2.32204">
        <ele>-19.799999237061</ele>
        <time>2019-09-01T10:51:11.000Z</time>
      </trkpt>
      <trkpt lat="47.26102" lon="-2.32198">
        <ele>-19.799999237061</ele>
        <time>2019-09-01T10:51:12.000Z</time>
      </trkpt>
      <trkpt lat="47.26114" lon="-2.32166">
        <ele>-19.799999237061</ele>
        <time>2019-09-01T10:51:17.000Z</time>
      </trkpt>
      <trkpt lat="47.26132" lon="-2.32119">
        <ele>-19.799999237061</ele>
        <time>2019-09-01T10:51:24.000Z</time>
      </trkpt>
      <trkpt lat="47.26145" lon="-2.32073">
        <ele>-19.799999237061</ele>
        <time>2019-09-01T10:51:31.000Z</time>
      </trkpt>
      <trkpt lat="47.26162" lon="-2.32032">
        <ele>-19.799999237061</ele>
        <time>2019-09-01T10:51:38.000Z</time>
      </trkpt>
      <trkpt lat="47.26168" lon="-2.32023">
        <ele>-19.799999237061</ele>
        <time>2019-09-01T10:51:40.000Z</time>
      </trkpt>
      <trkpt lat="47.26176" lon="-2.32021">
        <ele>-19.799999237061</ele>
        <time>2019-09-01T10:51:42.000Z</time>
      </trkpt>
      <trkpt lat="47.2619" lon="-2.32026">
        <ele>-20.200000762939</ele>
        <time>2019-09-01T10:51:46.000Z</time>
      </trkpt>
      <trkpt lat="47.26193" lon="-2.32026">
        <ele>-20.60000038147</ele>
        <time>2019-09-01T10:51:47.000Z</time>
      </trkpt>
      <trkpt lat="47.26195" lon="-2.32026">
        <ele>-21</ele>
        <time>2019-09-01T10:51:48.000Z</time>
      </trkpt>
      <trkpt lat="47.26196" lon="-2.32024">
        <ele>-21.39999961853</ele>
        <time>2019-09-01T10:51:49.000Z</time>
      </trkpt>
      <trkpt lat="47.26197" lon="-2.32021">
        <ele>-21.799999237061</ele>
        <time>2019-09-01T10:51:50.000Z</time>
      </trkpt>
      <trkpt lat="47.26201" lon="-2.32007">
        <ele>-21.799999237061</ele>
        <time>2019-09-01T10:51:54.000Z</time>
      </trkpt>
      <trkpt lat="47.26206" lon="-2.32001">
        <ele>-21.799999237061</ele>
        <time>2019-09-01T10:51:57.000Z</time>
      </trkpt>
      <trkpt lat="47.26211" lon="-2.31995">
        <ele>-21.799999237061</ele>
        <time>2019-09-01T10:51:59.000Z</time>
      </trkpt>
      <trkpt lat="47.26225" lon="-2.3198">
        <ele>-21.799999237061</ele>
        <time>2019-09-01T10:52:03.000Z</time>
      </trkpt>
      <trkpt lat="47.2623" lon="-2.31975">
        <ele>-21.799999237061</ele>
        <time>2019-09-01T10:52:04.000Z</time>
      </trkpt>
      <trkpt lat="47.26242" lon="-2.31963">
        <ele>-21.799999237061</ele>
        <time>2019-09-01T10:52:07.000Z</time>
      </trkpt>
      <trkpt lat="47.26246" lon="-2.31952">
        <ele>-21.799999237061</ele>
        <time>2019-09-01T10:52:09.000Z</time>
      </trkpt>
      <trkpt lat="47.26251" lon="-2.31944">
        <ele>-21.799999237061</ele>
        <time>2019-09-01T10:52:11.000Z</time>
      </trkpt>
      <trkpt lat="47.26257" lon="-2.31936">
        <ele>-21.799999237061</ele>
        <time>2019-09-01T10:52:13.000Z</time>
      </trkpt>
      <trkpt lat="47.26259" lon="-2.31932">
        <ele>-21.799999237061</ele>
        <time>2019-09-01T10:52:14.000Z</time>
      </trkpt>
      <trkpt lat="47.26275" lon="-2.3191">
        <ele>-21.799999237061</ele>
        <time>2019-09-01T10:52:19.000Z</time>
      </trkpt>
      <trkpt lat="47.26278" lon="-2.31907">
        <ele>-21.799999237061</ele>
        <time>2019-09-01T10:52:20.000Z</time>
      </trkpt>
      <trkpt lat="47.2629" lon="-2.31892">
        <ele>-21.799999237061</ele>
        <time>2019-09-01T10:52:24.000Z</time>
      </trkpt>
      <trkpt lat="47.26297" lon="-2.31858">
        <ele>-21.799999237061</ele>
        <time>2019-09-01T10:52:29.000Z</time>
      </trkpt>
      <trkpt lat="47.26302" lon="-2.31816">
        <ele>-21.799999237061</ele>
        <time>2019-09-01T10:52:35.000Z</time>
      </trkpt>
      <trkpt lat="47.26301" lon="-2.3177">
        <ele>-21.799999237061</ele>
        <time>2019-09-01T10:52:42.000Z</time>
      </trkpt>
      <trkpt lat="47.26299" lon="-2.3172">
        <ele>-21.799999237061</ele>
        <time>2019-09-01T10:52:49.000Z</time>
      </trkpt>
      <trkpt lat="47.26301" lon="-2.3171">
        <ele>-21.799999237061</ele>
        <time>2019-09-01T10:52:51.000Z</time>
      </trkpt>
      <trkpt lat="47.26303" lon="-2.31708">
        <ele>-21.39999961853</ele>
        <time>2019-09-01T10:52:52.000Z</time>
      </trkpt>
      <trkpt lat="47.26307" lon="-2.31707">
        <ele>-21</ele>
        <time>2019-09-01T10:52:53.000Z</time>
      </trkpt>
      <trkpt lat="47.26313" lon="-2.31706">
        <ele>-20.60000038147</ele>
        <time>2019-09-01T10:52:54.000Z</time>
      </trkpt>
      <trkpt lat="47.26319" lon="-2.31704">
        <ele>-20.200000762939</ele>
        <time>2019-09-01T10:52:55.000Z</time>
      </trkpt>
      <trkpt lat="47.26323" lon="-2.317">
        <ele>-19.799999237061</ele>
        <time>2019-09-01T10:52:56.000Z</time>
      </trkpt>
      <trkpt lat="47.26334" lon="-2.31688">
        <ele>-19.799999237061</ele>
        <time>2019-09-01T10:52:59.000Z</time>
      </trkpt>
      <trkpt lat="47.26345" lon="-2.31683">
        <ele>-19.39999961853</ele>
        <time>2019-09-01T10:53:02.000Z</time>
      </trkpt>
      <trkpt lat="47.26349" lon="-2.31681">
        <ele>-19</ele>
        <time>2019-09-01T10:53:03.000Z</time>
      </trkpt>
      <trkpt lat="47.26353" lon="-2.31679">
        <ele>-18.60000038147</ele>
        <time>2019-09-01T10:53:04.000Z</time>
      </trkpt>
      <trkpt lat="47.26356" lon="-2.31677">
        <ele>-18.200000762939</ele>
        <time>2019-09-01T10:53:05.000Z</time>
      </trkpt>
      <trkpt lat="47.2636" lon="-2.31676">
        <ele>-17.799999237061</ele>
        <time>2019-09-01T10:53:06.000Z</time>
      </trkpt>
      <trkpt lat="47.26372" lon="-2.31672">
        <ele>-17.799999237061</ele>
        <time>2019-09-01T10:53:09.000Z</time>
      </trkpt>
      <trkpt lat="47.2638" lon="-2.31668">
        <ele>-17.799999237061</ele>
        <time>2019-09-01T10:53:11.000Z</time>
      </trkpt>
      <trkpt lat="47.26393" lon="-2.31661">
        <ele>-17.799999237061</ele>
        <time>2019-09-01T10:53:15.000Z</time>
      </trkpt>
      <trkpt lat="47.26407" lon="-2.31653">
        <ele>-17.799999237061</ele>
        <time>2019-09-01T10:53:20.000Z</time>
      </trkpt>
      <trkpt lat="47.2641" lon="-2.31645">
        <ele>-17.799999237061</ele>
        <time>2019-09-01T10:53:22.000Z</time>
      </trkpt>
      <trkpt lat="47.2641" lon="-2.3164">
        <ele>-17.799999237061</ele>
        <time>2019-09-01T10:53:23.000Z</time>
      </trkpt>
      <trkpt lat="47.26409" lon="-2.31612">
        <ele>-17.39999961853</ele>
        <time>2019-09-01T10:53:29.000Z</time>
      </trkpt>
      <trkpt lat="47.26409" lon="-2.31607">
        <ele>-17</ele>
        <time>2019-09-01T10:53:30.000Z</time>
      </trkpt>
      <trkpt lat="47.26409" lon="-2.31602">
        <ele>-16.60000038147</ele>
        <time>2019-09-01T10:53:31.000Z</time>
      </trkpt>
      <trkpt lat="47.26409" lon="-2.31597">
        <ele>-16.200000762939</ele>
        <time>2019-09-01T10:53:32.000Z</time>
      </trkpt>
      <trkpt lat="47.2641" lon="-2.31592">
        <ele>-15.800000190735</ele>
        <time>2019-09-01T10:53:33.000Z</time>
      </trkpt>
      <trkpt lat="47.26411" lon="-2.31573">
        <ele>-15.800000190735</ele>
        <time>2019-09-01T10:53:37.000Z</time>
      </trkpt>
      <trkpt lat="47.26414" lon="-2.31553">
        <ele>-15.800000190735</ele>
        <time>2019-09-01T10:53:43.000Z</time>
      </trkpt>
      <trkpt lat="47.26418" lon="-2.31554">
        <ele>-15.800000190735</ele>
        <time>2019-09-01T10:53:46.000Z</time>
      </trkpt>
      <trkpt lat="47.26418" lon="-2.31554">
        <ele>-15.800000190735</ele>
        <time>2019-09-01T10:53:47.000Z</time>
      </trkpt>
    </trkseg>
  </trk>
</gpx>